<?xml version='1.0' encoding='UTF-8'?><gpx version="1.1" creator="JPX - https://github.com/jenetics/jpx" xmlns="http://www.topografix.com/GPX/1/1"><trk><trkseg><trkpt lat="32.2353041" lon="-111.0030034"><ele>711.0</ele><time>2026-04-14T16:02:32.112Z</time></trkpt><trkpt lat="32.2352673" lon="-111.0029389"><ele>711.0</ele><time>2026-04-14T16:02:34.113Z</time></trkpt><trkpt lat="32.2351908" lon="-111.0028658"><ele>711.0</ele><time>2026-04-14T16:02:36.112Z</time></trkpt><trkpt lat="32.2350691" lon="-111.0028449"><ele>711.0</ele><time>2026-04-14T16:02:38.11Z</time></trkpt><trkpt lat="32.2349727" lon="-111.0028682"><ele>711.0</ele><time>2026-04-14T16:02:40.108Z</time></trkpt><trkpt lat="32.2349189" lon="-111.0029593"><ele>711.0</ele><time>2026-04-14T16:02:42.118Z</time></trkpt><trkpt lat="32.2349152" lon="-111.0031186"><ele>711.0</ele><time>2026-04-14T16:02:44.112Z</time></trkpt><trkpt lat="32.2349185" lon="-111.0032016"><ele>711.0</ele><time>2026-04-14T16:02:45.108Z</time></trkpt><trkpt lat="32.2349166" lon="-111.0033344"><ele>711.0</ele><time>2026-04-14T16:02:47.112Z</time></trkpt><trkpt lat="32.2349075" lon="-111.0034301"><ele>711.0</ele><time>2026-04-14T16:02:49.114Z</time></trkpt><trkpt lat="32.2348964" lon="-111.003506"><ele>711.1666666666666</ele><time>2026-04-14T16:02:57.11Z</time></trkpt><trkpt lat="32.2349371" lon="-111.0036218"><ele>711.3333333333334</ele><time>2026-04-14T16:02:59.105Z</time></trkpt><trkpt lat="32.2349811" lon="-111.0036887"><ele>711.5</ele><time>2026-04-14T16:03:00.107Z</time></trkpt><trkpt lat="32.2350384" lon="-111.0037576"><ele>711.6666666666667</ele><time>2026-04-14T16:03:01.117Z</time></trkpt><trkpt lat="32.2351009" lon="-111.0038124"><ele>711.8333333333334</ele><time>2026-04-14T16:03:02.109Z</time></trkpt><trkpt lat="32.2351673" lon="-111.0038592"><ele>712.0</ele><time>2026-04-14T16:03:03.122Z</time></trkpt><trkpt lat="32.235232" lon="-111.0038998"><ele>711.9999999999999</ele><time>2026-04-14T16:03:04.105Z</time></trkpt><trkpt lat="32.2352919" lon="-111.0039366"><ele>712.0</ele><time>2026-04-14T16:03:05.106Z</time></trkpt><trkpt lat="32.2353775" lon="-111.0039898"><ele>712.0</ele><time>2026-04-14T16:03:07.108Z</time></trkpt><trkpt lat="32.2354397" lon="-111.0040298"><ele>712.0</ele><time>2026-04-14T16:03:42.104Z</time></trkpt><trkpt lat="32.2354977" lon="-111.0040712"><ele>712.0</ele><time>2026-04-14T16:03:49.107Z</time></trkpt><trkpt lat="32.2355602" lon="-111.004134"><ele>711.9999999999999</ele><time>2026-04-14T16:03:51.113Z</time></trkpt><trkpt lat="32.2355943" lon="-111.0041983"><ele>712.0</ele><time>2026-04-14T16:03:52.115Z</time></trkpt><trkpt lat="32.2356205" lon="-111.0042775"><ele>711.6</ele><time>2026-04-14T16:03:53.1Z</time></trkpt><trkpt lat="32.235641" lon="-111.0043771"><ele>711.2</ele><time>2026-04-14T16:03:54.116Z</time></trkpt><trkpt lat="32.2356479" lon="-111.0044905"><ele>710.8</ele><time>2026-04-14T16:03:55.109Z</time></trkpt><trkpt lat="32.2356472" lon="-111.0046237"><ele>710.4</ele><time>2026-04-14T16:03:56.116Z</time></trkpt><trkpt lat="32.2356446" lon="-111.0047682"><ele>710.0</ele><time>2026-04-14T16:03:57.106Z</time></trkpt><trkpt lat="32.2356426" lon="-111.004933"><ele>710.0</ele><time>2026-04-14T16:03:58.113Z</time></trkpt><trkpt lat="32.2356414" lon="-111.0051074"><ele>710.0</ele><time>2026-04-14T16:03:59.112Z</time></trkpt><trkpt lat="32.2356402" lon="-111.0052912"><ele>710.0</ele><time>2026-04-14T16:04:00.111Z</time></trkpt><trkpt lat="32.2356355" lon="-111.0054919"><ele>710.0</ele><time>2026-04-14T16:04:01.112Z</time></trkpt><trkpt lat="32.2356231" lon="-111.0057014"><ele>710.0</ele><time>2026-04-14T16:04:02.108Z</time></trkpt><trkpt lat="32.2356032" lon="-111.0059136"><ele>710.0</ele><time>2026-04-14T16:04:03.106Z</time></trkpt><trkpt lat="32.235574" lon="-111.0061313"><ele>710.6666666666666</ele><time>2026-04-14T16:04:04.111Z</time></trkpt><trkpt lat="32.2355374" lon="-111.0063487"><ele>711.3333333333334</ele><time>2026-04-14T16:04:05.113Z</time></trkpt><trkpt lat="32.2354946" lon="-111.0065617"><ele>712.0</ele><time>2026-04-14T16:04:06.112Z</time></trkpt><trkpt lat="32.2354475" lon="-111.006772"><ele>713.3333333333334</ele><time>2026-04-14T16:04:07.111Z</time></trkpt><trkpt lat="32.2353989" lon="-111.006981"><ele>714.6666666666666</ele><time>2026-04-14T16:04:08.11Z</time></trkpt><trkpt lat="32.2353514" lon="-111.0071908"><ele>716.0</ele><time>2026-04-14T16:04:09.114Z</time></trkpt><trkpt lat="32.235309" lon="-111.0074007"><ele>716.6666666666666</ele><time>2026-04-14T16:04:10.116Z</time></trkpt><trkpt lat="32.2352744" lon="-111.0076169"><ele>717.3333333333334</ele><time>2026-04-14T16:04:11.108Z</time></trkpt><trkpt lat="32.2352489" lon="-111.0078403"><ele>718.0</ele><time>2026-04-14T16:04:12.112Z</time></trkpt><trkpt lat="32.235232" lon="-111.0080657"><ele>718.0</ele><time>2026-04-14T16:04:13.11Z</time></trkpt><trkpt lat="32.235221" lon="-111.0082936"><ele>718.0</ele><time>2026-04-14T16:04:14.115Z</time></trkpt><trkpt lat="32.2352156" lon="-111.0085199"><ele>718.0</ele><time>2026-04-14T16:04:15.113Z</time></trkpt><trkpt lat="32.2352188" lon="-111.0087513"><ele>720.6666666666667</ele><time>2026-04-14T16:04:16.139Z</time></trkpt><trkpt lat="32.2352301" lon="-111.0089697"><ele>723.3333333333334</ele><time>2026-04-14T16:04:17.109Z</time></trkpt><trkpt lat="32.2352507" lon="-111.0091937"><ele>726.0</ele><time>2026-04-14T16:04:18.108Z</time></trkpt><trkpt lat="32.2352796" lon="-111.0094204"><ele>726.6666666666666</ele><time>2026-04-14T16:04:19.121Z</time></trkpt><trkpt lat="32.2353143" lon="-111.0096405"><ele>727.3333333333333</ele><time>2026-04-14T16:04:20.107Z</time></trkpt><trkpt lat="32.2353552" lon="-111.0098636"><ele>728.0</ele><time>2026-04-14T16:04:21.11Z</time></trkpt><trkpt lat="32.2354016" lon="-111.0100848"><ele>729.0</ele><time>2026-04-14T16:04:22.108Z</time></trkpt><trkpt lat="32.2354536" lon="-111.0103061"><ele>730.0</ele><time>2026-04-14T16:04:23.112Z</time></trkpt><trkpt lat="32.2355088" lon="-111.0105256"><ele>731.0</ele><time>2026-04-14T16:04:24.118Z</time></trkpt><trkpt lat="32.2355635" lon="-111.0107389"><ele>730.6666666666666</ele><time>2026-04-14T16:04:25.11Z</time></trkpt><trkpt lat="32.2356189" lon="-111.01096"><ele>730.3333333333334</ele><time>2026-04-14T16:04:26.14Z</time></trkpt><trkpt lat="32.2356717" lon="-111.0111687"><ele>730.0</ele><time>2026-04-14T16:04:27.11Z</time></trkpt><trkpt lat="32.2357264" lon="-111.0113836"><ele>729.6666666666667</ele><time>2026-04-14T16:04:28.11Z</time></trkpt><trkpt lat="32.2357796" lon="-111.0115983"><ele>729.3333333333334</ele><time>2026-04-14T16:04:29.118Z</time></trkpt><trkpt lat="32.2358266" lon="-111.0118106"><ele>729.0</ele><time>2026-04-14T16:04:30.108Z</time></trkpt><trkpt lat="32.2358671" lon="-111.0120299"><ele>729.6666666666666</ele><time>2026-04-14T16:04:31.112Z</time></trkpt><trkpt lat="32.2359006" lon="-111.0122513"><ele>730.3333333333333</ele><time>2026-04-14T16:04:32.11Z</time></trkpt><trkpt lat="32.2359258" lon="-111.0124749"><ele>731.0</ele><time>2026-04-14T16:04:33.107Z</time></trkpt><trkpt lat="32.2359441" lon="-111.0127035"><ele>731.0</ele><time>2026-04-14T16:04:34.12Z</time></trkpt><trkpt lat="32.2359549" lon="-111.0129303"><ele>731.0</ele><time>2026-04-14T16:04:35.115Z</time></trkpt><trkpt lat="32.2359586" lon="-111.013166"><ele>731.0</ele><time>2026-04-14T16:04:36.138Z</time></trkpt><trkpt lat="32.2359591" lon="-111.0133923"><ele>731.0</ele><time>2026-04-14T16:04:37.109Z</time></trkpt><trkpt lat="32.2359593" lon="-111.0136285"><ele>731.0</ele><time>2026-04-14T16:04:38.112Z</time></trkpt><trkpt lat="32.2359598" lon="-111.0138624"><ele>731.0</ele><time>2026-04-14T16:04:39.111Z</time></trkpt><trkpt lat="32.23596" lon="-111.0140963"><ele>730.3333333333333</ele><time>2026-04-14T16:04:40.119Z</time></trkpt><trkpt lat="32.2359581" lon="-111.0143282"><ele>729.6666666666666</ele><time>2026-04-14T16:04:41.108Z</time></trkpt><trkpt lat="32.2359601" lon="-111.0145688"><ele>729.0</ele><time>2026-04-14T16:04:42.145Z</time></trkpt><trkpt lat="32.2359594" lon="-111.0147908"><ele>728.6666666666666</ele><time>2026-04-14T16:04:43.108Z</time></trkpt><trkpt lat="32.2359588" lon="-111.0150216"><ele>728.3333333333333</ele><time>2026-04-14T16:04:44.114Z</time></trkpt><trkpt lat="32.2359582" lon="-111.0152511"><ele>728.0</ele><time>2026-04-14T16:04:45.115Z</time></trkpt><trkpt lat="32.235958" lon="-111.0154802"><ele>728.0</ele><time>2026-04-14T16:04:46.112Z</time></trkpt><trkpt lat="32.2359588" lon="-111.0157114"><ele>728.0</ele><time>2026-04-14T16:04:47.115Z</time></trkpt><trkpt lat="32.2359608" lon="-111.015941"><ele>728.0</ele><time>2026-04-14T16:04:48.115Z</time></trkpt><trkpt lat="32.2359615" lon="-111.0161689"><ele>728.0</ele><time>2026-04-14T16:04:49.112Z</time></trkpt><trkpt lat="32.2359608" lon="-111.0164053"><ele>728.0</ele><time>2026-04-14T16:04:50.147Z</time></trkpt><trkpt lat="32.2359598" lon="-111.0166209"><ele>728.0</ele><time>2026-04-14T16:04:51.115Z</time></trkpt><trkpt lat="32.2359592" lon="-111.0168473"><ele>729.0</ele><time>2026-04-14T16:04:52.115Z</time></trkpt><trkpt lat="32.235963" lon="-111.017081"><ele>730.0</ele><time>2026-04-14T16:04:53.108Z</time></trkpt><trkpt lat="32.2359626" lon="-111.0173064"><ele>731.0</ele><time>2026-04-14T16:04:54.11Z</time></trkpt><trkpt lat="32.2359639" lon="-111.0175282"><ele>733.0</ele><time>2026-04-14T16:04:55.108Z</time></trkpt><trkpt lat="32.2359633" lon="-111.0177472"><ele>735.0</ele><time>2026-04-14T16:04:56.107Z</time></trkpt><trkpt lat="32.2359627" lon="-111.0179731"><ele>737.0</ele><time>2026-04-14T16:04:57.111Z</time></trkpt><trkpt lat="32.2359633" lon="-111.0181892"><ele>739.3333333333333</ele><time>2026-04-14T16:04:58.11Z</time></trkpt><trkpt lat="32.2359636" lon="-111.0184045"><ele>741.6666666666666</ele><time>2026-04-14T16:04:59.112Z</time></trkpt><trkpt lat="32.2359642" lon="-111.01862"><ele>744.0</ele><time>2026-04-14T16:05:00.117Z</time></trkpt><trkpt lat="32.2359643" lon="-111.0188307"><ele>744.0</ele><time>2026-04-14T16:05:01.11Z</time></trkpt><trkpt lat="32.2359643" lon="-111.0190372"><ele>744.0</ele><time>2026-04-14T16:05:02.113Z</time></trkpt><trkpt lat="32.2359638" lon="-111.0192367"><ele>744.0</ele><time>2026-04-14T16:05:03.122Z</time></trkpt><trkpt lat="32.2359637" lon="-111.0194271"><ele>744.0</ele><time>2026-04-14T16:05:04.106Z</time></trkpt><trkpt lat="32.2359632" lon="-111.0196154"><ele>744.0</ele><time>2026-04-14T16:05:05.112Z</time></trkpt><trkpt lat="32.2359628" lon="-111.0197969"><ele>744.0</ele><time>2026-04-14T16:05:06.109Z</time></trkpt><trkpt lat="32.2359633" lon="-111.0199751"><ele>743.25</ele><time>2026-04-14T16:05:07.107Z</time></trkpt><trkpt lat="32.2359636" lon="-111.0201536"><ele>742.5</ele><time>2026-04-14T16:05:08.142Z</time></trkpt><trkpt lat="32.2359633" lon="-111.0203182"><ele>741.75</ele><time>2026-04-14T16:05:09.109Z</time></trkpt><trkpt lat="32.2359624" lon="-111.0204957"><ele>741.0</ele><time>2026-04-14T16:05:10.116Z</time></trkpt><trkpt lat="32.235962" lon="-111.0206753"><ele>739.6666666666666</ele><time>2026-04-14T16:05:11.103Z</time></trkpt><trkpt lat="32.2359616" lon="-111.0208644"><ele>738.3333333333333</ele><time>2026-04-14T16:05:12.116Z</time></trkpt><trkpt lat="32.2359616" lon="-111.0210546"><ele>737.0</ele><time>2026-04-14T16:05:13.114Z</time></trkpt><trkpt lat="32.235962" lon="-111.0212415"><ele>737.0</ele><time>2026-04-14T16:05:14.115Z</time></trkpt><trkpt lat="32.2359618" lon="-111.0214194"><ele>737.0</ele><time>2026-04-14T16:05:15.113Z</time></trkpt><trkpt lat="32.2359615" lon="-111.0215928"><ele>737.0</ele><time>2026-04-14T16:05:16.111Z</time></trkpt><trkpt lat="32.2359611" lon="-111.0217636"><ele>737.0</ele><time>2026-04-14T16:05:17.109Z</time></trkpt><trkpt lat="32.2359605" lon="-111.0219344"><ele>736.25</ele><time>2026-04-14T16:05:18.112Z</time></trkpt><trkpt lat="32.23596" lon="-111.022107"><ele>735.5</ele><time>2026-04-14T16:05:19.108Z</time></trkpt><trkpt lat="32.2359595" lon="-111.0222838"><ele>734.75</ele><time>2026-04-14T16:05:20.116Z</time></trkpt><trkpt lat="32.2359594" lon="-111.0224601"><ele>734.0</ele><time>2026-04-14T16:05:21.113Z</time></trkpt><trkpt lat="32.2359588" lon="-111.0226389"><ele>734.0</ele><time>2026-04-14T16:05:22.108Z</time></trkpt><trkpt lat="32.2359576" lon="-111.0228232"><ele>734.0</ele><time>2026-04-14T16:05:23.109Z</time></trkpt><trkpt lat="32.2359561" lon="-111.0230094"><ele>734.0</ele><time>2026-04-14T16:05:24.104Z</time></trkpt><trkpt lat="32.2359548" lon="-111.0232005"><ele>734.6666666666666</ele><time>2026-04-14T16:05:25.114Z</time></trkpt><trkpt lat="32.2359544" lon="-111.0233884"><ele>735.3333333333334</ele><time>2026-04-14T16:05:26.105Z</time></trkpt><trkpt lat="32.2359548" lon="-111.0235795"><ele>736.0</ele><time>2026-04-14T16:05:27.117Z</time></trkpt><trkpt lat="32.2359555" lon="-111.0237698"><ele>736.0</ele><time>2026-04-14T16:05:28.117Z</time></trkpt><trkpt lat="32.2359565" lon="-111.0239593"><ele>736.0</ele><time>2026-04-14T16:05:29.108Z</time></trkpt><trkpt lat="32.235957" lon="-111.0241523"><ele>736.0</ele><time>2026-04-14T16:05:30.118Z</time></trkpt><trkpt lat="32.2359577" lon="-111.024339"><ele>738.0</ele><time>2026-04-14T16:05:31.111Z</time></trkpt><trkpt lat="32.235959" lon="-111.0245294"><ele>740.0</ele><time>2026-04-14T16:05:32.139Z</time></trkpt><trkpt lat="32.2359598" lon="-111.0247083"><ele>742.0</ele><time>2026-04-14T16:05:33.107Z</time></trkpt><trkpt lat="32.2359603" lon="-111.0248953"><ele>742.3333333333334</ele><time>2026-04-14T16:05:34.113Z</time></trkpt><trkpt lat="32.23596" lon="-111.0250806"><ele>742.6666666666666</ele><time>2026-04-14T16:05:35.104Z</time></trkpt><trkpt lat="32.235959" lon="-111.0252733"><ele>743.0</ele><time>2026-04-14T16:05:36.114Z</time></trkpt><trkpt lat="32.2359589" lon="-111.0254668"><ele>743.0</ele><time>2026-04-14T16:05:37.11Z</time></trkpt><trkpt lat="32.2359589" lon="-111.0256681"><ele>743.0</ele><time>2026-04-14T16:05:38.128Z</time></trkpt><trkpt lat="32.2359591" lon="-111.0258654"><ele>743.0</ele><time>2026-04-14T16:05:39.118Z</time></trkpt><trkpt lat="32.2359592" lon="-111.0260641"><ele>743.0</ele><time>2026-04-14T16:05:40.111Z</time></trkpt><trkpt lat="32.2359598" lon="-111.0262645"><ele>743.0</ele><time>2026-04-14T16:05:41.114Z</time></trkpt><trkpt lat="32.2359601" lon="-111.0264611"><ele>743.0</ele><time>2026-04-14T16:05:42.111Z</time></trkpt><trkpt lat="32.2359604" lon="-111.0266558"><ele>742.3333333333333</ele><time>2026-04-14T16:05:43.112Z</time></trkpt><trkpt lat="32.23596" lon="-111.0268496"><ele>741.6666666666666</ele><time>2026-04-14T16:05:44.109Z</time></trkpt><trkpt lat="32.2359598" lon="-111.0270453"><ele>741.0</ele><time>2026-04-14T16:05:45.12Z</time></trkpt><trkpt lat="32.2359607" lon="-111.0272349"><ele>741.0</ele><time>2026-04-14T16:05:46.109Z</time></trkpt><trkpt lat="32.2359618" lon="-111.0274241"><ele>741.0</ele><time>2026-04-14T16:05:47.111Z</time></trkpt><trkpt lat="32.2359625" lon="-111.0276125"><ele>741.0</ele><time>2026-04-14T16:05:48.113Z</time></trkpt><trkpt lat="32.2359632" lon="-111.0278014"><ele>741.0</ele><time>2026-04-14T16:05:49.111Z</time></trkpt><trkpt lat="32.235964" lon="-111.0279924"><ele>741.0</ele><time>2026-04-14T16:05:50.11Z</time></trkpt><trkpt lat="32.2359652" lon="-111.0281931"><ele>741.0</ele><time>2026-04-14T16:05:51.13Z</time></trkpt><trkpt lat="32.2359671" lon="-111.0283917"><ele>741.0</ele><time>2026-04-14T16:05:52.108Z</time></trkpt><trkpt lat="32.2359699" lon="-111.0285974"><ele>741.0</ele><time>2026-04-14T16:05:53.106Z</time></trkpt><trkpt lat="32.2359732" lon="-111.0288074"><ele>741.0</ele><time>2026-04-14T16:05:54.118Z</time></trkpt><trkpt lat="32.2359765" lon="-111.0290128"><ele>741.3333333333334</ele><time>2026-04-14T16:05:55.107Z</time></trkpt><trkpt lat="32.2359797" lon="-111.0292284"><ele>741.6666666666667</ele><time>2026-04-14T16:05:56.154Z</time></trkpt><trkpt lat="32.2359825" lon="-111.0294247"><ele>742.0</ele><time>2026-04-14T16:05:57.115Z</time></trkpt><trkpt lat="32.2359848" lon="-111.0296262"><ele>742.0</ele><time>2026-04-14T16:05:58.112Z</time></trkpt><trkpt lat="32.2359862" lon="-111.0298282"><ele>742.0</ele><time>2026-04-14T16:05:59.119Z</time></trkpt><trkpt lat="32.2359864" lon="-111.030026"><ele>742.0</ele><time>2026-04-14T16:06:00.111Z</time></trkpt><trkpt lat="32.235987" lon="-111.0302288"><ele>742.6666666666667</ele><time>2026-04-14T16:06:01.128Z</time></trkpt><trkpt lat="32.2359875" lon="-111.0304247"><ele>743.3333333333334</ele><time>2026-04-14T16:06:02.117Z</time></trkpt><trkpt lat="32.2359876" lon="-111.0306218"><ele>744.0</ele><time>2026-04-14T16:06:03.106Z</time></trkpt><trkpt lat="32.2359876" lon="-111.0308275"><ele>745.0</ele><time>2026-04-14T16:06:04.124Z</time></trkpt><trkpt lat="32.2359866" lon="-111.0310294"><ele>746.0</ele><time>2026-04-14T16:06:05.109Z</time></trkpt><trkpt lat="32.235985" lon="-111.0312442"><ele>747.0</ele><time>2026-04-14T16:06:06.128Z</time></trkpt><trkpt lat="32.2359829" lon="-111.0314542"><ele>747.0</ele><time>2026-04-14T16:06:07.117Z</time></trkpt><trkpt lat="32.2359809" lon="-111.0316668"><ele>747.0</ele><time>2026-04-14T16:06:08.12Z</time></trkpt><trkpt lat="32.2359797" lon="-111.0318771"><ele>747.0</ele><time>2026-04-14T16:06:09.116Z</time></trkpt><trkpt lat="32.2359795" lon="-111.0320869"><ele>747.0</ele><time>2026-04-14T16:06:10.113Z</time></trkpt><trkpt lat="32.2359797" lon="-111.0322976"><ele>747.0</ele><time>2026-04-14T16:06:11.127Z</time></trkpt><trkpt lat="32.2359801" lon="-111.0325025"><ele>747.0</ele><time>2026-04-14T16:06:12.12Z</time></trkpt><trkpt lat="32.2359801" lon="-111.0327056"><ele>747.0</ele><time>2026-04-14T16:06:13.106Z</time></trkpt><trkpt lat="32.2359801" lon="-111.032915"><ele>747.0</ele><time>2026-04-14T16:06:14.117Z</time></trkpt><trkpt lat="32.2359801" lon="-111.0331232"><ele>747.0</ele><time>2026-04-14T16:06:15.121Z</time></trkpt><trkpt lat="32.235981" lon="-111.0333295"><ele>747.3333333333334</ele><time>2026-04-14T16:06:16.122Z</time></trkpt><trkpt lat="32.2359827" lon="-111.0335347"><ele>747.6666666666667</ele><time>2026-04-14T16:06:17.112Z</time></trkpt><trkpt lat="32.235985" lon="-111.0337423"><ele>748.0</ele><time>2026-04-14T16:06:18.121Z</time></trkpt><trkpt lat="32.2359871" lon="-111.0339458"><ele>749.3333333333334</ele><time>2026-04-14T16:06:19.116Z</time></trkpt><trkpt lat="32.2359889" lon="-111.0341475"><ele>750.6666666666666</ele><time>2026-04-14T16:06:20.116Z</time></trkpt><trkpt lat="32.2359906" lon="-111.0343551"><ele>752.0</ele><time>2026-04-14T16:06:21.134Z</time></trkpt><trkpt lat="32.2359917" lon="-111.0345565"><ele>752.0</ele><time>2026-04-14T16:06:22.115Z</time></trkpt><trkpt lat="32.235992" lon="-111.0347619"><ele>752.0</ele><time>2026-04-14T16:06:23.115Z</time></trkpt><trkpt lat="32.2359923" lon="-111.0349631"><ele>752.0</ele><time>2026-04-14T16:06:24.112Z</time></trkpt><trkpt lat="32.2359927" lon="-111.0351662"><ele>752.3333333333333</ele><time>2026-04-14T16:06:25.122Z</time></trkpt><trkpt lat="32.2359936" lon="-111.0353714"><ele>752.6666666666666</ele><time>2026-04-14T16:06:26.126Z</time></trkpt><trkpt lat="32.2359981" lon="-111.035572"><ele>753.0</ele><time>2026-04-14T16:06:27.117Z</time></trkpt><trkpt lat="32.2360089" lon="-111.0357734"><ele>753.0</ele><time>2026-04-14T16:06:28.121Z</time></trkpt><trkpt lat="32.2360256" lon="-111.035972"><ele>753.0</ele><time>2026-04-14T16:06:29.114Z</time></trkpt><trkpt lat="32.2360501" lon="-111.0361766"><ele>753.0</ele><time>2026-04-14T16:06:30.121Z</time></trkpt><trkpt lat="32.2360823" lon="-111.0363793"><ele>753.0</ele><time>2026-04-14T16:06:31.109Z</time></trkpt><trkpt lat="32.2361234" lon="-111.0365897"><ele>753.0</ele><time>2026-04-14T16:06:32.131Z</time></trkpt><trkpt lat="32.2361688" lon="-111.0367869"><ele>753.0</ele><time>2026-04-14T16:06:33.109Z</time></trkpt><trkpt lat="32.2362217" lon="-111.0369875"><ele>753.3333333333334</ele><time>2026-04-14T16:06:34.121Z</time></trkpt><trkpt lat="32.2362798" lon="-111.0371802"><ele>753.6666666666667</ele><time>2026-04-14T16:06:35.113Z</time></trkpt><trkpt lat="32.236346" lon="-111.0373726"><ele>754.0</ele><time>2026-04-14T16:06:36.121Z</time></trkpt><trkpt lat="32.2364177" lon="-111.0375577"><ele>754.6666666666667</ele><time>2026-04-14T16:06:37.11Z</time></trkpt><trkpt lat="32.2364938" lon="-111.0377411"><ele>755.3333333333334</ele><time>2026-04-14T16:06:38.115Z</time></trkpt><trkpt lat="32.23657" lon="-111.0379201"><ele>756.0</ele><time>2026-04-14T16:06:39.113Z</time></trkpt><trkpt lat="32.2366467" lon="-111.0380995"><ele>756.0</ele><time>2026-04-14T16:06:40.121Z</time></trkpt><trkpt lat="32.2367225" lon="-111.0382771"><ele>756.0</ele><time>2026-04-14T16:06:41.12Z</time></trkpt><trkpt lat="32.2367997" lon="-111.0384578"><ele>756.0</ele><time>2026-04-14T16:06:42.135Z</time></trkpt><trkpt lat="32.2368755" lon="-111.038635"><ele>757.0</ele><time>2026-04-14T16:06:43.124Z</time></trkpt><trkpt lat="32.2369514" lon="-111.038812"><ele>758.0</ele><time>2026-04-14T16:06:44.112Z</time></trkpt><trkpt lat="32.2370283" lon="-111.0389931"><ele>759.0</ele><time>2026-04-14T16:06:45.131Z</time></trkpt><trkpt lat="32.2371014" lon="-111.0391651"><ele>759.0</ele><time>2026-04-14T16:06:46.107Z</time></trkpt><trkpt lat="32.2371773" lon="-111.0393451"><ele>759.0</ele><time>2026-04-14T16:06:47.126Z</time></trkpt><trkpt lat="32.2372507" lon="-111.0395193"><ele>759.0</ele><time>2026-04-14T16:06:48.11Z</time></trkpt><trkpt lat="32.2373245" lon="-111.0396956"><ele>759.3333333333334</ele><time>2026-04-14T16:06:49.114Z</time></trkpt><trkpt lat="32.2373954" lon="-111.0398674"><ele>759.6666666666667</ele><time>2026-04-14T16:06:50.116Z</time></trkpt><trkpt lat="32.237464" lon="-111.0400361"><ele>760.0</ele><time>2026-04-14T16:06:51.116Z</time></trkpt><trkpt lat="32.2375305" lon="-111.040201"><ele>760.6666666666667</ele><time>2026-04-14T16:06:52.14Z</time></trkpt><trkpt lat="32.2375937" lon="-111.040361"><ele>761.3333333333334</ele><time>2026-04-14T16:06:53.124Z</time></trkpt><trkpt lat="32.2376572" lon="-111.0405242"><ele>762.0</ele><time>2026-04-14T16:06:54.116Z</time></trkpt><trkpt lat="32.2377202" lon="-111.0406898"><ele>764.0</ele><time>2026-04-14T16:06:55.118Z</time></trkpt><trkpt lat="32.2377834" lon="-111.0408572"><ele>766.0</ele><time>2026-04-14T16:06:56.129Z</time></trkpt><trkpt lat="32.2378443" lon="-111.0410221"><ele>768.0</ele><time>2026-04-14T16:06:57.117Z</time></trkpt><trkpt lat="32.2379041" lon="-111.0411919"><ele>768.0</ele><time>2026-04-14T16:06:58.121Z</time></trkpt><trkpt lat="32.2379603" lon="-111.041365"><ele>768.0</ele><time>2026-04-14T16:06:59.132Z</time></trkpt><trkpt lat="32.2380116" lon="-111.0415349"><ele>768.0</ele><time>2026-04-14T16:07:00.113Z</time></trkpt><trkpt lat="32.2380629" lon="-111.0417151"><ele>767.6666666666666</ele><time>2026-04-14T16:07:01.115Z</time></trkpt><trkpt lat="32.2381139" lon="-111.0418965"><ele>767.3333333333333</ele><time>2026-04-14T16:07:02.109Z</time></trkpt><trkpt lat="32.2381649" lon="-111.0420784"><ele>767.0</ele><time>2026-04-14T16:07:03.107Z</time></trkpt><trkpt lat="32.2382168" lon="-111.0422604"><ele>767.0</ele><time>2026-04-14T16:07:04.121Z</time></trkpt><trkpt lat="32.2382682" lon="-111.0424377"><ele>767.0</ele><time>2026-04-14T16:07:05.125Z</time></trkpt><trkpt lat="32.2383193" lon="-111.0426119"><ele>767.0</ele><time>2026-04-14T16:07:06.109Z</time></trkpt><trkpt lat="32.2383725" lon="-111.0427904"><ele>767.6666666666666</ele><time>2026-04-14T16:07:07.121Z</time></trkpt><trkpt lat="32.2384262" lon="-111.0429636"><ele>768.3333333333333</ele><time>2026-04-14T16:07:08.118Z</time></trkpt><trkpt lat="32.238482" lon="-111.0431338"><ele>769.0</ele><time>2026-04-14T16:07:09.114Z</time></trkpt><trkpt lat="32.2385388" lon="-111.0433007"><ele>769.25</ele><time>2026-04-14T16:07:10.115Z</time></trkpt><trkpt lat="32.238595" lon="-111.0434615"><ele>769.5</ele><time>2026-04-14T16:07:11.112Z</time></trkpt><trkpt lat="32.2386516" lon="-111.0436192"><ele>769.75</ele><time>2026-04-14T16:07:12.115Z</time></trkpt><trkpt lat="32.2387081" lon="-111.0437761"><ele>770.0</ele><time>2026-04-14T16:07:13.122Z</time></trkpt><trkpt lat="32.2387657" lon="-111.0439357"><ele>770.0</ele><time>2026-04-14T16:07:14.137Z</time></trkpt><trkpt lat="32.2388211" lon="-111.0440927"><ele>770.0</ele><time>2026-04-14T16:07:15.117Z</time></trkpt><trkpt lat="32.2388742" lon="-111.0442568"><ele>770.0</ele><time>2026-04-14T16:07:16.113Z</time></trkpt><trkpt lat="32.23892" lon="-111.044428"><ele>770.0</ele><time>2026-04-14T16:07:17.116Z</time></trkpt><trkpt lat="32.2389542" lon="-111.0446033"><ele>768.3333333333334</ele><time>2026-04-14T16:07:18.11Z</time></trkpt><trkpt lat="32.2389768" lon="-111.0447937"><ele>766.6666666666667</ele><time>2026-04-14T16:07:19.133Z</time></trkpt><trkpt lat="32.2389886" lon="-111.0449938"><ele>765.0</ele><time>2026-04-14T16:07:20.144Z</time></trkpt><trkpt lat="32.238993" lon="-111.045196"><ele>765.0</ele><time>2026-04-14T16:07:21.124Z</time></trkpt><trkpt lat="32.2389936" lon="-111.0454073"><ele>765.0</ele><time>2026-04-14T16:07:22.13Z</time></trkpt><trkpt lat="32.2389935" lon="-111.0456145"><ele>765.0</ele><time>2026-04-14T16:07:23.124Z</time></trkpt><trkpt lat="32.2389934" lon="-111.0458185"><ele>765.6666666666666</ele><time>2026-04-14T16:07:24.119Z</time></trkpt><trkpt lat="32.238994" lon="-111.0460213"><ele>766.3333333333333</ele><time>2026-04-14T16:07:25.115Z</time></trkpt><trkpt lat="32.2389951" lon="-111.0462204"><ele>767.0</ele><time>2026-04-14T16:07:26.108Z</time></trkpt><trkpt lat="32.2389971" lon="-111.0464202"><ele>767.0</ele><time>2026-04-14T16:07:27.11Z</time></trkpt><trkpt lat="32.2390003" lon="-111.0466202"><ele>767.0</ele><time>2026-04-14T16:07:28.119Z</time></trkpt><trkpt lat="32.239005" lon="-111.046813"><ele>767.0</ele><time>2026-04-14T16:07:29.112Z</time></trkpt><trkpt lat="32.2390129" lon="-111.0470065"><ele>767.3333333333333</ele><time>2026-04-14T16:07:30.128Z</time></trkpt><trkpt lat="32.2390234" lon="-111.0471945"><ele>767.6666666666666</ele><time>2026-04-14T16:07:31.127Z</time></trkpt><trkpt lat="32.2390352" lon="-111.0473784"><ele>768.0</ele><time>2026-04-14T16:07:32.113Z</time></trkpt><trkpt lat="32.2390475" lon="-111.0475649"><ele>769.3333333333333</ele><time>2026-04-14T16:07:33.109Z</time></trkpt><trkpt lat="32.2390613" lon="-111.0477603"><ele>770.6666666666666</ele><time>2026-04-14T16:07:34.13Z</time></trkpt><trkpt lat="32.2390758" lon="-111.0479519"><ele>772.0</ele><time>2026-04-14T16:07:35.119Z</time></trkpt><trkpt lat="32.2390908" lon="-111.0481461"><ele>772.3333333333333</ele><time>2026-04-14T16:07:36.11Z</time></trkpt><trkpt lat="32.2391058" lon="-111.0483417"><ele>772.6666666666667</ele><time>2026-04-14T16:07:37.111Z</time></trkpt><trkpt lat="32.2391211" lon="-111.0485387"><ele>773.0</ele><time>2026-04-14T16:07:38.111Z</time></trkpt><trkpt lat="32.2391363" lon="-111.0487366"><ele>773.0</ele><time>2026-04-14T16:07:39.117Z</time></trkpt><trkpt lat="32.2391509" lon="-111.0489309"><ele>773.0</ele><time>2026-04-14T16:07:40.127Z</time></trkpt><trkpt lat="32.2391654" lon="-111.0491169"><ele>773.0</ele><time>2026-04-14T16:07:41.11Z</time></trkpt><trkpt lat="32.2391819" lon="-111.0493091"><ele>774.0</ele><time>2026-04-14T16:07:42.134Z</time></trkpt><trkpt lat="32.2391972" lon="-111.0494913"><ele>775.0</ele><time>2026-04-14T16:07:43.11Z</time></trkpt><trkpt lat="32.2392105" lon="-111.0496772"><ele>776.0</ele><time>2026-04-14T16:07:44.126Z</time></trkpt><trkpt lat="32.2392173" lon="-111.049859"><ele>776.0</ele><time>2026-04-14T16:07:45.125Z</time></trkpt><trkpt lat="32.2392099" lon="-111.0500364"><ele>776.0</ele><time>2026-04-14T16:07:46.108Z</time></trkpt><trkpt lat="32.2391851" lon="-111.0502107"><ele>776.0</ele><time>2026-04-14T16:07:47.119Z</time></trkpt><trkpt lat="32.2391422" lon="-111.0503749"><ele>776.0</ele><time>2026-04-14T16:07:48.127Z</time></trkpt><trkpt lat="32.2390834" lon="-111.0505288"><ele>776.0</ele><time>2026-04-14T16:07:49.119Z</time></trkpt><trkpt lat="32.2390097" lon="-111.0506724"><ele>776.0</ele><time>2026-04-14T16:07:50.11Z</time></trkpt><trkpt lat="32.2389191" lon="-111.0508058"><ele>776.0</ele><time>2026-04-14T16:07:51.11Z</time></trkpt><trkpt lat="32.2388091" lon="-111.0509298"><ele>776.0</ele><time>2026-04-14T16:07:52.118Z</time></trkpt><trkpt lat="32.2386827" lon="-111.0510466"><ele>775.6666666666667</ele><time>2026-04-14T16:07:53.124Z</time></trkpt><trkpt lat="32.2385458" lon="-111.0511597"><ele>775.3333333333333</ele><time>2026-04-14T16:07:54.12Z</time></trkpt><trkpt lat="32.2384025" lon="-111.0512745"><ele>775.0</ele><time>2026-04-14T16:07:55.132Z</time></trkpt><trkpt lat="32.2382641" lon="-111.0513861"><ele>776.0</ele><time>2026-04-14T16:07:56.11Z</time></trkpt><trkpt lat="32.2381245" lon="-111.0515038"><ele>777.0</ele><time>2026-04-14T16:07:57.114Z</time></trkpt><trkpt lat="32.2379894" lon="-111.0516285"><ele>778.0</ele><time>2026-04-14T16:07:58.118Z</time></trkpt><trkpt lat="32.2378612" lon="-111.0517594"><ele>778.3333333333333</ele><time>2026-04-14T16:07:59.112Z</time></trkpt><trkpt lat="32.2377349" lon="-111.0518989"><ele>778.6666666666667</ele><time>2026-04-14T16:08:00.132Z</time></trkpt><trkpt lat="32.2376178" lon="-111.0520358"><ele>779.0</ele><time>2026-04-14T16:08:01.113Z</time></trkpt><trkpt lat="32.2374979" lon="-111.0521781"><ele>779.0</ele><time>2026-04-14T16:08:02.127Z</time></trkpt><trkpt lat="32.237378" lon="-111.0523176"><ele>779.0</ele><time>2026-04-14T16:08:03.127Z</time></trkpt><trkpt lat="32.2372595" lon="-111.0524554"><ele>779.0</ele><time>2026-04-14T16:08:04.116Z</time></trkpt><trkpt lat="32.2371403" lon="-111.0525944"><ele>781.3333333333334</ele><time>2026-04-14T16:08:05.118Z</time></trkpt><trkpt lat="32.2370241" lon="-111.0527301"><ele>783.6666666666667</ele><time>2026-04-14T16:08:06.117Z</time></trkpt><trkpt lat="32.2369121" lon="-111.0528631"><ele>786.0</ele><time>2026-04-14T16:08:07.124Z</time></trkpt><trkpt lat="32.2368035" lon="-111.0529942"><ele>786.0</ele><time>2026-04-14T16:08:08.126Z</time></trkpt><trkpt lat="32.236698" lon="-111.0531246"><ele>786.0</ele><time>2026-04-14T16:08:09.126Z</time></trkpt><trkpt lat="32.2365963" lon="-111.0532583"><ele>786.0</ele><time>2026-04-14T16:08:10.132Z</time></trkpt><trkpt lat="32.2365018" lon="-111.0533922"><ele>788.3333333333333</ele><time>2026-04-14T16:08:11.109Z</time></trkpt><trkpt lat="32.2364072" lon="-111.0535365"><ele>790.6666666666666</ele><time>2026-04-14T16:08:12.118Z</time></trkpt><trkpt lat="32.2363181" lon="-111.0536859"><ele>793.0</ele><time>2026-04-14T16:08:13.111Z</time></trkpt><trkpt lat="32.2362363" lon="-111.053845"><ele>793.0</ele><time>2026-04-14T16:08:14.121Z</time></trkpt><trkpt lat="32.2361676" lon="-111.0540087"><ele>793.0</ele><time>2026-04-14T16:08:15.114Z</time></trkpt><trkpt lat="32.2361145" lon="-111.0541787"><ele>793.0</ele><time>2026-04-14T16:08:16.116Z</time></trkpt><trkpt lat="32.2360798" lon="-111.0543551"><ele>793.3333333333333</ele><time>2026-04-14T16:08:17.111Z</time></trkpt><trkpt lat="32.2360609" lon="-111.0545415"><ele>793.6666666666667</ele><time>2026-04-14T16:08:18.113Z</time></trkpt><trkpt lat="32.2360547" lon="-111.054732"><ele>794.0</ele><time>2026-04-14T16:08:19.112Z</time></trkpt><trkpt lat="32.2360554" lon="-111.0549221"><ele>794.6666666666667</ele><time>2026-04-14T16:08:20.117Z</time></trkpt><trkpt lat="32.2360582" lon="-111.0551074"><ele>795.3333333333333</ele><time>2026-04-14T16:08:21.118Z</time></trkpt><trkpt lat="32.2360606" lon="-111.0552885"><ele>796.0</ele><time>2026-04-14T16:08:22.116Z</time></trkpt><trkpt lat="32.2360621" lon="-111.0554675"><ele>796.0</ele><time>2026-04-14T16:08:23.116Z</time></trkpt><trkpt lat="32.2360635" lon="-111.055652"><ele>796.0</ele><time>2026-04-14T16:08:24.12Z</time></trkpt><trkpt lat="32.2360647" lon="-111.0558371"><ele>796.0</ele><time>2026-04-14T16:08:25.116Z</time></trkpt><trkpt lat="32.2360653" lon="-111.0560204"><ele>797.3333333333333</ele><time>2026-04-14T16:08:26.115Z</time></trkpt><trkpt lat="32.2360648" lon="-111.0561996"><ele>798.6666666666667</ele><time>2026-04-14T16:08:27.111Z</time></trkpt><trkpt lat="32.2360633" lon="-111.0563788"><ele>800.0</ele><time>2026-04-14T16:08:28.111Z</time></trkpt><trkpt lat="32.2360614" lon="-111.0565609"><ele>800.0</ele><time>2026-04-14T16:08:29.111Z</time></trkpt><trkpt lat="32.2360586" lon="-111.0567502"><ele>800.0</ele><time>2026-04-14T16:08:30.128Z</time></trkpt><trkpt lat="32.2360558" lon="-111.056935"><ele>800.0</ele><time>2026-04-14T16:08:31.109Z</time></trkpt><trkpt lat="32.2360543" lon="-111.0571259"><ele>800.0</ele><time>2026-04-14T16:08:32.118Z</time></trkpt><trkpt lat="32.2360542" lon="-111.057314"><ele>800.0</ele><time>2026-04-14T16:08:33.112Z</time></trkpt><trkpt lat="32.2360547" lon="-111.0575078"><ele>800.0</ele><time>2026-04-14T16:08:34.117Z</time></trkpt><trkpt lat="32.2360568" lon="-111.0577018"><ele>799.0</ele><time>2026-04-14T16:08:35.111Z</time></trkpt><trkpt lat="32.2360613" lon="-111.057896"><ele>798.0</ele><time>2026-04-14T16:08:36.116Z</time></trkpt><trkpt lat="32.2360665" lon="-111.0580884"><ele>797.0</ele><time>2026-04-14T16:08:37.119Z</time></trkpt><trkpt lat="32.2360697" lon="-111.0582785"><ele>796.6666666666667</ele><time>2026-04-14T16:08:38.115Z</time></trkpt><trkpt lat="32.2360718" lon="-111.0584695"><ele>796.3333333333333</ele><time>2026-04-14T16:08:39.116Z</time></trkpt><trkpt lat="32.2360739" lon="-111.0586567"><ele>796.0</ele><time>2026-04-14T16:08:40.111Z</time></trkpt><trkpt lat="32.236076" lon="-111.0588443"><ele>796.0</ele><time>2026-04-14T16:08:41.114Z</time></trkpt><trkpt lat="32.2360774" lon="-111.0590401"><ele>796.0</ele><time>2026-04-14T16:08:42.154Z</time></trkpt><trkpt lat="32.2360788" lon="-111.0592203"><ele>796.0</ele><time>2026-04-14T16:08:43.105Z</time></trkpt><trkpt lat="32.23608" lon="-111.0594109"><ele>796.0</ele><time>2026-04-14T16:08:44.117Z</time></trkpt><trkpt lat="32.2360798" lon="-111.0595991"><ele>796.0</ele><time>2026-04-14T16:08:45.109Z</time></trkpt><trkpt lat="32.2360779" lon="-111.0597915"><ele>796.0</ele><time>2026-04-14T16:08:46.117Z</time></trkpt><trkpt lat="32.236076" lon="-111.0599806"><ele>796.0</ele><time>2026-04-14T16:08:47.119Z</time></trkpt><trkpt lat="32.2360757" lon="-111.0601634"><ele>796.0</ele><time>2026-04-14T16:08:48.116Z</time></trkpt><trkpt lat="32.2360767" lon="-111.0603444"><ele>796.0</ele><time>2026-04-14T16:08:49.108Z</time></trkpt><trkpt lat="32.2360786" lon="-111.0605301"><ele>796.0</ele><time>2026-04-14T16:08:50.112Z</time></trkpt><trkpt lat="32.2360804" lon="-111.0607121"><ele>796.0</ele><time>2026-04-14T16:08:51.111Z</time></trkpt><trkpt lat="32.2360817" lon="-111.0608944"><ele>796.0</ele><time>2026-04-14T16:08:52.131Z</time></trkpt><trkpt lat="32.2360823" lon="-111.0610658"><ele>796.0</ele><time>2026-04-14T16:08:53.11Z</time></trkpt><trkpt lat="32.236081" lon="-111.0612419"><ele>796.0</ele><time>2026-04-14T16:08:54.115Z</time></trkpt><trkpt lat="32.2360731" lon="-111.0614156"><ele>796.0</ele><time>2026-04-14T16:08:55.115Z</time></trkpt><trkpt lat="32.2360536" lon="-111.0615876"><ele>796.0</ele><time>2026-04-14T16:08:56.121Z</time></trkpt><trkpt lat="32.2360206" lon="-111.0617511"><ele>796.25</ele><time>2026-04-14T16:08:57.113Z</time></trkpt><trkpt lat="32.2359742" lon="-111.0619109"><ele>796.5</ele><time>2026-04-14T16:08:58.132Z</time></trkpt><trkpt lat="32.2359218" lon="-111.0620516"><ele>796.75</ele><time>2026-04-14T16:08:59.109Z</time></trkpt><trkpt lat="32.2358641" lon="-111.0621868"><ele>797.0</ele><time>2026-04-14T16:09:00.12Z</time></trkpt><trkpt lat="32.2358085" lon="-111.0623135"><ele>797.0</ele><time>2026-04-14T16:09:01.12Z</time></trkpt><trkpt lat="32.235753" lon="-111.0624401"><ele>797.0</ele><time>2026-04-14T16:09:02.113Z</time></trkpt><trkpt lat="32.235697" lon="-111.0625697"><ele>797.0</ele><time>2026-04-14T16:09:03.114Z</time></trkpt><trkpt lat="32.2356392" lon="-111.0627035"><ele>797.0</ele><time>2026-04-14T16:09:04.118Z</time></trkpt><trkpt lat="32.2355785" lon="-111.0628428"><ele>797.25</ele><time>2026-04-14T16:09:05.113Z</time></trkpt><trkpt lat="32.2355127" lon="-111.0629916"><ele>797.5</ele><time>2026-04-14T16:09:06.129Z</time></trkpt><trkpt lat="32.2354477" lon="-111.0631411"><ele>797.75</ele><time>2026-04-14T16:09:07.12Z</time></trkpt><trkpt lat="32.235379" lon="-111.0632977"><ele>798.0</ele><time>2026-04-14T16:09:08.119Z</time></trkpt><trkpt lat="32.2353083" lon="-111.0634581"><ele>798.3333333333333</ele><time>2026-04-14T16:09:09.11Z</time></trkpt><trkpt lat="32.2352367" lon="-111.0636202"><ele>798.6666666666666</ele><time>2026-04-14T16:09:10.108Z</time></trkpt><trkpt lat="32.2351644" lon="-111.0637823"><ele>799.0</ele><time>2026-04-14T16:09:11.106Z</time></trkpt><trkpt lat="32.2350896" lon="-111.0639471"><ele>799.3333333333333</ele><time>2026-04-14T16:09:12.118Z</time></trkpt><trkpt lat="32.2350127" lon="-111.0641133"><ele>799.6666666666667</ele><time>2026-04-14T16:09:13.111Z</time></trkpt><trkpt lat="32.2349332" lon="-111.0642841"><ele>800.0</ele><time>2026-04-14T16:09:14.116Z</time></trkpt><trkpt lat="32.234851" lon="-111.0644551"><ele>801.3333333333334</ele><time>2026-04-14T16:09:15.118Z</time></trkpt><trkpt lat="32.2347655" lon="-111.064626"><ele>802.6666666666667</ele><time>2026-04-14T16:09:16.12Z</time></trkpt><trkpt lat="32.2346787" lon="-111.0647951"><ele>804.0</ele><time>2026-04-14T16:09:17.114Z</time></trkpt><trkpt lat="32.2345906" lon="-111.0649641"><ele>805.0</ele><time>2026-04-14T16:09:18.121Z</time></trkpt><trkpt lat="32.2345024" lon="-111.0651283"><ele>806.0</ele><time>2026-04-14T16:09:19.115Z</time></trkpt><trkpt lat="32.2344098" lon="-111.0652987"><ele>807.0</ele><time>2026-04-14T16:09:20.159Z</time></trkpt><trkpt lat="32.2343245" lon="-111.065454"><ele>807.0</ele><time>2026-04-14T16:09:21.115Z</time></trkpt><trkpt lat="32.2342341" lon="-111.0656191"><ele>807.0</ele><time>2026-04-14T16:09:22.119Z</time></trkpt><trkpt lat="32.2341443" lon="-111.0657848"><ele>807.0</ele><time>2026-04-14T16:09:23.112Z</time></trkpt><trkpt lat="32.2340527" lon="-111.065955"><ele>808.3333333333333</ele><time>2026-04-14T16:09:24.122Z</time></trkpt><trkpt lat="32.2339619" lon="-111.0661228"><ele>809.6666666666666</ele><time>2026-04-14T16:09:25.112Z</time></trkpt><trkpt lat="32.233869" lon="-111.0662936"><ele>811.0</ele><time>2026-04-14T16:09:26.129Z</time></trkpt><trkpt lat="32.2337812" lon="-111.0664551"><ele>812.3333333333333</ele><time>2026-04-14T16:09:27.117Z</time></trkpt><trkpt lat="32.2336936" lon="-111.0666167"><ele>813.6666666666667</ele><time>2026-04-14T16:09:28.118Z</time></trkpt><trkpt lat="32.2336064" lon="-111.0667756"><ele>815.0</ele><time>2026-04-14T16:09:29.111Z</time></trkpt><trkpt lat="32.2335139" lon="-111.0669358"><ele>815.0</ele><time>2026-04-14T16:09:30.122Z</time></trkpt><trkpt lat="32.2334146" lon="-111.067095"><ele>815.0</ele><time>2026-04-14T16:09:31.126Z</time></trkpt><trkpt lat="32.2333093" lon="-111.0672487"><ele>815.0</ele><time>2026-04-14T16:09:32.118Z</time></trkpt><trkpt lat="32.2331958" lon="-111.067396"><ele>817.6666666666667</ele><time>2026-04-14T16:09:33.116Z</time></trkpt><trkpt lat="32.2330735" lon="-111.0675358"><ele>820.3333333333333</ele><time>2026-04-14T16:09:34.125Z</time></trkpt><trkpt lat="32.2329486" lon="-111.0676643"><ele>823.0</ele><time>2026-04-14T16:09:35.116Z</time></trkpt><trkpt lat="32.2328157" lon="-111.067791"><ele>823.0</ele><time>2026-04-14T16:09:36.132Z</time></trkpt><trkpt lat="32.2326867" lon="-111.0679109"><ele>823.0</ele><time>2026-04-14T16:09:37.106Z</time></trkpt><trkpt lat="32.2325518" lon="-111.0680343"><ele>823.0</ele><time>2026-04-14T16:09:38.119Z</time></trkpt><trkpt lat="32.2324175" lon="-111.0681562"><ele>824.3333333333333</ele><time>2026-04-14T16:09:39.121Z</time></trkpt><trkpt lat="32.2322847" lon="-111.0682783"><ele>825.6666666666667</ele><time>2026-04-14T16:09:40.117Z</time></trkpt><trkpt lat="32.2321538" lon="-111.0684046"><ele>827.0</ele><time>2026-04-14T16:09:41.12Z</time></trkpt><trkpt lat="32.2320288" lon="-111.0685348"><ele>827.0</ele><time>2026-04-14T16:09:42.114Z</time></trkpt><trkpt lat="32.2319097" lon="-111.0686721"><ele>827.0</ele><time>2026-04-14T16:09:43.121Z</time></trkpt><trkpt lat="32.2318036" lon="-111.0688148"><ele>827.0</ele><time>2026-04-14T16:09:44.111Z</time></trkpt><trkpt lat="32.2317076" lon="-111.0689709"><ele>827.3333333333334</ele><time>2026-04-14T16:09:45.117Z</time></trkpt><trkpt lat="32.231624" lon="-111.0691402"><ele>827.6666666666667</ele><time>2026-04-14T16:09:46.115Z</time></trkpt><trkpt lat="32.2315497" lon="-111.0693249"><ele>828.0</ele><time>2026-04-14T16:09:47.117Z</time></trkpt><trkpt lat="32.2314851" lon="-111.0695182"><ele>828.6666666666667</ele><time>2026-04-14T16:09:48.117Z</time></trkpt><trkpt lat="32.231428" lon="-111.0697113"><ele>829.3333333333334</ele><time>2026-04-14T16:09:49.112Z</time></trkpt><trkpt lat="32.2313722" lon="-111.0699051"><ele>830.0</ele><time>2026-04-14T16:09:50.115Z</time></trkpt><trkpt lat="32.2313154" lon="-111.0700914"><ele>831.0</ele><time>2026-04-14T16:09:51.11Z</time></trkpt><trkpt lat="32.2312536" lon="-111.0702681"><ele>832.0</ele><time>2026-04-14T16:09:52.109Z</time></trkpt><trkpt lat="32.2311816" lon="-111.0704376"><ele>833.0</ele><time>2026-04-14T16:09:53.123Z</time></trkpt><trkpt lat="32.2310987" lon="-111.0705925"><ele>833.0</ele><time>2026-04-14T16:09:54.117Z</time></trkpt><trkpt lat="32.2310044" lon="-111.0707368"><ele>833.0</ele><time>2026-04-14T16:09:55.114Z</time></trkpt><trkpt lat="32.2308972" lon="-111.0708717"><ele>833.0</ele><time>2026-04-14T16:09:56.113Z</time></trkpt><trkpt lat="32.2307789" lon="-111.0709948"><ele>834.0</ele><time>2026-04-14T16:09:57.113Z</time></trkpt><trkpt lat="32.2306552" lon="-111.0711056"><ele>835.0</ele><time>2026-04-14T16:09:58.125Z</time></trkpt><trkpt lat="32.2305307" lon="-111.0712015"><ele>836.0</ele><time>2026-04-14T16:09:59.114Z</time></trkpt><trkpt lat="32.2304021" lon="-111.0712908"><ele>836.0</ele><time>2026-04-14T16:10:00.119Z</time></trkpt><trkpt lat="32.230274" lon="-111.0713769"><ele>836.0</ele><time>2026-04-14T16:10:01.12Z</time></trkpt><trkpt lat="32.2301528" lon="-111.0714599"><ele>836.0</ele><time>2026-04-14T16:10:02.11Z</time></trkpt><trkpt lat="32.2300377" lon="-111.0715471"><ele>836.0</ele><time>2026-04-14T16:10:03.113Z</time></trkpt><trkpt lat="32.2299293" lon="-111.071643"><ele>837.0</ele><time>2026-04-14T16:10:04.114Z</time></trkpt><trkpt lat="32.2298297" lon="-111.0717507"><ele>838.0</ele><time>2026-04-14T16:10:05.114Z</time></trkpt><trkpt lat="32.229742" lon="-111.0718759"><ele>839.0</ele><time>2026-04-14T16:10:06.122Z</time></trkpt><trkpt lat="32.2296719" lon="-111.0720181"><ele>840.0</ele><time>2026-04-14T16:10:07.119Z</time></trkpt><trkpt lat="32.2296127" lon="-111.0721839"><ele>841.0</ele><time>2026-04-14T16:10:08.134Z</time></trkpt><trkpt lat="32.2295588" lon="-111.0723535"><ele>842.0</ele><time>2026-04-14T16:10:09.108Z</time></trkpt><trkpt lat="32.2295034" lon="-111.0725273"><ele>843.0</ele><time>2026-04-14T16:10:10.111Z</time></trkpt><trkpt lat="32.2294476" lon="-111.0726967"><ele>843.6666666666667</ele><time>2026-04-14T16:10:11.116Z</time></trkpt><trkpt lat="32.2293923" lon="-111.0728639"><ele>844.3333333333334</ele><time>2026-04-14T16:10:12.113Z</time></trkpt><trkpt lat="32.229336" lon="-111.0730344"><ele>845.0</ele><time>2026-04-14T16:10:13.123Z</time></trkpt><trkpt lat="32.2292798" lon="-111.073205"><ele>845.6666666666667</ele><time>2026-04-14T16:10:14.123Z</time></trkpt><trkpt lat="32.2292226" lon="-111.0733762"><ele>846.3333333333333</ele><time>2026-04-14T16:10:15.115Z</time></trkpt><trkpt lat="32.2291635" lon="-111.0735525"><ele>847.0</ele><time>2026-04-14T16:10:16.118Z</time></trkpt><trkpt lat="32.2291052" lon="-111.0737302"><ele>847.0</ele><time>2026-04-14T16:10:17.114Z</time></trkpt><trkpt lat="32.2290462" lon="-111.0739113"><ele>847.0</ele><time>2026-04-14T16:10:18.132Z</time></trkpt><trkpt lat="32.2289927" lon="-111.0740843"><ele>847.0</ele><time>2026-04-14T16:10:19.106Z</time></trkpt><trkpt lat="32.22894" lon="-111.0742655"><ele>850.0</ele><time>2026-04-14T16:10:20.118Z</time></trkpt><trkpt lat="32.2288895" lon="-111.0744529"><ele>853.0</ele><time>2026-04-14T16:10:21.118Z</time></trkpt><trkpt lat="32.2288409" lon="-111.0746466"><ele>856.0</ele><time>2026-04-14T16:10:22.12Z</time></trkpt><trkpt lat="32.2287974" lon="-111.0748417"><ele>857.6666666666666</ele><time>2026-04-14T16:10:23.118Z</time></trkpt><trkpt lat="32.2287584" lon="-111.0750355"><ele>859.3333333333333</ele><time>2026-04-14T16:10:24.113Z</time></trkpt><trkpt lat="32.2287245" lon="-111.0752317"><ele>861.0</ele><time>2026-04-14T16:10:25.119Z</time></trkpt><trkpt lat="32.2286976" lon="-111.075426"><ele>861.0</ele><time>2026-04-14T16:10:26.121Z</time></trkpt><trkpt lat="32.2286778" lon="-111.0756186"><ele>861.0</ele><time>2026-04-14T16:10:27.111Z</time></trkpt><trkpt lat="32.2286619" lon="-111.0758193"><ele>861.0</ele><time>2026-04-14T16:10:28.118Z</time></trkpt><trkpt lat="32.2286481" lon="-111.0760199"><ele>863.6666666666667</ele><time>2026-04-14T16:10:29.109Z</time></trkpt><trkpt lat="32.2286344" lon="-111.0762299"><ele>866.3333333333334</ele><time>2026-04-14T16:10:30.113Z</time></trkpt><trkpt lat="32.228621" lon="-111.0764412"><ele>869.0</ele><time>2026-04-14T16:10:31.108Z</time></trkpt><trkpt lat="32.2286063" lon="-111.0766531"><ele>869.3333333333334</ele><time>2026-04-14T16:10:32.119Z</time></trkpt><trkpt lat="32.2285911" lon="-111.0768571"><ele>869.6666666666667</ele><time>2026-04-14T16:10:33.113Z</time></trkpt><trkpt lat="32.2285753" lon="-111.0770648"><ele>870.0</ele><time>2026-04-14T16:10:34.147Z</time></trkpt><trkpt lat="32.2285596" lon="-111.0772564"><ele>868.6666666666667</ele><time>2026-04-14T16:10:35.111Z</time></trkpt><trkpt lat="32.2285439" lon="-111.0774544"><ele>867.3333333333334</ele><time>2026-04-14T16:10:36.116Z</time></trkpt><trkpt lat="32.2285288" lon="-111.0776552"><ele>866.0</ele><time>2026-04-14T16:10:37.118Z</time></trkpt><trkpt lat="32.2285124" lon="-111.0778615"><ele>866.0</ele><time>2026-04-14T16:10:38.112Z</time></trkpt><trkpt lat="32.2284922" lon="-111.0780726"><ele>866.0</ele><time>2026-04-14T16:10:39.111Z</time></trkpt><trkpt lat="32.2284677" lon="-111.0782875"><ele>866.0</ele><time>2026-04-14T16:10:40.122Z</time></trkpt><trkpt lat="32.2284391" lon="-111.0784965"><ele>867.6666666666667</ele><time>2026-04-14T16:10:41.107Z</time></trkpt><trkpt lat="32.2284047" lon="-111.0787106"><ele>869.3333333333333</ele><time>2026-04-14T16:10:42.111Z</time></trkpt><trkpt lat="32.2283657" lon="-111.078922"><ele>871.0</ele><time>2026-04-14T16:10:43.117Z</time></trkpt><trkpt lat="32.2283241" lon="-111.0791248"><ele>871.3333333333333</ele><time>2026-04-14T16:10:44.122Z</time></trkpt><trkpt lat="32.2282795" lon="-111.0793171"><ele>871.6666666666667</ele><time>2026-04-14T16:10:45.117Z</time></trkpt><trkpt lat="32.2282279" lon="-111.0795044"><ele>872.0</ele><time>2026-04-14T16:10:46.126Z</time></trkpt><trkpt lat="32.2281705" lon="-111.0796821"><ele>879.0</ele><time>2026-04-14T16:10:47.12Z</time></trkpt><trkpt lat="32.2281098" lon="-111.0798575"><ele>886.0</ele><time>2026-04-14T16:10:48.111Z</time></trkpt><trkpt lat="32.2280502" lon="-111.0800358"><ele>893.0</ele><time>2026-04-14T16:10:49.114Z</time></trkpt><trkpt lat="32.2279979" lon="-111.0802149"><ele>893.0</ele><time>2026-04-14T16:10:50.115Z</time></trkpt><trkpt lat="32.2279566" lon="-111.0803943"><ele>893.0</ele><time>2026-04-14T16:10:51.109Z</time></trkpt><trkpt lat="32.2279278" lon="-111.0805801"><ele>893.0</ele><time>2026-04-14T16:10:52.126Z</time></trkpt><trkpt lat="32.227914" lon="-111.0807635"><ele>890.3333333333334</ele><time>2026-04-14T16:10:53.113Z</time></trkpt><trkpt lat="32.2279115" lon="-111.0809532"><ele>887.6666666666667</ele><time>2026-04-14T16:10:54.123Z</time></trkpt><trkpt lat="32.2279116" lon="-111.0811339"><ele>885.0</ele><time>2026-04-14T16:10:55.116Z</time></trkpt><trkpt lat="32.2279066" lon="-111.0813119"><ele>885.0</ele><time>2026-04-14T16:10:56.114Z</time></trkpt><trkpt lat="32.2278918" lon="-111.0814897"><ele>885.0</ele><time>2026-04-14T16:10:57.117Z</time></trkpt><trkpt lat="32.2278645" lon="-111.0816646"><ele>885.0</ele><time>2026-04-14T16:10:58.11Z</time></trkpt><trkpt lat="32.2278239" lon="-111.0818445"><ele>884.6666666666667</ele><time>2026-04-14T16:10:59.115Z</time></trkpt><trkpt lat="32.2277675" lon="-111.0820286"><ele>884.3333333333334</ele><time>2026-04-14T16:11:00.122Z</time></trkpt><trkpt lat="32.2276965" lon="-111.0822083"><ele>884.0</ele><time>2026-04-14T16:11:01.113Z</time></trkpt><trkpt lat="32.2276171" lon="-111.0823892"><ele>884.0</ele><time>2026-04-14T16:11:02.154Z</time></trkpt><trkpt lat="32.2275437" lon="-111.082551"><ele>884.0</ele><time>2026-04-14T16:11:03.116Z</time></trkpt><trkpt lat="32.2274651" lon="-111.0827175"><ele>884.0</ele><time>2026-04-14T16:11:04.115Z</time></trkpt><trkpt lat="32.227387" lon="-111.0828826"><ele>884.0</ele><time>2026-04-14T16:11:05.112Z</time></trkpt><trkpt lat="32.2273113" lon="-111.0830493"><ele>884.0</ele><time>2026-04-14T16:11:06.113Z</time></trkpt><trkpt lat="32.2272378" lon="-111.0832205"><ele>884.0</ele><time>2026-04-14T16:11:07.113Z</time></trkpt><trkpt lat="32.2271691" lon="-111.0833999"><ele>888.6666666666667</ele><time>2026-04-14T16:11:08.117Z</time></trkpt><trkpt lat="32.2271092" lon="-111.0835843"><ele>893.3333333333333</ele><time>2026-04-14T16:11:09.112Z</time></trkpt><trkpt lat="32.227055" lon="-111.0837757"><ele>898.0</ele><time>2026-04-14T16:11:10.128Z</time></trkpt><trkpt lat="32.2270033" lon="-111.083968"><ele>897.0</ele><time>2026-04-14T16:11:11.12Z</time></trkpt><trkpt lat="32.226949" lon="-111.0841699"><ele>896.0</ele><time>2026-04-14T16:11:12.113Z</time></trkpt><trkpt lat="32.2268927" lon="-111.0843777"><ele>895.0</ele><time>2026-04-14T16:11:13.128Z</time></trkpt><trkpt lat="32.2268377" lon="-111.0845783"><ele>895.0</ele><time>2026-04-14T16:11:14.123Z</time></trkpt><trkpt lat="32.2267818" lon="-111.0847709"><ele>895.0</ele><time>2026-04-14T16:11:15.113Z</time></trkpt><trkpt lat="32.2267248" lon="-111.0849654"><ele>895.0</ele><time>2026-04-14T16:11:16.131Z</time></trkpt><trkpt lat="32.2266718" lon="-111.0851488"><ele>894.6666666666666</ele><time>2026-04-14T16:11:17.11Z</time></trkpt><trkpt lat="32.2266203" lon="-111.0853269"><ele>894.3333333333333</ele><time>2026-04-14T16:11:18.12Z</time></trkpt><trkpt lat="32.2265707" lon="-111.0854926"><ele>894.0</ele><time>2026-04-14T16:11:19.115Z</time></trkpt><trkpt lat="32.2265135" lon="-111.0856526"><ele>897.6666666666667</ele><time>2026-04-14T16:11:20.115Z</time></trkpt><trkpt lat="32.2264425" lon="-111.0858038"><ele>901.3333333333334</ele><time>2026-04-14T16:11:21.119Z</time></trkpt><trkpt lat="32.226352" lon="-111.0859474"><ele>905.0</ele><time>2026-04-14T16:11:22.112Z</time></trkpt><trkpt lat="32.2262324" lon="-111.0860957"><ele>905.0</ele><time>2026-04-14T16:11:23.116Z</time></trkpt><trkpt lat="32.2260961" lon="-111.0862485"><ele>905.0</ele><time>2026-04-14T16:11:24.115Z</time></trkpt><trkpt lat="32.2259575" lon="-111.0864051"><ele>905.0</ele><time>2026-04-14T16:11:25.114Z</time></trkpt><trkpt lat="32.225824" lon="-111.0865654"><ele>908.0</ele><time>2026-04-14T16:11:26.133Z</time></trkpt><trkpt lat="32.2257036" lon="-111.0867226"><ele>911.0</ele><time>2026-04-14T16:11:27.124Z</time></trkpt><trkpt lat="32.225586" lon="-111.0868849"><ele>914.0</ele><time>2026-04-14T16:11:28.118Z</time></trkpt><trkpt lat="32.2254701" lon="-111.0870462"><ele>914.0</ele><time>2026-04-14T16:11:29.111Z</time></trkpt><trkpt lat="32.2253568" lon="-111.0872054"><ele>914.0</ele><time>2026-04-14T16:11:30.109Z</time></trkpt><trkpt lat="32.2252464" lon="-111.0873639"><ele>914.0</ele><time>2026-04-14T16:11:31.116Z</time></trkpt><trkpt lat="32.2251396" lon="-111.0875234"><ele>910.3333333333334</ele><time>2026-04-14T16:11:32.119Z</time></trkpt><trkpt lat="32.2250362" lon="-111.087686"><ele>906.6666666666667</ele><time>2026-04-14T16:11:33.122Z</time></trkpt><trkpt lat="32.22494" lon="-111.0878473"><ele>903.0</ele><time>2026-04-14T16:11:34.123Z</time></trkpt><trkpt lat="32.2248514" lon="-111.0880039"><ele>906.6666666666667</ele><time>2026-04-14T16:11:35.121Z</time></trkpt><trkpt lat="32.2247663" lon="-111.0881599"><ele>910.3333333333334</ele><time>2026-04-14T16:11:36.122Z</time></trkpt><trkpt lat="32.22469" lon="-111.0883198"><ele>914.0</ele><time>2026-04-14T16:11:37.12Z</time></trkpt><trkpt lat="32.2246275" lon="-111.088486"><ele>914.0</ele><time>2026-04-14T16:11:38.122Z</time></trkpt><trkpt lat="32.2245832" lon="-111.0886516"><ele>914.0</ele><time>2026-04-14T16:11:39.114Z</time></trkpt><trkpt lat="32.2245562" lon="-111.0888226"><ele>914.0</ele><time>2026-04-14T16:11:40.12Z</time></trkpt><trkpt lat="32.2245453" lon="-111.0889955"><ele>914.0</ele><time>2026-04-14T16:11:41.11Z</time></trkpt><trkpt lat="32.2245428" lon="-111.0891744"><ele>914.25</ele><time>2026-04-14T16:11:42.122Z</time></trkpt><trkpt lat="32.2245453" lon="-111.0893491"><ele>914.5</ele><time>2026-04-14T16:11:43.118Z</time></trkpt><trkpt lat="32.2245527" lon="-111.0895224"><ele>914.75</ele><time>2026-04-14T16:11:44.116Z</time></trkpt><trkpt lat="32.224565" lon="-111.0896908"><ele>915.0</ele><time>2026-04-14T16:11:45.121Z</time></trkpt><trkpt lat="32.2245823" lon="-111.0898501"><ele>915.25</ele><time>2026-04-14T16:11:46.117Z</time></trkpt><trkpt lat="32.2246041" lon="-111.0900081"><ele>915.5</ele><time>2026-04-14T16:11:47.11Z</time></trkpt><trkpt lat="32.2246293" lon="-111.0901709"><ele>915.75</ele><time>2026-04-14T16:11:48.117Z</time></trkpt><trkpt lat="32.2246541" lon="-111.0903363"><ele>916.0</ele><time>2026-04-14T16:11:49.12Z</time></trkpt><trkpt lat="32.2246736" lon="-111.0905072"><ele>916.0</ele><time>2026-04-14T16:11:50.121Z</time></trkpt><trkpt lat="32.2246805" lon="-111.0906789"><ele>916.0</ele><time>2026-04-14T16:11:51.112Z</time></trkpt><trkpt lat="32.2246715" lon="-111.0908508"><ele>916.0</ele><time>2026-04-14T16:11:52.11Z</time></trkpt><trkpt lat="32.2246484" lon="-111.0910218"><ele>916.0</ele><time>2026-04-14T16:11:53.104Z</time></trkpt><trkpt lat="32.2246121" lon="-111.091194"><ele>916.0</ele><time>2026-04-14T16:11:54.112Z</time></trkpt><trkpt lat="32.2245634" lon="-111.0913654"><ele>916.0</ele><time>2026-04-14T16:11:55.116Z</time></trkpt><trkpt lat="32.2245073" lon="-111.0915314"><ele>916.0</ele><time>2026-04-14T16:11:56.119Z</time></trkpt><trkpt lat="32.2244478" lon="-111.0916894"><ele>916.0</ele><time>2026-04-14T16:11:57.118Z</time></trkpt><trkpt lat="32.2243834" lon="-111.0918439"><ele>916.0</ele><time>2026-04-14T16:11:58.109Z</time></trkpt><trkpt lat="32.2243176" lon="-111.091996"><ele>916.0</ele><time>2026-04-14T16:11:59.12Z</time></trkpt><trkpt lat="32.2242552" lon="-111.0921409"><ele>916.0</ele><time>2026-04-14T16:12:00.117Z</time></trkpt><trkpt lat="32.2241955" lon="-111.0922844"><ele>916.25</ele><time>2026-04-14T16:12:01.116Z</time></trkpt><trkpt lat="32.2241375" lon="-111.0924259"><ele>916.5</ele><time>2026-04-14T16:12:02.118Z</time></trkpt><trkpt lat="32.224086" lon="-111.0925729"><ele>916.75</ele><time>2026-04-14T16:12:03.121Z</time></trkpt><trkpt lat="32.2240459" lon="-111.0927299"><ele>917.0</ele><time>2026-04-14T16:12:04.117Z</time></trkpt><trkpt lat="32.2240221" lon="-111.0928981"><ele>917.0</ele><time>2026-04-14T16:12:05.115Z</time></trkpt><trkpt lat="32.2240158" lon="-111.0930747"><ele>917.0</ele><time>2026-04-14T16:12:06.132Z</time></trkpt><trkpt lat="32.224023" lon="-111.0932486"><ele>917.0</ele><time>2026-04-14T16:12:07.115Z</time></trkpt><trkpt lat="32.2240387" lon="-111.0934331"><ele>918.25</ele><time>2026-04-14T16:12:08.124Z</time></trkpt><trkpt lat="32.2240561" lon="-111.0936133"><ele>919.5</ele><time>2026-04-14T16:12:09.115Z</time></trkpt><trkpt lat="32.2240719" lon="-111.093786"><ele>920.75</ele><time>2026-04-14T16:12:10.125Z</time></trkpt><trkpt lat="32.2240847" lon="-111.0939462"><ele>922.0</ele><time>2026-04-14T16:12:11.11Z</time></trkpt><trkpt lat="32.2240918" lon="-111.094109"><ele>922.25</ele><time>2026-04-14T16:12:12.112Z</time></trkpt><trkpt lat="32.2240892" lon="-111.0942779"><ele>922.5</ele><time>2026-04-14T16:12:13.115Z</time></trkpt><trkpt lat="32.2240746" lon="-111.0944446"><ele>922.75</ele><time>2026-04-14T16:12:14.122Z</time></trkpt><trkpt lat="32.2240467" lon="-111.0945943"><ele>923.0</ele><time>2026-04-14T16:12:15.115Z</time></trkpt><trkpt lat="32.2240032" lon="-111.0947294"><ele>929.25</ele><time>2026-04-14T16:12:16.125Z</time></trkpt><trkpt lat="32.2239507" lon="-111.0948528"><ele>935.5</ele><time>2026-04-14T16:12:17.124Z</time></trkpt><trkpt lat="32.2238947" lon="-111.0949791"><ele>941.75</ele><time>2026-04-14T16:12:18.124Z</time></trkpt><trkpt lat="32.2238484" lon="-111.0951086"><ele>948.0</ele><time>2026-04-14T16:12:19.118Z</time></trkpt><trkpt lat="32.2238147" lon="-111.0952432"><ele>948.0</ele><time>2026-04-14T16:12:20.11Z</time></trkpt><trkpt lat="32.2237881" lon="-111.0953967"><ele>948.0</ele><time>2026-04-14T16:12:21.117Z</time></trkpt><trkpt lat="32.2237634" lon="-111.095567"><ele>948.0</ele><time>2026-04-14T16:12:22.116Z</time></trkpt><trkpt lat="32.2237409" lon="-111.0957361"><ele>948.0</ele><time>2026-04-14T16:12:23.112Z</time></trkpt><trkpt lat="32.2237187" lon="-111.0959003"><ele>948.0</ele><time>2026-04-14T16:12:24.121Z</time></trkpt><trkpt lat="32.2236964" lon="-111.0960609"><ele>948.0</ele><time>2026-04-14T16:12:25.132Z</time></trkpt><trkpt lat="32.2236724" lon="-111.0962234"><ele>948.0</ele><time>2026-04-14T16:12:26.127Z</time></trkpt><trkpt lat="32.2236418" lon="-111.0964054"><ele>948.0</ele><time>2026-04-14T16:12:27.124Z</time></trkpt><trkpt lat="32.2236103" lon="-111.0965939"><ele>947.3333333333333</ele><time>2026-04-14T16:12:28.129Z</time></trkpt><trkpt lat="32.2235727" lon="-111.0968002"><ele>946.6666666666666</ele><time>2026-04-14T16:12:29.118Z</time></trkpt><trkpt lat="32.2235219" lon="-111.0970524"><ele>946.0</ele><time>2026-04-14T16:12:30.114Z</time></trkpt><trkpt lat="32.2234684" lon="-111.0973344"><ele>946.0</ele><time>2026-04-14T16:12:31.124Z</time></trkpt><trkpt lat="32.2234248" lon="-111.0975909"><ele>946.0</ele><time>2026-04-14T16:12:32.111Z</time></trkpt><trkpt lat="32.2233835" lon="-111.0978257"><ele>946.0</ele><time>2026-04-14T16:12:33.116Z</time></trkpt><trkpt lat="32.2233383" lon="-111.0980322"><ele>946.0</ele><time>2026-04-14T16:12:34.112Z</time></trkpt><trkpt lat="32.2232859" lon="-111.0982236"><ele>946.0</ele><time>2026-04-14T16:12:35.123Z</time></trkpt><trkpt lat="32.2232232" lon="-111.0984202"><ele>946.0</ele><time>2026-04-14T16:12:36.143Z</time></trkpt><trkpt lat="32.2231592" lon="-111.0986199"><ele>951.6666666666666</ele><time>2026-04-14T16:12:37.125Z</time></trkpt><trkpt lat="32.2231027" lon="-111.0988118"><ele>957.3333333333333</ele><time>2026-04-14T16:12:38.116Z</time></trkpt><trkpt lat="32.223056" lon="-111.0989877"><ele>963.0</ele><time>2026-04-14T16:12:39.113Z</time></trkpt><trkpt lat="32.2230084" lon="-111.0991455"><ele>963.0</ele><time>2026-04-14T16:12:40.116Z</time></trkpt><trkpt lat="32.2229507" lon="-111.0992819"><ele>963.0</ele><time>2026-04-14T16:12:41.115Z</time></trkpt><trkpt lat="32.2228776" lon="-111.0994088"><ele>963.0</ele><time>2026-04-14T16:12:42.127Z</time></trkpt><trkpt lat="32.2228084" lon="-111.0995269"><ele>963.0</ele><time>2026-04-14T16:12:43.113Z</time></trkpt><trkpt lat="32.2227613" lon="-111.0996539"><ele>963.0</ele><time>2026-04-14T16:12:44.119Z</time></trkpt><trkpt lat="32.2227533" lon="-111.099788"><ele>963.0</ele><time>2026-04-14T16:12:45.11Z</time></trkpt><trkpt lat="32.2227741" lon="-111.099926"><ele>963.0</ele><time>2026-04-14T16:12:46.108Z</time></trkpt><trkpt lat="32.2227977" lon="-111.100049"><ele>963.0</ele><time>2026-04-14T16:12:47.121Z</time></trkpt><trkpt lat="32.2228057" lon="-111.1001679"><ele>963.0</ele><time>2026-04-14T16:12:48.13Z</time></trkpt><trkpt lat="32.2227908" lon="-111.1002817"><ele>962.8</ele><time>2026-04-14T16:12:49.127Z</time></trkpt><trkpt lat="32.2227654" lon="-111.1003988"><ele>962.5999999999999</ele><time>2026-04-14T16:12:50.124Z</time></trkpt><trkpt lat="32.2227391" lon="-111.1005113"><ele>962.4000000000001</ele><time>2026-04-14T16:12:51.127Z</time></trkpt><trkpt lat="32.2227151" lon="-111.1006135"><ele>962.2</ele><time>2026-04-14T16:12:52.118Z</time></trkpt><trkpt lat="32.2226924" lon="-111.1007172"><ele>962.0</ele><time>2026-04-14T16:12:53.128Z</time></trkpt><trkpt lat="32.2226709" lon="-111.1008172"><ele>962.8</ele><time>2026-04-14T16:12:54.125Z</time></trkpt><trkpt lat="32.2226487" lon="-111.1009102"><ele>963.6</ele><time>2026-04-14T16:12:55.113Z</time></trkpt><trkpt lat="32.2226208" lon="-111.100993"><ele>964.3999999999999</ele><time>2026-04-14T16:12:56.127Z</time></trkpt><trkpt lat="32.2225457" lon="-111.1010947"><ele>965.1999999999999</ele><time>2026-04-14T16:12:58.12Z</time></trkpt><trkpt lat="32.2224384" lon="-111.1011619"><ele>966.0</ele><time>2026-04-14T16:13:00.124Z</time></trkpt><trkpt lat="32.2223754" lon="-111.1011952"><ele>964.4</ele><time>2026-04-14T16:13:01.128Z</time></trkpt><trkpt lat="32.222261" lon="-111.1012473"><ele>962.8</ele><time>2026-04-14T16:13:03.122Z</time></trkpt><trkpt lat="32.2221423" lon="-111.1012652"><ele>961.1999999999999</ele><time>2026-04-14T16:13:05.119Z</time></trkpt><trkpt lat="32.2220793" lon="-111.101245"><ele>959.5999999999999</ele><time>2026-04-14T16:13:06.115Z</time></trkpt><trkpt lat="32.2220101" lon="-111.1011881"><ele>958.0</ele><time>2026-04-14T16:13:07.123Z</time></trkpt><trkpt lat="32.2219373" lon="-111.1010946"><ele>958.0</ele><time>2026-04-14T16:13:08.116Z</time></trkpt><trkpt lat="32.2218529" lon="-111.1009767"><ele>958.0</ele><time>2026-04-14T16:13:09.117Z</time></trkpt><trkpt lat="32.2217637" lon="-111.1008583"><ele>958.0</ele><time>2026-04-14T16:13:10.117Z</time></trkpt><trkpt lat="32.2216626" lon="-111.1007516"><ele>958.0</ele><time>2026-04-14T16:13:11.122Z</time></trkpt><trkpt lat="32.221549" lon="-111.1006738"><ele>957.25</ele><time>2026-04-14T16:13:12.118Z</time></trkpt><trkpt lat="32.2214251" lon="-111.1006152"><ele>956.5</ele><time>2026-04-14T16:13:13.127Z</time></trkpt><trkpt lat="32.2213055" lon="-111.1005485"><ele>955.75</ele><time>2026-04-14T16:13:14.121Z</time></trkpt><trkpt lat="32.2211874" lon="-111.1004614"><ele>955.0</ele><time>2026-04-14T16:13:15.116Z</time></trkpt><trkpt lat="32.2210755" lon="-111.100359"><ele>955.0</ele><time>2026-04-14T16:13:16.118Z</time></trkpt><trkpt lat="32.2209725" lon="-111.1002591"><ele>955.0</ele><time>2026-04-14T16:13:17.123Z</time></trkpt><trkpt lat="32.2208731" lon="-111.1001876"><ele>955.0</ele><time>2026-04-14T16:13:18.118Z</time></trkpt><trkpt lat="32.2207667" lon="-111.1001588"><ele>955.0</ele><time>2026-04-14T16:13:19.115Z</time></trkpt><trkpt lat="32.2206576" lon="-111.1001769"><ele>950.5</ele><time>2026-04-14T16:13:20.117Z</time></trkpt><trkpt lat="32.2205497" lon="-111.100213"><ele>946.0</ele><time>2026-04-14T16:13:21.121Z</time></trkpt><trkpt lat="32.2204291" lon="-111.1002313"><ele>941.5</ele><time>2026-04-14T16:13:22.119Z</time></trkpt><trkpt lat="32.2202994" lon="-111.1002169"><ele>937.0</ele><time>2026-04-14T16:13:23.12Z</time></trkpt><trkpt lat="32.2201733" lon="-111.1001818"><ele>937.0</ele><time>2026-04-14T16:13:24.112Z</time></trkpt><trkpt lat="32.2200484" lon="-111.1001437"><ele>937.0</ele><time>2026-04-14T16:13:25.118Z</time></trkpt><trkpt lat="32.2199393" lon="-111.1001215"><ele>937.0</ele><time>2026-04-14T16:13:26.116Z</time></trkpt><trkpt lat="32.2198354" lon="-111.1001357"><ele>937.0</ele><time>2026-04-14T16:13:27.117Z</time></trkpt><trkpt lat="32.2197428" lon="-111.100195"><ele>938.25</ele><time>2026-04-14T16:13:28.124Z</time></trkpt><trkpt lat="32.2196626" lon="-111.1002958"><ele>939.5</ele><time>2026-04-14T16:13:29.112Z</time></trkpt><trkpt lat="32.2195861" lon="-111.1004283"><ele>940.75</ele><time>2026-04-14T16:13:30.117Z</time></trkpt><trkpt lat="32.2195157" lon="-111.1005784"><ele>942.0</ele><time>2026-04-14T16:13:31.112Z</time></trkpt><trkpt lat="32.219456" lon="-111.1007374"><ele>937.25</ele><time>2026-04-14T16:13:32.121Z</time></trkpt><trkpt lat="32.2194147" lon="-111.1008991"><ele>932.5</ele><time>2026-04-14T16:13:33.115Z</time></trkpt><trkpt lat="32.2193884" lon="-111.1010638"><ele>927.75</ele><time>2026-04-14T16:13:34.126Z</time></trkpt><trkpt lat="32.2193641" lon="-111.1012141"><ele>923.0</ele><time>2026-04-14T16:13:35.118Z</time></trkpt><trkpt lat="32.2193266" lon="-111.1013476"><ele>923.0</ele><time>2026-04-14T16:13:36.112Z</time></trkpt><trkpt lat="32.2192639" lon="-111.1014693"><ele>923.0</ele><time>2026-04-14T16:13:37.119Z</time></trkpt><trkpt lat="32.2191731" lon="-111.101579"><ele>923.0</ele><time>2026-04-14T16:13:38.113Z</time></trkpt><trkpt lat="32.2190562" lon="-111.1016828"><ele>923.0</ele><time>2026-04-14T16:13:39.118Z</time></trkpt><trkpt lat="32.2189305" lon="-111.1017798"><ele>921.25</ele><time>2026-04-14T16:13:40.12Z</time></trkpt><trkpt lat="32.2188087" lon="-111.1018707"><ele>919.5</ele><time>2026-04-14T16:13:41.112Z</time></trkpt><trkpt lat="32.2186893" lon="-111.1019536"><ele>917.75</ele><time>2026-04-14T16:13:42.106Z</time></trkpt><trkpt lat="32.2185693" lon="-111.1020286"><ele>916.0</ele><time>2026-04-14T16:13:43.117Z</time></trkpt><trkpt lat="32.2184564" lon="-111.1021068"><ele>916.0</ele><time>2026-04-14T16:13:44.112Z</time></trkpt><trkpt lat="32.2183537" lon="-111.102203"><ele>916.0</ele><time>2026-04-14T16:13:45.118Z</time></trkpt><trkpt lat="32.2182578" lon="-111.1023223"><ele>916.0</ele><time>2026-04-14T16:13:46.118Z</time></trkpt><trkpt lat="32.2181608" lon="-111.102438"><ele>916.0</ele><time>2026-04-14T16:13:47.122Z</time></trkpt><trkpt lat="32.2180552" lon="-111.1025346"><ele>914.8</ele><time>2026-04-14T16:13:48.121Z</time></trkpt><trkpt lat="32.2179493" lon="-111.1026159"><ele>913.5999999999999</ele><time>2026-04-14T16:13:49.113Z</time></trkpt><trkpt lat="32.2178572" lon="-111.1026947"><ele>912.4</ele><time>2026-04-14T16:13:50.115Z</time></trkpt><trkpt lat="32.2177851" lon="-111.1027817"><ele>911.2</ele><time>2026-04-14T16:13:51.11Z</time></trkpt><trkpt lat="32.2177348" lon="-111.1028856"><ele>910.0</ele><time>2026-04-14T16:13:52.12Z</time></trkpt><trkpt lat="32.2177167" lon="-111.1029997"><ele>910.0</ele><time>2026-04-14T16:13:53.108Z</time></trkpt><trkpt lat="32.2177371" lon="-111.1031173"><ele>910.0</ele><time>2026-04-14T16:13:54.128Z</time></trkpt><trkpt lat="32.2177921" lon="-111.1032244"><ele>910.0</ele><time>2026-04-14T16:13:55.119Z</time></trkpt><trkpt lat="32.2178763" lon="-111.1033304"><ele>910.0</ele><time>2026-04-14T16:13:56.113Z</time></trkpt><trkpt lat="32.2179818" lon="-111.1034371"><ele>907.5</ele><time>2026-04-14T16:13:57.116Z</time></trkpt><trkpt lat="32.2180944" lon="-111.1035343"><ele>905.0</ele><time>2026-04-14T16:13:58.119Z</time></trkpt><trkpt lat="32.2182089" lon="-111.1036266"><ele>902.5</ele><time>2026-04-14T16:13:59.123Z</time></trkpt><trkpt lat="32.2183188" lon="-111.1037193"><ele>900.0</ele><time>2026-04-14T16:14:00.114Z</time></trkpt><trkpt lat="32.2184202" lon="-111.1038222"><ele>898.5</ele><time>2026-04-14T16:14:01.113Z</time></trkpt><trkpt lat="32.2185069" lon="-111.1039373"><ele>897.0</ele><time>2026-04-14T16:14:02.107Z</time></trkpt><trkpt lat="32.2185817" lon="-111.1040663"><ele>895.5</ele><time>2026-04-14T16:14:03.116Z</time></trkpt><trkpt lat="32.2186488" lon="-111.1042069"><ele>894.0</ele><time>2026-04-14T16:14:04.118Z</time></trkpt><trkpt lat="32.2187123" lon="-111.1043522"><ele>893.0</ele><time>2026-04-14T16:14:05.113Z</time></trkpt><trkpt lat="32.2187812" lon="-111.1045065"><ele>892.0</ele><time>2026-04-14T16:14:06.119Z</time></trkpt><trkpt lat="32.2188532" lon="-111.1046624"><ele>891.0</ele><time>2026-04-14T16:14:07.119Z</time></trkpt><trkpt lat="32.2189251" lon="-111.104818"><ele>890.0</ele><time>2026-04-14T16:14:08.12Z</time></trkpt><trkpt lat="32.2189943" lon="-111.1049708"><ele>888.0</ele><time>2026-04-14T16:14:09.116Z</time></trkpt><trkpt lat="32.2190615" lon="-111.1051244"><ele>886.0</ele><time>2026-04-14T16:14:10.129Z</time></trkpt><trkpt lat="32.2191229" lon="-111.1052728"><ele>884.0</ele><time>2026-04-14T16:14:11.113Z</time></trkpt><trkpt lat="32.2191845" lon="-111.1054221"><ele>882.0</ele><time>2026-04-14T16:14:12.112Z</time></trkpt><trkpt lat="32.2192461" lon="-111.1055687"><ele>882.0</ele><time>2026-04-14T16:14:13.11Z</time></trkpt><trkpt lat="32.2193089" lon="-111.1057164"><ele>882.0</ele><time>2026-04-14T16:14:14.114Z</time></trkpt><trkpt lat="32.219376" lon="-111.1058682"><ele>882.0</ele><time>2026-04-14T16:14:15.108Z</time></trkpt><trkpt lat="32.2194505" lon="-111.1060231"><ele>882.0</ele><time>2026-04-14T16:14:16.115Z</time></trkpt><trkpt lat="32.2195278" lon="-111.1061752"><ele>880.0</ele><time>2026-04-14T16:14:17.114Z</time></trkpt><trkpt lat="32.2196094" lon="-111.106335"><ele>878.0</ele><time>2026-04-14T16:14:18.119Z</time></trkpt><trkpt lat="32.2196923" lon="-111.1064976"><ele>876.0</ele><time>2026-04-14T16:14:19.117Z</time></trkpt><trkpt lat="32.2197745" lon="-111.1066568"><ele>873.6666666666667</ele><time>2026-04-14T16:14:20.119Z</time></trkpt><trkpt lat="32.219855" lon="-111.1068121"><ele>871.3333333333334</ele><time>2026-04-14T16:14:21.112Z</time></trkpt><trkpt lat="32.2199346" lon="-111.1069664"><ele>869.0</ele><time>2026-04-14T16:14:22.114Z</time></trkpt><trkpt lat="32.2200113" lon="-111.1071183"><ele>869.0</ele><time>2026-04-14T16:14:23.117Z</time></trkpt><trkpt lat="32.22008" lon="-111.1072711"><ele>869.0</ele><time>2026-04-14T16:14:24.111Z</time></trkpt><trkpt lat="32.2201382" lon="-111.1074354"><ele>869.0</ele><time>2026-04-14T16:14:25.124Z</time></trkpt><trkpt lat="32.220182" lon="-111.1076105"><ele>868.0</ele><time>2026-04-14T16:14:26.106Z</time></trkpt><trkpt lat="32.2202129" lon="-111.1078026"><ele>867.0</ele><time>2026-04-14T16:14:27.114Z</time></trkpt><trkpt lat="32.2202349" lon="-111.1079939"><ele>866.0</ele><time>2026-04-14T16:14:28.115Z</time></trkpt><trkpt lat="32.220257" lon="-111.1081808"><ele>864.3333333333334</ele><time>2026-04-14T16:14:29.114Z</time></trkpt><trkpt lat="32.2202824" lon="-111.1083672"><ele>862.6666666666667</ele><time>2026-04-14T16:14:30.145Z</time></trkpt><trkpt lat="32.2203054" lon="-111.1085364"><ele>861.0</ele><time>2026-04-14T16:14:31.113Z</time></trkpt><trkpt lat="32.2203241" lon="-111.1087066"><ele>861.0</ele><time>2026-04-14T16:14:32.108Z</time></trkpt><trkpt lat="32.2203355" lon="-111.1088763"><ele>861.0</ele><time>2026-04-14T16:14:33.108Z</time></trkpt><trkpt lat="32.2203382" lon="-111.1090584"><ele>861.0</ele><time>2026-04-14T16:14:34.118Z</time></trkpt><trkpt lat="32.2203327" lon="-111.1092543"><ele>860.0</ele><time>2026-04-14T16:14:35.118Z</time></trkpt><trkpt lat="32.220322" lon="-111.109454"><ele>859.0</ele><time>2026-04-14T16:14:36.12Z</time></trkpt><trkpt lat="32.2203102" lon="-111.1096453"><ele>858.0</ele><time>2026-04-14T16:14:37.113Z</time></trkpt><trkpt lat="32.2203016" lon="-111.1098331"><ele>857.5</ele><time>2026-04-14T16:14:38.122Z</time></trkpt><trkpt lat="32.2202998" lon="-111.1100139"><ele>857.0</ele><time>2026-04-14T16:14:39.12Z</time></trkpt><trkpt lat="32.2203053" lon="-111.1101917"><ele>856.5</ele><time>2026-04-14T16:14:40.129Z</time></trkpt><trkpt lat="32.2203162" lon="-111.1103636"><ele>856.0</ele><time>2026-04-14T16:14:41.108Z</time></trkpt><trkpt lat="32.2203299" lon="-111.1105396"><ele>856.0</ele><time>2026-04-14T16:14:42.113Z</time></trkpt><trkpt lat="32.2203443" lon="-111.1107176"><ele>856.0</ele><time>2026-04-14T16:14:43.114Z</time></trkpt><trkpt lat="32.2203608" lon="-111.1109045"><ele>856.0</ele><time>2026-04-14T16:14:44.124Z</time></trkpt><trkpt lat="32.2203783" lon="-111.1110874"><ele>855.0</ele><time>2026-04-14T16:14:45.112Z</time></trkpt><trkpt lat="32.2203966" lon="-111.1112785"><ele>854.0</ele><time>2026-04-14T16:14:46.148Z</time></trkpt><trkpt lat="32.220413" lon="-111.111452"><ele>853.0</ele><time>2026-04-14T16:14:47.11Z</time></trkpt><trkpt lat="32.2204296" lon="-111.1116273"><ele>852.0</ele><time>2026-04-14T16:14:48.121Z</time></trkpt><trkpt lat="32.2204447" lon="-111.1117913"><ele>851.0</ele><time>2026-04-14T16:14:49.111Z</time></trkpt><trkpt lat="32.2204596" lon="-111.111952"><ele>850.0</ele><time>2026-04-14T16:14:50.117Z</time></trkpt><trkpt lat="32.2204739" lon="-111.1121059"><ele>849.0</ele><time>2026-04-14T16:14:51.111Z</time></trkpt><trkpt lat="32.2204886" lon="-111.1122609"><ele>848.25</ele><time>2026-04-14T16:14:52.114Z</time></trkpt><trkpt lat="32.2205065" lon="-111.1124231"><ele>847.5</ele><time>2026-04-14T16:14:53.116Z</time></trkpt><trkpt lat="32.220531" lon="-111.1125914"><ele>846.75</ele><time>2026-04-14T16:14:54.124Z</time></trkpt><trkpt lat="32.2205641" lon="-111.1127594"><ele>846.0</ele><time>2026-04-14T16:14:55.121Z</time></trkpt><trkpt lat="32.2206077" lon="-111.1129354"><ele>846.6666666666667</ele><time>2026-04-14T16:14:56.111Z</time></trkpt><trkpt lat="32.2206591" lon="-111.1131186"><ele>847.3333333333334</ele><time>2026-04-14T16:14:57.118Z</time></trkpt><trkpt lat="32.220711" lon="-111.1132945"><ele>848.0</ele><time>2026-04-14T16:14:58.113Z</time></trkpt><trkpt lat="32.2207629" lon="-111.1134674"><ele>846.3333333333334</ele><time>2026-04-14T16:14:59.125Z</time></trkpt><trkpt lat="32.2208122" lon="-111.1136334"><ele>844.6666666666667</ele><time>2026-04-14T16:15:00.113Z</time></trkpt><trkpt lat="32.2208611" lon="-111.1138043"><ele>843.0</ele><time>2026-04-14T16:15:01.124Z</time></trkpt><trkpt lat="32.2209048" lon="-111.1139771"><ele>842.0</ele><time>2026-04-14T16:15:02.126Z</time></trkpt><trkpt lat="32.2209424" lon="-111.1141562"><ele>841.0</ele><time>2026-04-14T16:15:03.115Z</time></trkpt><trkpt lat="32.2209769" lon="-111.1143489"><ele>840.0</ele><time>2026-04-14T16:15:04.131Z</time></trkpt><trkpt lat="32.2210063" lon="-111.1145396"><ele>840.0</ele><time>2026-04-14T16:15:05.115Z</time></trkpt><trkpt lat="32.2210292" lon="-111.1147321"><ele>840.0</ele><time>2026-04-14T16:15:06.11Z</time></trkpt><trkpt lat="32.2210448" lon="-111.1149243"><ele>840.0</ele><time>2026-04-14T16:15:07.112Z</time></trkpt><trkpt lat="32.2210539" lon="-111.1151183"><ele>839.6666666666667</ele><time>2026-04-14T16:15:08.114Z</time></trkpt><trkpt lat="32.2210578" lon="-111.1153121"><ele>839.3333333333334</ele><time>2026-04-14T16:15:09.12Z</time></trkpt><trkpt lat="32.2210574" lon="-111.1155004"><ele>839.0</ele><time>2026-04-14T16:15:10.113Z</time></trkpt><trkpt lat="32.2210541" lon="-111.1156903"><ele>837.6666666666667</ele><time>2026-04-14T16:15:11.113Z</time></trkpt><trkpt lat="32.2210486" lon="-111.1158818"><ele>836.3333333333333</ele><time>2026-04-14T16:15:12.113Z</time></trkpt><trkpt lat="32.2210419" lon="-111.1160733"><ele>835.0</ele><time>2026-04-14T16:15:13.122Z</time></trkpt><trkpt lat="32.2210372" lon="-111.1162595"><ele>835.0</ele><time>2026-04-14T16:15:14.112Z</time></trkpt><trkpt lat="32.2210352" lon="-111.11645"><ele>835.0</ele><time>2026-04-14T16:15:15.114Z</time></trkpt><trkpt lat="32.2210382" lon="-111.1166434"><ele>835.0</ele><time>2026-04-14T16:15:16.115Z</time></trkpt><trkpt lat="32.2210474" lon="-111.1168385"><ele>834.0</ele><time>2026-04-14T16:15:17.119Z</time></trkpt><trkpt lat="32.2210624" lon="-111.1170374"><ele>833.0</ele><time>2026-04-14T16:15:18.118Z</time></trkpt><trkpt lat="32.2210819" lon="-111.1172415"><ele>832.0</ele><time>2026-04-14T16:15:19.117Z</time></trkpt><trkpt lat="32.2211026" lon="-111.1174471"><ele>832.0</ele><time>2026-04-14T16:15:20.12Z</time></trkpt><trkpt lat="32.221124" lon="-111.1176486"><ele>832.0</ele><time>2026-04-14T16:15:21.11Z</time></trkpt><trkpt lat="32.2211474" lon="-111.1178598"><ele>832.0</ele><time>2026-04-14T16:15:22.132Z</time></trkpt><trkpt lat="32.2211713" lon="-111.1180649"><ele>831.0</ele><time>2026-04-14T16:15:23.117Z</time></trkpt><trkpt lat="32.2211956" lon="-111.1182733"><ele>830.0</ele><time>2026-04-14T16:15:24.122Z</time></trkpt><trkpt lat="32.2212189" lon="-111.1184735"><ele>829.0</ele><time>2026-04-14T16:15:25.12Z</time></trkpt><trkpt lat="32.2212414" lon="-111.118666"><ele>829.0</ele><time>2026-04-14T16:15:26.115Z</time></trkpt><trkpt lat="32.2212676" lon="-111.1188522"><ele>829.0</ele><time>2026-04-14T16:15:27.125Z</time></trkpt><trkpt lat="32.2213012" lon="-111.1190272"><ele>829.0</ele><time>2026-04-14T16:15:28.122Z</time></trkpt><trkpt lat="32.2213442" lon="-111.1191938"><ele>828.75</ele><time>2026-04-14T16:15:29.116Z</time></trkpt><trkpt lat="32.2213942" lon="-111.1193548"><ele>828.5</ele><time>2026-04-14T16:15:30.111Z</time></trkpt><trkpt lat="32.2214463" lon="-111.1195129"><ele>828.25</ele><time>2026-04-14T16:15:31.105Z</time></trkpt><trkpt lat="32.2214954" lon="-111.119676"><ele>828.0</ele><time>2026-04-14T16:15:32.135Z</time></trkpt><trkpt lat="32.2215336" lon="-111.1198311"><ele>827.25</ele><time>2026-04-14T16:15:33.119Z</time></trkpt><trkpt lat="32.2215613" lon="-111.119991"><ele>826.5</ele><time>2026-04-14T16:15:34.109Z</time></trkpt><trkpt lat="32.2215764" lon="-111.1201595"><ele>825.75</ele><time>2026-04-14T16:15:35.117Z</time></trkpt><trkpt lat="32.2215756" lon="-111.1203344"><ele>825.0</ele><time>2026-04-14T16:15:36.118Z</time></trkpt><trkpt lat="32.2215602" lon="-111.1205167"><ele>825.0</ele><time>2026-04-14T16:15:37.113Z</time></trkpt><trkpt lat="32.2215353" lon="-111.1207039"><ele>825.0</ele><time>2026-04-14T16:15:38.132Z</time></trkpt><trkpt lat="32.22151" lon="-111.1208835"><ele>825.0</ele><time>2026-04-14T16:15:39.12Z</time></trkpt><trkpt lat="32.2214848" lon="-111.1210578"><ele>824.6666666666667</ele><time>2026-04-14T16:15:40.11Z</time></trkpt><trkpt lat="32.2214606" lon="-111.1212318"><ele>824.3333333333334</ele><time>2026-04-14T16:15:41.114Z</time></trkpt><trkpt lat="32.2214383" lon="-111.1214091"><ele>824.0</ele><time>2026-04-14T16:15:42.114Z</time></trkpt><trkpt lat="32.2214192" lon="-111.1215876"><ele>823.0</ele><time>2026-04-14T16:15:43.111Z</time></trkpt><trkpt lat="32.2214012" lon="-111.1217737"><ele>822.0</ele><time>2026-04-14T16:15:44.121Z</time></trkpt><trkpt lat="32.2213841" lon="-111.1219608"><ele>821.0</ele><time>2026-04-14T16:15:45.107Z</time></trkpt><trkpt lat="32.2213673" lon="-111.1221557"><ele>821.0</ele><time>2026-04-14T16:15:46.114Z</time></trkpt><trkpt lat="32.2213518" lon="-111.1223563"><ele>821.0</ele><time>2026-04-14T16:15:47.112Z</time></trkpt><trkpt lat="32.2213382" lon="-111.1225628"><ele>821.0</ele><time>2026-04-14T16:15:48.123Z</time></trkpt><trkpt lat="32.2213276" lon="-111.1227583"><ele>820.6666666666667</ele><time>2026-04-14T16:15:49.114Z</time></trkpt><trkpt lat="32.2213194" lon="-111.1229522"><ele>820.3333333333333</ele><time>2026-04-14T16:15:50.132Z</time></trkpt><trkpt lat="32.2213168" lon="-111.1231335"><ele>820.0</ele><time>2026-04-14T16:15:51.11Z</time></trkpt><trkpt lat="32.221323" lon="-111.1233157"><ele>820.0</ele><time>2026-04-14T16:15:52.115Z</time></trkpt><trkpt lat="32.2213395" lon="-111.1234956"><ele>820.0</ele><time>2026-04-14T16:15:53.11Z</time></trkpt><trkpt lat="32.2213691" lon="-111.1236825"><ele>820.0</ele><time>2026-04-14T16:15:54.122Z</time></trkpt><trkpt lat="32.2214119" lon="-111.1238681"><ele>820.0</ele><time>2026-04-14T16:15:55.115Z</time></trkpt><trkpt lat="32.2214623" lon="-111.1240461"><ele>820.0</ele><time>2026-04-14T16:15:56.117Z</time></trkpt><trkpt lat="32.2215159" lon="-111.1242189"><ele>820.0</ele><time>2026-04-14T16:15:57.117Z</time></trkpt><trkpt lat="32.2215697" lon="-111.1243883"><ele>820.5</ele><time>2026-04-14T16:15:58.109Z</time></trkpt><trkpt lat="32.2216199" lon="-111.1245576"><ele>821.0</ele><time>2026-04-14T16:15:59.121Z</time></trkpt><trkpt lat="32.2216608" lon="-111.1247186"><ele>821.5</ele><time>2026-04-14T16:16:00.115Z</time></trkpt><trkpt lat="32.2216904" lon="-111.124873"><ele>822.0</ele><time>2026-04-14T16:16:01.112Z</time></trkpt><trkpt lat="32.2217086" lon="-111.1250282"><ele>822.0</ele><time>2026-04-14T16:16:02.125Z</time></trkpt><trkpt lat="32.2217156" lon="-111.1251877"><ele>822.0</ele><time>2026-04-14T16:16:03.117Z</time></trkpt><trkpt lat="32.2217104" lon="-111.125348"><ele>822.0</ele><time>2026-04-14T16:16:04.112Z</time></trkpt><trkpt lat="32.2216961" lon="-111.1255017"><ele>822.0</ele><time>2026-04-14T16:16:05.117Z</time></trkpt><trkpt lat="32.2216816" lon="-111.125647"><ele>822.0</ele><time>2026-04-14T16:16:06.115Z</time></trkpt><trkpt lat="32.2216734" lon="-111.1257799"><ele>822.0</ele><time>2026-04-14T16:16:07.114Z</time></trkpt><trkpt lat="32.2216783" lon="-111.1258847"><ele>822.0</ele><time>2026-04-14T16:16:08.116Z</time></trkpt><trkpt lat="32.221692" lon="-111.125962"><ele>822.0</ele><time>2026-04-14T16:16:09.118Z</time></trkpt><trkpt lat="32.2217088" lon="-111.1260629"><ele>822.0</ele><time>2026-04-14T16:16:11.107Z</time></trkpt><trkpt lat="32.2217012" lon="-111.1261521"><ele>822.0</ele><time>2026-04-14T16:16:14.112Z</time></trkpt><trkpt lat="32.2216568" lon="-111.1262294"><ele>822.0</ele><time>2026-04-14T16:18:56.118Z</time></trkpt><trkpt lat="32.221623" lon="-111.1263675"><ele>822.0</ele><time>2026-04-14T16:18:58.122Z</time></trkpt><trkpt lat="32.2216138" lon="-111.1264644"><ele>822.0</ele><time>2026-04-14T16:18:59.114Z</time></trkpt><trkpt lat="32.2216041" lon="-111.1265878"><ele>822.0</ele><time>2026-04-14T16:19:00.135Z</time></trkpt><trkpt lat="32.2215949" lon="-111.1267213"><ele>822.0</ele><time>2026-04-14T16:19:01.118Z</time></trkpt><trkpt lat="32.221594" lon="-111.1268817"><ele>821.6666666666667</ele><time>2026-04-14T16:19:02.121Z</time></trkpt><trkpt lat="32.2216046" lon="-111.1270611"><ele>821.3333333333334</ele><time>2026-04-14T16:19:03.115Z</time></trkpt><trkpt lat="32.2216257" lon="-111.1272554"><ele>821.0</ele><time>2026-04-14T16:19:04.124Z</time></trkpt><trkpt lat="32.2216483" lon="-111.1274583"><ele>820.3333333333334</ele><time>2026-04-14T16:19:05.124Z</time></trkpt><trkpt lat="32.2216659" lon="-111.1276673"><ele>819.6666666666667</ele><time>2026-04-14T16:19:06.124Z</time></trkpt><trkpt lat="32.2216782" lon="-111.1278739"><ele>819.0</ele><time>2026-04-14T16:19:07.139Z</time></trkpt><trkpt lat="32.2216868" lon="-111.1280671"><ele>818.6666666666667</ele><time>2026-04-14T16:19:08.122Z</time></trkpt><trkpt lat="32.2216965" lon="-111.1282609"><ele>818.3333333333334</ele><time>2026-04-14T16:19:09.124Z</time></trkpt><trkpt lat="32.2217074" lon="-111.1284592"><ele>818.0</ele><time>2026-04-14T16:19:10.129Z</time></trkpt><trkpt lat="32.221719" lon="-111.1286581"><ele>818.0</ele><time>2026-04-14T16:19:11.124Z</time></trkpt><trkpt lat="32.2217318" lon="-111.1288576"><ele>818.0</ele><time>2026-04-14T16:19:12.124Z</time></trkpt><trkpt lat="32.2217443" lon="-111.1290535"><ele>818.0</ele><time>2026-04-14T16:19:13.127Z</time></trkpt><trkpt lat="32.2217558" lon="-111.1292501"><ele>818.6666666666667</ele><time>2026-04-14T16:19:14.139Z</time></trkpt><trkpt lat="32.2217682" lon="-111.1294433"><ele>819.3333333333333</ele><time>2026-04-14T16:19:15.131Z</time></trkpt><trkpt lat="32.2217808" lon="-111.1296415"><ele>820.0</ele><time>2026-04-14T16:19:16.14Z</time></trkpt><trkpt lat="32.2217931" lon="-111.1298372"><ele>819.6666666666666</ele><time>2026-04-14T16:19:17.137Z</time></trkpt><trkpt lat="32.2218054" lon="-111.1300242"><ele>819.3333333333333</ele><time>2026-04-14T16:19:18.115Z</time></trkpt><trkpt lat="32.2218195" lon="-111.1302122"><ele>819.0</ele><time>2026-04-14T16:19:19.128Z</time></trkpt><trkpt lat="32.2218303" lon="-111.1303959"><ele>819.0</ele><time>2026-04-14T16:19:20.14Z</time></trkpt><trkpt lat="32.2218363" lon="-111.1305766"><ele>819.0</ele><time>2026-04-14T16:19:21.133Z</time></trkpt><trkpt lat="32.221837" lon="-111.1307584"><ele>819.0</ele><time>2026-04-14T16:19:22.147Z</time></trkpt><trkpt lat="32.2218281" lon="-111.1309272"><ele>818.75</ele><time>2026-04-14T16:19:23.119Z</time></trkpt><trkpt lat="32.2218082" lon="-111.1310972"><ele>818.5</ele><time>2026-04-14T16:19:24.134Z</time></trkpt><trkpt lat="32.2217818" lon="-111.131257"><ele>818.25</ele><time>2026-04-14T16:19:25.135Z</time></trkpt><trkpt lat="32.221756" lon="-111.1314028"><ele>818.0</ele><time>2026-04-14T16:19:26.128Z</time></trkpt><trkpt lat="32.2217361" lon="-111.1315326"><ele>817.8333333333334</ele><time>2026-04-14T16:19:27.132Z</time></trkpt><trkpt lat="32.2217219" lon="-111.1316499"><ele>817.6666666666667</ele><time>2026-04-14T16:19:28.143Z</time></trkpt><trkpt lat="32.2217125" lon="-111.1317519"><ele>817.5</ele><time>2026-04-14T16:19:29.132Z</time></trkpt><trkpt lat="32.2217063" lon="-111.1318346"><ele>817.3333333333333</ele><time>2026-04-14T16:19:30.143Z</time></trkpt><trkpt lat="32.2217022" lon="-111.1319361"><ele>817.1666666666666</ele><time>2026-04-14T16:19:32.134Z</time></trkpt><trkpt lat="32.2217065" lon="-111.132023"><ele>817.0</ele><time>2026-04-14T16:19:35.128Z</time></trkpt><trkpt lat="32.2217401" lon="-111.1321131"><ele>817.0</ele><time>2026-04-14T16:19:38.129Z</time></trkpt><trkpt lat="32.2218441" lon="-111.1322076"><ele>817.0</ele><time>2026-04-14T16:19:40.137Z</time></trkpt><trkpt lat="32.2219146" lon="-111.1322615"><ele>817.0</ele><time>2026-04-14T16:19:41.118Z</time></trkpt><trkpt lat="32.2220015" lon="-111.1323293"><ele>817.0</ele><time>2026-04-14T16:19:42.131Z</time></trkpt><trkpt lat="32.2220996" lon="-111.1324089"><ele>817.0</ele><time>2026-04-14T16:19:43.135Z</time></trkpt><trkpt lat="32.2222065" lon="-111.1324953"><ele>817.0</ele><time>2026-04-14T16:19:44.136Z</time></trkpt><trkpt lat="32.2223267" lon="-111.1325909"><ele>817.0</ele><time>2026-04-14T16:19:45.135Z</time></trkpt><trkpt lat="32.2224524" lon="-111.132694"><ele>817.0</ele><time>2026-04-14T16:19:46.139Z</time></trkpt><trkpt lat="32.2225777" lon="-111.132805"><ele>817.0</ele><time>2026-04-14T16:19:47.118Z</time></trkpt><trkpt lat="32.2227043" lon="-111.1329288"><ele>817.0</ele><time>2026-04-14T16:19:48.119Z</time></trkpt><trkpt lat="32.2228274" lon="-111.1330638"><ele>817.0</ele><time>2026-04-14T16:19:49.131Z</time></trkpt><trkpt lat="32.2229413" lon="-111.1332039"><ele>816.6666666666666</ele><time>2026-04-14T16:19:50.119Z</time></trkpt><trkpt lat="32.2230515" lon="-111.1333575"><ele>816.3333333333333</ele><time>2026-04-14T16:19:51.135Z</time></trkpt><trkpt lat="32.2231529" lon="-111.1335153"><ele>816.0</ele><time>2026-04-14T16:19:52.126Z</time></trkpt><trkpt lat="32.223249" lon="-111.1336817"><ele>815.6666666666667</ele><time>2026-04-14T16:19:53.126Z</time></trkpt><trkpt lat="32.2233416" lon="-111.1338502"><ele>815.3333333333334</ele><time>2026-04-14T16:19:54.118Z</time></trkpt><trkpt lat="32.2234356" lon="-111.134022"><ele>815.0</ele><time>2026-04-14T16:19:55.119Z</time></trkpt><trkpt lat="32.2235306" lon="-111.1341972"><ele>815.0</ele><time>2026-04-14T16:19:56.128Z</time></trkpt><trkpt lat="32.2236259" lon="-111.1343715"><ele>815.0</ele><time>2026-04-14T16:19:57.125Z</time></trkpt><trkpt lat="32.223724" lon="-111.1345494"><ele>815.0</ele><time>2026-04-14T16:19:58.145Z</time></trkpt><trkpt lat="32.2238176" lon="-111.1347192"><ele>815.6666666666667</ele><time>2026-04-14T16:19:59.117Z</time></trkpt><trkpt lat="32.2239147" lon="-111.1348959"><ele>816.3333333333333</ele><time>2026-04-14T16:20:00.136Z</time></trkpt><trkpt lat="32.2240085" lon="-111.1350674"><ele>817.0</ele><time>2026-04-14T16:20:01.125Z</time></trkpt><trkpt lat="32.2241032" lon="-111.1352414"><ele>817.3333333333333</ele><time>2026-04-14T16:20:02.129Z</time></trkpt><trkpt lat="32.2241968" lon="-111.1354137"><ele>817.6666666666667</ele><time>2026-04-14T16:20:03.122Z</time></trkpt><trkpt lat="32.2242945" lon="-111.1355846"><ele>818.0</ele><time>2026-04-14T16:20:04.126Z</time></trkpt><trkpt lat="32.2244011" lon="-111.1357481"><ele>817.3333333333334</ele><time>2026-04-14T16:20:05.132Z</time></trkpt><trkpt lat="32.2245217" lon="-111.1358937"><ele>816.6666666666667</ele><time>2026-04-14T16:20:06.14Z</time></trkpt><trkpt lat="32.2246533" lon="-111.1360223"><ele>816.0</ele><time>2026-04-14T16:20:07.116Z</time></trkpt><trkpt lat="32.2247968" lon="-111.1361485"><ele>816.3333333333333</ele><time>2026-04-14T16:20:08.131Z</time></trkpt><trkpt lat="32.2249427" lon="-111.1362726"><ele>816.6666666666666</ele><time>2026-04-14T16:20:09.128Z</time></trkpt><trkpt lat="32.2250926" lon="-111.1364009"><ele>817.0</ele><time>2026-04-14T16:20:10.14Z</time></trkpt><trkpt lat="32.2252399" lon="-111.1365281"><ele>817.0</ele><time>2026-04-14T16:20:11.14Z</time></trkpt><trkpt lat="32.2253849" lon="-111.1366539"><ele>817.0</ele><time>2026-04-14T16:20:12.137Z</time></trkpt><trkpt lat="32.2255257" lon="-111.1367765"><ele>817.0</ele><time>2026-04-14T16:20:13.12Z</time></trkpt><trkpt lat="32.2256668" lon="-111.1369041"><ele>818.3333333333333</ele><time>2026-04-14T16:20:14.142Z</time></trkpt><trkpt lat="32.2257966" lon="-111.1370331"><ele>819.6666666666667</ele><time>2026-04-14T16:20:15.126Z</time></trkpt><trkpt lat="32.2259213" lon="-111.1371754"><ele>821.0</ele><time>2026-04-14T16:20:16.132Z</time></trkpt><trkpt lat="32.2260386" lon="-111.1373291"><ele>820.3333333333334</ele><time>2026-04-14T16:20:17.121Z</time></trkpt><trkpt lat="32.2261552" lon="-111.1374915"><ele>819.6666666666667</ele><time>2026-04-14T16:20:18.129Z</time></trkpt><trkpt lat="32.2262683" lon="-111.1376542"><ele>819.0</ele><time>2026-04-14T16:20:19.127Z</time></trkpt><trkpt lat="32.2263776" lon="-111.1378137"><ele>819.6666666666667</ele><time>2026-04-14T16:20:20.114Z</time></trkpt><trkpt lat="32.2264858" lon="-111.1379727"><ele>820.3333333333334</ele><time>2026-04-14T16:20:21.119Z</time></trkpt><trkpt lat="32.2265877" lon="-111.1381324"><ele>821.0</ele><time>2026-04-14T16:20:22.127Z</time></trkpt><trkpt lat="32.2266741" lon="-111.138296"><ele>821.3333333333334</ele><time>2026-04-14T16:20:23.124Z</time></trkpt><trkpt lat="32.2267429" lon="-111.1384726"><ele>821.6666666666667</ele><time>2026-04-14T16:20:24.118Z</time></trkpt><trkpt lat="32.2267959" lon="-111.1386634"><ele>822.0</ele><time>2026-04-14T16:20:25.12Z</time></trkpt><trkpt lat="32.2268386" lon="-111.1388652"><ele>821.6666666666667</ele><time>2026-04-14T16:20:26.126Z</time></trkpt><trkpt lat="32.2268786" lon="-111.139074"><ele>821.3333333333334</ele><time>2026-04-14T16:20:27.13Z</time></trkpt><trkpt lat="32.2269188" lon="-111.1392859"><ele>821.0</ele><time>2026-04-14T16:20:28.125Z</time></trkpt><trkpt lat="32.2269596" lon="-111.1394997"><ele>821.0</ele><time>2026-04-14T16:20:29.118Z</time></trkpt><trkpt lat="32.2270015" lon="-111.1397155"><ele>821.0</ele><time>2026-04-14T16:20:30.129Z</time></trkpt><trkpt lat="32.2270415" lon="-111.1399272"><ele>821.0</ele><time>2026-04-14T16:20:31.135Z</time></trkpt><trkpt lat="32.2270802" lon="-111.1401339"><ele>821.0</ele><time>2026-04-14T16:20:32.128Z</time></trkpt><trkpt lat="32.2271203" lon="-111.1403363"><ele>821.0</ele><time>2026-04-14T16:20:33.122Z</time></trkpt><trkpt lat="32.2271647" lon="-111.1405374"><ele>821.0</ele><time>2026-04-14T16:20:34.123Z</time></trkpt><trkpt lat="32.2272165" lon="-111.1407388"><ele>821.0</ele><time>2026-04-14T16:20:35.126Z</time></trkpt><trkpt lat="32.2272761" lon="-111.1409359"><ele>821.0</ele><time>2026-04-14T16:20:36.112Z</time></trkpt><trkpt lat="32.2273462" lon="-111.1411364"><ele>821.0</ele><time>2026-04-14T16:20:37.124Z</time></trkpt><trkpt lat="32.2274253" lon="-111.1413323"><ele>821.3333333333334</ele><time>2026-04-14T16:20:38.126Z</time></trkpt><trkpt lat="32.2275137" lon="-111.141526"><ele>821.6666666666667</ele><time>2026-04-14T16:20:39.137Z</time></trkpt><trkpt lat="32.2276073" lon="-111.1417144"><ele>822.0</ele><time>2026-04-14T16:20:40.144Z</time></trkpt><trkpt lat="32.2277019" lon="-111.1418954"><ele>822.0</ele><time>2026-04-14T16:20:41.131Z</time></trkpt><trkpt lat="32.2277995" lon="-111.1420739"><ele>822.0</ele><time>2026-04-14T16:20:42.128Z</time></trkpt><trkpt lat="32.2278985" lon="-111.1422472"><ele>822.0</ele><time>2026-04-14T16:20:43.12Z</time></trkpt><trkpt lat="32.2280017" lon="-111.1424209"><ele>822.0</ele><time>2026-04-14T16:20:44.131Z</time></trkpt><trkpt lat="32.2281077" lon="-111.1425865"><ele>822.0</ele><time>2026-04-14T16:20:45.121Z</time></trkpt><trkpt lat="32.2282214" lon="-111.1427493"><ele>822.0</ele><time>2026-04-14T16:20:46.126Z</time></trkpt><trkpt lat="32.2283408" lon="-111.1429072"><ele>822.0</ele><time>2026-04-14T16:20:47.125Z</time></trkpt><trkpt lat="32.2284645" lon="-111.1430609"><ele>822.0</ele><time>2026-04-14T16:20:48.125Z</time></trkpt><trkpt lat="32.2285962" lon="-111.1432093"><ele>822.0</ele><time>2026-04-14T16:20:49.13Z</time></trkpt><trkpt lat="32.228734" lon="-111.1433479"><ele>822.3333333333333</ele><time>2026-04-14T16:20:50.126Z</time></trkpt><trkpt lat="32.2288779" lon="-111.1434771"><ele>822.6666666666666</ele><time>2026-04-14T16:20:51.12Z</time></trkpt><trkpt lat="32.2290337" lon="-111.1436029"><ele>823.0</ele><time>2026-04-14T16:20:52.137Z</time></trkpt><trkpt lat="32.2291934" lon="-111.143723"><ele>823.0</ele><time>2026-04-14T16:20:53.131Z</time></trkpt><trkpt lat="32.2293543" lon="-111.1438407"><ele>823.0</ele><time>2026-04-14T16:20:54.114Z</time></trkpt><trkpt lat="32.2295194" lon="-111.1439599"><ele>823.0</ele><time>2026-04-14T16:20:55.12Z</time></trkpt><trkpt lat="32.2296849" lon="-111.1440811"><ele>822.3333333333333</ele><time>2026-04-14T16:20:56.132Z</time></trkpt><trkpt lat="32.2298474" lon="-111.144202"><ele>821.6666666666667</ele><time>2026-04-14T16:20:57.131Z</time></trkpt><trkpt lat="32.2300084" lon="-111.1443219"><ele>821.0</ele><time>2026-04-14T16:20:58.12Z</time></trkpt><trkpt lat="32.2301727" lon="-111.1444442"><ele>821.0</ele><time>2026-04-14T16:20:59.132Z</time></trkpt><trkpt lat="32.2303354" lon="-111.1445648"><ele>821.0</ele><time>2026-04-14T16:21:00.127Z</time></trkpt><trkpt lat="32.2304996" lon="-111.1446854"><ele>821.0</ele><time>2026-04-14T16:21:01.123Z</time></trkpt><trkpt lat="32.2306641" lon="-111.1448056"><ele>822.3333333333334</ele><time>2026-04-14T16:21:02.12Z</time></trkpt><trkpt lat="32.2308279" lon="-111.1449264"><ele>823.6666666666667</ele><time>2026-04-14T16:21:03.126Z</time></trkpt><trkpt lat="32.2309875" lon="-111.1450454"><ele>825.0</ele><time>2026-04-14T16:21:04.117Z</time></trkpt><trkpt lat="32.2311501" lon="-111.1451669"><ele>825.0</ele><time>2026-04-14T16:21:05.117Z</time></trkpt><trkpt lat="32.2313122" lon="-111.1452879"><ele>825.0</ele><time>2026-04-14T16:21:06.116Z</time></trkpt><trkpt lat="32.2314753" lon="-111.1454093"><ele>825.0</ele><time>2026-04-14T16:21:07.128Z</time></trkpt><trkpt lat="32.2316362" lon="-111.1455286"><ele>824.6666666666667</ele><time>2026-04-14T16:21:08.131Z</time></trkpt><trkpt lat="32.2317981" lon="-111.1456489"><ele>824.3333333333334</ele><time>2026-04-14T16:21:09.139Z</time></trkpt><trkpt lat="32.2319549" lon="-111.1457654"><ele>824.0</ele><time>2026-04-14T16:21:10.125Z</time></trkpt><trkpt lat="32.2321113" lon="-111.145881"><ele>824.0</ele><time>2026-04-14T16:21:11.121Z</time></trkpt><trkpt lat="32.232269" lon="-111.1459973"><ele>824.0</ele><time>2026-04-14T16:21:12.13Z</time></trkpt><trkpt lat="32.2324257" lon="-111.1461119"><ele>824.0</ele><time>2026-04-14T16:21:13.132Z</time></trkpt><trkpt lat="32.232584" lon="-111.1462266"><ele>825.0</ele><time>2026-04-14T16:21:14.139Z</time></trkpt><trkpt lat="32.232737" lon="-111.1463393"><ele>826.0</ele><time>2026-04-14T16:21:15.12Z</time></trkpt><trkpt lat="32.2328941" lon="-111.146458"><ele>827.0</ele><time>2026-04-14T16:21:16.13Z</time></trkpt><trkpt lat="32.2330483" lon="-111.1465764"><ele>828.3333333333334</ele><time>2026-04-14T16:21:17.122Z</time></trkpt><trkpt lat="32.2332014" lon="-111.1466957"><ele>829.6666666666667</ele><time>2026-04-14T16:21:18.118Z</time></trkpt><trkpt lat="32.2333547" lon="-111.1468171"><ele>831.0</ele><time>2026-04-14T16:21:19.125Z</time></trkpt><trkpt lat="32.2335048" lon="-111.1469377"><ele>831.0</ele><time>2026-04-14T16:21:20.124Z</time></trkpt><trkpt lat="32.2336517" lon="-111.1470602"><ele>831.0</ele><time>2026-04-14T16:21:21.124Z</time></trkpt><trkpt lat="32.2337928" lon="-111.1471865"><ele>831.0</ele><time>2026-04-14T16:21:22.119Z</time></trkpt><trkpt lat="32.2339269" lon="-111.1473202"><ele>832.0</ele><time>2026-04-14T16:21:23.129Z</time></trkpt><trkpt lat="32.2340473" lon="-111.1474594"><ele>833.0</ele><time>2026-04-14T16:21:24.122Z</time></trkpt><trkpt lat="32.2341543" lon="-111.1476082"><ele>834.0</ele><time>2026-04-14T16:21:25.116Z</time></trkpt><trkpt lat="32.2342498" lon="-111.1477746"><ele>834.0</ele><time>2026-04-14T16:21:26.133Z</time></trkpt><trkpt lat="32.2343312" lon="-111.1479497"><ele>834.0</ele><time>2026-04-14T16:21:27.121Z</time></trkpt><trkpt lat="32.2344066" lon="-111.1481358"><ele>834.0</ele><time>2026-04-14T16:21:28.113Z</time></trkpt><trkpt lat="32.234479" lon="-111.1483371"><ele>833.0</ele><time>2026-04-14T16:21:29.122Z</time></trkpt><trkpt lat="32.2345466" lon="-111.1485452"><ele>832.0</ele><time>2026-04-14T16:21:30.122Z</time></trkpt><trkpt lat="32.2346109" lon="-111.1487551"><ele>831.0</ele><time>2026-04-14T16:21:31.113Z</time></trkpt><trkpt lat="32.2346734" lon="-111.1489622"><ele>830.6666666666667</ele><time>2026-04-14T16:21:32.116Z</time></trkpt><trkpt lat="32.2347338" lon="-111.1491635"><ele>830.3333333333334</ele><time>2026-04-14T16:21:33.119Z</time></trkpt><trkpt lat="32.2347943" lon="-111.1493649"><ele>830.0</ele><time>2026-04-14T16:21:34.129Z</time></trkpt><trkpt lat="32.2348572" lon="-111.1495581"><ele>831.6666666666667</ele><time>2026-04-14T16:21:35.111Z</time></trkpt><trkpt lat="32.2349296" lon="-111.1497502"><ele>833.3333333333333</ele><time>2026-04-14T16:21:36.122Z</time></trkpt><trkpt lat="32.2350099" lon="-111.149938"><ele>835.0</ele><time>2026-04-14T16:21:37.118Z</time></trkpt><trkpt lat="32.2350983" lon="-111.1501283"><ele>835.0</ele><time>2026-04-14T16:21:38.114Z</time></trkpt><trkpt lat="32.2351959" lon="-111.1503259"><ele>835.0</ele><time>2026-04-14T16:21:39.126Z</time></trkpt><trkpt lat="32.2352973" lon="-111.1505203"><ele>835.0</ele><time>2026-04-14T16:21:40.121Z</time></trkpt><trkpt lat="32.235402" lon="-111.1507145"><ele>835.3333333333333</ele><time>2026-04-14T16:21:41.123Z</time></trkpt><trkpt lat="32.2355066" lon="-111.1509045"><ele>835.6666666666667</ele><time>2026-04-14T16:21:42.118Z</time></trkpt><trkpt lat="32.2356117" lon="-111.1510937"><ele>836.0</ele><time>2026-04-14T16:21:43.12Z</time></trkpt><trkpt lat="32.2357163" lon="-111.1512807"><ele>836.0</ele><time>2026-04-14T16:21:44.117Z</time></trkpt><trkpt lat="32.2358198" lon="-111.1514653"><ele>836.0</ele><time>2026-04-14T16:21:45.112Z</time></trkpt><trkpt lat="32.2359259" lon="-111.1516537"><ele>836.0</ele><time>2026-04-14T16:21:46.134Z</time></trkpt><trkpt lat="32.2360277" lon="-111.1518348"><ele>836.0</ele><time>2026-04-14T16:21:47.121Z</time></trkpt><trkpt lat="32.2361309" lon="-111.1520183"><ele>836.0</ele><time>2026-04-14T16:21:48.126Z</time></trkpt><trkpt lat="32.236234" lon="-111.1521992"><ele>836.0</ele><time>2026-04-14T16:21:49.119Z</time></trkpt><trkpt lat="32.2363378" lon="-111.1523815"><ele>836.3333333333334</ele><time>2026-04-14T16:21:50.117Z</time></trkpt><trkpt lat="32.2364434" lon="-111.1525653"><ele>836.6666666666667</ele><time>2026-04-14T16:21:51.129Z</time></trkpt><trkpt lat="32.2365479" lon="-111.1527442"><ele>837.0</ele><time>2026-04-14T16:21:52.12Z</time></trkpt><trkpt lat="32.2366539" lon="-111.1529241"><ele>837.6666666666667</ele><time>2026-04-14T16:21:53.117Z</time></trkpt><trkpt lat="32.2367622" lon="-111.1531069"><ele>838.3333333333334</ele><time>2026-04-14T16:21:54.136Z</time></trkpt><trkpt lat="32.236867" lon="-111.1532838"><ele>839.0</ele><time>2026-04-14T16:21:55.118Z</time></trkpt><trkpt lat="32.2369731" lon="-111.1534647"><ele>839.0</ele><time>2026-04-14T16:21:56.12Z</time></trkpt><trkpt lat="32.2370766" lon="-111.1536452"><ele>839.0</ele><time>2026-04-14T16:21:57.115Z</time></trkpt><trkpt lat="32.2371792" lon="-111.1538252"><ele>839.0</ele><time>2026-04-14T16:21:58.114Z</time></trkpt><trkpt lat="32.2372801" lon="-111.1540012"><ele>840.3333333333334</ele><time>2026-04-14T16:21:59.117Z</time></trkpt><trkpt lat="32.2373774" lon="-111.1541678"><ele>841.6666666666667</ele><time>2026-04-14T16:22:00.119Z</time></trkpt><trkpt lat="32.237476" lon="-111.1543232"><ele>843.0</ele><time>2026-04-14T16:22:01.119Z</time></trkpt><trkpt lat="32.2375805" lon="-111.1544673"><ele>843.0</ele><time>2026-04-14T16:22:02.111Z</time></trkpt><trkpt lat="32.2376977" lon="-111.1546013"><ele>843.0</ele><time>2026-04-14T16:22:03.121Z</time></trkpt><trkpt lat="32.2378238" lon="-111.1547159"><ele>843.0</ele><time>2026-04-14T16:22:04.121Z</time></trkpt><trkpt lat="32.2379578" lon="-111.1548205"><ele>844.6666666666667</ele><time>2026-04-14T16:22:05.117Z</time></trkpt><trkpt lat="32.2380912" lon="-111.1549304"><ele>846.3333333333334</ele><time>2026-04-14T16:22:06.127Z</time></trkpt><trkpt lat="32.2382124" lon="-111.1550474"><ele>848.0</ele><time>2026-04-14T16:22:07.119Z</time></trkpt><trkpt lat="32.2383255" lon="-111.1551829"><ele>848.0</ele><time>2026-04-14T16:22:08.125Z</time></trkpt><trkpt lat="32.2384289" lon="-111.1553334"><ele>848.0</ele><time>2026-04-14T16:22:09.116Z</time></trkpt><trkpt lat="32.2385316" lon="-111.1555059"><ele>848.0</ele><time>2026-04-14T16:22:10.13Z</time></trkpt><trkpt lat="32.2386341" lon="-111.1556867"><ele>849.6666666666667</ele><time>2026-04-14T16:22:11.124Z</time></trkpt><trkpt lat="32.2387432" lon="-111.1558664"><ele>851.3333333333333</ele><time>2026-04-14T16:22:12.115Z</time></trkpt><trkpt lat="32.2388656" lon="-111.1560443"><ele>853.0</ele><time>2026-04-14T16:22:13.123Z</time></trkpt><trkpt lat="32.2389946" lon="-111.1562189"><ele>853.0</ele><time>2026-04-14T16:22:14.128Z</time></trkpt><trkpt lat="32.2391228" lon="-111.1563907"><ele>853.0</ele><time>2026-04-14T16:22:15.117Z</time></trkpt><trkpt lat="32.239253" lon="-111.1565633"><ele>853.0</ele><time>2026-04-14T16:22:16.131Z</time></trkpt><trkpt lat="32.2393781" lon="-111.1567298"><ele>854.3333333333333</ele><time>2026-04-14T16:22:17.122Z</time></trkpt><trkpt lat="32.2395015" lon="-111.1568956"><ele>855.6666666666667</ele><time>2026-04-14T16:22:18.12Z</time></trkpt><trkpt lat="32.2396236" lon="-111.1570592"><ele>857.0</ele><time>2026-04-14T16:22:19.122Z</time></trkpt><trkpt lat="32.2397453" lon="-111.1572204"><ele>857.6666666666667</ele><time>2026-04-14T16:22:20.124Z</time></trkpt><trkpt lat="32.2398666" lon="-111.1573779"><ele>858.3333333333333</ele><time>2026-04-14T16:22:21.12Z</time></trkpt><trkpt lat="32.2399903" lon="-111.1575338"><ele>859.0</ele><time>2026-04-14T16:22:22.127Z</time></trkpt><trkpt lat="32.2401118" lon="-111.1576858"><ele>859.0</ele><time>2026-04-14T16:22:23.118Z</time></trkpt><trkpt lat="32.2402363" lon="-111.1578425"><ele>859.0</ele><time>2026-04-14T16:22:24.127Z</time></trkpt><trkpt lat="32.2403577" lon="-111.1579993"><ele>859.0</ele><time>2026-04-14T16:22:25.123Z</time></trkpt><trkpt lat="32.2404727" lon="-111.1581582"><ele>861.0</ele><time>2026-04-14T16:22:26.114Z</time></trkpt><trkpt lat="32.2405791" lon="-111.1583217"><ele>863.0</ele><time>2026-04-14T16:22:27.122Z</time></trkpt><trkpt lat="32.2406686" lon="-111.1584851"><ele>865.0</ele><time>2026-04-14T16:22:28.123Z</time></trkpt><trkpt lat="32.2407392" lon="-111.158652"><ele>864.6666666666666</ele><time>2026-04-14T16:22:29.121Z</time></trkpt><trkpt lat="32.2407908" lon="-111.1588285"><ele>864.3333333333333</ele><time>2026-04-14T16:22:30.12Z</time></trkpt><trkpt lat="32.2408309" lon="-111.1590183"><ele>864.0</ele><time>2026-04-14T16:22:31.117Z</time></trkpt><trkpt lat="32.2408676" lon="-111.1592195"><ele>864.0</ele><time>2026-04-14T16:22:32.122Z</time></trkpt><trkpt lat="32.2409035" lon="-111.1594216"><ele>864.0</ele><time>2026-04-14T16:22:33.114Z</time></trkpt><trkpt lat="32.2409443" lon="-111.1596252"><ele>864.0</ele><time>2026-04-14T16:22:34.115Z</time></trkpt><trkpt lat="32.2409952" lon="-111.1598259"><ele>862.3333333333333</ele><time>2026-04-14T16:22:35.116Z</time></trkpt><trkpt lat="32.2410598" lon="-111.1600244"><ele>860.6666666666666</ele><time>2026-04-14T16:22:36.123Z</time></trkpt><trkpt lat="32.2411367" lon="-111.1602114"><ele>859.0</ele><time>2026-04-14T16:22:37.123Z</time></trkpt><trkpt lat="32.2412235" lon="-111.160381"><ele>859.0</ele><time>2026-04-14T16:22:38.12Z</time></trkpt><trkpt lat="32.2413233" lon="-111.160542"><ele>859.0</ele><time>2026-04-14T16:22:39.126Z</time></trkpt><trkpt lat="32.2414351" lon="-111.1606914"><ele>859.0</ele><time>2026-04-14T16:22:40.117Z</time></trkpt><trkpt lat="32.2415587" lon="-111.1608343"><ele>859.6666666666666</ele><time>2026-04-14T16:22:41.12Z</time></trkpt><trkpt lat="32.2416866" lon="-111.160973"><ele>860.3333333333333</ele><time>2026-04-14T16:22:42.123Z</time></trkpt><trkpt lat="32.241811" lon="-111.1611066"><ele>861.0</ele><time>2026-04-14T16:22:43.113Z</time></trkpt><trkpt lat="32.2419309" lon="-111.1612397"><ele>861.0</ele><time>2026-04-14T16:22:44.125Z</time></trkpt><trkpt lat="32.2420426" lon="-111.1613715"><ele>861.0</ele><time>2026-04-14T16:22:45.12Z</time></trkpt><trkpt lat="32.2421515" lon="-111.16151"><ele>861.0</ele><time>2026-04-14T16:22:46.113Z</time></trkpt><trkpt lat="32.2422571" lon="-111.1616584"><ele>862.0</ele><time>2026-04-14T16:22:47.115Z</time></trkpt><trkpt lat="32.2423589" lon="-111.161815"><ele>863.0</ele><time>2026-04-14T16:22:48.121Z</time></trkpt><trkpt lat="32.2424567" lon="-111.1619721"><ele>864.0</ele><time>2026-04-14T16:22:49.112Z</time></trkpt><trkpt lat="32.2425519" lon="-111.1621258"><ele>864.0</ele><time>2026-04-14T16:22:50.109Z</time></trkpt><trkpt lat="32.2426469" lon="-111.1622739"><ele>864.0</ele><time>2026-04-14T16:22:51.114Z</time></trkpt><trkpt lat="32.2427427" lon="-111.1624133"><ele>864.0</ele><time>2026-04-14T16:22:52.118Z</time></trkpt><trkpt lat="32.2428399" lon="-111.1625393"><ele>862.75</ele><time>2026-04-14T16:22:53.117Z</time></trkpt><trkpt lat="32.2429403" lon="-111.1626512"><ele>861.5</ele><time>2026-04-14T16:22:54.12Z</time></trkpt><trkpt lat="32.2430498" lon="-111.1627478"><ele>860.25</ele><time>2026-04-14T16:22:55.12Z</time></trkpt><trkpt lat="32.2431701" lon="-111.1628294"><ele>859.0</ele><time>2026-04-14T16:22:56.12Z</time></trkpt><trkpt lat="32.2432957" lon="-111.1629025"><ele>861.5</ele><time>2026-04-14T16:22:57.117Z</time></trkpt><trkpt lat="32.2434235" lon="-111.1629723"><ele>864.0</ele><time>2026-04-14T16:22:58.133Z</time></trkpt><trkpt lat="32.2435451" lon="-111.1630415"><ele>866.5</ele><time>2026-04-14T16:22:59.117Z</time></trkpt><trkpt lat="32.2436654" lon="-111.1631151"><ele>869.0</ele><time>2026-04-14T16:23:00.109Z</time></trkpt><trkpt lat="32.2437798" lon="-111.1631951"><ele>868.25</ele><time>2026-04-14T16:23:01.116Z</time></trkpt><trkpt lat="32.2438888" lon="-111.163285"><ele>867.5</ele><time>2026-04-14T16:23:02.119Z</time></trkpt><trkpt lat="32.2439939" lon="-111.1633867"><ele>866.75</ele><time>2026-04-14T16:23:03.126Z</time></trkpt><trkpt lat="32.2440953" lon="-111.1634954"><ele>866.0</ele><time>2026-04-14T16:23:04.115Z</time></trkpt><trkpt lat="32.2441968" lon="-111.1636123"><ele>866.0</ele><time>2026-04-14T16:23:05.121Z</time></trkpt><trkpt lat="32.2442943" lon="-111.1637303"><ele>866.0</ele><time>2026-04-14T16:23:06.118Z</time></trkpt><trkpt lat="32.2443941" lon="-111.1638494"><ele>866.0</ele><time>2026-04-14T16:23:07.125Z</time></trkpt><trkpt lat="32.2444962" lon="-111.1639668"><ele>866.0</ele><time>2026-04-14T16:23:08.114Z</time></trkpt><trkpt lat="32.2446085" lon="-111.1640933"><ele>865.6666666666667</ele><time>2026-04-14T16:23:09.119Z</time></trkpt><trkpt lat="32.2447261" lon="-111.1642298"><ele>865.3333333333333</ele><time>2026-04-14T16:23:10.12Z</time></trkpt><trkpt lat="32.2448462" lon="-111.1643741"><ele>865.0</ele><time>2026-04-14T16:23:11.111Z</time></trkpt><trkpt lat="32.2449704" lon="-111.1645232"><ele>865.0</ele><time>2026-04-14T16:23:12.117Z</time></trkpt><trkpt lat="32.2450944" lon="-111.1646725"><ele>865.0</ele><time>2026-04-14T16:23:13.114Z</time></trkpt><trkpt lat="32.2452183" lon="-111.1648237"><ele>865.0</ele><time>2026-04-14T16:23:14.121Z</time></trkpt><trkpt lat="32.2453382" lon="-111.1649746"><ele>864.6666666666666</ele><time>2026-04-14T16:23:15.124Z</time></trkpt><trkpt lat="32.245459" lon="-111.165124"><ele>864.3333333333333</ele><time>2026-04-14T16:23:16.144Z</time></trkpt><trkpt lat="32.2455698" lon="-111.1652642"><ele>864.0</ele><time>2026-04-14T16:23:17.115Z</time></trkpt><trkpt lat="32.2456812" lon="-111.1654045"><ele>867.0</ele><time>2026-04-14T16:23:18.114Z</time></trkpt><trkpt lat="32.2457903" lon="-111.1655405"><ele>870.0</ele><time>2026-04-14T16:23:19.113Z</time></trkpt><trkpt lat="32.2458972" lon="-111.1656775"><ele>873.0</ele><time>2026-04-14T16:23:20.119Z</time></trkpt><trkpt lat="32.2459987" lon="-111.1658143"><ele>873.0</ele><time>2026-04-14T16:23:21.117Z</time></trkpt><trkpt lat="32.2460927" lon="-111.1659598"><ele>873.0</ele><time>2026-04-14T16:23:22.123Z</time></trkpt><trkpt lat="32.2461784" lon="-111.1661122"><ele>873.0</ele><time>2026-04-14T16:23:23.109Z</time></trkpt><trkpt lat="32.2462607" lon="-111.1662764"><ele>873.0</ele><time>2026-04-14T16:23:24.112Z</time></trkpt><trkpt lat="32.2463413" lon="-111.1664472"><ele>873.0</ele><time>2026-04-14T16:23:25.115Z</time></trkpt><trkpt lat="32.2464246" lon="-111.1666206"><ele>873.0</ele><time>2026-04-14T16:23:26.115Z</time></trkpt><trkpt lat="32.2465129" lon="-111.1667931"><ele>876.3333333333333</ele><time>2026-04-14T16:23:27.124Z</time></trkpt><trkpt lat="32.246607" lon="-111.1669606"><ele>879.6666666666666</ele><time>2026-04-14T16:23:28.118Z</time></trkpt><trkpt lat="32.246711" lon="-111.1671253"><ele>883.0</ele><time>2026-04-14T16:23:29.112Z</time></trkpt><trkpt lat="32.2468261" lon="-111.1672901"><ele>882.0</ele><time>2026-04-14T16:23:30.134Z</time></trkpt><trkpt lat="32.2469402" lon="-111.167442"><ele>881.0</ele><time>2026-04-14T16:23:31.116Z</time></trkpt><trkpt lat="32.2470543" lon="-111.1675889"><ele>880.0</ele><time>2026-04-14T16:23:32.115Z</time></trkpt><trkpt lat="32.2471637" lon="-111.1677359"><ele>880.0</ele><time>2026-04-14T16:23:33.112Z</time></trkpt><trkpt lat="32.2472627" lon="-111.1678791"><ele>880.0</ele><time>2026-04-14T16:23:34.117Z</time></trkpt><trkpt lat="32.2473553" lon="-111.1680282"><ele>880.0</ele><time>2026-04-14T16:23:35.121Z</time></trkpt><trkpt lat="32.2474325" lon="-111.1681815"><ele>881.25</ele><time>2026-04-14T16:23:36.116Z</time></trkpt><trkpt lat="32.2474964" lon="-111.1683411"><ele>882.5</ele><time>2026-04-14T16:23:37.12Z</time></trkpt><trkpt lat="32.2475482" lon="-111.1685035"><ele>883.75</ele><time>2026-04-14T16:23:38.113Z</time></trkpt><trkpt lat="32.2475859" lon="-111.1686785"><ele>885.0</ele><time>2026-04-14T16:23:39.111Z</time></trkpt><trkpt lat="32.2476117" lon="-111.1688706"><ele>884.0</ele><time>2026-04-14T16:23:40.116Z</time></trkpt><trkpt lat="32.2476284" lon="-111.1690787"><ele>883.0</ele><time>2026-04-14T16:23:41.118Z</time></trkpt><trkpt lat="32.2476425" lon="-111.1692952"><ele>882.0</ele><time>2026-04-14T16:23:42.12Z</time></trkpt><trkpt lat="32.2476554" lon="-111.1695198"><ele>882.0</ele><time>2026-04-14T16:23:43.117Z</time></trkpt><trkpt lat="32.2476705" lon="-111.1697499"><ele>882.0</ele><time>2026-04-14T16:23:44.114Z</time></trkpt><trkpt lat="32.2476834" lon="-111.1699777"><ele>882.0</ele><time>2026-04-14T16:23:45.123Z</time></trkpt><trkpt lat="32.247697" lon="-111.170208"><ele>880.6666666666667</ele><time>2026-04-14T16:23:46.118Z</time></trkpt><trkpt lat="32.2477073" lon="-111.1704381"><ele>879.3333333333334</ele><time>2026-04-14T16:23:47.113Z</time></trkpt><trkpt lat="32.2477191" lon="-111.1706696"><ele>878.0</ele><time>2026-04-14T16:23:48.12Z</time></trkpt><trkpt lat="32.2477319" lon="-111.1708967"><ele>876.3333333333334</ele><time>2026-04-14T16:23:49.115Z</time></trkpt><trkpt lat="32.2477497" lon="-111.1711203"><ele>874.6666666666667</ele><time>2026-04-14T16:23:50.12Z</time></trkpt><trkpt lat="32.2477663" lon="-111.17134"><ele>873.0</ele><time>2026-04-14T16:23:51.112Z</time></trkpt><trkpt lat="32.2477812" lon="-111.1715619"><ele>872.0</ele><time>2026-04-14T16:23:52.117Z</time></trkpt><trkpt lat="32.2477926" lon="-111.1717847"><ele>871.0</ele><time>2026-04-14T16:23:53.12Z</time></trkpt><trkpt lat="32.2478006" lon="-111.1720132"><ele>870.0</ele><time>2026-04-14T16:23:54.148Z</time></trkpt><trkpt lat="32.2478021" lon="-111.1722268"><ele>868.3333333333333</ele><time>2026-04-14T16:23:55.115Z</time></trkpt><trkpt lat="32.2477957" lon="-111.1724493"><ele>866.6666666666666</ele><time>2026-04-14T16:23:56.115Z</time></trkpt><trkpt lat="32.2477786" lon="-111.1726716"><ele>865.0</ele><time>2026-04-14T16:23:57.117Z</time></trkpt><trkpt lat="32.2477493" lon="-111.172896"><ele>865.0</ele><time>2026-04-14T16:23:58.115Z</time></trkpt><trkpt lat="32.2477078" lon="-111.1731253"><ele>865.0</ele><time>2026-04-14T16:23:59.12Z</time></trkpt><trkpt lat="32.2476566" lon="-111.1733494"><ele>865.0</ele><time>2026-04-14T16:24:00.115Z</time></trkpt><trkpt lat="32.2476002" lon="-111.1735712"><ele>863.0</ele><time>2026-04-14T16:24:01.109Z</time></trkpt><trkpt lat="32.2475391" lon="-111.1738008"><ele>861.0</ele><time>2026-04-14T16:24:02.131Z</time></trkpt><trkpt lat="32.247479" lon="-111.1740184"><ele>859.0</ele><time>2026-04-14T16:24:03.111Z</time></trkpt><trkpt lat="32.2474194" lon="-111.1742432"><ele>859.0</ele><time>2026-04-14T16:24:04.12Z</time></trkpt><trkpt lat="32.2473603" lon="-111.1744629"><ele>859.0</ele><time>2026-04-14T16:24:05.114Z</time></trkpt><trkpt lat="32.247301" lon="-111.1746852"><ele>859.0</ele><time>2026-04-14T16:24:06.124Z</time></trkpt><trkpt lat="32.2472431" lon="-111.1749036"><ele>856.6666666666666</ele><time>2026-04-14T16:24:07.112Z</time></trkpt><trkpt lat="32.2471837" lon="-111.1751248"><ele>854.3333333333333</ele><time>2026-04-14T16:24:08.121Z</time></trkpt><trkpt lat="32.2471285" lon="-111.1753407"><ele>852.0</ele><time>2026-04-14T16:24:09.123Z</time></trkpt><trkpt lat="32.2470723" lon="-111.1755529"><ele>851.3333333333333</ele><time>2026-04-14T16:24:10.116Z</time></trkpt><trkpt lat="32.2470131" lon="-111.1757679"><ele>850.6666666666666</ele><time>2026-04-14T16:24:11.124Z</time></trkpt><trkpt lat="32.2469553" lon="-111.1759799"><ele>850.0</ele><time>2026-04-14T16:24:12.122Z</time></trkpt><trkpt lat="32.2468971" lon="-111.1761973"><ele>850.0</ele><time>2026-04-14T16:24:13.114Z</time></trkpt><trkpt lat="32.2468377" lon="-111.1764197"><ele>850.0</ele><time>2026-04-14T16:24:14.113Z</time></trkpt><trkpt lat="32.2467774" lon="-111.1766468"><ele>850.0</ele><time>2026-04-14T16:24:15.113Z</time></trkpt><trkpt lat="32.2467169" lon="-111.1768708"><ele>848.3333333333333</ele><time>2026-04-14T16:24:16.115Z</time></trkpt><trkpt lat="32.2466571" lon="-111.1770945"><ele>846.6666666666667</ele><time>2026-04-14T16:24:17.112Z</time></trkpt><trkpt lat="32.2465944" lon="-111.1773269"><ele>845.0</ele><time>2026-04-14T16:24:18.158Z</time></trkpt><trkpt lat="32.2465378" lon="-111.1775385"><ele>843.3333333333334</ele><time>2026-04-14T16:24:19.116Z</time></trkpt><trkpt lat="32.2464777" lon="-111.1777557"><ele>841.6666666666667</ele><time>2026-04-14T16:24:20.121Z</time></trkpt><trkpt lat="32.2464191" lon="-111.1779673"><ele>840.0</ele><time>2026-04-14T16:24:21.117Z</time></trkpt><trkpt lat="32.2463677" lon="-111.1781772"><ele>838.6666666666667</ele><time>2026-04-14T16:24:22.123Z</time></trkpt><trkpt lat="32.2463286" lon="-111.178383"><ele>837.3333333333334</ele><time>2026-04-14T16:24:23.121Z</time></trkpt><trkpt lat="32.2463031" lon="-111.1785897"><ele>836.0</ele><time>2026-04-14T16:24:24.126Z</time></trkpt><trkpt lat="32.2462895" lon="-111.1787985"><ele>836.0</ele><time>2026-04-14T16:24:25.12Z</time></trkpt><trkpt lat="32.2462834" lon="-111.1790124"><ele>836.0</ele><time>2026-04-14T16:24:26.119Z</time></trkpt><trkpt lat="32.2462805" lon="-111.1792207"><ele>836.0</ele><time>2026-04-14T16:24:27.113Z</time></trkpt><trkpt lat="32.2462741" lon="-111.1794317"><ele>834.6666666666667</ele><time>2026-04-14T16:24:28.117Z</time></trkpt><trkpt lat="32.2462645" lon="-111.1796463"><ele>833.3333333333333</ele><time>2026-04-14T16:24:29.117Z</time></trkpt><trkpt lat="32.2462555" lon="-111.1798623"><ele>832.0</ele><time>2026-04-14T16:24:30.112Z</time></trkpt><trkpt lat="32.2462495" lon="-111.1800825"><ele>830.6666666666666</ele><time>2026-04-14T16:24:31.118Z</time></trkpt><trkpt lat="32.2462513" lon="-111.1802978"><ele>829.3333333333333</ele><time>2026-04-14T16:24:32.121Z</time></trkpt><trkpt lat="32.2462632" lon="-111.1805064"><ele>828.0</ele><time>2026-04-14T16:24:33.128Z</time></trkpt><trkpt lat="32.2462876" lon="-111.1806994"><ele>826.6666666666667</ele><time>2026-04-14T16:24:34.119Z</time></trkpt><trkpt lat="32.24633" lon="-111.1808829"><ele>825.3333333333334</ele><time>2026-04-14T16:24:35.122Z</time></trkpt><trkpt lat="32.2463918" lon="-111.1810514"><ele>824.0</ele><time>2026-04-14T16:24:36.121Z</time></trkpt><trkpt lat="32.246471" lon="-111.1812139"><ele>824.0</ele><time>2026-04-14T16:24:37.114Z</time></trkpt><trkpt lat="32.2465641" lon="-111.1813847"><ele>824.0</ele><time>2026-04-14T16:24:38.132Z</time></trkpt><trkpt lat="32.246658" lon="-111.1815533"><ele>824.0</ele><time>2026-04-14T16:24:39.122Z</time></trkpt><trkpt lat="32.2467514" lon="-111.1817168"><ele>823.6666666666667</ele><time>2026-04-14T16:24:40.12Z</time></trkpt><trkpt lat="32.2468429" lon="-111.1818762"><ele>823.3333333333333</ele><time>2026-04-14T16:24:41.118Z</time></trkpt><trkpt lat="32.2469316" lon="-111.1820302"><ele>823.0</ele><time>2026-04-14T16:24:42.113Z</time></trkpt><trkpt lat="32.2470183" lon="-111.1821858"><ele>823.0</ele><time>2026-04-14T16:24:43.116Z</time></trkpt><trkpt lat="32.2471012" lon="-111.182347"><ele>823.0</ele><time>2026-04-14T16:24:44.119Z</time></trkpt><trkpt lat="32.247175" lon="-111.1825159"><ele>823.0</ele><time>2026-04-14T16:24:45.116Z</time></trkpt><trkpt lat="32.2472432" lon="-111.1826908"><ele>820.3333333333333</ele><time>2026-04-14T16:24:46.113Z</time></trkpt><trkpt lat="32.2473088" lon="-111.1828641"><ele>817.6666666666667</ele><time>2026-04-14T16:24:47.114Z</time></trkpt><trkpt lat="32.2473841" lon="-111.1830319"><ele>815.0</ele><time>2026-04-14T16:24:48.114Z</time></trkpt><trkpt lat="32.2474728" lon="-111.1831953"><ele>814.3333333333334</ele><time>2026-04-14T16:24:49.117Z</time></trkpt><trkpt lat="32.2475741" lon="-111.1833485"><ele>813.6666666666667</ele><time>2026-04-14T16:24:50.122Z</time></trkpt><trkpt lat="32.2476777" lon="-111.1834914"><ele>813.0</ele><time>2026-04-14T16:24:51.119Z</time></trkpt><trkpt lat="32.2477729" lon="-111.1836261"><ele>813.0</ele><time>2026-04-14T16:24:52.121Z</time></trkpt><trkpt lat="32.2478606" lon="-111.1837496"><ele>813.0</ele><time>2026-04-14T16:24:53.111Z</time></trkpt><trkpt lat="32.247941" lon="-111.1838752"><ele>813.0</ele><time>2026-04-14T16:24:54.118Z</time></trkpt><trkpt lat="32.2480098" lon="-111.1840051"><ele>813.0</ele><time>2026-04-14T16:24:55.121Z</time></trkpt><trkpt lat="32.248067" lon="-111.1841448"><ele>813.25</ele><time>2026-04-14T16:24:56.123Z</time></trkpt><trkpt lat="32.2481091" lon="-111.1842957"><ele>813.5</ele><time>2026-04-14T16:24:57.128Z</time></trkpt><trkpt lat="32.2481342" lon="-111.1844567"><ele>813.75</ele><time>2026-04-14T16:24:58.121Z</time></trkpt><trkpt lat="32.2481432" lon="-111.1846338"><ele>814.0</ele><time>2026-04-14T16:24:59.127Z</time></trkpt><trkpt lat="32.2481447" lon="-111.1848226"><ele>812.0</ele><time>2026-04-14T16:25:00.121Z</time></trkpt><trkpt lat="32.2481453" lon="-111.1850231"><ele>810.0</ele><time>2026-04-14T16:25:01.12Z</time></trkpt><trkpt lat="32.2481439" lon="-111.1852314"><ele>808.0</ele><time>2026-04-14T16:25:02.114Z</time></trkpt><trkpt lat="32.2481413" lon="-111.1854588"><ele>807.0</ele><time>2026-04-14T16:25:03.121Z</time></trkpt><trkpt lat="32.2481384" lon="-111.1856993"><ele>806.0</ele><time>2026-04-14T16:25:04.124Z</time></trkpt><trkpt lat="32.2481359" lon="-111.1859385"><ele>805.0</ele><time>2026-04-14T16:25:05.123Z</time></trkpt><trkpt lat="32.2481341" lon="-111.1861762"><ele>805.0</ele><time>2026-04-14T16:25:06.126Z</time></trkpt><trkpt lat="32.2481332" lon="-111.1864121"><ele>805.0</ele><time>2026-04-14T16:25:07.136Z</time></trkpt><trkpt lat="32.2481327" lon="-111.1866448"><ele>805.0</ele><time>2026-04-14T16:25:08.126Z</time></trkpt><trkpt lat="32.2481324" lon="-111.1868808"><ele>803.6666666666666</ele><time>2026-04-14T16:25:09.108Z</time></trkpt><trkpt lat="32.2481317" lon="-111.1871249"><ele>802.3333333333333</ele><time>2026-04-14T16:25:10.109Z</time></trkpt><trkpt lat="32.2481311" lon="-111.1873749"><ele>801.0</ele><time>2026-04-14T16:25:11.122Z</time></trkpt><trkpt lat="32.2481305" lon="-111.1876225"><ele>800.6666666666667</ele><time>2026-04-14T16:25:12.113Z</time></trkpt><trkpt lat="32.2481302" lon="-111.187876"><ele>800.3333333333334</ele><time>2026-04-14T16:25:13.117Z</time></trkpt><trkpt lat="32.2481299" lon="-111.1881293"><ele>800.0</ele><time>2026-04-14T16:25:14.114Z</time></trkpt><trkpt lat="32.2481291" lon="-111.1883911"><ele>799.0</ele><time>2026-04-14T16:25:15.118Z</time></trkpt><trkpt lat="32.2481293" lon="-111.1886578"><ele>798.0</ele><time>2026-04-14T16:25:16.116Z</time></trkpt><trkpt lat="32.248132" lon="-111.1889212"><ele>797.0</ele><time>2026-04-14T16:25:17.119Z</time></trkpt><trkpt lat="32.248132" lon="-111.1891817"><ele>795.6666666666667</ele><time>2026-04-14T16:25:18.123Z</time></trkpt><trkpt lat="32.2481315" lon="-111.1894354"><ele>794.3333333333333</ele><time>2026-04-14T16:25:19.112Z</time></trkpt><trkpt lat="32.248131" lon="-111.1896929"><ele>793.0</ele><time>2026-04-14T16:25:20.12Z</time></trkpt><trkpt lat="32.2481304" lon="-111.1899466"><ele>792.0</ele><time>2026-04-14T16:25:21.118Z</time></trkpt><trkpt lat="32.2481292" lon="-111.1902028"><ele>791.0</ele><time>2026-04-14T16:25:22.133Z</time></trkpt><trkpt lat="32.2481267" lon="-111.1904552"><ele>790.0</ele><time>2026-04-14T16:25:23.117Z</time></trkpt><trkpt lat="32.2481245" lon="-111.1907172"><ele>789.0</ele><time>2026-04-14T16:25:24.12Z</time></trkpt><trkpt lat="32.248122" lon="-111.1909797"><ele>788.0</ele><time>2026-04-14T16:25:25.115Z</time></trkpt><trkpt lat="32.2481207" lon="-111.1912438"><ele>787.0</ele><time>2026-04-14T16:25:26.12Z</time></trkpt><trkpt lat="32.2481202" lon="-111.1915067"><ele>785.0</ele><time>2026-04-14T16:25:27.117Z</time></trkpt><trkpt lat="32.2481201" lon="-111.1917734"><ele>783.0</ele><time>2026-04-14T16:25:28.121Z</time></trkpt><trkpt lat="32.2481204" lon="-111.1920389"><ele>783.0</ele><time>2026-04-14T16:25:29.115Z</time></trkpt><trkpt lat="32.2481209" lon="-111.1923115"><ele>783.0</ele><time>2026-04-14T16:25:30.131Z</time></trkpt><trkpt lat="32.2481218" lon="-111.1925765"><ele>781.0</ele><time>2026-04-14T16:25:31.117Z</time></trkpt><trkpt lat="32.248122" lon="-111.1928447"><ele>779.0</ele><time>2026-04-14T16:25:32.119Z</time></trkpt><trkpt lat="32.2481206" lon="-111.1931174"><ele>777.5</ele><time>2026-04-14T16:25:33.122Z</time></trkpt><trkpt lat="32.2481197" lon="-111.1933876"><ele>776.0</ele><time>2026-04-14T16:25:34.123Z</time></trkpt><trkpt lat="32.2481196" lon="-111.1936522"><ele>776.0</ele><time>2026-04-14T16:25:35.117Z</time></trkpt><trkpt lat="32.2481199" lon="-111.1939174"><ele>776.0</ele><time>2026-04-14T16:25:36.12Z</time></trkpt><trkpt lat="32.2481198" lon="-111.1941816"><ele>776.0</ele><time>2026-04-14T16:25:37.122Z</time></trkpt><trkpt lat="32.2481205" lon="-111.1944422"><ele>775.6666666666667</ele><time>2026-04-14T16:25:38.121Z</time></trkpt><trkpt lat="32.2481208" lon="-111.194702"><ele>775.3333333333333</ele><time>2026-04-14T16:25:39.113Z</time></trkpt><trkpt lat="32.2481218" lon="-111.1949657"><ele>775.0</ele><time>2026-04-14T16:25:40.116Z</time></trkpt><trkpt lat="32.2481231" lon="-111.19523"><ele>774.5</ele><time>2026-04-14T16:25:41.12Z</time></trkpt><trkpt lat="32.248124" lon="-111.1954945"><ele>774.0</ele><time>2026-04-14T16:25:42.116Z</time></trkpt><trkpt lat="32.2481254" lon="-111.1957615"><ele>772.6666666666667</ele><time>2026-04-14T16:25:43.118Z</time></trkpt><trkpt lat="32.2481261" lon="-111.1960271"><ele>771.3333333333334</ele><time>2026-04-14T16:25:44.12Z</time></trkpt><trkpt lat="32.2481271" lon="-111.1962924"><ele>770.0</ele><time>2026-04-14T16:25:45.126Z</time></trkpt><trkpt lat="32.2481294" lon="-111.1965528"><ele>769.0</ele><time>2026-04-14T16:25:46.121Z</time></trkpt><trkpt lat="32.2481307" lon="-111.1968162"><ele>768.0</ele><time>2026-04-14T16:25:47.123Z</time></trkpt><trkpt lat="32.2481311" lon="-111.1970827"><ele>767.0</ele><time>2026-04-14T16:25:48.122Z</time></trkpt><trkpt lat="32.2481306" lon="-111.1973476"><ele>766.3333333333333</ele><time>2026-04-14T16:25:49.116Z</time></trkpt><trkpt lat="32.2481305" lon="-111.1976127"><ele>765.6666666666666</ele><time>2026-04-14T16:25:50.124Z</time></trkpt><trkpt lat="32.2481303" lon="-111.1978737"><ele>765.0</ele><time>2026-04-14T16:25:51.117Z</time></trkpt><trkpt lat="32.2481299" lon="-111.1981372"><ele>764.3333333333334</ele><time>2026-04-14T16:25:52.118Z</time></trkpt><trkpt lat="32.2481293" lon="-111.1983983"><ele>763.6666666666667</ele><time>2026-04-14T16:25:53.112Z</time></trkpt><trkpt lat="32.2481284" lon="-111.1986614"><ele>763.0</ele><time>2026-04-14T16:25:54.114Z</time></trkpt><trkpt lat="32.2481271" lon="-111.198923"><ele>762.3333333333334</ele><time>2026-04-14T16:25:55.114Z</time></trkpt><trkpt lat="32.2481263" lon="-111.1991842"><ele>761.6666666666666</ele><time>2026-04-14T16:25:56.117Z</time></trkpt><trkpt lat="32.2481254" lon="-111.199443"><ele>761.0</ele><time>2026-04-14T16:25:57.113Z</time></trkpt><trkpt lat="32.2481248" lon="-111.1997126"><ele>760.6666666666666</ele><time>2026-04-14T16:25:58.14Z</time></trkpt><trkpt lat="32.2481248" lon="-111.1999731"><ele>760.3333333333334</ele><time>2026-04-14T16:25:59.122Z</time></trkpt><trkpt lat="32.2481244" lon="-111.2002355"><ele>760.0</ele><time>2026-04-14T16:26:00.121Z</time></trkpt><trkpt lat="32.2481241" lon="-111.200496"><ele>758.6666666666667</ele><time>2026-04-14T16:26:01.125Z</time></trkpt><trkpt lat="32.2481241" lon="-111.2007545"><ele>757.3333333333334</ele><time>2026-04-14T16:26:02.124Z</time></trkpt><trkpt lat="32.2481242" lon="-111.2010128"><ele>756.0</ele><time>2026-04-14T16:26:03.125Z</time></trkpt><trkpt lat="32.2481235" lon="-111.2012758"><ele>754.6666666666666</ele><time>2026-04-14T16:26:04.14Z</time></trkpt><trkpt lat="32.2481228" lon="-111.2015302"><ele>753.3333333333333</ele><time>2026-04-14T16:26:05.12Z</time></trkpt><trkpt lat="32.2481227" lon="-111.201789"><ele>752.0</ele><time>2026-04-14T16:26:06.114Z</time></trkpt><trkpt lat="32.2481226" lon="-111.202047"><ele>752.0</ele><time>2026-04-14T16:26:07.114Z</time></trkpt><trkpt lat="32.248122" lon="-111.2023057"><ele>752.0</ele><time>2026-04-14T16:26:08.121Z</time></trkpt><trkpt lat="32.2481215" lon="-111.2025619"><ele>752.0</ele><time>2026-04-14T16:26:09.111Z</time></trkpt><trkpt lat="32.2481213" lon="-111.2028255"><ele>752.0</ele><time>2026-04-14T16:26:10.128Z</time></trkpt><trkpt lat="32.248122" lon="-111.2030869"><ele>752.0</ele><time>2026-04-14T16:26:11.12Z</time></trkpt><trkpt lat="32.2481228" lon="-111.2033513"><ele>752.0</ele><time>2026-04-14T16:26:12.12Z</time></trkpt><trkpt lat="32.2481236" lon="-111.2036141"><ele>750.0</ele><time>2026-04-14T16:26:13.117Z</time></trkpt><trkpt lat="32.2481236" lon="-111.2038811"><ele>748.0</ele><time>2026-04-14T16:26:14.127Z</time></trkpt><trkpt lat="32.2481236" lon="-111.2041462"><ele>747.0</ele><time>2026-04-14T16:26:15.124Z</time></trkpt><trkpt lat="32.2481234" lon="-111.2044101"><ele>746.0</ele><time>2026-04-14T16:26:16.118Z</time></trkpt><trkpt lat="32.2481235" lon="-111.2046722"><ele>745.0</ele><time>2026-04-14T16:26:17.119Z</time></trkpt><trkpt lat="32.2481234" lon="-111.2049306"><ele>744.0</ele><time>2026-04-14T16:26:18.121Z</time></trkpt><trkpt lat="32.2481233" lon="-111.205186"><ele>743.0</ele><time>2026-04-14T16:26:19.119Z</time></trkpt><trkpt lat="32.2481236" lon="-111.2054468"><ele>742.0</ele><time>2026-04-14T16:26:20.126Z</time></trkpt><trkpt lat="32.2481237" lon="-111.2057075"><ele>741.6666666666667</ele><time>2026-04-14T16:26:21.121Z</time></trkpt><trkpt lat="32.2481239" lon="-111.2059775"><ele>741.3333333333334</ele><time>2026-04-14T16:26:22.15Z</time></trkpt><trkpt lat="32.2481242" lon="-111.2062321"><ele>741.0</ele><time>2026-04-14T16:26:23.123Z</time></trkpt><trkpt lat="32.2481242" lon="-111.2064936"><ele>739.6666666666666</ele><time>2026-04-14T16:26:24.125Z</time></trkpt><trkpt lat="32.2481235" lon="-111.2067549"><ele>738.3333333333333</ele><time>2026-04-14T16:26:25.125Z</time></trkpt><trkpt lat="32.2481233" lon="-111.2070156"><ele>737.0</ele><time>2026-04-14T16:26:26.121Z</time></trkpt><trkpt lat="32.2481234" lon="-111.2072778"><ele>736.6666666666666</ele><time>2026-04-14T16:26:27.124Z</time></trkpt><trkpt lat="32.2481229" lon="-111.2075229"><ele>736.3333333333334</ele><time>2026-04-14T16:26:28.054Z</time></trkpt><trkpt lat="32.2481213" lon="-111.207787"><ele>736.0</ele><time>2026-04-14T16:26:29.065Z</time></trkpt><trkpt lat="32.2481204" lon="-111.2080447"><ele>735.3333333333334</ele><time>2026-04-14T16:26:30.063Z</time></trkpt><trkpt lat="32.2481203" lon="-111.2083015"><ele>734.6666666666666</ele><time>2026-04-14T16:26:31.06Z</time></trkpt><trkpt lat="32.2481201" lon="-111.208558"><ele>734.0</ele><time>2026-04-14T16:26:32.078Z</time></trkpt><trkpt lat="32.2481182" lon="-111.2088053"><ele>733.0</ele><time>2026-04-14T16:26:33.056Z</time></trkpt><trkpt lat="32.2481146" lon="-111.2090705"><ele>732.0</ele><time>2026-04-14T16:26:34.061Z</time></trkpt><trkpt lat="32.2481128" lon="-111.20933"><ele>731.0</ele><time>2026-04-14T16:26:35.066Z</time></trkpt><trkpt lat="32.2481135" lon="-111.2095854"><ele>730.3333333333333</ele><time>2026-04-14T16:26:36.061Z</time></trkpt><trkpt lat="32.2481153" lon="-111.2098476"><ele>729.6666666666666</ele><time>2026-04-14T16:26:37.069Z</time></trkpt><trkpt lat="32.2481179" lon="-111.2101055"><ele>729.0</ele><time>2026-04-14T16:26:38.068Z</time></trkpt><trkpt lat="32.2481236" lon="-111.2103629"><ele>729.0</ele><time>2026-04-14T16:26:39.067Z</time></trkpt><trkpt lat="32.2481314" lon="-111.2106262"><ele>729.0</ele><time>2026-04-14T16:26:40.067Z</time></trkpt><trkpt lat="32.2481495" lon="-111.2108845"><ele>729.0</ele><time>2026-04-14T16:26:41.059Z</time></trkpt><trkpt lat="32.2481769" lon="-111.2111457"><ele>729.0</ele><time>2026-04-14T16:26:42.057Z</time></trkpt><trkpt lat="32.2482052" lon="-111.2114051"><ele>729.0</ele><time>2026-04-14T16:26:43.064Z</time></trkpt><trkpt lat="32.248231" lon="-111.2116605"><ele>729.0</ele><time>2026-04-14T16:26:44.061Z</time></trkpt><trkpt lat="32.2482452" lon="-111.2119179"><ele>728.3333333333334</ele><time>2026-04-14T16:26:45.064Z</time></trkpt><trkpt lat="32.248248" lon="-111.212174"><ele>727.6666666666667</ele><time>2026-04-14T16:26:46.059Z</time></trkpt><trkpt lat="32.2482497" lon="-111.2124316"><ele>727.0</ele><time>2026-04-14T16:26:47.054Z</time></trkpt><trkpt lat="32.2482467" lon="-111.2126867"><ele>725.6666666666667</ele><time>2026-04-14T16:26:48.061Z</time></trkpt><trkpt lat="32.2482479" lon="-111.2129468"><ele>724.3333333333334</ele><time>2026-04-14T16:26:49.061Z</time></trkpt><trkpt lat="32.2482472" lon="-111.2132075"><ele>723.0</ele><time>2026-04-14T16:26:50.073Z</time></trkpt><trkpt lat="32.2482473" lon="-111.2134574"><ele>722.6666666666666</ele><time>2026-04-14T16:26:51.061Z</time></trkpt><trkpt lat="32.2482478" lon="-111.2137023"><ele>722.3333333333333</ele><time>2026-04-14T16:26:52.064Z</time></trkpt><trkpt lat="32.2482491" lon="-111.2139553"><ele>722.0</ele><time>2026-04-14T16:26:53.069Z</time></trkpt><trkpt lat="32.248247" lon="-111.2142016"><ele>721.3333333333333</ele><time>2026-04-14T16:26:54.055Z</time></trkpt><trkpt lat="32.2482469" lon="-111.2144601"><ele>720.6666666666666</ele><time>2026-04-14T16:26:55.063Z</time></trkpt><trkpt lat="32.248247" lon="-111.2147127"><ele>720.0</ele><time>2026-04-14T16:26:56.057Z</time></trkpt><trkpt lat="32.2482493" lon="-111.2149649"><ele>718.6666666666666</ele><time>2026-04-14T16:26:57.065Z</time></trkpt><trkpt lat="32.2482478" lon="-111.2152125"><ele>717.3333333333333</ele><time>2026-04-14T16:26:58.063Z</time></trkpt><trkpt lat="32.2482457" lon="-111.2154632"><ele>716.0</ele><time>2026-04-14T16:26:59.056Z</time></trkpt><trkpt lat="32.2482448" lon="-111.2157267"><ele>715.6666666666666</ele><time>2026-04-14T16:27:00.059Z</time></trkpt><trkpt lat="32.2482466" lon="-111.2159867"><ele>715.3333333333334</ele><time>2026-04-14T16:27:01.062Z</time></trkpt><trkpt lat="32.2482491" lon="-111.2162417"><ele>715.0</ele><time>2026-04-14T16:27:02.062Z</time></trkpt><trkpt lat="32.2482486" lon="-111.2164807"><ele>714.3333333333334</ele><time>2026-04-14T16:27:03.067Z</time></trkpt><trkpt lat="32.2482483" lon="-111.216711"><ele>713.6666666666666</ele><time>2026-04-14T16:27:04.068Z</time></trkpt><trkpt lat="32.2482479" lon="-111.2169196"><ele>713.0</ele><time>2026-04-14T16:27:05.061Z</time></trkpt><trkpt lat="32.2482468" lon="-111.2171212"><ele>713.0</ele><time>2026-04-14T16:27:06.061Z</time></trkpt><trkpt lat="32.248245" lon="-111.2173017"><ele>713.0</ele><time>2026-04-14T16:27:07.055Z</time></trkpt><trkpt lat="32.2482418" lon="-111.2174722"><ele>713.0</ele><time>2026-04-14T16:27:08.063Z</time></trkpt><trkpt lat="32.248239" lon="-111.2176242"><ele>713.0</ele><time>2026-04-14T16:27:09.058Z</time></trkpt><trkpt lat="32.2482386" lon="-111.217758"><ele>712.5</ele><time>2026-04-14T16:27:10.063Z</time></trkpt><trkpt lat="32.2482396" lon="-111.2178689"><ele>712.0</ele><time>2026-04-14T16:27:11.066Z</time></trkpt><trkpt lat="32.2482399" lon="-111.2179584"><ele>711.5</ele><time>2026-04-14T16:27:12.054Z</time></trkpt><trkpt lat="32.2482389" lon="-111.2180699"><ele>711.0</ele><time>2026-04-14T16:27:14.084Z</time></trkpt><trkpt lat="32.2482472" lon="-111.2181539"><ele>710.5</ele><time>2026-04-14T16:27:19.066Z</time></trkpt><trkpt lat="32.2482472" lon="-111.2182884"><ele>710.0</ele><time>2026-04-14T16:27:21.061Z</time></trkpt><trkpt lat="32.2482421" lon="-111.2184015"><ele>709.5</ele><time>2026-04-14T16:27:22.055Z</time></trkpt><trkpt lat="32.248238" lon="-111.2185449"><ele>709.0</ele><time>2026-04-14T16:27:23.06Z</time></trkpt><trkpt lat="32.248234" lon="-111.2187131"><ele>708.5</ele><time>2026-04-14T16:27:24.058Z</time></trkpt><trkpt lat="32.2482321" lon="-111.2188975"><ele>708.0</ele><time>2026-04-14T16:27:25.067Z</time></trkpt><trkpt lat="32.2482335" lon="-111.2190952"><ele>708.0</ele><time>2026-04-14T16:27:26.058Z</time></trkpt><trkpt lat="32.2482318" lon="-111.2193006"><ele>708.0</ele><time>2026-04-14T16:27:27.063Z</time></trkpt><trkpt lat="32.2482295" lon="-111.2195178"><ele>708.0</ele><time>2026-04-14T16:27:28.06Z</time></trkpt><trkpt lat="32.2482288" lon="-111.2197384"><ele>707.3333333333334</ele><time>2026-04-14T16:27:29.063Z</time></trkpt><trkpt lat="32.2482278" lon="-111.2199571"><ele>706.6666666666667</ele><time>2026-04-14T16:27:30.061Z</time></trkpt><trkpt lat="32.2482279" lon="-111.2201778"><ele>706.0</ele><time>2026-04-14T16:27:31.058Z</time></trkpt><trkpt lat="32.2482266" lon="-111.2204005"><ele>706.0</ele><time>2026-04-14T16:27:32.064Z</time></trkpt><trkpt lat="32.2482237" lon="-111.2206173"><ele>706.0</ele><time>2026-04-14T16:27:33.057Z</time></trkpt><trkpt lat="32.2482217" lon="-111.2208403"><ele>706.0</ele><time>2026-04-14T16:27:34.062Z</time></trkpt><trkpt lat="32.2482212" lon="-111.2210563"><ele>705.3333333333334</ele><time>2026-04-14T16:27:35.074Z</time></trkpt><trkpt lat="32.2482203" lon="-111.22127"><ele>704.6666666666666</ele><time>2026-04-14T16:27:36.068Z</time></trkpt><trkpt lat="32.2482198" lon="-111.2214836"><ele>704.0</ele><time>2026-04-14T16:27:37.057Z</time></trkpt><trkpt lat="32.248219" lon="-111.2217034"><ele>704.0</ele><time>2026-04-14T16:27:38.062Z</time></trkpt><trkpt lat="32.2482184" lon="-111.2219196"><ele>704.0</ele><time>2026-04-14T16:27:39.056Z</time></trkpt><trkpt lat="32.248218" lon="-111.2221387"><ele>704.0</ele><time>2026-04-14T16:27:40.067Z</time></trkpt><trkpt lat="32.2482174" lon="-111.2223513"><ele>703.3333333333333</ele><time>2026-04-14T16:27:41.059Z</time></trkpt><trkpt lat="32.2482131" lon="-111.2225682"><ele>702.6666666666666</ele><time>2026-04-14T16:27:42.062Z</time></trkpt><trkpt lat="32.2482112" lon="-111.2227845"><ele>702.0</ele><time>2026-04-14T16:27:43.055Z</time></trkpt><trkpt lat="32.2482091" lon="-111.2230101"><ele>701.3333333333334</ele><time>2026-04-14T16:27:44.063Z</time></trkpt><trkpt lat="32.248208" lon="-111.2232387"><ele>700.6666666666667</ele><time>2026-04-14T16:27:45.065Z</time></trkpt><trkpt lat="32.2482079" lon="-111.2234593"><ele>700.0</ele><time>2026-04-14T16:27:46.065Z</time></trkpt><trkpt lat="32.2482051" lon="-111.2236792"><ele>700.0</ele><time>2026-04-14T16:27:47.074Z</time></trkpt><trkpt lat="32.2482035" lon="-111.2239032"><ele>700.0</ele><time>2026-04-14T16:27:48.072Z</time></trkpt><trkpt lat="32.2481984" lon="-111.2241242"><ele>700.0</ele><time>2026-04-14T16:27:49.055Z</time></trkpt><trkpt lat="32.2481959" lon="-111.2243524"><ele>699.6666666666667</ele><time>2026-04-14T16:27:50.066Z</time></trkpt><trkpt lat="32.2481938" lon="-111.224577"><ele>699.3333333333334</ele><time>2026-04-14T16:27:51.061Z</time></trkpt><trkpt lat="32.2481917" lon="-111.2247996"><ele>699.0</ele><time>2026-04-14T16:27:52.078Z</time></trkpt><trkpt lat="32.2481902" lon="-111.2250248"><ele>698.6666666666666</ele><time>2026-04-14T16:27:53.063Z</time></trkpt><trkpt lat="32.2481903" lon="-111.2252455"><ele>698.3333333333333</ele><time>2026-04-14T16:27:54.063Z</time></trkpt><trkpt lat="32.248188" lon="-111.2254666"><ele>698.0</ele><time>2026-04-14T16:27:55.055Z</time></trkpt><trkpt lat="32.2481864" lon="-111.2256886"><ele>698.0</ele><time>2026-04-14T16:27:56.063Z</time></trkpt><trkpt lat="32.2481847" lon="-111.2259139"><ele>698.0</ele><time>2026-04-14T16:27:57.065Z</time></trkpt><trkpt lat="32.2481829" lon="-111.2261436"><ele>698.0</ele><time>2026-04-14T16:27:58.063Z</time></trkpt><trkpt lat="32.2481833" lon="-111.2263759"><ele>697.0</ele><time>2026-04-14T16:27:59.068Z</time></trkpt><trkpt lat="32.2481814" lon="-111.2266025"><ele>696.0</ele><time>2026-04-14T16:28:00.058Z</time></trkpt><trkpt lat="32.2481789" lon="-111.2268325"><ele>695.0</ele><time>2026-04-14T16:28:01.058Z</time></trkpt><trkpt lat="32.2481781" lon="-111.2270632"><ele>695.0</ele><time>2026-04-14T16:28:02.067Z</time></trkpt><trkpt lat="32.2481761" lon="-111.2272905"><ele>695.0</ele><time>2026-04-14T16:28:03.063Z</time></trkpt><trkpt lat="32.2481742" lon="-111.2275176"><ele>695.0</ele><time>2026-04-14T16:28:04.061Z</time></trkpt><trkpt lat="32.2481719" lon="-111.2277458"><ele>694.6666666666666</ele><time>2026-04-14T16:28:05.058Z</time></trkpt><trkpt lat="32.2481702" lon="-111.2279788"><ele>694.3333333333334</ele><time>2026-04-14T16:28:06.064Z</time></trkpt><trkpt lat="32.2481679" lon="-111.2282073"><ele>694.0</ele><time>2026-04-14T16:28:07.058Z</time></trkpt><trkpt lat="32.2481667" lon="-111.2284448"><ele>693.0</ele><time>2026-04-14T16:28:08.08Z</time></trkpt><trkpt lat="32.2481651" lon="-111.2286735"><ele>692.0</ele><time>2026-04-14T16:28:09.062Z</time></trkpt><trkpt lat="32.248162" lon="-111.2289074"><ele>691.0</ele><time>2026-04-14T16:28:10.061Z</time></trkpt><trkpt lat="32.2481576" lon="-111.2291375"><ele>690.6666666666667</ele><time>2026-04-14T16:28:11.064Z</time></trkpt><trkpt lat="32.2481548" lon="-111.2293678"><ele>690.3333333333334</ele><time>2026-04-14T16:28:12.062Z</time></trkpt><trkpt lat="32.2481529" lon="-111.229606"><ele>690.0</ele><time>2026-04-14T16:28:13.062Z</time></trkpt><trkpt lat="32.2481535" lon="-111.2298375"><ele>690.0</ele><time>2026-04-14T16:28:14.062Z</time></trkpt><trkpt lat="32.2481495" lon="-111.2300784"><ele>690.0</ele><time>2026-04-14T16:28:15.062Z</time></trkpt><trkpt lat="32.2481489" lon="-111.230318"><ele>690.0</ele><time>2026-04-14T16:28:16.056Z</time></trkpt><trkpt lat="32.2481469" lon="-111.2305587"><ele>689.6666666666666</ele><time>2026-04-14T16:28:17.071Z</time></trkpt><trkpt lat="32.2481476" lon="-111.2307887"><ele>689.3333333333333</ele><time>2026-04-14T16:28:18.067Z</time></trkpt><trkpt lat="32.2481442" lon="-111.2310229"><ele>689.0</ele><time>2026-04-14T16:28:19.063Z</time></trkpt><trkpt lat="32.2481439" lon="-111.2312584"><ele>687.6666666666666</ele><time>2026-04-14T16:28:20.062Z</time></trkpt><trkpt lat="32.2481407" lon="-111.2314926"><ele>686.3333333333334</ele><time>2026-04-14T16:28:21.071Z</time></trkpt><trkpt lat="32.2481386" lon="-111.231732"><ele>685.0</ele><time>2026-04-14T16:28:22.061Z</time></trkpt><trkpt lat="32.2481362" lon="-111.2319734"><ele>685.0</ele><time>2026-04-14T16:28:23.067Z</time></trkpt><trkpt lat="32.2481381" lon="-111.2322098"><ele>685.0</ele><time>2026-04-14T16:28:24.065Z</time></trkpt><trkpt lat="32.2481387" lon="-111.2324423"><ele>685.0</ele><time>2026-04-14T16:28:25.059Z</time></trkpt><trkpt lat="32.2481366" lon="-111.2326757"><ele>684.6666666666667</ele><time>2026-04-14T16:28:26.063Z</time></trkpt><trkpt lat="32.2481353" lon="-111.2329135"><ele>684.3333333333334</ele><time>2026-04-14T16:28:27.064Z</time></trkpt><trkpt lat="32.2481328" lon="-111.233151"><ele>684.0</ele><time>2026-04-14T16:28:28.073Z</time></trkpt><trkpt lat="32.2481316" lon="-111.2333759"><ele>684.0</ele><time>2026-04-14T16:28:29.065Z</time></trkpt><trkpt lat="32.2481305" lon="-111.233611"><ele>684.0</ele><time>2026-04-14T16:28:30.067Z</time></trkpt><trkpt lat="32.2481278" lon="-111.2338478"><ele>684.0</ele><time>2026-04-14T16:28:31.062Z</time></trkpt><trkpt lat="32.2481254" lon="-111.2340849"><ele>683.0</ele><time>2026-04-14T16:28:32.066Z</time></trkpt><trkpt lat="32.248121" lon="-111.2343137"><ele>682.0</ele><time>2026-04-14T16:28:33.058Z</time></trkpt><trkpt lat="32.248118" lon="-111.2345575"><ele>681.0</ele><time>2026-04-14T16:28:34.065Z</time></trkpt><trkpt lat="32.2481162" lon="-111.2347893"><ele>681.0</ele><time>2026-04-14T16:28:35.058Z</time></trkpt><trkpt lat="32.2481128" lon="-111.2350331"><ele>681.0</ele><time>2026-04-14T16:28:36.084Z</time></trkpt><trkpt lat="32.2481111" lon="-111.2352612"><ele>681.0</ele><time>2026-04-14T16:28:37.062Z</time></trkpt><trkpt lat="32.2481067" lon="-111.2354934"><ele>680.6666666666666</ele><time>2026-04-14T16:28:38.064Z</time></trkpt><trkpt lat="32.2481039" lon="-111.2357242"><ele>680.3333333333333</ele><time>2026-04-14T16:28:39.059Z</time></trkpt><trkpt lat="32.2481011" lon="-111.2359603"><ele>680.0</ele><time>2026-04-14T16:28:40.066Z</time></trkpt><trkpt lat="32.2481006" lon="-111.2361952"><ele>680.0</ele><time>2026-04-14T16:28:41.062Z</time></trkpt><trkpt lat="32.2481004" lon="-111.2364325"><ele>680.0</ele><time>2026-04-14T16:28:42.063Z</time></trkpt><trkpt lat="32.2481012" lon="-111.2366656"><ele>680.0</ele><time>2026-04-14T16:28:43.059Z</time></trkpt><trkpt lat="32.2481" lon="-111.236905"><ele>680.0</ele><time>2026-04-14T16:28:44.057Z</time></trkpt><trkpt lat="32.2481028" lon="-111.2371528"><ele>680.0</ele><time>2026-04-14T16:28:45.062Z</time></trkpt><trkpt lat="32.2481045" lon="-111.237391"><ele>680.0</ele><time>2026-04-14T16:28:46.063Z</time></trkpt><trkpt lat="32.2481039" lon="-111.2376284"><ele>679.3333333333333</ele><time>2026-04-14T16:28:47.072Z</time></trkpt><trkpt lat="32.2481013" lon="-111.2378663"><ele>678.6666666666666</ele><time>2026-04-14T16:28:48.068Z</time></trkpt><trkpt lat="32.248101" lon="-111.2381031"><ele>678.0</ele><time>2026-04-14T16:28:49.061Z</time></trkpt><trkpt lat="32.2481033" lon="-111.238344"><ele>678.0</ele><time>2026-04-14T16:28:50.065Z</time></trkpt><trkpt lat="32.2481034" lon="-111.2385843"><ele>678.0</ele><time>2026-04-14T16:28:51.062Z</time></trkpt><trkpt lat="32.2481047" lon="-111.2388321"><ele>678.0</ele><time>2026-04-14T16:28:52.095Z</time></trkpt><trkpt lat="32.2481044" lon="-111.2390719"><ele>677.3333333333334</ele><time>2026-04-14T16:28:53.066Z</time></trkpt><trkpt lat="32.2481054" lon="-111.239311"><ele>676.6666666666667</ele><time>2026-04-14T16:28:54.067Z</time></trkpt><trkpt lat="32.2481072" lon="-111.2395523"><ele>676.0</ele><time>2026-04-14T16:28:55.058Z</time></trkpt><trkpt lat="32.2481091" lon="-111.2397928"><ele>676.3333333333334</ele><time>2026-04-14T16:28:56.06Z</time></trkpt><trkpt lat="32.2481092" lon="-111.2400348"><ele>676.6666666666666</ele><time>2026-04-14T16:28:57.076Z</time></trkpt><trkpt lat="32.248109" lon="-111.2402731"><ele>677.0</ele><time>2026-04-14T16:28:58.066Z</time></trkpt><trkpt lat="32.2481107" lon="-111.2405143"><ele>676.0</ele><time>2026-04-14T16:28:59.067Z</time></trkpt><trkpt lat="32.2481134" lon="-111.2407522"><ele>675.0</ele><time>2026-04-14T16:29:00.062Z</time></trkpt><trkpt lat="32.2481175" lon="-111.2409913"><ele>674.0</ele><time>2026-04-14T16:29:01.057Z</time></trkpt><trkpt lat="32.248117" lon="-111.2412358"><ele>674.3333333333333</ele><time>2026-04-14T16:29:02.062Z</time></trkpt><trkpt lat="32.2481148" lon="-111.2414711"><ele>674.6666666666666</ele><time>2026-04-14T16:29:03.059Z</time></trkpt><trkpt lat="32.2481149" lon="-111.2417013"><ele>675.0</ele><time>2026-04-14T16:29:04.065Z</time></trkpt><trkpt lat="32.2481161" lon="-111.2419187"><ele>675.0</ele><time>2026-04-14T16:29:05.064Z</time></trkpt><trkpt lat="32.248118" lon="-111.242129"><ele>675.0</ele><time>2026-04-14T16:29:06.07Z</time></trkpt><trkpt lat="32.2481188" lon="-111.2423303"><ele>675.0</ele><time>2026-04-14T16:29:07.064Z</time></trkpt><trkpt lat="32.2481172" lon="-111.2425397"><ele>674.6666666666666</ele><time>2026-04-14T16:29:08.089Z</time></trkpt><trkpt lat="32.2481198" lon="-111.2427309"><ele>674.3333333333333</ele><time>2026-04-14T16:29:09.063Z</time></trkpt><trkpt lat="32.248122" lon="-111.2429092"><ele>674.0</ele><time>2026-04-14T16:29:10.064Z</time></trkpt><trkpt lat="32.2481234" lon="-111.2430765"><ele>674.0</ele><time>2026-04-14T16:29:11.055Z</time></trkpt><trkpt lat="32.2481258" lon="-111.2432458"><ele>674.0</ele><time>2026-04-14T16:29:12.063Z</time></trkpt><trkpt lat="32.2481273" lon="-111.2434096"><ele>674.0</ele><time>2026-04-14T16:29:13.067Z</time></trkpt><trkpt lat="32.2481278" lon="-111.2435843"><ele>674.0</ele><time>2026-04-14T16:29:14.059Z</time></trkpt><trkpt lat="32.2481259" lon="-111.243769"><ele>674.0</ele><time>2026-04-14T16:29:15.062Z</time></trkpt><trkpt lat="32.2481232" lon="-111.2439481"><ele>674.0</ele><time>2026-04-14T16:29:16.062Z</time></trkpt><trkpt lat="32.2481236" lon="-111.2441178"><ele>674.0</ele><time>2026-04-14T16:29:17.062Z</time></trkpt><trkpt lat="32.2481232" lon="-111.2442985"><ele>674.0</ele><time>2026-04-14T16:29:18.067Z</time></trkpt><trkpt lat="32.2481207" lon="-111.244476"><ele>674.0</ele><time>2026-04-14T16:29:19.071Z</time></trkpt><trkpt lat="32.2481219" lon="-111.2446763"><ele>674.0</ele><time>2026-04-14T16:29:20.063Z</time></trkpt><trkpt lat="32.2481262" lon="-111.2448906"><ele>674.0</ele><time>2026-04-14T16:29:21.063Z</time></trkpt><trkpt lat="32.2481343" lon="-111.2451172"><ele>674.0</ele><time>2026-04-14T16:29:22.063Z</time></trkpt><trkpt lat="32.2481398" lon="-111.2453379"><ele>674.0</ele><time>2026-04-14T16:29:23.062Z</time></trkpt><trkpt lat="32.2481482" lon="-111.245571"><ele>674.0</ele><time>2026-04-14T16:29:24.06Z</time></trkpt><trkpt lat="32.2481486" lon="-111.2458083"><ele>674.0</ele><time>2026-04-14T16:29:25.056Z</time></trkpt><trkpt lat="32.2481447" lon="-111.2460487"><ele>674.0</ele><time>2026-04-14T16:29:26.095Z</time></trkpt><trkpt lat="32.2481469" lon="-111.2462743"><ele>674.0</ele><time>2026-04-14T16:29:27.061Z</time></trkpt><trkpt lat="32.2481466" lon="-111.2465114"><ele>674.0</ele><time>2026-04-14T16:29:28.071Z</time></trkpt><trkpt lat="32.248147" lon="-111.2467467"><ele>674.0</ele><time>2026-04-14T16:29:29.068Z</time></trkpt><trkpt lat="32.2481462" lon="-111.24699"><ele>674.0</ele><time>2026-04-14T16:29:30.065Z</time></trkpt><trkpt lat="32.2481473" lon="-111.2472276"><ele>674.0</ele><time>2026-04-14T16:29:31.058Z</time></trkpt><trkpt lat="32.2481497" lon="-111.2474707"><ele>674.0</ele><time>2026-04-14T16:29:32.064Z</time></trkpt><trkpt lat="32.2481483" lon="-111.2477137"><ele>674.0</ele><time>2026-04-14T16:29:33.059Z</time></trkpt><trkpt lat="32.2481492" lon="-111.2479585"><ele>673.3333333333333</ele><time>2026-04-14T16:29:34.065Z</time></trkpt><trkpt lat="32.2481519" lon="-111.2482038"><ele>672.6666666666666</ele><time>2026-04-14T16:29:35.062Z</time></trkpt><trkpt lat="32.2481562" lon="-111.2484465"><ele>672.0</ele><time>2026-04-14T16:29:36.069Z</time></trkpt><trkpt lat="32.2481562" lon="-111.2486836"><ele>672.0</ele><time>2026-04-14T16:29:37.057Z</time></trkpt><trkpt lat="32.2481578" lon="-111.2489261"><ele>672.0</ele><time>2026-04-14T16:29:38.057Z</time></trkpt><trkpt lat="32.2481589" lon="-111.2491664"><ele>672.0</ele><time>2026-04-14T16:29:39.058Z</time></trkpt><trkpt lat="32.2481615" lon="-111.2494065"><ele>671.6666666666666</ele><time>2026-04-14T16:29:40.065Z</time></trkpt><trkpt lat="32.2481628" lon="-111.2496454"><ele>671.3333333333333</ele><time>2026-04-14T16:29:41.066Z</time></trkpt><trkpt lat="32.2481649" lon="-111.2498785"><ele>671.0</ele><time>2026-04-14T16:29:42.063Z</time></trkpt><trkpt lat="32.2481701" lon="-111.2501185"><ele>671.6666666666666</ele><time>2026-04-14T16:29:43.066Z</time></trkpt><trkpt lat="32.248176" lon="-111.2503546"><ele>672.3333333333334</ele><time>2026-04-14T16:29:44.069Z</time></trkpt><trkpt lat="32.2481758" lon="-111.2505941"><ele>673.0</ele><time>2026-04-14T16:29:45.066Z</time></trkpt><trkpt lat="32.2481773" lon="-111.2508306"><ele>673.3333333333334</ele><time>2026-04-14T16:29:46.061Z</time></trkpt><trkpt lat="32.2481804" lon="-111.2510649"><ele>673.6666666666666</ele><time>2026-04-14T16:29:47.055Z</time></trkpt><trkpt lat="32.2481819" lon="-111.251307"><ele>674.0</ele><time>2026-04-14T16:29:48.065Z</time></trkpt><trkpt lat="32.2481826" lon="-111.251548"><ele>674.0</ele><time>2026-04-14T16:29:49.062Z</time></trkpt><trkpt lat="32.2481863" lon="-111.2517932"><ele>674.0</ele><time>2026-04-14T16:29:50.076Z</time></trkpt><trkpt lat="32.2481882" lon="-111.2520358"><ele>674.0</ele><time>2026-04-14T16:29:51.065Z</time></trkpt><trkpt lat="32.2481931" lon="-111.2522787"><ele>674.0</ele><time>2026-04-14T16:29:52.06Z</time></trkpt><trkpt lat="32.2481996" lon="-111.2525236"><ele>674.0</ele><time>2026-04-14T16:29:53.07Z</time></trkpt><trkpt lat="32.2482037" lon="-111.2527653"><ele>674.0</ele><time>2026-04-14T16:29:54.059Z</time></trkpt><trkpt lat="32.248204" lon="-111.2530124"><ele>673.6666666666666</ele><time>2026-04-14T16:29:55.071Z</time></trkpt><trkpt lat="32.2482064" lon="-111.2532519"><ele>673.3333333333334</ele><time>2026-04-14T16:29:56.066Z</time></trkpt><trkpt lat="32.2482097" lon="-111.2534932"><ele>673.0</ele><time>2026-04-14T16:29:57.058Z</time></trkpt><trkpt lat="32.2482092" lon="-111.2537395"><ele>673.3333333333334</ele><time>2026-04-14T16:29:58.059Z</time></trkpt><trkpt lat="32.2482079" lon="-111.2539817"><ele>673.6666666666666</ele><time>2026-04-14T16:29:59.06Z</time></trkpt><trkpt lat="32.2482071" lon="-111.2542302"><ele>674.0</ele><time>2026-04-14T16:30:00.065Z</time></trkpt><trkpt lat="32.2482086" lon="-111.2544765"><ele>674.0</ele><time>2026-04-14T16:30:01.057Z</time></trkpt><trkpt lat="32.2482097" lon="-111.2547242"><ele>674.0</ele><time>2026-04-14T16:30:02.065Z</time></trkpt><trkpt lat="32.2482105" lon="-111.2549684"><ele>674.0</ele><time>2026-04-14T16:30:03.06Z</time></trkpt><trkpt lat="32.2482106" lon="-111.2552139"><ele>674.0</ele><time>2026-04-14T16:30:04.064Z</time></trkpt><trkpt lat="32.2482098" lon="-111.2554607"><ele>674.0</ele><time>2026-04-14T16:30:05.063Z</time></trkpt><trkpt lat="32.248205" lon="-111.2557091"><ele>674.0</ele><time>2026-04-14T16:30:06.069Z</time></trkpt><trkpt lat="32.2482014" lon="-111.2559584"><ele>673.6666666666666</ele><time>2026-04-14T16:30:07.06Z</time></trkpt><trkpt lat="32.2481982" lon="-111.2562072"><ele>673.3333333333334</ele><time>2026-04-14T16:30:08.063Z</time></trkpt><trkpt lat="32.2481959" lon="-111.2564523"><ele>673.0</ele><time>2026-04-14T16:30:09.064Z</time></trkpt><trkpt lat="32.2481939" lon="-111.2567007"><ele>673.0</ele><time>2026-04-14T16:30:10.058Z</time></trkpt><trkpt lat="32.2481928" lon="-111.2569537"><ele>673.0</ele><time>2026-04-14T16:30:11.064Z</time></trkpt><trkpt lat="32.2481904" lon="-111.2572095"><ele>673.0</ele><time>2026-04-14T16:30:12.06Z</time></trkpt><trkpt lat="32.2481916" lon="-111.2574642"><ele>673.0</ele><time>2026-04-14T16:30:13.075Z</time></trkpt><trkpt lat="32.2481953" lon="-111.2577134"><ele>673.0</ele><time>2026-04-14T16:30:14.066Z</time></trkpt><trkpt lat="32.2481965" lon="-111.2579619"><ele>673.0</ele><time>2026-04-14T16:30:15.058Z</time></trkpt><trkpt lat="32.248198" lon="-111.2582142"><ele>673.0</ele><time>2026-04-14T16:30:16.071Z</time></trkpt><trkpt lat="32.2481988" lon="-111.25847"><ele>673.0</ele><time>2026-04-14T16:30:17.059Z</time></trkpt><trkpt lat="32.2481986" lon="-111.2587356"><ele>673.0</ele><time>2026-04-14T16:30:18.086Z</time></trkpt><trkpt lat="32.248197" lon="-111.2589864"><ele>672.3333333333334</ele><time>2026-04-14T16:30:19.063Z</time></trkpt><trkpt lat="32.2481953" lon="-111.2592421"><ele>671.6666666666666</ele><time>2026-04-14T16:30:20.073Z</time></trkpt><trkpt lat="32.2481893" lon="-111.2594933"><ele>671.0</ele><time>2026-04-14T16:30:21.069Z</time></trkpt><trkpt lat="32.2481844" lon="-111.2597454"><ele>672.0</ele><time>2026-04-14T16:30:22.067Z</time></trkpt><trkpt lat="32.2481829" lon="-111.2599986"><ele>673.0</ele><time>2026-04-14T16:30:23.067Z</time></trkpt><trkpt lat="32.2481815" lon="-111.2602534"><ele>674.0</ele><time>2026-04-14T16:30:24.063Z</time></trkpt><trkpt lat="32.2481808" lon="-111.2604983"><ele>674.0</ele><time>2026-04-14T16:30:25.059Z</time></trkpt><trkpt lat="32.2481796" lon="-111.2607507"><ele>674.0</ele><time>2026-04-14T16:30:26.068Z</time></trkpt><trkpt lat="32.2481771" lon="-111.261"><ele>674.0</ele><time>2026-04-14T16:30:27.057Z</time></trkpt><trkpt lat="32.248172" lon="-111.2612536"><ele>674.3333333333333</ele><time>2026-04-14T16:30:28.067Z</time></trkpt><trkpt lat="32.2481695" lon="-111.2615061"><ele>674.6666666666666</ele><time>2026-04-14T16:30:29.063Z</time></trkpt><trkpt lat="32.2481642" lon="-111.2617567"><ele>675.0</ele><time>2026-04-14T16:30:30.065Z</time></trkpt><trkpt lat="32.2481628" lon="-111.2620076"><ele>675.0</ele><time>2026-04-14T16:30:31.07Z</time></trkpt><trkpt lat="32.2481633" lon="-111.2622593"><ele>675.0</ele><time>2026-04-14T16:30:32.066Z</time></trkpt><trkpt lat="32.2481632" lon="-111.2625235"><ele>675.0</ele><time>2026-04-14T16:30:33.076Z</time></trkpt><trkpt lat="32.2481612" lon="-111.2627776"><ele>675.0</ele><time>2026-04-14T16:30:34.076Z</time></trkpt><trkpt lat="32.2481639" lon="-111.2630261"><ele>675.0</ele><time>2026-04-14T16:30:35.07Z</time></trkpt><trkpt lat="32.2481653" lon="-111.2632781"><ele>675.0</ele><time>2026-04-14T16:30:36.059Z</time></trkpt><trkpt lat="32.2481633" lon="-111.2635317"><ele>674.3333333333334</ele><time>2026-04-14T16:30:37.061Z</time></trkpt><trkpt lat="32.2481635" lon="-111.2637876"><ele>673.6666666666667</ele><time>2026-04-14T16:30:38.06Z</time></trkpt><trkpt lat="32.2481657" lon="-111.2640455"><ele>673.0</ele><time>2026-04-14T16:30:39.065Z</time></trkpt><trkpt lat="32.2481595" lon="-111.2643032"><ele>673.0</ele><time>2026-04-14T16:30:40.062Z</time></trkpt><trkpt lat="32.2481562" lon="-111.2645648"><ele>673.0</ele><time>2026-04-14T16:30:41.074Z</time></trkpt><trkpt lat="32.2481545" lon="-111.2648184"><ele>673.0</ele><time>2026-04-14T16:30:42.064Z</time></trkpt><trkpt lat="32.2481532" lon="-111.2650731"><ele>673.3333333333334</ele><time>2026-04-14T16:30:43.068Z</time></trkpt><trkpt lat="32.2481526" lon="-111.2653249"><ele>673.6666666666666</ele><time>2026-04-14T16:30:44.069Z</time></trkpt><trkpt lat="32.2481513" lon="-111.2655747"><ele>674.0</ele><time>2026-04-14T16:30:45.07Z</time></trkpt><trkpt lat="32.2481494" lon="-111.2658217"><ele>674.3333333333333</ele><time>2026-04-14T16:30:46.067Z</time></trkpt><trkpt lat="32.2481479" lon="-111.266069"><ele>674.6666666666666</ele><time>2026-04-14T16:30:47.067Z</time></trkpt><trkpt lat="32.2481455" lon="-111.2663104"><ele>675.0</ele><time>2026-04-14T16:30:48.061Z</time></trkpt><trkpt lat="32.2481446" lon="-111.2665499"><ele>675.0</ele><time>2026-04-14T16:30:49.067Z</time></trkpt><trkpt lat="32.2481442" lon="-111.2667851"><ele>675.0</ele><time>2026-04-14T16:30:50.061Z</time></trkpt><trkpt lat="32.248143" lon="-111.2670158"><ele>675.0</ele><time>2026-04-14T16:30:51.064Z</time></trkpt><trkpt lat="32.2481414" lon="-111.2672354"><ele>674.3333333333334</ele><time>2026-04-14T16:30:52.066Z</time></trkpt><trkpt lat="32.2481404" lon="-111.2674529"><ele>673.6666666666667</ele><time>2026-04-14T16:30:53.068Z</time></trkpt><trkpt lat="32.2481396" lon="-111.2676777"><ele>673.0</ele><time>2026-04-14T16:30:54.111Z</time></trkpt><trkpt lat="32.2481387" lon="-111.2678841"><ele>673.0</ele><time>2026-04-14T16:30:55.06Z</time></trkpt><trkpt lat="32.2481382" lon="-111.2681014"><ele>673.0</ele><time>2026-04-14T16:30:56.063Z</time></trkpt><trkpt lat="32.2481388" lon="-111.2683149"><ele>673.0</ele><time>2026-04-14T16:30:57.07Z</time></trkpt><trkpt lat="32.2481405" lon="-111.2685239"><ele>673.3333333333334</ele><time>2026-04-14T16:30:58.062Z</time></trkpt><trkpt lat="32.2481409" lon="-111.2687302"><ele>673.6666666666666</ele><time>2026-04-14T16:30:59.067Z</time></trkpt><trkpt lat="32.2481384" lon="-111.268931"><ele>674.0</ele><time>2026-04-14T16:31:00.066Z</time></trkpt><trkpt lat="32.2481347" lon="-111.2691251"><ele>673.75</ele><time>2026-04-14T16:31:01.069Z</time></trkpt><trkpt lat="32.2481262" lon="-111.2693079"><ele>673.5</ele><time>2026-04-14T16:31:02.065Z</time></trkpt><trkpt lat="32.2481139" lon="-111.2694832"><ele>673.25</ele><time>2026-04-14T16:31:03.066Z</time></trkpt><trkpt lat="32.248103" lon="-111.2696497"><ele>673.0</ele><time>2026-04-14T16:31:04.062Z</time></trkpt><trkpt lat="32.2480943" lon="-111.2698167"><ele>673.0</ele><time>2026-04-14T16:31:05.062Z</time></trkpt><trkpt lat="32.2480883" lon="-111.2699914"><ele>673.0</ele><time>2026-04-14T16:31:06.101Z</time></trkpt><trkpt lat="32.248085" lon="-111.2701535"><ele>673.0</ele><time>2026-04-14T16:31:07.067Z</time></trkpt><trkpt lat="32.248086" lon="-111.2703255"><ele>673.0</ele><time>2026-04-14T16:31:08.059Z</time></trkpt><trkpt lat="32.2480894" lon="-111.2705006"><ele>673.0</ele><time>2026-04-14T16:31:09.065Z</time></trkpt><trkpt lat="32.2480936" lon="-111.2706762"><ele>673.0</ele><time>2026-04-14T16:31:10.066Z</time></trkpt><trkpt lat="32.2480974" lon="-111.2708503"><ele>673.0</ele><time>2026-04-14T16:31:11.069Z</time></trkpt><trkpt lat="32.248106" lon="-111.2710259"><ele>673.0</ele><time>2026-04-14T16:31:12.068Z</time></trkpt><trkpt lat="32.2481137" lon="-111.2712027"><ele>673.0</ele><time>2026-04-14T16:31:13.066Z</time></trkpt><trkpt lat="32.2481195" lon="-111.2713729"><ele>673.0</ele><time>2026-04-14T16:31:14.064Z</time></trkpt><trkpt lat="32.2481221" lon="-111.2715327"><ele>673.0</ele><time>2026-04-14T16:31:15.062Z</time></trkpt><trkpt lat="32.2481237" lon="-111.2716886"><ele>673.0</ele><time>2026-04-14T16:31:16.086Z</time></trkpt><trkpt lat="32.2481261" lon="-111.271827"><ele>673.2</ele><time>2026-04-14T16:31:17.068Z</time></trkpt><trkpt lat="32.248129" lon="-111.2719575"><ele>673.4</ele><time>2026-04-14T16:31:18.06Z</time></trkpt><trkpt lat="32.2481317" lon="-111.2720788"><ele>673.6</ele><time>2026-04-14T16:31:19.064Z</time></trkpt><trkpt lat="32.2481316" lon="-111.272207"><ele>673.8000000000001</ele><time>2026-04-14T16:31:20.064Z</time></trkpt><trkpt lat="32.2481338" lon="-111.2723384"><ele>674.0</ele><time>2026-04-14T16:31:21.064Z</time></trkpt><trkpt lat="32.2481361" lon="-111.2724772"><ele>674.0</ele><time>2026-04-14T16:31:22.062Z</time></trkpt><trkpt lat="32.2481369" lon="-111.2726086"><ele>674.0</ele><time>2026-04-14T16:31:23.059Z</time></trkpt><trkpt lat="32.2481376" lon="-111.2727343"><ele>674.0</ele><time>2026-04-14T16:31:24.061Z</time></trkpt><trkpt lat="32.2481357" lon="-111.272856"><ele>674.0</ele><time>2026-04-14T16:31:25.071Z</time></trkpt><trkpt lat="32.2481362" lon="-111.2729604"><ele>674.0</ele><time>2026-04-14T16:31:26.063Z</time></trkpt><trkpt lat="32.2481367" lon="-111.2730731"><ele>674.2</ele><time>2026-04-14T16:31:27.064Z</time></trkpt><trkpt lat="32.2481381" lon="-111.2731885"><ele>674.4000000000001</ele><time>2026-04-14T16:31:28.059Z</time></trkpt><trkpt lat="32.2481419" lon="-111.273304"><ele>674.6</ele><time>2026-04-14T16:31:29.063Z</time></trkpt><trkpt lat="32.2481447" lon="-111.273411"><ele>674.8</ele><time>2026-04-14T16:31:30.06Z</time></trkpt><trkpt lat="32.2481458" lon="-111.273517"><ele>675.0</ele><time>2026-04-14T16:31:31.069Z</time></trkpt><trkpt lat="32.2481498" lon="-111.2736235"><ele>675.0</ele><time>2026-04-14T16:31:32.065Z</time></trkpt><trkpt lat="32.2481517" lon="-111.2737185"><ele>675.0</ele><time>2026-04-14T16:31:33.076Z</time></trkpt><trkpt lat="32.2481556" lon="-111.273859"><ele>675.0</ele><time>2026-04-14T16:31:35.063Z</time></trkpt><trkpt lat="32.2481551" lon="-111.2739836"><ele>675.0</ele><time>2026-04-14T16:31:37.057Z</time></trkpt><trkpt lat="32.2481586" lon="-111.2740698"><ele>675.0</ele><time>2026-04-14T16:31:40.102Z</time></trkpt><trkpt lat="32.2481568" lon="-111.2741828"><ele>674.6</ele><time>2026-04-14T16:31:48.067Z</time></trkpt><trkpt lat="32.2481509" lon="-111.2742657"><ele>674.2</ele><time>2026-04-14T16:31:49.06Z</time></trkpt><trkpt lat="32.2481489" lon="-111.2743658"><ele>673.8</ele><time>2026-04-14T16:31:50.072Z</time></trkpt><trkpt lat="32.2481473" lon="-111.2744825"><ele>673.4</ele><time>2026-04-14T16:31:51.057Z</time></trkpt><trkpt lat="32.248146" lon="-111.2746123"><ele>673.0</ele><time>2026-04-14T16:31:52.063Z</time></trkpt><trkpt lat="32.2481488" lon="-111.27476"><ele>673.25</ele><time>2026-04-14T16:31:53.07Z</time></trkpt><trkpt lat="32.2481482" lon="-111.274925"><ele>673.5</ele><time>2026-04-14T16:31:54.069Z</time></trkpt><trkpt lat="32.2481484" lon="-111.2750976"><ele>673.75</ele><time>2026-04-14T16:31:55.07Z</time></trkpt><trkpt lat="32.2481524" lon="-111.2752816"><ele>674.0</ele><time>2026-04-14T16:31:56.08Z</time></trkpt><trkpt lat="32.248155" lon="-111.275469"><ele>674.3333333333333</ele><time>2026-04-14T16:31:57.064Z</time></trkpt><trkpt lat="32.2481583" lon="-111.2756601"><ele>674.6666666666666</ele><time>2026-04-14T16:31:58.065Z</time></trkpt><trkpt lat="32.2481592" lon="-111.2758563"><ele>675.0</ele><time>2026-04-14T16:31:59.063Z</time></trkpt><trkpt lat="32.2481598" lon="-111.2760525"><ele>675.0</ele><time>2026-04-14T16:32:00.067Z</time></trkpt><trkpt lat="32.2481599" lon="-111.2762475"><ele>675.0</ele><time>2026-04-14T16:32:01.066Z</time></trkpt><trkpt lat="32.2481588" lon="-111.2764446"><ele>675.0</ele><time>2026-04-14T16:32:02.062Z</time></trkpt><trkpt lat="32.2481577" lon="-111.2766328"><ele>674.6666666666666</ele><time>2026-04-14T16:32:03.075Z</time></trkpt><trkpt lat="32.2481583" lon="-111.2768201"><ele>674.3333333333333</ele><time>2026-04-14T16:32:04.063Z</time></trkpt><trkpt lat="32.2481585" lon="-111.2770041"><ele>674.0</ele><time>2026-04-14T16:32:05.063Z</time></trkpt><trkpt lat="32.2481591" lon="-111.2771772"><ele>674.0</ele><time>2026-04-14T16:32:06.067Z</time></trkpt><trkpt lat="32.2481612" lon="-111.2773464"><ele>674.0</ele><time>2026-04-14T16:32:07.062Z</time></trkpt><trkpt lat="32.2481627" lon="-111.2775089"><ele>674.0</ele><time>2026-04-14T16:32:08.06Z</time></trkpt><trkpt lat="32.2481628" lon="-111.2776645"><ele>674.0</ele><time>2026-04-14T16:32:09.065Z</time></trkpt><trkpt lat="32.2481593" lon="-111.2778082"><ele>674.0</ele><time>2026-04-14T16:32:10.072Z</time></trkpt><trkpt lat="32.2481584" lon="-111.2779468"><ele>674.0</ele><time>2026-04-14T16:32:11.064Z</time></trkpt><trkpt lat="32.2481592" lon="-111.2780803"><ele>674.0</ele><time>2026-04-14T16:32:12.077Z</time></trkpt><trkpt lat="32.2481605" lon="-111.2781962"><ele>674.0</ele><time>2026-04-14T16:32:13.059Z</time></trkpt><trkpt lat="32.2481613" lon="-111.2783037"><ele>674.0</ele><time>2026-04-14T16:32:14.065Z</time></trkpt><trkpt lat="32.2481627" lon="-111.278404"><ele>674.1666666666666</ele><time>2026-04-14T16:32:15.072Z</time></trkpt><trkpt lat="32.2481663" lon="-111.278489"><ele>674.3333333333333</ele><time>2026-04-14T16:32:16.064Z</time></trkpt><trkpt lat="32.248176" lon="-111.2786178"><ele>674.5</ele><time>2026-04-14T16:32:18.064Z</time></trkpt><trkpt lat="32.2481757" lon="-111.2787099"><ele>674.6666666666666</ele><time>2026-04-14T16:32:20.069Z</time></trkpt><trkpt lat="32.2481497" lon="-111.2787956"><ele>674.8333333333334</ele><time>2026-04-14T16:32:23.065Z</time></trkpt><trkpt lat="32.2480738" lon="-111.2788276"><ele>675.0</ele><time>2026-04-14T16:33:17.121Z</time></trkpt><trkpt lat="32.2479658" lon="-111.2788359"><ele>675.3333333333334</ele><time>2026-04-14T16:33:48.116Z</time></trkpt><trkpt lat="32.2479029" lon="-111.2788406"><ele>675.6666666666666</ele><time>2026-04-14T16:33:49.123Z</time></trkpt><trkpt lat="32.2478274" lon="-111.2788457"><ele>676.0</ele><time>2026-04-14T16:33:50.12Z</time></trkpt><trkpt lat="32.2477476" lon="-111.2788498"><ele>676.3333333333333</ele><time>2026-04-14T16:33:51.122Z</time></trkpt><trkpt lat="32.2476661" lon="-111.278848"><ele>676.6666666666666</ele><time>2026-04-14T16:33:52.115Z</time></trkpt><trkpt lat="32.247583" lon="-111.2788436"><ele>677.0</ele><time>2026-04-14T16:33:53.129Z</time></trkpt><trkpt lat="32.2474989" lon="-111.2788454"><ele>677.0</ele><time>2026-04-14T16:33:54.117Z</time></trkpt><trkpt lat="32.2474046" lon="-111.2788548"><ele>677.0</ele><time>2026-04-14T16:33:55.12Z</time></trkpt><trkpt lat="32.2473095" lon="-111.2788657"><ele>677.0</ele><time>2026-04-14T16:33:56.118Z</time></trkpt><trkpt lat="32.2472171" lon="-111.2788713"><ele>677.0</ele><time>2026-04-14T16:33:57.124Z</time></trkpt><trkpt lat="32.2471258" lon="-111.2788763"><ele>677.0</ele><time>2026-04-14T16:33:58.152Z</time></trkpt><trkpt lat="32.2470455" lon="-111.2788905"><ele>677.1666666666666</ele><time>2026-04-14T16:33:59.127Z</time></trkpt><trkpt lat="32.2469682" lon="-111.278917"><ele>677.3333333333333</ele><time>2026-04-14T16:34:00.122Z</time></trkpt><trkpt lat="32.2468969" lon="-111.2789588"><ele>677.5</ele><time>2026-04-14T16:34:01.122Z</time></trkpt><trkpt lat="32.2468371" lon="-111.2790214"><ele>677.6666666666666</ele><time>2026-04-14T16:34:02.118Z</time></trkpt><trkpt lat="32.2467875" lon="-111.2791043"><ele>677.8333333333334</ele><time>2026-04-14T16:34:03.121Z</time></trkpt><trkpt lat="32.2467457" lon="-111.2792009"><ele>678.0</ele><time>2026-04-14T16:34:04.127Z</time></trkpt><trkpt lat="32.2467075" lon="-111.2793092"><ele>677.75</ele><time>2026-04-14T16:34:05.116Z</time></trkpt><trkpt lat="32.2466692" lon="-111.2794318"><ele>677.5</ele><time>2026-04-14T16:34:06.116Z</time></trkpt><trkpt lat="32.2466271" lon="-111.2795636"><ele>677.25</ele><time>2026-04-14T16:34:07.115Z</time></trkpt><trkpt lat="32.246579" lon="-111.2797051"><ele>677.0</ele><time>2026-04-14T16:34:08.13Z</time></trkpt><trkpt lat="32.246526" lon="-111.2798533"><ele>677.0</ele><time>2026-04-14T16:34:09.12Z</time></trkpt><trkpt lat="32.2464708" lon="-111.2800052"><ele>677.0</ele><time>2026-04-14T16:34:10.119Z</time></trkpt><trkpt lat="32.2464153" lon="-111.2801557"><ele>677.0</ele><time>2026-04-14T16:34:11.131Z</time></trkpt><trkpt lat="32.2463598" lon="-111.2803075"><ele>677.0</ele><time>2026-04-14T16:34:12.139Z</time></trkpt><trkpt lat="32.2463048" lon="-111.2804532"><ele>676.75</ele><time>2026-04-14T16:34:13.114Z</time></trkpt><trkpt lat="32.2462468" lon="-111.2805986"><ele>676.5</ele><time>2026-04-14T16:34:14.135Z</time></trkpt><trkpt lat="32.2461828" lon="-111.2807325"><ele>676.25</ele><time>2026-04-14T16:34:15.14Z</time></trkpt><trkpt lat="32.2461092" lon="-111.2808545"><ele>676.0</ele><time>2026-04-14T16:34:16.127Z</time></trkpt><trkpt lat="32.2460243" lon="-111.2809666"><ele>675.8</ele><time>2026-04-14T16:34:17.134Z</time></trkpt><trkpt lat="32.2459457" lon="-111.2810706"><ele>675.5999999999999</ele><time>2026-04-14T16:34:18.132Z</time></trkpt><trkpt lat="32.2458812" lon="-111.2811788"><ele>675.4</ele><time>2026-04-14T16:34:19.12Z</time></trkpt><trkpt lat="32.2458327" lon="-111.2812931"><ele>675.2</ele><time>2026-04-14T16:34:20.124Z</time></trkpt><trkpt lat="32.2457941" lon="-111.2814156"><ele>675.0</ele><time>2026-04-14T16:34:21.13Z</time></trkpt><trkpt lat="32.2457605" lon="-111.2815407"><ele>675.0</ele><time>2026-04-14T16:34:22.126Z</time></trkpt><trkpt lat="32.2457306" lon="-111.2816654"><ele>675.0</ele><time>2026-04-14T16:34:23.118Z</time></trkpt><trkpt lat="32.2457084" lon="-111.2818026"><ele>675.0</ele><time>2026-04-14T16:34:24.128Z</time></trkpt><trkpt lat="32.2456979" lon="-111.2819452"><ele>675.0</ele><time>2026-04-14T16:34:25.136Z</time></trkpt><trkpt lat="32.2457007" lon="-111.2820932"><ele>675.0</ele><time>2026-04-14T16:34:26.131Z</time></trkpt><trkpt lat="32.245709" lon="-111.2822401"><ele>675.0</ele><time>2026-04-14T16:34:27.131Z</time></trkpt><trkpt lat="32.2457173" lon="-111.2823883"><ele>675.0</ele><time>2026-04-14T16:34:28.132Z</time></trkpt><trkpt lat="32.2457228" lon="-111.2825365"><ele>675.0</ele><time>2026-04-14T16:34:29.123Z</time></trkpt><trkpt lat="32.2457289" lon="-111.2826847"><ele>675.25</ele><time>2026-04-14T16:34:30.13Z</time></trkpt><trkpt lat="32.2457405" lon="-111.2828245"><ele>675.5</ele><time>2026-04-14T16:34:31.133Z</time></trkpt><trkpt lat="32.245757" lon="-111.2829599"><ele>675.75</ele><time>2026-04-14T16:34:32.134Z</time></trkpt><trkpt lat="32.2457666" lon="-111.2830967"><ele>676.0</ele><time>2026-04-14T16:34:33.117Z</time></trkpt><trkpt lat="32.245776" lon="-111.2832411"><ele>676.25</ele><time>2026-04-14T16:34:34.129Z</time></trkpt><trkpt lat="32.2457927" lon="-111.2833863"><ele>676.5</ele><time>2026-04-14T16:34:35.135Z</time></trkpt><trkpt lat="32.2458121" lon="-111.2835325"><ele>676.75</ele><time>2026-04-14T16:34:36.128Z</time></trkpt><trkpt lat="32.2458336" lon="-111.2836787"><ele>677.0</ele><time>2026-04-14T16:34:37.123Z</time></trkpt><trkpt lat="32.2458582" lon="-111.2838309"><ele>677.25</ele><time>2026-04-14T16:34:38.133Z</time></trkpt><trkpt lat="32.2458776" lon="-111.2839834"><ele>677.5</ele><time>2026-04-14T16:34:39.13Z</time></trkpt><trkpt lat="32.2458875" lon="-111.2841298"><ele>677.75</ele><time>2026-04-14T16:34:40.134Z</time></trkpt><trkpt lat="32.2459054" lon="-111.2842676"><ele>678.0</ele><time>2026-04-14T16:34:41.15Z</time></trkpt><trkpt lat="32.2459384" lon="-111.2843892"><ele>678.0</ele><time>2026-04-14T16:34:42.138Z</time></trkpt><trkpt lat="32.2459793" lon="-111.2845174"><ele>678.0</ele><time>2026-04-14T16:34:43.122Z</time></trkpt><trkpt lat="32.2460121" lon="-111.2846577"><ele>678.0</ele><time>2026-04-14T16:34:44.126Z</time></trkpt><trkpt lat="32.2460343" lon="-111.284806"><ele>678.0</ele><time>2026-04-14T16:34:45.128Z</time></trkpt><trkpt lat="32.2460498" lon="-111.2849603"><ele>677.75</ele><time>2026-04-14T16:34:46.123Z</time></trkpt><trkpt lat="32.2460651" lon="-111.2851257"><ele>677.5</ele><time>2026-04-14T16:34:47.13Z</time></trkpt><trkpt lat="32.2460833" lon="-111.2852809"><ele>677.25</ele><time>2026-04-14T16:34:48.123Z</time></trkpt><trkpt lat="32.2461055" lon="-111.2854282"><ele>677.0</ele><time>2026-04-14T16:34:49.135Z</time></trkpt><trkpt lat="32.2461296" lon="-111.2855656"><ele>677.0</ele><time>2026-04-14T16:34:50.119Z</time></trkpt><trkpt lat="32.2461543" lon="-111.2856986"><ele>677.0</ele><time>2026-04-14T16:34:51.131Z</time></trkpt><trkpt lat="32.2461648" lon="-111.2858284"><ele>677.0</ele><time>2026-04-14T16:34:52.128Z</time></trkpt><trkpt lat="32.2461614" lon="-111.2859636"><ele>677.0</ele><time>2026-04-14T16:34:53.122Z</time></trkpt><trkpt lat="32.2461534" lon="-111.286106"><ele>677.0</ele><time>2026-04-14T16:34:54.132Z</time></trkpt><trkpt lat="32.2461432" lon="-111.2862454"><ele>677.0</ele><time>2026-04-14T16:34:55.142Z</time></trkpt><trkpt lat="32.2461343" lon="-111.2863752"><ele>677.0</ele><time>2026-04-14T16:34:56.119Z</time></trkpt><trkpt lat="32.2461219" lon="-111.2865083"><ele>677.0</ele><time>2026-04-14T16:34:57.13Z</time></trkpt><trkpt lat="32.2461063" lon="-111.2866257"><ele>677.0</ele><time>2026-04-14T16:34:58.121Z</time></trkpt><trkpt lat="32.2460888" lon="-111.2867219"><ele>676.8333333333333</ele><time>2026-04-14T16:34:59.117Z</time></trkpt><trkpt lat="32.2460705" lon="-111.2868145"><ele>676.6666666666666</ele><time>2026-04-14T16:35:00.119Z</time></trkpt><trkpt lat="32.2460582" lon="-111.2868947"><ele>676.5</ele><time>2026-04-14T16:35:01.131Z</time></trkpt><trkpt lat="32.2460473" lon="-111.2869969"><ele>676.3333333333334</ele><time>2026-04-14T16:35:03.134Z</time></trkpt><trkpt lat="32.2460292" lon="-111.2870885"><ele>676.1666666666667</ele><time>2026-04-14T16:35:51.126Z</time></trkpt><trkpt lat="32.2460136" lon="-111.2871786"><ele>676.0</ele><time>2026-04-14T16:35:54.12Z</time></trkpt><trkpt lat="32.246021" lon="-111.2873105"><ele>676.3333333333334</ele><time>2026-04-14T16:36:08.119Z</time></trkpt><trkpt lat="32.2460312" lon="-111.2873862"><ele>676.6666666666667</ele><time>2026-04-14T16:36:09.13Z</time></trkpt><trkpt lat="32.2460418" lon="-111.2874789"><ele>677.0</ele><time>2026-04-14T16:36:10.14Z</time></trkpt><trkpt lat="32.2460572" lon="-111.2875736"><ele>677.3333333333334</ele><time>2026-04-14T16:36:11.128Z</time></trkpt><trkpt lat="32.2460789" lon="-111.2876796"><ele>677.6666666666666</ele><time>2026-04-14T16:36:12.129Z</time></trkpt><trkpt lat="32.2460996" lon="-111.2877909"><ele>678.0</ele><time>2026-04-14T16:36:13.15Z</time></trkpt><trkpt lat="32.2461162" lon="-111.2878957"><ele>678.0</ele><time>2026-04-14T16:36:14.126Z</time></trkpt><trkpt lat="32.2461289" lon="-111.2880063"><ele>678.0</ele><time>2026-04-14T16:36:15.125Z</time></trkpt><trkpt lat="32.2461376" lon="-111.2881232"><ele>678.0</ele><time>2026-04-14T16:36:16.131Z</time></trkpt><trkpt lat="32.2461472" lon="-111.2882354"><ele>678.0</ele><time>2026-04-14T16:36:17.122Z</time></trkpt><trkpt lat="32.2461692" lon="-111.2883441"><ele>678.0</ele><time>2026-04-14T16:36:18.133Z</time></trkpt><trkpt lat="32.2461987" lon="-111.2884444"><ele>678.0</ele><time>2026-04-14T16:36:19.12Z</time></trkpt><trkpt lat="32.2462216" lon="-111.2885423"><ele>678.0</ele><time>2026-04-14T16:36:20.12Z</time></trkpt><trkpt lat="32.2462373" lon="-111.2886379"><ele>678.0</ele><time>2026-04-14T16:36:21.126Z</time></trkpt><trkpt lat="32.2462407" lon="-111.288725"><ele>678.0</ele><time>2026-04-14T16:36:22.128Z</time></trkpt><trkpt lat="32.2462281" lon="-111.2888246"><ele>678.0</ele><time>2026-04-14T16:36:23.127Z</time></trkpt><trkpt lat="32.2461976" lon="-111.2889326"><ele>678.0</ele><time>2026-04-14T16:36:24.132Z</time></trkpt><trkpt lat="32.2461558" lon="-111.2890394"><ele>678.0</ele><time>2026-04-14T16:36:25.133Z</time></trkpt><trkpt lat="32.246119" lon="-111.2891387"><ele>678.0</ele><time>2026-04-14T16:36:26.128Z</time></trkpt><trkpt lat="32.2460932" lon="-111.2892339"><ele>678.0</ele><time>2026-04-14T16:36:27.123Z</time></trkpt><trkpt lat="32.2460811" lon="-111.2893323"><ele>678.0</ele><time>2026-04-14T16:36:28.138Z</time></trkpt><trkpt lat="32.2460846" lon="-111.2894348"><ele>678.0</ele><time>2026-04-14T16:36:29.124Z</time></trkpt><trkpt lat="32.2461049" lon="-111.2895531"><ele>678.0</ele><time>2026-04-14T16:36:30.132Z</time></trkpt><trkpt lat="32.2461377" lon="-111.2896822"><ele>678.0</ele><time>2026-04-14T16:36:31.139Z</time></trkpt><trkpt lat="32.2461784" lon="-111.2898185"><ele>678.0</ele><time>2026-04-14T16:36:32.131Z</time></trkpt><trkpt lat="32.2462172" lon="-111.289962"><ele>678.0</ele><time>2026-04-14T16:36:33.135Z</time></trkpt><trkpt lat="32.2462487" lon="-111.2901126"><ele>678.0</ele><time>2026-04-14T16:36:34.153Z</time></trkpt><trkpt lat="32.2462724" lon="-111.2902663"><ele>678.0</ele><time>2026-04-14T16:36:35.122Z</time></trkpt><trkpt lat="32.2462941" lon="-111.2904255"><ele>678.0</ele><time>2026-04-14T16:36:36.129Z</time></trkpt><trkpt lat="32.2463133" lon="-111.2905855"><ele>678.0</ele><time>2026-04-14T16:36:37.135Z</time></trkpt><trkpt lat="32.246331" lon="-111.2907423"><ele>678.0</ele><time>2026-04-14T16:36:38.13Z</time></trkpt><trkpt lat="32.2463464" lon="-111.2908943"><ele>677.25</ele><time>2026-04-14T16:36:39.122Z</time></trkpt><trkpt lat="32.2463574" lon="-111.2910501"><ele>676.5</ele><time>2026-04-14T16:36:40.126Z</time></trkpt><trkpt lat="32.2463644" lon="-111.2912065"><ele>675.75</ele><time>2026-04-14T16:36:41.118Z</time></trkpt><trkpt lat="32.2463681" lon="-111.2913622"><ele>675.0</ele><time>2026-04-14T16:36:42.137Z</time></trkpt><trkpt lat="32.2463713" lon="-111.2915027"><ele>675.0</ele><time>2026-04-14T16:36:43.122Z</time></trkpt><trkpt lat="32.2463844" lon="-111.2916411"><ele>675.0</ele><time>2026-04-14T16:36:44.119Z</time></trkpt><trkpt lat="32.2464088" lon="-111.2917839"><ele>675.0</ele><time>2026-04-14T16:36:45.12Z</time></trkpt><trkpt lat="32.2464339" lon="-111.2919381"><ele>675.0</ele><time>2026-04-14T16:36:46.136Z</time></trkpt><trkpt lat="32.2464525" lon="-111.2920979"><ele>675.25</ele><time>2026-04-14T16:36:47.137Z</time></trkpt><trkpt lat="32.2464652" lon="-111.2922515"><ele>675.5</ele><time>2026-04-14T16:36:48.118Z</time></trkpt><trkpt lat="32.2464767" lon="-111.2924075"><ele>675.75</ele><time>2026-04-14T16:36:49.132Z</time></trkpt><trkpt lat="32.2464892" lon="-111.2925648"><ele>676.0</ele><time>2026-04-14T16:36:50.135Z</time></trkpt><trkpt lat="32.2465076" lon="-111.2927256"><ele>676.0</ele><time>2026-04-14T16:36:51.146Z</time></trkpt><trkpt lat="32.2465302" lon="-111.2928811"><ele>676.0</ele><time>2026-04-14T16:36:52.125Z</time></trkpt><trkpt lat="32.2465553" lon="-111.2930377"><ele>676.0</ele><time>2026-04-14T16:36:53.119Z</time></trkpt><trkpt lat="32.2465729" lon="-111.2931961"><ele>676.0</ele><time>2026-04-14T16:36:54.119Z</time></trkpt><trkpt lat="32.2465786" lon="-111.2933636"><ele>675.75</ele><time>2026-04-14T16:36:55.138Z</time></trkpt><trkpt lat="32.2465771" lon="-111.293522"><ele>675.5</ele><time>2026-04-14T16:36:56.128Z</time></trkpt><trkpt lat="32.2465707" lon="-111.2936823"><ele>675.25</ele><time>2026-04-14T16:36:57.125Z</time></trkpt><trkpt lat="32.2465683" lon="-111.2938479"><ele>675.0</ele><time>2026-04-14T16:36:58.133Z</time></trkpt><trkpt lat="32.2465778" lon="-111.2940136"><ele>675.75</ele><time>2026-04-14T16:36:59.141Z</time></trkpt><trkpt lat="32.2465947" lon="-111.2941793"><ele>676.5</ele><time>2026-04-14T16:37:00.131Z</time></trkpt><trkpt lat="32.2466077" lon="-111.2943498"><ele>677.25</ele><time>2026-04-14T16:37:01.131Z</time></trkpt><trkpt lat="32.2466127" lon="-111.294513"><ele>678.0</ele><time>2026-04-14T16:37:02.134Z</time></trkpt><trkpt lat="32.2466131" lon="-111.2946675"><ele>677.5999999999999</ele><time>2026-04-14T16:37:03.134Z</time></trkpt><trkpt lat="32.2466106" lon="-111.2948119"><ele>677.1999999999999</ele><time>2026-04-14T16:37:04.129Z</time></trkpt><trkpt lat="32.2466068" lon="-111.2949477"><ele>676.8</ele><time>2026-04-14T16:37:05.123Z</time></trkpt><trkpt lat="32.2466055" lon="-111.2950713"><ele>676.4</ele><time>2026-04-14T16:37:06.123Z</time></trkpt><trkpt lat="32.2466085" lon="-111.2951836"><ele>676.0</ele><time>2026-04-14T16:37:07.137Z</time></trkpt><trkpt lat="32.246619" lon="-111.295303"><ele>676.0</ele><time>2026-04-14T16:37:08.132Z</time></trkpt><trkpt lat="32.2466396" lon="-111.2954331"><ele>676.0</ele><time>2026-04-14T16:37:09.133Z</time></trkpt><trkpt lat="32.2466657" lon="-111.2955649"><ele>676.0</ele><time>2026-04-14T16:37:10.144Z</time></trkpt><trkpt lat="32.2467057" lon="-111.2956975"><ele>676.0</ele><time>2026-04-14T16:37:11.124Z</time></trkpt><trkpt lat="32.2467513" lon="-111.2958344"><ele>676.0</ele><time>2026-04-14T16:37:12.136Z</time></trkpt><trkpt lat="32.2467902" lon="-111.2959691"><ele>676.0</ele><time>2026-04-14T16:37:13.124Z</time></trkpt><trkpt lat="32.2468216" lon="-111.2961031"><ele>676.0</ele><time>2026-04-14T16:37:14.136Z</time></trkpt><trkpt lat="32.2468482" lon="-111.296233"><ele>676.0</ele><time>2026-04-14T16:37:15.136Z</time></trkpt><trkpt lat="32.2468745" lon="-111.2963565"><ele>676.0</ele><time>2026-04-14T16:37:16.137Z</time></trkpt><trkpt lat="32.2469051" lon="-111.29648"><ele>676.0</ele><time>2026-04-14T16:37:17.126Z</time></trkpt><trkpt lat="32.246934" lon="-111.2966133"><ele>676.0</ele><time>2026-04-14T16:37:18.129Z</time></trkpt><trkpt lat="32.2469567" lon="-111.2967536"><ele>676.0</ele><time>2026-04-14T16:37:19.132Z</time></trkpt><trkpt lat="32.2469755" lon="-111.2968985"><ele>676.0</ele><time>2026-04-14T16:37:20.126Z</time></trkpt><trkpt lat="32.2469965" lon="-111.2970544"><ele>676.0</ele><time>2026-04-14T16:37:21.141Z</time></trkpt><trkpt lat="32.2470188" lon="-111.2972109"><ele>676.0</ele><time>2026-04-14T16:37:22.132Z</time></trkpt><trkpt lat="32.2470402" lon="-111.2973683"><ele>676.0</ele><time>2026-04-14T16:37:23.122Z</time></trkpt><trkpt lat="32.2470642" lon="-111.2975369"><ele>676.0</ele><time>2026-04-14T16:37:24.139Z</time></trkpt><trkpt lat="32.247087" lon="-111.2976974"><ele>676.0</ele><time>2026-04-14T16:37:25.117Z</time></trkpt><trkpt lat="32.2471062" lon="-111.2978595"><ele>676.0</ele><time>2026-04-14T16:37:26.141Z</time></trkpt><trkpt lat="32.2471266" lon="-111.29802"><ele>676.0</ele><time>2026-04-14T16:37:27.138Z</time></trkpt><trkpt lat="32.2471512" lon="-111.2981829"><ele>676.0</ele><time>2026-04-14T16:37:28.13Z</time></trkpt><trkpt lat="32.2471756" lon="-111.2983577"><ele>676.0</ele><time>2026-04-14T16:37:29.14Z</time></trkpt><trkpt lat="32.2471932" lon="-111.2985306"><ele>676.0</ele><time>2026-04-14T16:37:30.133Z</time></trkpt><trkpt lat="32.2472061" lon="-111.2986989"><ele>676.0</ele><time>2026-04-14T16:37:31.124Z</time></trkpt><trkpt lat="32.2472165" lon="-111.2988617"><ele>676.0</ele><time>2026-04-14T16:37:32.129Z</time></trkpt><trkpt lat="32.2472278" lon="-111.299017"><ele>676.0</ele><time>2026-04-14T16:37:33.128Z</time></trkpt><trkpt lat="32.247247" lon="-111.2991702"><ele>676.0</ele><time>2026-04-14T16:37:34.132Z</time></trkpt><trkpt lat="32.2472714" lon="-111.2993203"><ele>676.0</ele><time>2026-04-14T16:37:35.131Z</time></trkpt><trkpt lat="32.2472953" lon="-111.2994712"><ele>676.0</ele><time>2026-04-14T16:37:36.145Z</time></trkpt><trkpt lat="32.2473162" lon="-111.2996151"><ele>676.0</ele><time>2026-04-14T16:37:37.13Z</time></trkpt><trkpt lat="32.2473341" lon="-111.2997672"><ele>676.0</ele><time>2026-04-14T16:37:38.144Z</time></trkpt><trkpt lat="32.2473571" lon="-111.2999158"><ele>676.0</ele><time>2026-04-14T16:37:39.143Z</time></trkpt><trkpt lat="32.2473888" lon="-111.3000611"><ele>676.0</ele><time>2026-04-14T16:37:40.119Z</time></trkpt><trkpt lat="32.2474239" lon="-111.3002143"><ele>676.0</ele><time>2026-04-14T16:37:41.134Z</time></trkpt><trkpt lat="32.2474526" lon="-111.3003712"><ele>676.0</ele><time>2026-04-14T16:37:42.141Z</time></trkpt><trkpt lat="32.2474718" lon="-111.3005268"><ele>676.0</ele><time>2026-04-14T16:37:43.13Z</time></trkpt><trkpt lat="32.2474916" lon="-111.3006877"><ele>675.75</ele><time>2026-04-14T16:37:44.143Z</time></trkpt><trkpt lat="32.2475122" lon="-111.3008442"><ele>675.5</ele><time>2026-04-14T16:37:45.141Z</time></trkpt><trkpt lat="32.2475287" lon="-111.3009921"><ele>675.25</ele><time>2026-04-14T16:37:46.125Z</time></trkpt><trkpt lat="32.2475469" lon="-111.3011409"><ele>675.0</ele><time>2026-04-14T16:37:47.122Z</time></trkpt><trkpt lat="32.2475665" lon="-111.3012918"><ele>675.25</ele><time>2026-04-14T16:37:48.119Z</time></trkpt><trkpt lat="32.2475872" lon="-111.3014406"><ele>675.5</ele><time>2026-04-14T16:37:49.123Z</time></trkpt><trkpt lat="32.2476069" lon="-111.30158"><ele>675.75</ele><time>2026-04-14T16:37:50.114Z</time></trkpt><trkpt lat="32.2476188" lon="-111.3017162"><ele>676.0</ele><time>2026-04-14T16:37:51.117Z</time></trkpt><trkpt lat="32.2476126" lon="-111.3018468"><ele>676.0</ele><time>2026-04-14T16:37:52.151Z</time></trkpt><trkpt lat="32.2475892" lon="-111.3019664"><ele>676.0</ele><time>2026-04-14T16:37:53.12Z</time></trkpt><trkpt lat="32.2475617" lon="-111.3020811"><ele>676.0</ele><time>2026-04-14T16:37:54.116Z</time></trkpt><trkpt lat="32.247532" lon="-111.3022094"><ele>676.0</ele><time>2026-04-14T16:37:55.132Z</time></trkpt><trkpt lat="32.2475192" lon="-111.3023354"><ele>676.0</ele><time>2026-04-14T16:37:56.132Z</time></trkpt><trkpt lat="32.2475221" lon="-111.3024632"><ele>676.0</ele><time>2026-04-14T16:37:57.136Z</time></trkpt><trkpt lat="32.2475364" lon="-111.3025914"><ele>676.0</ele><time>2026-04-14T16:37:58.131Z</time></trkpt><trkpt lat="32.2475382" lon="-111.3027208"><ele>676.0</ele><time>2026-04-14T16:37:59.123Z</time></trkpt><trkpt lat="32.247517" lon="-111.3028373"><ele>676.0</ele><time>2026-04-14T16:38:00.132Z</time></trkpt><trkpt lat="32.2475009" lon="-111.3029655"><ele>676.0</ele><time>2026-04-14T16:38:01.122Z</time></trkpt><trkpt lat="32.2474798" lon="-111.3030972"><ele>676.25</ele><time>2026-04-14T16:38:02.123Z</time></trkpt><trkpt lat="32.2474469" lon="-111.3032265"><ele>676.5</ele><time>2026-04-14T16:38:03.126Z</time></trkpt><trkpt lat="32.247424" lon="-111.3033546"><ele>676.75</ele><time>2026-04-14T16:38:04.124Z</time></trkpt><trkpt lat="32.2473956" lon="-111.3034908"><ele>677.0</ele><time>2026-04-14T16:38:05.127Z</time></trkpt><trkpt lat="32.2473807" lon="-111.3036237"><ele>677.0</ele><time>2026-04-14T16:38:06.13Z</time></trkpt><trkpt lat="32.2473698" lon="-111.3037463"><ele>677.0</ele><time>2026-04-14T16:38:07.125Z</time></trkpt><trkpt lat="32.2473523" lon="-111.30386"><ele>677.0</ele><time>2026-04-14T16:38:08.134Z</time></trkpt><trkpt lat="32.2473289" lon="-111.3039646"><ele>677.0</ele><time>2026-04-14T16:38:09.128Z</time></trkpt><trkpt lat="32.247291" lon="-111.3040816"><ele>677.0</ele><time>2026-04-14T16:38:10.115Z</time></trkpt><trkpt lat="32.2472554" lon="-111.304195"><ele>677.0</ele><time>2026-04-14T16:38:11.126Z</time></trkpt><trkpt lat="32.2472276" lon="-111.3043089"><ele>677.0</ele><time>2026-04-14T16:38:12.12Z</time></trkpt><trkpt lat="32.24721" lon="-111.3044227"><ele>677.0</ele><time>2026-04-14T16:38:13.126Z</time></trkpt><trkpt lat="32.2471922" lon="-111.304541"><ele>677.0</ele><time>2026-04-14T16:38:14.116Z</time></trkpt><trkpt lat="32.2471776" lon="-111.3046721"><ele>677.0</ele><time>2026-04-14T16:38:15.129Z</time></trkpt><trkpt lat="32.2471704" lon="-111.304808"><ele>677.0</ele><time>2026-04-14T16:38:16.118Z</time></trkpt><trkpt lat="32.2471703" lon="-111.3049527"><ele>677.0</ele><time>2026-04-14T16:38:17.121Z</time></trkpt><trkpt lat="32.2471813" lon="-111.3051034"><ele>677.0</ele><time>2026-04-14T16:38:18.13Z</time></trkpt><trkpt lat="32.2472033" lon="-111.3052565"><ele>677.0</ele><time>2026-04-14T16:38:19.131Z</time></trkpt><trkpt lat="32.2472297" lon="-111.3054159"><ele>677.0</ele><time>2026-04-14T16:38:20.157Z</time></trkpt><trkpt lat="32.2472581" lon="-111.3055648"><ele>677.0</ele><time>2026-04-14T16:38:21.123Z</time></trkpt><trkpt lat="32.2472833" lon="-111.3057111"><ele>677.0</ele><time>2026-04-14T16:38:22.126Z</time></trkpt><trkpt lat="32.2473054" lon="-111.3058449"><ele>677.0</ele><time>2026-04-14T16:38:23.12Z</time></trkpt><trkpt lat="32.2473226" lon="-111.3059677"><ele>677.0</ele><time>2026-04-14T16:38:24.13Z</time></trkpt><trkpt lat="32.247337" lon="-111.3060723"><ele>677.0</ele><time>2026-04-14T16:38:25.127Z</time></trkpt><trkpt lat="32.2473483" lon="-111.306157"><ele>677.0</ele><time>2026-04-14T16:38:26.127Z</time></trkpt><trkpt lat="32.2473544" lon="-111.3062763"><ele>677.0</ele><time>2026-04-14T16:38:28.119Z</time></trkpt><trkpt lat="32.2473358" lon="-111.3063513"><ele>677.0</ele><time>2026-04-14T16:38:30.126Z</time></trkpt><trkpt lat="32.2473726" lon="-111.3064166"><ele>677.0</ele><time>2026-04-14T16:39:04.132Z</time></trkpt><trkpt lat="32.2474489" lon="-111.306447"><ele>676.8333333333333</ele><time>2026-04-14T16:39:06.134Z</time></trkpt><trkpt lat="32.247506" lon="-111.3064817"><ele>676.6666666666666</ele><time>2026-04-14T16:39:07.122Z</time></trkpt><trkpt lat="32.2475759" lon="-111.3065226"><ele>676.5</ele><time>2026-04-14T16:39:08.141Z</time></trkpt><trkpt lat="32.247646" lon="-111.3065659"><ele>676.3333333333334</ele><time>2026-04-14T16:39:09.12Z</time></trkpt><trkpt lat="32.247727" lon="-111.3066105"><ele>676.1666666666667</ele><time>2026-04-14T16:39:10.124Z</time></trkpt><trkpt lat="32.2478085" lon="-111.306645"><ele>676.0</ele><time>2026-04-14T16:39:11.133Z</time></trkpt><trkpt lat="32.2478895" lon="-111.3066765"><ele>676.0</ele><time>2026-04-14T16:39:12.126Z</time></trkpt><trkpt lat="32.2479725" lon="-111.3067086"><ele>676.0</ele><time>2026-04-14T16:39:13.132Z</time></trkpt><trkpt lat="32.2480577" lon="-111.3067325"><ele>676.0</ele><time>2026-04-14T16:39:14.135Z</time></trkpt><trkpt lat="32.2481498" lon="-111.3067453"><ele>676.0</ele><time>2026-04-14T16:39:15.128Z</time></trkpt><trkpt lat="32.2482456" lon="-111.3067492"><ele>676.0</ele><time>2026-04-14T16:39:16.12Z</time></trkpt><trkpt lat="32.2483417" lon="-111.3067448"><ele>675.6666666666667</ele><time>2026-04-14T16:39:17.124Z</time></trkpt><trkpt lat="32.2484359" lon="-111.3067393"><ele>675.3333333333334</ele><time>2026-04-14T16:39:18.119Z</time></trkpt><trkpt lat="32.2485342" lon="-111.3067342"><ele>675.0</ele><time>2026-04-14T16:39:19.134Z</time></trkpt><trkpt lat="32.2486223" lon="-111.306721"><ele>674.6666666666666</ele><time>2026-04-14T16:39:20.12Z</time></trkpt><trkpt lat="32.2487063" lon="-111.3067079"><ele>674.3333333333333</ele><time>2026-04-14T16:39:21.126Z</time></trkpt><trkpt lat="32.248785" lon="-111.306688"><ele>674.0</ele><time>2026-04-14T16:39:22.131Z</time></trkpt><trkpt lat="32.2488605" lon="-111.3066611"><ele>674.0</ele><time>2026-04-14T16:39:23.134Z</time></trkpt><trkpt lat="32.2489326" lon="-111.3066291"><ele>674.0</ele><time>2026-04-14T16:39:24.122Z</time></trkpt><trkpt lat="32.249008" lon="-111.306609"><ele>674.0</ele><time>2026-04-14T16:39:25.135Z</time></trkpt><trkpt lat="32.2490977" lon="-111.3065952"><ele>674.0</ele><time>2026-04-14T16:39:26.117Z</time></trkpt><trkpt lat="32.2491926" lon="-111.306585"><ele>674.0</ele><time>2026-04-14T16:39:27.123Z</time></trkpt><trkpt lat="32.2492884" lon="-111.3065745"><ele>674.0</ele><time>2026-04-14T16:39:28.123Z</time></trkpt><trkpt lat="32.2493827" lon="-111.3065636"><ele>674.2</ele><time>2026-04-14T16:39:29.13Z</time></trkpt><trkpt lat="32.2494715" lon="-111.306565"><ele>674.4000000000001</ele><time>2026-04-14T16:39:30.141Z</time></trkpt><trkpt lat="32.2495586" lon="-111.3065647"><ele>674.6</ele><time>2026-04-14T16:39:31.118Z</time></trkpt><trkpt lat="32.2496499" lon="-111.3065567"><ele>674.8</ele><time>2026-04-14T16:39:32.126Z</time></trkpt><trkpt lat="32.2497456" lon="-111.3065418"><ele>675.0</ele><time>2026-04-14T16:39:33.134Z</time></trkpt><trkpt lat="32.2498458" lon="-111.3065194"><ele>675.0</ele><time>2026-04-14T16:39:34.124Z</time></trkpt><trkpt lat="32.2499512" lon="-111.3064922"><ele>675.0</ele><time>2026-04-14T16:39:35.135Z</time></trkpt><trkpt lat="32.2500567" lon="-111.3064659"><ele>675.0</ele><time>2026-04-14T16:39:36.127Z</time></trkpt><trkpt lat="32.2501627" lon="-111.3064434"><ele>675.0</ele><time>2026-04-14T16:39:37.135Z</time></trkpt><trkpt lat="32.250268" lon="-111.3064231"><ele>675.0</ele><time>2026-04-14T16:39:38.133Z</time></trkpt><trkpt lat="32.2503724" lon="-111.3064064"><ele>675.0</ele><time>2026-04-14T16:39:39.135Z</time></trkpt><trkpt lat="32.2504743" lon="-111.3063911"><ele>675.0</ele><time>2026-04-14T16:39:40.127Z</time></trkpt><trkpt lat="32.2505737" lon="-111.3063814"><ele>675.0</ele><time>2026-04-14T16:39:41.138Z</time></trkpt><trkpt lat="32.2506684" lon="-111.3063696"><ele>675.0</ele><time>2026-04-14T16:39:42.125Z</time></trkpt><trkpt lat="32.250766" lon="-111.3063511"><ele>675.0</ele><time>2026-04-14T16:39:43.131Z</time></trkpt><trkpt lat="32.2508594" lon="-111.3063236"><ele>675.0</ele><time>2026-04-14T16:39:44.119Z</time></trkpt><trkpt lat="32.2509518" lon="-111.3062897"><ele>675.0</ele><time>2026-04-14T16:39:45.12Z</time></trkpt><trkpt lat="32.251043" lon="-111.3062557"><ele>675.0</ele><time>2026-04-14T16:39:46.131Z</time></trkpt><trkpt lat="32.2511394" lon="-111.3062219"><ele>675.0</ele><time>2026-04-14T16:39:47.143Z</time></trkpt><trkpt lat="32.2512293" lon="-111.3061856"><ele>675.0</ele><time>2026-04-14T16:39:48.124Z</time></trkpt><trkpt lat="32.2513212" lon="-111.3061462"><ele>675.0</ele><time>2026-04-14T16:39:49.134Z</time></trkpt><trkpt lat="32.2514127" lon="-111.3061096"><ele>675.0</ele><time>2026-04-14T16:39:50.126Z</time></trkpt><trkpt lat="32.2515059" lon="-111.3060732"><ele>675.0</ele><time>2026-04-14T16:39:51.138Z</time></trkpt><trkpt lat="32.2515891" lon="-111.3060346"><ele>675.0</ele><time>2026-04-14T16:39:52.128Z</time></trkpt><trkpt lat="32.251673" lon="-111.3059914"><ele>675.0</ele><time>2026-04-14T16:39:53.123Z</time></trkpt><trkpt lat="32.2517602" lon="-111.3059473"><ele>674.2</ele><time>2026-04-14T16:39:54.125Z</time></trkpt><trkpt lat="32.2518494" lon="-111.3058967"><ele>673.4</ele><time>2026-04-14T16:39:55.131Z</time></trkpt><trkpt lat="32.2519424" lon="-111.3058421"><ele>672.5999999999999</ele><time>2026-04-14T16:39:56.134Z</time></trkpt><trkpt lat="32.2520325" lon="-111.3057886"><ele>671.8</ele><time>2026-04-14T16:39:57.119Z</time></trkpt><trkpt lat="32.2521201" lon="-111.3057377"><ele>671.0</ele><time>2026-04-14T16:39:58.129Z</time></trkpt><trkpt lat="32.2522019" lon="-111.3056912"><ele>671.0</ele><time>2026-04-14T16:39:59.132Z</time></trkpt><trkpt lat="32.2522754" lon="-111.3056495"><ele>671.0</ele><time>2026-04-14T16:40:00.131Z</time></trkpt><trkpt lat="32.2523401" lon="-111.3056132"><ele>671.0</ele><time>2026-04-14T16:40:01.128Z</time></trkpt><trkpt lat="32.2523966" lon="-111.3055799"><ele>671.0</ele><time>2026-04-14T16:40:02.124Z</time></trkpt><trkpt lat="32.2524909" lon="-111.305523"><ele>671.0</ele><time>2026-04-14T16:40:04.132Z</time></trkpt><trkpt lat="32.252589" lon="-111.305464"><ele>671.0</ele><time>2026-04-14T16:40:06.122Z</time></trkpt><trkpt lat="32.2526623" lon="-111.3054165"><ele>671.4</ele><time>2026-04-14T16:40:07.137Z</time></trkpt><trkpt lat="32.2527429" lon="-111.3053599"><ele>671.8</ele><time>2026-04-14T16:40:08.123Z</time></trkpt><trkpt lat="32.2528261" lon="-111.3052984"><ele>672.1999999999999</ele><time>2026-04-14T16:40:09.131Z</time></trkpt><trkpt lat="32.2529128" lon="-111.3052379"><ele>672.5999999999999</ele><time>2026-04-14T16:40:10.142Z</time></trkpt><trkpt lat="32.2529974" lon="-111.3051845"><ele>673.0</ele><time>2026-04-14T16:40:11.122Z</time></trkpt><trkpt lat="32.2530796" lon="-111.3051355"><ele>673.0</ele><time>2026-04-14T16:40:12.123Z</time></trkpt><trkpt lat="32.253162" lon="-111.3050862"><ele>673.0</ele><time>2026-04-14T16:40:13.122Z</time></trkpt><trkpt lat="32.2532426" lon="-111.3050398"><ele>673.0</ele><time>2026-04-14T16:40:14.135Z</time></trkpt><trkpt lat="32.2533234" lon="-111.3049886"><ele>673.0</ele><time>2026-04-14T16:40:15.141Z</time></trkpt><trkpt lat="32.2534045" lon="-111.3049331"><ele>673.0</ele><time>2026-04-14T16:40:16.13Z</time></trkpt><trkpt lat="32.2534816" lon="-111.3048835"><ele>673.0</ele><time>2026-04-14T16:40:17.137Z</time></trkpt><trkpt lat="32.2535527" lon="-111.304839"><ele>673.0</ele><time>2026-04-14T16:40:18.125Z</time></trkpt><trkpt lat="32.2536198" lon="-111.3048033"><ele>673.0</ele><time>2026-04-14T16:40:19.115Z</time></trkpt><trkpt lat="32.2536857" lon="-111.3047605"><ele>673.0</ele><time>2026-04-14T16:40:20.145Z</time></trkpt><trkpt lat="32.2537443" lon="-111.3047088"><ele>673.0</ele><time>2026-04-14T16:40:21.125Z</time></trkpt><trkpt lat="32.25381" lon="-111.3046595"><ele>673.0</ele><time>2026-04-14T16:40:22.121Z</time></trkpt><trkpt lat="32.2538781" lon="-111.3046114"><ele>673.0</ele><time>2026-04-14T16:40:23.12Z</time></trkpt><trkpt lat="32.2539503" lon="-111.3045755"><ele>673.0</ele><time>2026-04-14T16:40:24.116Z</time></trkpt><trkpt lat="32.2540346" lon="-111.3045554"><ele>673.0</ele><time>2026-04-14T16:40:25.118Z</time></trkpt><trkpt lat="32.2541244" lon="-111.3045477"><ele>673.0</ele><time>2026-04-14T16:40:26.132Z</time></trkpt><trkpt lat="32.2542139" lon="-111.3045441"><ele>673.0</ele><time>2026-04-14T16:40:27.14Z</time></trkpt><trkpt lat="32.254304" lon="-111.3045436"><ele>673.0</ele><time>2026-04-14T16:40:28.138Z</time></trkpt><trkpt lat="32.2544019" lon="-111.3045359"><ele>673.0</ele><time>2026-04-14T16:40:29.145Z</time></trkpt><trkpt lat="32.2544957" lon="-111.3045155"><ele>673.0</ele><time>2026-04-14T16:40:30.124Z</time></trkpt><trkpt lat="32.2545908" lon="-111.3044854"><ele>673.0</ele><time>2026-04-14T16:40:31.133Z</time></trkpt><trkpt lat="32.254678" lon="-111.3044579"><ele>673.0</ele><time>2026-04-14T16:40:32.134Z</time></trkpt><trkpt lat="32.2547574" lon="-111.3044341"><ele>673.0</ele><time>2026-04-14T16:40:33.13Z</time></trkpt><trkpt lat="32.2548285" lon="-111.3044122"><ele>673.0</ele><time>2026-04-14T16:40:34.119Z</time></trkpt><trkpt lat="32.2548962" lon="-111.3043894"><ele>672.8333333333334</ele><time>2026-04-14T16:40:35.133Z</time></trkpt><trkpt lat="32.2549688" lon="-111.3043678"><ele>672.6666666666667</ele><time>2026-04-14T16:40:36.148Z</time></trkpt><trkpt lat="32.2550398" lon="-111.3043463"><ele>672.5</ele><time>2026-04-14T16:40:37.138Z</time></trkpt><trkpt lat="32.2551142" lon="-111.3043145"><ele>672.3333333333334</ele><time>2026-04-14T16:40:38.12Z</time></trkpt><trkpt lat="32.2551987" lon="-111.3042808"><ele>672.1666666666666</ele><time>2026-04-14T16:40:39.12Z</time></trkpt><trkpt lat="32.2552881" lon="-111.3042567"><ele>672.0</ele><time>2026-04-14T16:40:40.119Z</time></trkpt><trkpt lat="32.2553847" lon="-111.3042356"><ele>672.0</ele><time>2026-04-14T16:40:41.14Z</time></trkpt><trkpt lat="32.2554801" lon="-111.3042156"><ele>672.0</ele><time>2026-04-14T16:40:42.119Z</time></trkpt><trkpt lat="32.2555748" lon="-111.3042006"><ele>672.0</ele><time>2026-04-14T16:40:43.129Z</time></trkpt><trkpt lat="32.2556737" lon="-111.3041925"><ele>672.0</ele><time>2026-04-14T16:40:44.132Z</time></trkpt><trkpt lat="32.2557767" lon="-111.3041881"><ele>672.0</ele><time>2026-04-14T16:40:45.123Z</time></trkpt><trkpt lat="32.2558871" lon="-111.3041913"><ele>672.0</ele><time>2026-04-14T16:40:46.119Z</time></trkpt><trkpt lat="32.2560049" lon="-111.3041994"><ele>672.0</ele><time>2026-04-14T16:40:47.123Z</time></trkpt><trkpt lat="32.2561336" lon="-111.3042064"><ele>672.0</ele><time>2026-04-14T16:40:48.138Z</time></trkpt><trkpt lat="32.2562613" lon="-111.3042087"><ele>672.0</ele><time>2026-04-14T16:40:49.124Z</time></trkpt><trkpt lat="32.2563919" lon="-111.3042068"><ele>671.75</ele><time>2026-04-14T16:40:50.135Z</time></trkpt><trkpt lat="32.2565241" lon="-111.3042075"><ele>671.5</ele><time>2026-04-14T16:40:51.133Z</time></trkpt><trkpt lat="32.2566547" lon="-111.3042106"><ele>671.25</ele><time>2026-04-14T16:40:52.124Z</time></trkpt><trkpt lat="32.2567878" lon="-111.3042133"><ele>671.0</ele><time>2026-04-14T16:40:53.128Z</time></trkpt><trkpt lat="32.2569217" lon="-111.3042129"><ele>671.0</ele><time>2026-04-14T16:40:54.141Z</time></trkpt><trkpt lat="32.257052" lon="-111.3042078"><ele>671.0</ele><time>2026-04-14T16:40:55.119Z</time></trkpt><trkpt lat="32.2571906" lon="-111.3041992"><ele>671.0</ele><time>2026-04-14T16:40:56.179Z</time></trkpt><trkpt lat="32.257319" lon="-111.3041939"><ele>671.0</ele><time>2026-04-14T16:40:57.135Z</time></trkpt><trkpt lat="32.2574544" lon="-111.3041881"><ele>670.75</ele><time>2026-04-14T16:40:58.126Z</time></trkpt><trkpt lat="32.2575904" lon="-111.3041786"><ele>670.5</ele><time>2026-04-14T16:40:59.119Z</time></trkpt><trkpt lat="32.2577255" lon="-111.3041687"><ele>670.25</ele><time>2026-04-14T16:41:00.135Z</time></trkpt><trkpt lat="32.257855" lon="-111.3041593"><ele>670.0</ele><time>2026-04-14T16:41:01.132Z</time></trkpt><trkpt lat="32.2579863" lon="-111.3041534"><ele>670.0</ele><time>2026-04-14T16:41:02.132Z</time></trkpt><trkpt lat="32.2581137" lon="-111.3041419"><ele>670.0</ele><time>2026-04-14T16:41:03.126Z</time></trkpt><trkpt lat="32.2582367" lon="-111.3041254"><ele>670.0</ele><time>2026-04-14T16:41:04.118Z</time></trkpt><trkpt lat="32.2583569" lon="-111.3041135"><ele>670.0</ele><time>2026-04-14T16:41:05.12Z</time></trkpt><trkpt lat="32.2584891" lon="-111.3041055"><ele>669.75</ele><time>2026-04-14T16:41:06.133Z</time></trkpt><trkpt lat="32.2586232" lon="-111.3041003"><ele>669.5</ele><time>2026-04-14T16:41:07.14Z</time></trkpt><trkpt lat="32.2587511" lon="-111.3040934"><ele>669.25</ele><time>2026-04-14T16:41:08.12Z</time></trkpt><trkpt lat="32.2588852" lon="-111.3040876"><ele>669.0</ele><time>2026-04-14T16:41:09.132Z</time></trkpt><trkpt lat="32.2590175" lon="-111.3040875"><ele>668.75</ele><time>2026-04-14T16:41:10.131Z</time></trkpt><trkpt lat="32.2591523" lon="-111.304089"><ele>668.5</ele><time>2026-04-14T16:41:11.13Z</time></trkpt><trkpt lat="32.2592871" lon="-111.3040924"><ele>668.25</ele><time>2026-04-14T16:41:12.127Z</time></trkpt><trkpt lat="32.2594228" lon="-111.3040959"><ele>668.0</ele><time>2026-04-14T16:41:13.132Z</time></trkpt><trkpt lat="32.2595601" lon="-111.3040962"><ele>668.0</ele><time>2026-04-14T16:41:14.137Z</time></trkpt><trkpt lat="32.2596941" lon="-111.3040961"><ele>668.0</ele><time>2026-04-14T16:41:15.119Z</time></trkpt><trkpt lat="32.2598308" lon="-111.3040987"><ele>668.0</ele><time>2026-04-14T16:41:16.135Z</time></trkpt><trkpt lat="32.259966" lon="-111.3041076"><ele>668.0</ele><time>2026-04-14T16:41:17.134Z</time></trkpt><trkpt lat="32.2601039" lon="-111.3041201"><ele>668.0</ele><time>2026-04-14T16:41:18.149Z</time></trkpt><trkpt lat="32.2602396" lon="-111.3041292"><ele>668.0</ele><time>2026-04-14T16:41:19.135Z</time></trkpt><trkpt lat="32.260376" lon="-111.304137"><ele>668.0</ele><time>2026-04-14T16:41:20.13Z</time></trkpt><trkpt lat="32.2605127" lon="-111.3041441"><ele>668.0</ele><time>2026-04-14T16:41:21.13Z</time></trkpt><trkpt lat="32.2606498" lon="-111.304147"><ele>668.0</ele><time>2026-04-14T16:41:22.131Z</time></trkpt><trkpt lat="32.2607871" lon="-111.3041475"><ele>668.0</ele><time>2026-04-14T16:41:23.138Z</time></trkpt><trkpt lat="32.2609223" lon="-111.3041468"><ele>668.0</ele><time>2026-04-14T16:41:24.127Z</time></trkpt><trkpt lat="32.2610582" lon="-111.3041478"><ele>668.0</ele><time>2026-04-14T16:41:25.12Z</time></trkpt><trkpt lat="32.2611953" lon="-111.3041509"><ele>668.0</ele><time>2026-04-14T16:41:26.124Z</time></trkpt><trkpt lat="32.2613354" lon="-111.3041545"><ele>668.0</ele><time>2026-04-14T16:41:27.144Z</time></trkpt><trkpt lat="32.2614701" lon="-111.304157"><ele>668.0</ele><time>2026-04-14T16:41:28.126Z</time></trkpt><trkpt lat="32.2616026" lon="-111.3041585"><ele>668.0</ele><time>2026-04-14T16:41:29.133Z</time></trkpt><trkpt lat="32.2617255" lon="-111.30416"><ele>668.2</ele><time>2026-04-14T16:41:30.121Z</time></trkpt><trkpt lat="32.2618433" lon="-111.3041618"><ele>668.4</ele><time>2026-04-14T16:41:31.138Z</time></trkpt><trkpt lat="32.2619526" lon="-111.3041626"><ele>668.6</ele><time>2026-04-14T16:41:32.153Z</time></trkpt><trkpt lat="32.2620497" lon="-111.3041629"><ele>668.8000000000001</ele><time>2026-04-14T16:41:33.129Z</time></trkpt><trkpt lat="32.2621396" lon="-111.3041625"><ele>669.0</ele><time>2026-04-14T16:41:34.123Z</time></trkpt><trkpt lat="32.2622183" lon="-111.3041605"><ele>669.0</ele><time>2026-04-14T16:41:35.129Z</time></trkpt><trkpt lat="32.262284" lon="-111.3041562"><ele>669.0</ele><time>2026-04-14T16:41:36.131Z</time></trkpt><trkpt lat="32.262393" lon="-111.3041432"><ele>669.0</ele><time>2026-04-14T16:41:38.129Z</time></trkpt><trkpt lat="32.2624804" lon="-111.3041443"><ele>669.0</ele><time>2026-04-14T16:41:40.138Z</time></trkpt><trkpt lat="32.2625527" lon="-111.3041697"><ele>669.0</ele><time>2026-04-14T16:41:43.133Z</time></trkpt><trkpt lat="32.2626024" lon="-111.3042177"><ele>669.0</ele><time>2026-04-14T16:42:25.139Z</time></trkpt><trkpt lat="32.2626735" lon="-111.30425"><ele>669.0</ele><time>2026-04-14T16:42:29.123Z</time></trkpt><trkpt lat="32.262758" lon="-111.3042712"><ele>669.0</ele><time>2026-04-14T16:43:24.13Z</time></trkpt><trkpt lat="32.262889" lon="-111.3042589"><ele>669.0</ele><time>2026-04-14T16:43:26.134Z</time></trkpt><trkpt lat="32.2629684" lon="-111.304254"><ele>669.0</ele><time>2026-04-14T16:43:27.14Z</time></trkpt><trkpt lat="32.2630574" lon="-111.3042521"><ele>669.0</ele><time>2026-04-14T16:43:28.127Z</time></trkpt><trkpt lat="32.263152" lon="-111.304248"><ele>669.25</ele><time>2026-04-14T16:43:29.129Z</time></trkpt><trkpt lat="32.2632548" lon="-111.3042423"><ele>669.5</ele><time>2026-04-14T16:43:30.131Z</time></trkpt><trkpt lat="32.263365" lon="-111.3042375"><ele>669.75</ele><time>2026-04-14T16:43:31.127Z</time></trkpt><trkpt lat="32.2634865" lon="-111.3042335"><ele>670.0</ele><time>2026-04-14T16:43:32.131Z</time></trkpt><trkpt lat="32.263618" lon="-111.3042311"><ele>670.0</ele><time>2026-04-14T16:43:33.132Z</time></trkpt><trkpt lat="32.2637601" lon="-111.304232"><ele>670.0</ele><time>2026-04-14T16:43:34.14Z</time></trkpt><trkpt lat="32.263908" lon="-111.3042326"><ele>670.0</ele><time>2026-04-14T16:43:35.131Z</time></trkpt><trkpt lat="32.2640644" lon="-111.3042328"><ele>670.0</ele><time>2026-04-14T16:43:36.135Z</time></trkpt><trkpt lat="32.2642229" lon="-111.3042331"><ele>669.3333333333334</ele><time>2026-04-14T16:43:37.136Z</time></trkpt><trkpt lat="32.2643815" lon="-111.3042319"><ele>668.6666666666666</ele><time>2026-04-14T16:43:38.137Z</time></trkpt><trkpt lat="32.2645371" lon="-111.3042313"><ele>668.0</ele><time>2026-04-14T16:43:39.143Z</time></trkpt><trkpt lat="32.2646891" lon="-111.3042299"><ele>667.6666666666666</ele><time>2026-04-14T16:43:40.122Z</time></trkpt><trkpt lat="32.2648473" lon="-111.3042309"><ele>667.3333333333334</ele><time>2026-04-14T16:43:41.128Z</time></trkpt><trkpt lat="32.2650083" lon="-111.3042335"><ele>667.0</ele><time>2026-04-14T16:43:42.139Z</time></trkpt><trkpt lat="32.2651685" lon="-111.3042361"><ele>667.0</ele><time>2026-04-14T16:43:43.122Z</time></trkpt><trkpt lat="32.2653329" lon="-111.3042382"><ele>667.0</ele><time>2026-04-14T16:43:44.125Z</time></trkpt><trkpt lat="32.2654999" lon="-111.3042399"><ele>667.0</ele><time>2026-04-14T16:43:45.13Z</time></trkpt><trkpt lat="32.2656702" lon="-111.3042441"><ele>667.0</ele><time>2026-04-14T16:43:46.135Z</time></trkpt><trkpt lat="32.2658395" lon="-111.3042486"><ele>667.0</ele><time>2026-04-14T16:43:47.124Z</time></trkpt><trkpt lat="32.2660135" lon="-111.3042509"><ele>667.0</ele><time>2026-04-14T16:43:48.151Z</time></trkpt><trkpt lat="32.2661777" lon="-111.3042515"><ele>667.0</ele><time>2026-04-14T16:43:49.129Z</time></trkpt><trkpt lat="32.2663463" lon="-111.3042514"><ele>667.0</ele><time>2026-04-14T16:43:50.138Z</time></trkpt><trkpt lat="32.2665143" lon="-111.3042517"><ele>667.0</ele><time>2026-04-14T16:43:51.13Z</time></trkpt><trkpt lat="32.2666837" lon="-111.3042526"><ele>666.3333333333334</ele><time>2026-04-14T16:43:52.126Z</time></trkpt><trkpt lat="32.2668565" lon="-111.3042525"><ele>665.6666666666666</ele><time>2026-04-14T16:43:53.139Z</time></trkpt><trkpt lat="32.2670244" lon="-111.3042515"><ele>665.0</ele><time>2026-04-14T16:43:54.131Z</time></trkpt><trkpt lat="32.267194" lon="-111.304252"><ele>665.3333333333333</ele><time>2026-04-14T16:43:55.136Z</time></trkpt><trkpt lat="32.2673587" lon="-111.3042536"><ele>665.6666666666666</ele><time>2026-04-14T16:43:56.123Z</time></trkpt><trkpt lat="32.2675259" lon="-111.3042542"><ele>666.0</ele><time>2026-04-14T16:43:57.125Z</time></trkpt><trkpt lat="32.2676941" lon="-111.304254"><ele>666.0</ele><time>2026-04-14T16:43:58.13Z</time></trkpt><trkpt lat="32.2678619" lon="-111.3042541"><ele>666.0</ele><time>2026-04-14T16:43:59.126Z</time></trkpt><trkpt lat="32.2680327" lon="-111.3042547"><ele>666.0</ele><time>2026-04-14T16:44:00.138Z</time></trkpt><trkpt lat="32.268201" lon="-111.3042545"><ele>665.6666666666666</ele><time>2026-04-14T16:44:01.129Z</time></trkpt><trkpt lat="32.268371" lon="-111.304254"><ele>665.3333333333333</ele><time>2026-04-14T16:44:02.14Z</time></trkpt><trkpt lat="32.2685372" lon="-111.304252"><ele>665.0</ele><time>2026-04-14T16:44:03.123Z</time></trkpt><trkpt lat="32.2687097" lon="-111.3042488"><ele>665.0</ele><time>2026-04-14T16:44:04.139Z</time></trkpt><trkpt lat="32.2688794" lon="-111.3042469"><ele>665.0</ele><time>2026-04-14T16:44:05.136Z</time></trkpt><trkpt lat="32.2690489" lon="-111.3042477"><ele>665.0</ele><time>2026-04-14T16:44:06.139Z</time></trkpt><trkpt lat="32.2692139" lon="-111.3042502"><ele>665.0</ele><time>2026-04-14T16:44:07.124Z</time></trkpt><trkpt lat="32.269382" lon="-111.3042522"><ele>665.0</ele><time>2026-04-14T16:44:08.125Z</time></trkpt><trkpt lat="32.2695522" lon="-111.3042544"><ele>665.0</ele><time>2026-04-14T16:44:09.133Z</time></trkpt><trkpt lat="32.2697193" lon="-111.3042589"><ele>665.0</ele><time>2026-04-14T16:44:10.121Z</time></trkpt><trkpt lat="32.2698894" lon="-111.3042633"><ele>665.0</ele><time>2026-04-14T16:44:11.132Z</time></trkpt><trkpt lat="32.2700589" lon="-111.3042653"><ele>665.0</ele><time>2026-04-14T16:44:12.14Z</time></trkpt><trkpt lat="32.2702286" lon="-111.3042669"><ele>665.0</ele><time>2026-04-14T16:44:13.136Z</time></trkpt><trkpt lat="32.2703998" lon="-111.3042678"><ele>665.0</ele><time>2026-04-14T16:44:14.141Z</time></trkpt><trkpt lat="32.2705682" lon="-111.3042677"><ele>665.0</ele><time>2026-04-14T16:44:15.129Z</time></trkpt><trkpt lat="32.2707387" lon="-111.3042681"><ele>665.0</ele><time>2026-04-14T16:44:16.134Z</time></trkpt><trkpt lat="32.2709062" lon="-111.3042682"><ele>665.0</ele><time>2026-04-14T16:44:17.125Z</time></trkpt><trkpt lat="32.2710764" lon="-111.3042677"><ele>665.0</ele><time>2026-04-14T16:44:18.131Z</time></trkpt><trkpt lat="32.2712462" lon="-111.3042676"><ele>665.0</ele><time>2026-04-14T16:44:19.13Z</time></trkpt><trkpt lat="32.2714181" lon="-111.3042674"><ele>665.0</ele><time>2026-04-14T16:44:20.135Z</time></trkpt><trkpt lat="32.2715853" lon="-111.3042673"><ele>665.0</ele><time>2026-04-14T16:44:21.124Z</time></trkpt><trkpt lat="32.2717565" lon="-111.3042673"><ele>665.0</ele><time>2026-04-14T16:44:22.147Z</time></trkpt><trkpt lat="32.2719209" lon="-111.3042665"><ele>665.0</ele><time>2026-04-14T16:44:23.122Z</time></trkpt><trkpt lat="32.2720928" lon="-111.3042651"><ele>665.0</ele><time>2026-04-14T16:44:24.141Z</time></trkpt><trkpt lat="32.2722576" lon="-111.3042638"><ele>664.6666666666666</ele><time>2026-04-14T16:44:25.132Z</time></trkpt><trkpt lat="32.2724218" lon="-111.3042642"><ele>664.3333333333334</ele><time>2026-04-14T16:44:26.123Z</time></trkpt><trkpt lat="32.2725845" lon="-111.3042653"><ele>664.0</ele><time>2026-04-14T16:44:27.147Z</time></trkpt><trkpt lat="32.2727323" lon="-111.3042658"><ele>664.0</ele><time>2026-04-14T16:44:28.131Z</time></trkpt><trkpt lat="32.2728738" lon="-111.3042672"><ele>664.0</ele><time>2026-04-14T16:44:29.129Z</time></trkpt><trkpt lat="32.2730112" lon="-111.3042711"><ele>664.0</ele><time>2026-04-14T16:44:30.129Z</time></trkpt><trkpt lat="32.2731451" lon="-111.3042783"><ele>664.0</ele><time>2026-04-14T16:44:31.128Z</time></trkpt><trkpt lat="32.2732806" lon="-111.3042875"><ele>663.75</ele><time>2026-04-14T16:44:32.137Z</time></trkpt><trkpt lat="32.2734161" lon="-111.3042903"><ele>663.5</ele><time>2026-04-14T16:44:33.129Z</time></trkpt><trkpt lat="32.273557" lon="-111.3042829"><ele>663.25</ele><time>2026-04-14T16:44:34.133Z</time></trkpt><trkpt lat="32.2737015" lon="-111.3042766"><ele>663.0</ele><time>2026-04-14T16:44:35.125Z</time></trkpt><trkpt lat="32.2738514" lon="-111.3042755"><ele>663.3333333333334</ele><time>2026-04-14T16:44:36.127Z</time></trkpt><trkpt lat="32.2740045" lon="-111.3042772"><ele>663.6666666666667</ele><time>2026-04-14T16:44:37.137Z</time></trkpt><trkpt lat="32.2741605" lon="-111.304277"><ele>664.0</ele><time>2026-04-14T16:44:38.136Z</time></trkpt><trkpt lat="32.2743181" lon="-111.3042756"><ele>664.0</ele><time>2026-04-14T16:44:39.143Z</time></trkpt><trkpt lat="32.2744759" lon="-111.3042729"><ele>664.0</ele><time>2026-04-14T16:44:40.137Z</time></trkpt><trkpt lat="32.2746401" lon="-111.3042724"><ele>664.0</ele><time>2026-04-14T16:44:41.146Z</time></trkpt><trkpt lat="32.2748027" lon="-111.3042733"><ele>663.3333333333334</ele><time>2026-04-14T16:44:42.136Z</time></trkpt><trkpt lat="32.2749685" lon="-111.3042753"><ele>662.6666666666666</ele><time>2026-04-14T16:44:43.133Z</time></trkpt><trkpt lat="32.2751355" lon="-111.3042779"><ele>662.0</ele><time>2026-04-14T16:44:44.139Z</time></trkpt><trkpt lat="32.2753015" lon="-111.3042801"><ele>662.0</ele><time>2026-04-14T16:44:45.133Z</time></trkpt><trkpt lat="32.2754682" lon="-111.3042815"><ele>662.0</ele><time>2026-04-14T16:44:46.13Z</time></trkpt><trkpt lat="32.2756368" lon="-111.3042817"><ele>662.0</ele><time>2026-04-14T16:44:47.138Z</time></trkpt><trkpt lat="32.2758032" lon="-111.3042822"><ele>662.0</ele><time>2026-04-14T16:44:48.132Z</time></trkpt><trkpt lat="32.2759687" lon="-111.3042813"><ele>662.0</ele><time>2026-04-14T16:44:49.128Z</time></trkpt><trkpt lat="32.2761365" lon="-111.3042816"><ele>662.0</ele><time>2026-04-14T16:44:50.137Z</time></trkpt><trkpt lat="32.2763005" lon="-111.3042826"><ele>661.6666666666666</ele><time>2026-04-14T16:44:51.138Z</time></trkpt><trkpt lat="32.2764581" lon="-111.3042839"><ele>661.3333333333334</ele><time>2026-04-14T16:44:52.148Z</time></trkpt><trkpt lat="32.2766115" lon="-111.3042844"><ele>661.0</ele><time>2026-04-14T16:44:53.134Z</time></trkpt><trkpt lat="32.2767658" lon="-111.3042878"><ele>661.0</ele><time>2026-04-14T16:44:54.127Z</time></trkpt><trkpt lat="32.276919" lon="-111.3042931"><ele>661.0</ele><time>2026-04-14T16:44:55.13Z</time></trkpt><trkpt lat="32.2770729" lon="-111.3042997"><ele>661.0</ele><time>2026-04-14T16:44:56.129Z</time></trkpt><trkpt lat="32.2772281" lon="-111.304307"><ele>661.0</ele><time>2026-04-14T16:44:57.131Z</time></trkpt><trkpt lat="32.2773873" lon="-111.3043127"><ele>661.0</ele><time>2026-04-14T16:44:58.139Z</time></trkpt><trkpt lat="32.2775465" lon="-111.3043156"><ele>661.0</ele><time>2026-04-14T16:44:59.126Z</time></trkpt><trkpt lat="32.2777124" lon="-111.3043163"><ele>661.0</ele><time>2026-04-14T16:45:00.142Z</time></trkpt><trkpt lat="32.2778767" lon="-111.3043144"><ele>661.0</ele><time>2026-04-14T16:45:01.134Z</time></trkpt><trkpt lat="32.2780426" lon="-111.3043135"><ele>661.0</ele><time>2026-04-14T16:45:02.13Z</time></trkpt><trkpt lat="32.2782096" lon="-111.3043123"><ele>660.3333333333334</ele><time>2026-04-14T16:45:03.131Z</time></trkpt><trkpt lat="32.2783738" lon="-111.3043104"><ele>659.6666666666666</ele><time>2026-04-14T16:45:04.129Z</time></trkpt><trkpt lat="32.2785386" lon="-111.3043097"><ele>659.0</ele><time>2026-04-14T16:45:05.134Z</time></trkpt><trkpt lat="32.2787017" lon="-111.3043086"><ele>659.0</ele><time>2026-04-14T16:45:06.138Z</time></trkpt><trkpt lat="32.2788643" lon="-111.3043086"><ele>659.0</ele><time>2026-04-14T16:45:07.14Z</time></trkpt><trkpt lat="32.279027" lon="-111.3043094"><ele>659.0</ele><time>2026-04-14T16:45:08.131Z</time></trkpt><trkpt lat="32.2791916" lon="-111.3043094"><ele>659.3333333333333</ele><time>2026-04-14T16:45:09.127Z</time></trkpt><trkpt lat="32.2793589" lon="-111.3043094"><ele>659.6666666666666</ele><time>2026-04-14T16:45:10.129Z</time></trkpt><trkpt lat="32.2795248" lon="-111.3043099"><ele>660.0</ele><time>2026-04-14T16:45:11.124Z</time></trkpt><trkpt lat="32.2796926" lon="-111.3043103"><ele>660.0</ele><time>2026-04-14T16:45:12.129Z</time></trkpt><trkpt lat="32.2798598" lon="-111.3043101"><ele>660.0</ele><time>2026-04-14T16:45:13.124Z</time></trkpt><trkpt lat="32.2800283" lon="-111.3043101"><ele>660.0</ele><time>2026-04-14T16:45:14.125Z</time></trkpt><trkpt lat="32.2802004" lon="-111.3043078"><ele>660.0</ele><time>2026-04-14T16:45:15.135Z</time></trkpt><trkpt lat="32.2803758" lon="-111.3043025"><ele>660.0</ele><time>2026-04-14T16:45:16.158Z</time></trkpt><trkpt lat="32.2805425" lon="-111.3042974"><ele>660.0</ele><time>2026-04-14T16:45:17.127Z</time></trkpt><trkpt lat="32.2807123" lon="-111.3042935"><ele>659.3333333333334</ele><time>2026-04-14T16:45:18.135Z</time></trkpt><trkpt lat="32.2808768" lon="-111.3042926"><ele>658.6666666666667</ele><time>2026-04-14T16:45:19.124Z</time></trkpt><trkpt lat="32.281043" lon="-111.3042915"><ele>658.0</ele><time>2026-04-14T16:45:20.128Z</time></trkpt><trkpt lat="32.2812131" lon="-111.3042899"><ele>658.0</ele><time>2026-04-14T16:45:21.139Z</time></trkpt><trkpt lat="32.281382" lon="-111.3042881"><ele>658.0</ele><time>2026-04-14T16:45:22.127Z</time></trkpt><trkpt lat="32.2815544" lon="-111.3042872"><ele>658.0</ele><time>2026-04-14T16:45:23.125Z</time></trkpt><trkpt lat="32.2817266" lon="-111.3042876"><ele>657.6666666666667</ele><time>2026-04-14T16:45:24.128Z</time></trkpt><trkpt lat="32.2818953" lon="-111.3042872"><ele>657.3333333333334</ele><time>2026-04-14T16:45:25.121Z</time></trkpt><trkpt lat="32.2820677" lon="-111.3042861"><ele>657.0</ele><time>2026-04-14T16:45:26.125Z</time></trkpt><trkpt lat="32.2822408" lon="-111.3042845"><ele>657.0</ele><time>2026-04-14T16:45:27.13Z</time></trkpt><trkpt lat="32.2824126" lon="-111.304284"><ele>657.0</ele><time>2026-04-14T16:45:28.127Z</time></trkpt><trkpt lat="32.2825884" lon="-111.3042845"><ele>657.0</ele><time>2026-04-14T16:45:29.146Z</time></trkpt><trkpt lat="32.2827569" lon="-111.3042852"><ele>657.0</ele><time>2026-04-14T16:45:30.137Z</time></trkpt><trkpt lat="32.2829254" lon="-111.3042852"><ele>657.0</ele><time>2026-04-14T16:45:31.128Z</time></trkpt><trkpt lat="32.283095" lon="-111.3042841"><ele>657.0</ele><time>2026-04-14T16:45:32.13Z</time></trkpt><trkpt lat="32.2832629" lon="-111.3042828"><ele>657.0</ele><time>2026-04-14T16:45:33.127Z</time></trkpt><trkpt lat="32.2834326" lon="-111.3042827"><ele>657.0</ele><time>2026-04-14T16:45:34.13Z</time></trkpt><trkpt lat="32.2836031" lon="-111.3042846"><ele>657.0</ele><time>2026-04-14T16:45:35.142Z</time></trkpt><trkpt lat="32.2837687" lon="-111.3042868"><ele>657.0</ele><time>2026-04-14T16:45:36.121Z</time></trkpt><trkpt lat="32.2839385" lon="-111.3042902"><ele>657.0</ele><time>2026-04-14T16:45:37.13Z</time></trkpt><trkpt lat="32.2841062" lon="-111.304297"><ele>657.0</ele><time>2026-04-14T16:45:38.135Z</time></trkpt><trkpt lat="32.2842662" lon="-111.3043055"><ele>657.0</ele><time>2026-04-14T16:45:39.131Z</time></trkpt><trkpt lat="32.284428" lon="-111.3043141"><ele>657.0</ele><time>2026-04-14T16:45:40.134Z</time></trkpt><trkpt lat="32.2845998" lon="-111.3043157"><ele>657.0</ele><time>2026-04-14T16:45:41.147Z</time></trkpt><trkpt lat="32.2847628" lon="-111.3043079"><ele>656.6666666666666</ele><time>2026-04-14T16:45:42.124Z</time></trkpt><trkpt lat="32.2849317" lon="-111.3042988"><ele>656.3333333333333</ele><time>2026-04-14T16:45:43.141Z</time></trkpt><trkpt lat="32.2851" lon="-111.3042916"><ele>656.0</ele><time>2026-04-14T16:45:44.143Z</time></trkpt><trkpt lat="32.2852703" lon="-111.3042852"><ele>656.0</ele><time>2026-04-14T16:45:45.132Z</time></trkpt><trkpt lat="32.2854478" lon="-111.3042824"><ele>656.0</ele><time>2026-04-14T16:45:46.153Z</time></trkpt><trkpt lat="32.2856161" lon="-111.3042826"><ele>656.0</ele><time>2026-04-14T16:45:47.123Z</time></trkpt><trkpt lat="32.2857922" lon="-111.3042839"><ele>656.0</ele><time>2026-04-14T16:45:48.136Z</time></trkpt><trkpt lat="32.285966" lon="-111.3042849"><ele>656.0</ele><time>2026-04-14T16:45:49.121Z</time></trkpt><trkpt lat="32.286147" lon="-111.3042855"><ele>656.0</ele><time>2026-04-14T16:45:50.143Z</time></trkpt><trkpt lat="32.2863207" lon="-111.3042874"><ele>656.0</ele><time>2026-04-14T16:45:51.126Z</time></trkpt><trkpt lat="32.2864972" lon="-111.3042906"><ele>656.0</ele><time>2026-04-14T16:45:52.131Z</time></trkpt><trkpt lat="32.2866715" lon="-111.3042915"><ele>656.0</ele><time>2026-04-14T16:45:53.121Z</time></trkpt><trkpt lat="32.2868499" lon="-111.3042901"><ele>656.0</ele><time>2026-04-14T16:45:54.133Z</time></trkpt><trkpt lat="32.2870247" lon="-111.3042885"><ele>656.0</ele><time>2026-04-14T16:45:55.129Z</time></trkpt><trkpt lat="32.2871995" lon="-111.304287"><ele>656.0</ele><time>2026-04-14T16:45:56.126Z</time></trkpt><trkpt lat="32.2873761" lon="-111.304286"><ele>656.0</ele><time>2026-04-14T16:45:57.133Z</time></trkpt><trkpt lat="32.2875506" lon="-111.3042856"><ele>656.0</ele><time>2026-04-14T16:45:58.129Z</time></trkpt><trkpt lat="32.2877267" lon="-111.3042871"><ele>656.0</ele><time>2026-04-14T16:45:59.129Z</time></trkpt><trkpt lat="32.2879045" lon="-111.3042892"><ele>656.0</ele><time>2026-04-14T16:46:00.135Z</time></trkpt><trkpt lat="32.2880774" lon="-111.3042898"><ele>656.0</ele><time>2026-04-14T16:46:01.124Z</time></trkpt><trkpt lat="32.2882517" lon="-111.3042893"><ele>656.0</ele><time>2026-04-14T16:46:02.137Z</time></trkpt><trkpt lat="32.2884197" lon="-111.3042889"><ele>655.6666666666666</ele><time>2026-04-14T16:46:03.127Z</time></trkpt><trkpt lat="32.2885913" lon="-111.3042893"><ele>655.3333333333334</ele><time>2026-04-14T16:46:04.139Z</time></trkpt><trkpt lat="32.288759" lon="-111.3042889"><ele>655.0</ele><time>2026-04-14T16:46:05.127Z</time></trkpt><trkpt lat="32.2889283" lon="-111.3042887"><ele>654.3333333333334</ele><time>2026-04-14T16:46:06.127Z</time></trkpt><trkpt lat="32.289096" lon="-111.3042884"><ele>653.6666666666666</ele><time>2026-04-14T16:46:07.13Z</time></trkpt><trkpt lat="32.2892611" lon="-111.304288"><ele>653.0</ele><time>2026-04-14T16:46:08.125Z</time></trkpt><trkpt lat="32.2894262" lon="-111.3042898"><ele>653.0</ele><time>2026-04-14T16:46:09.132Z</time></trkpt><trkpt lat="32.2895897" lon="-111.3042919"><ele>653.0</ele><time>2026-04-14T16:46:10.133Z</time></trkpt><trkpt lat="32.2897494" lon="-111.3042933"><ele>653.0</ele><time>2026-04-14T16:46:11.141Z</time></trkpt><trkpt lat="32.2899044" lon="-111.304294"><ele>653.25</ele><time>2026-04-14T16:46:12.131Z</time></trkpt><trkpt lat="32.2900561" lon="-111.3042945"><ele>653.5</ele><time>2026-04-14T16:46:13.122Z</time></trkpt><trkpt lat="32.290209" lon="-111.3042958"><ele>653.75</ele><time>2026-04-14T16:46:14.137Z</time></trkpt><trkpt lat="32.2903529" lon="-111.3042993"><ele>654.0</ele><time>2026-04-14T16:46:15.134Z</time></trkpt><trkpt lat="32.2904977" lon="-111.3043009"><ele>653.5</ele><time>2026-04-14T16:46:16.145Z</time></trkpt><trkpt lat="32.2906314" lon="-111.3042991"><ele>653.0</ele><time>2026-04-14T16:46:17.126Z</time></trkpt><trkpt lat="32.290762" lon="-111.3042959"><ele>652.5</ele><time>2026-04-14T16:46:18.134Z</time></trkpt><trkpt lat="32.2908796" lon="-111.3042947"><ele>652.0</ele><time>2026-04-14T16:46:19.121Z</time></trkpt><trkpt lat="32.2909938" lon="-111.304297"><ele>652.0</ele><time>2026-04-14T16:46:20.127Z</time></trkpt><trkpt lat="32.2910996" lon="-111.3043002"><ele>652.0</ele><time>2026-04-14T16:46:21.122Z</time></trkpt><trkpt lat="32.291198" lon="-111.3043032"><ele>652.0</ele><time>2026-04-14T16:46:22.129Z</time></trkpt><trkpt lat="32.2912888" lon="-111.3043042"><ele>652.0</ele><time>2026-04-14T16:46:23.123Z</time></trkpt><trkpt lat="32.2913754" lon="-111.3043035"><ele>652.0</ele><time>2026-04-14T16:46:24.129Z</time></trkpt><trkpt lat="32.2914515" lon="-111.3043024"><ele>652.2</ele><time>2026-04-14T16:46:25.118Z</time></trkpt><trkpt lat="32.2915184" lon="-111.3043025"><ele>652.4000000000001</ele><time>2026-04-14T16:46:26.125Z</time></trkpt><trkpt lat="32.2916155" lon="-111.3043083"><ele>652.5999999999999</ele><time>2026-04-14T16:46:28.124Z</time></trkpt><trkpt lat="32.2916953" lon="-111.3043644"><ele>652.8</ele><time>2026-04-14T16:46:31.122Z</time></trkpt><trkpt lat="32.2917312" lon="-111.3045003"><ele>653.0</ele><time>2026-04-14T16:46:33.127Z</time></trkpt><trkpt lat="32.2917323" lon="-111.304603"><ele>653.0</ele><time>2026-04-14T16:46:34.131Z</time></trkpt><trkpt lat="32.2917292" lon="-111.3047321"><ele>653.0</ele><time>2026-04-14T16:46:35.12Z</time></trkpt><trkpt lat="32.2917258" lon="-111.3048795"><ele>653.0</ele><time>2026-04-14T16:46:36.124Z</time></trkpt><trkpt lat="32.2917228" lon="-111.3050498"><ele>653.0</ele><time>2026-04-14T16:46:37.12Z</time></trkpt><trkpt lat="32.2917205" lon="-111.3052361"><ele>652.6666666666666</ele><time>2026-04-14T16:46:38.123Z</time></trkpt><trkpt lat="32.2917183" lon="-111.3054426"><ele>652.3333333333334</ele><time>2026-04-14T16:46:39.128Z</time></trkpt><trkpt lat="32.2917169" lon="-111.3056608"><ele>652.0</ele><time>2026-04-14T16:46:40.127Z</time></trkpt><trkpt lat="32.2917156" lon="-111.3058866"><ele>652.0</ele><time>2026-04-14T16:46:41.13Z</time></trkpt><trkpt lat="32.2917147" lon="-111.306118"><ele>652.0</ele><time>2026-04-14T16:46:42.126Z</time></trkpt><trkpt lat="32.2917138" lon="-111.3063528"><ele>652.0</ele><time>2026-04-14T16:46:43.125Z</time></trkpt><trkpt lat="32.2917128" lon="-111.3065903"><ele>651.6666666666667</ele><time>2026-04-14T16:46:44.13Z</time></trkpt><trkpt lat="32.2917118" lon="-111.306824"><ele>651.3333333333334</ele><time>2026-04-14T16:46:45.124Z</time></trkpt><trkpt lat="32.2917111" lon="-111.3070611"><ele>651.0</ele><time>2026-04-14T16:46:46.139Z</time></trkpt><trkpt lat="32.291709" lon="-111.3072892"><ele>651.6666666666666</ele><time>2026-04-14T16:46:47.125Z</time></trkpt><trkpt lat="32.2917057" lon="-111.3075218"><ele>652.3333333333333</ele><time>2026-04-14T16:46:48.129Z</time></trkpt><trkpt lat="32.2917021" lon="-111.3077569"><ele>653.0</ele><time>2026-04-14T16:46:49.122Z</time></trkpt><trkpt lat="32.2916998" lon="-111.3079974"><ele>652.3333333333333</ele><time>2026-04-14T16:46:50.127Z</time></trkpt><trkpt lat="32.2916981" lon="-111.3082377"><ele>651.6666666666666</ele><time>2026-04-14T16:46:51.125Z</time></trkpt><trkpt lat="32.2916964" lon="-111.3084793"><ele>651.0</ele><time>2026-04-14T16:46:52.125Z</time></trkpt><trkpt lat="32.2916943" lon="-111.308721"><ele>651.0</ele><time>2026-04-14T16:46:53.125Z</time></trkpt><trkpt lat="32.2916914" lon="-111.308962"><ele>651.0</ele><time>2026-04-14T16:46:54.13Z</time></trkpt><trkpt lat="32.2916886" lon="-111.3092006"><ele>651.0</ele><time>2026-04-14T16:46:55.134Z</time></trkpt><trkpt lat="32.2916864" lon="-111.3094366"><ele>651.0</ele><time>2026-04-14T16:46:56.132Z</time></trkpt><trkpt lat="32.2916839" lon="-111.3096719"><ele>651.0</ele><time>2026-04-14T16:46:57.129Z</time></trkpt><trkpt lat="32.2916816" lon="-111.309909"><ele>651.0</ele><time>2026-04-14T16:46:58.135Z</time></trkpt><trkpt lat="32.2916794" lon="-111.3101443"><ele>651.0</ele><time>2026-04-14T16:46:59.13Z</time></trkpt><trkpt lat="32.2916774" lon="-111.3103812"><ele>651.0</ele><time>2026-04-14T16:47:00.128Z</time></trkpt><trkpt lat="32.2916756" lon="-111.3106185"><ele>651.0</ele><time>2026-04-14T16:47:01.121Z</time></trkpt><trkpt lat="32.2916736" lon="-111.3108607"><ele>651.3333333333334</ele><time>2026-04-14T16:47:02.129Z</time></trkpt><trkpt lat="32.2916717" lon="-111.3111011"><ele>651.6666666666667</ele><time>2026-04-14T16:47:03.127Z</time></trkpt><trkpt lat="32.2916706" lon="-111.3113474"><ele>652.0</ele><time>2026-04-14T16:47:04.146Z</time></trkpt><trkpt lat="32.2916698" lon="-111.3115831"><ele>652.0</ele><time>2026-04-14T16:47:05.119Z</time></trkpt><trkpt lat="32.2916684" lon="-111.3118294"><ele>652.0</ele><time>2026-04-14T16:47:06.135Z</time></trkpt><trkpt lat="32.2916672" lon="-111.31207"><ele>652.0</ele><time>2026-04-14T16:47:07.128Z</time></trkpt><trkpt lat="32.2916659" lon="-111.3123132"><ele>652.0</ele><time>2026-04-14T16:47:08.132Z</time></trkpt><trkpt lat="32.2916638" lon="-111.3125543"><ele>652.0</ele><time>2026-04-14T16:47:09.129Z</time></trkpt><trkpt lat="32.2916616" lon="-111.3127938"><ele>652.0</ele><time>2026-04-14T16:47:10.121Z</time></trkpt><trkpt lat="32.2916608" lon="-111.3130343"><ele>652.3333333333334</ele><time>2026-04-14T16:47:11.126Z</time></trkpt><trkpt lat="32.2916594" lon="-111.3132743"><ele>652.6666666666666</ele><time>2026-04-14T16:47:12.13Z</time></trkpt><trkpt lat="32.2916573" lon="-111.3135157"><ele>653.0</ele><time>2026-04-14T16:47:13.133Z</time></trkpt><trkpt lat="32.2916554" lon="-111.3137556"><ele>653.3333333333333</ele><time>2026-04-14T16:47:14.129Z</time></trkpt><trkpt lat="32.2916532" lon="-111.3139971"><ele>653.6666666666666</ele><time>2026-04-14T16:47:15.13Z</time></trkpt><trkpt lat="32.291651" lon="-111.314238"><ele>654.0</ele><time>2026-04-14T16:47:16.131Z</time></trkpt><trkpt lat="32.2916489" lon="-111.3144756"><ele>654.0</ele><time>2026-04-14T16:47:17.126Z</time></trkpt><trkpt lat="32.2916472" lon="-111.3147165"><ele>654.0</ele><time>2026-04-14T16:47:18.141Z</time></trkpt><trkpt lat="32.2916449" lon="-111.3149495"><ele>654.0</ele><time>2026-04-14T16:47:19.123Z</time></trkpt><trkpt lat="32.2916422" lon="-111.3151901"><ele>653.6666666666666</ele><time>2026-04-14T16:47:20.132Z</time></trkpt><trkpt lat="32.2916403" lon="-111.3154298"><ele>653.3333333333333</ele><time>2026-04-14T16:47:21.129Z</time></trkpt><trkpt lat="32.291638" lon="-111.3156689"><ele>653.0</ele><time>2026-04-14T16:47:22.126Z</time></trkpt><trkpt lat="32.2916353" lon="-111.3159072"><ele>653.0</ele><time>2026-04-14T16:47:23.121Z</time></trkpt><trkpt lat="32.2916326" lon="-111.3161479"><ele>653.0</ele><time>2026-04-14T16:47:24.129Z</time></trkpt><trkpt lat="32.2916309" lon="-111.3163851"><ele>653.0</ele><time>2026-04-14T16:47:25.124Z</time></trkpt><trkpt lat="32.2916294" lon="-111.3166226"><ele>653.0</ele><time>2026-04-14T16:47:26.123Z</time></trkpt><trkpt lat="32.2916273" lon="-111.3168608"><ele>653.0</ele><time>2026-04-14T16:47:27.128Z</time></trkpt><trkpt lat="32.2916249" lon="-111.3170979"><ele>653.0</ele><time>2026-04-14T16:47:28.129Z</time></trkpt><trkpt lat="32.2916221" lon="-111.3173358"><ele>653.0</ele><time>2026-04-14T16:47:29.128Z</time></trkpt><trkpt lat="32.2916193" lon="-111.317575"><ele>653.0</ele><time>2026-04-14T16:47:30.128Z</time></trkpt><trkpt lat="32.291617" lon="-111.3178146"><ele>653.0</ele><time>2026-04-14T16:47:31.133Z</time></trkpt><trkpt lat="32.2916147" lon="-111.3180544"><ele>653.3333333333333</ele><time>2026-04-14T16:47:32.142Z</time></trkpt><trkpt lat="32.2916127" lon="-111.3182876"><ele>653.6666666666666</ele><time>2026-04-14T16:47:33.126Z</time></trkpt><trkpt lat="32.2916111" lon="-111.3185243"><ele>654.0</ele><time>2026-04-14T16:47:34.127Z</time></trkpt><trkpt lat="32.2916097" lon="-111.3187604"><ele>653.3333333333334</ele><time>2026-04-14T16:47:35.13Z</time></trkpt><trkpt lat="32.2916076" lon="-111.318996"><ele>652.6666666666667</ele><time>2026-04-14T16:47:36.132Z</time></trkpt><trkpt lat="32.2916049" lon="-111.3192284"><ele>652.0</ele><time>2026-04-14T16:47:37.123Z</time></trkpt><trkpt lat="32.2916026" lon="-111.319463"><ele>652.0</ele><time>2026-04-14T16:47:38.128Z</time></trkpt><trkpt lat="32.2916006" lon="-111.319696"><ele>652.0</ele><time>2026-04-14T16:47:39.127Z</time></trkpt><trkpt lat="32.2915988" lon="-111.31993"><ele>652.0</ele><time>2026-04-14T16:47:40.129Z</time></trkpt><trkpt lat="32.2915968" lon="-111.3201626"><ele>652.3333333333334</ele><time>2026-04-14T16:47:41.124Z</time></trkpt><trkpt lat="32.2915942" lon="-111.3203963"><ele>652.6666666666666</ele><time>2026-04-14T16:47:42.133Z</time></trkpt><trkpt lat="32.291592" lon="-111.3206216"><ele>653.0</ele><time>2026-04-14T16:47:43.122Z</time></trkpt><trkpt lat="32.2915906" lon="-111.3208465"><ele>653.0</ele><time>2026-04-14T16:47:44.128Z</time></trkpt><trkpt lat="32.2915894" lon="-111.3210695"><ele>653.0</ele><time>2026-04-14T16:47:45.13Z</time></trkpt><trkpt lat="32.2915886" lon="-111.3212927"><ele>653.0</ele><time>2026-04-14T16:47:46.135Z</time></trkpt><trkpt lat="32.2915888" lon="-111.3215154"><ele>653.0</ele><time>2026-04-14T16:47:47.127Z</time></trkpt><trkpt lat="32.2915899" lon="-111.3217437"><ele>653.0</ele><time>2026-04-14T16:47:48.129Z</time></trkpt><trkpt lat="32.2915907" lon="-111.3219743"><ele>653.0</ele><time>2026-04-14T16:47:49.127Z</time></trkpt><trkpt lat="32.2915913" lon="-111.3222092"><ele>652.6666666666666</ele><time>2026-04-14T16:47:50.131Z</time></trkpt><trkpt lat="32.2915921" lon="-111.3224425"><ele>652.3333333333334</ele><time>2026-04-14T16:47:51.125Z</time></trkpt><trkpt lat="32.2915928" lon="-111.3226792"><ele>652.0</ele><time>2026-04-14T16:47:52.129Z</time></trkpt><trkpt lat="32.2915935" lon="-111.3229148"><ele>651.6666666666667</ele><time>2026-04-14T16:47:53.126Z</time></trkpt><trkpt lat="32.2915938" lon="-111.3231526"><ele>651.3333333333334</ele><time>2026-04-14T16:47:54.132Z</time></trkpt><trkpt lat="32.2915936" lon="-111.3233888"><ele>651.0</ele><time>2026-04-14T16:47:55.128Z</time></trkpt><trkpt lat="32.2915935" lon="-111.3236262"><ele>651.0</ele><time>2026-04-14T16:47:56.132Z</time></trkpt><trkpt lat="32.2915942" lon="-111.3238612"><ele>651.0</ele><time>2026-04-14T16:47:57.125Z</time></trkpt><trkpt lat="32.2915946" lon="-111.324098"><ele>651.0</ele><time>2026-04-14T16:47:58.124Z</time></trkpt><trkpt lat="32.2915947" lon="-111.3243379"><ele>651.0</ele><time>2026-04-14T16:47:59.133Z</time></trkpt><trkpt lat="32.2915947" lon="-111.3245757"><ele>651.0</ele><time>2026-04-14T16:48:00.129Z</time></trkpt><trkpt lat="32.2915952" lon="-111.3248156"><ele>651.0</ele><time>2026-04-14T16:48:01.134Z</time></trkpt><trkpt lat="32.2915947" lon="-111.3250539"><ele>651.3333333333334</ele><time>2026-04-14T16:48:02.13Z</time></trkpt><trkpt lat="32.2915933" lon="-111.3252929"><ele>651.6666666666667</ele><time>2026-04-14T16:48:03.132Z</time></trkpt><trkpt lat="32.2915922" lon="-111.3255302"><ele>652.0</ele><time>2026-04-14T16:48:04.128Z</time></trkpt><trkpt lat="32.2915912" lon="-111.3257659"><ele>652.0</ele><time>2026-04-14T16:48:05.122Z</time></trkpt><trkpt lat="32.2915896" lon="-111.3260087"><ele>652.0</ele><time>2026-04-14T16:48:06.143Z</time></trkpt><trkpt lat="32.291589" lon="-111.3262436"><ele>652.0</ele><time>2026-04-14T16:48:07.132Z</time></trkpt><trkpt lat="32.2915878" lon="-111.326483"><ele>651.6666666666667</ele><time>2026-04-14T16:48:08.131Z</time></trkpt><trkpt lat="32.291586" lon="-111.3267221"><ele>651.3333333333334</ele><time>2026-04-14T16:48:09.131Z</time></trkpt><trkpt lat="32.2915847" lon="-111.3269633"><ele>651.0</ele><time>2026-04-14T16:48:10.131Z</time></trkpt><trkpt lat="32.291584" lon="-111.3272053"><ele>650.6666666666666</ele><time>2026-04-14T16:48:11.125Z</time></trkpt><trkpt lat="32.2915834" lon="-111.3274486"><ele>650.3333333333333</ele><time>2026-04-14T16:48:12.128Z</time></trkpt><trkpt lat="32.2915826" lon="-111.3276897"><ele>650.0</ele><time>2026-04-14T16:48:13.125Z</time></trkpt><trkpt lat="32.2915822" lon="-111.3279361"><ele>650.0</ele><time>2026-04-14T16:48:14.14Z</time></trkpt><trkpt lat="32.291582" lon="-111.3281765"><ele>650.0</ele><time>2026-04-14T16:48:15.124Z</time></trkpt><trkpt lat="32.2915827" lon="-111.3284214"><ele>650.0</ele><time>2026-04-14T16:48:16.126Z</time></trkpt><trkpt lat="32.2915829" lon="-111.328665"><ele>650.3333333333333</ele><time>2026-04-14T16:48:17.125Z</time></trkpt><trkpt lat="32.2915833" lon="-111.328911"><ele>650.6666666666666</ele><time>2026-04-14T16:48:18.13Z</time></trkpt><trkpt lat="32.291584" lon="-111.3291536"><ele>651.0</ele><time>2026-04-14T16:48:19.127Z</time></trkpt><trkpt lat="32.2915848" lon="-111.3293956"><ele>651.0</ele><time>2026-04-14T16:48:20.12Z</time></trkpt><trkpt lat="32.291585" lon="-111.3296414"><ele>651.0</ele><time>2026-04-14T16:48:21.128Z</time></trkpt><trkpt lat="32.2915842" lon="-111.3298871"><ele>651.0</ele><time>2026-04-14T16:48:22.132Z</time></trkpt><trkpt lat="32.2915847" lon="-111.3301305"><ele>651.0</ele><time>2026-04-14T16:48:23.125Z</time></trkpt><trkpt lat="32.2915833" lon="-111.3303772"><ele>651.0</ele><time>2026-04-14T16:48:24.13Z</time></trkpt><trkpt lat="32.2915816" lon="-111.330622"><ele>651.0</ele><time>2026-04-14T16:48:25.126Z</time></trkpt><trkpt lat="32.29158" lon="-111.3308713"><ele>650.6666666666666</ele><time>2026-04-14T16:48:26.137Z</time></trkpt><trkpt lat="32.2915793" lon="-111.3311154"><ele>650.3333333333333</ele><time>2026-04-14T16:48:27.125Z</time></trkpt><trkpt lat="32.2915798" lon="-111.3313627"><ele>650.0</ele><time>2026-04-14T16:48:28.129Z</time></trkpt><trkpt lat="32.2915787" lon="-111.3316096"><ele>650.0</ele><time>2026-04-14T16:48:29.123Z</time></trkpt><trkpt lat="32.2915788" lon="-111.3318638"><ele>650.0</ele><time>2026-04-14T16:48:30.143Z</time></trkpt><trkpt lat="32.2915804" lon="-111.3321081"><ele>650.0</ele><time>2026-04-14T16:48:31.124Z</time></trkpt><trkpt lat="32.2915812" lon="-111.3323595"><ele>650.0</ele><time>2026-04-14T16:48:32.141Z</time></trkpt><trkpt lat="32.291581" lon="-111.3326029"><ele>650.0</ele><time>2026-04-14T16:48:33.124Z</time></trkpt><trkpt lat="32.2915796" lon="-111.3328532"><ele>650.0</ele><time>2026-04-14T16:48:34.132Z</time></trkpt><trkpt lat="32.2915781" lon="-111.3331016"><ele>650.0</ele><time>2026-04-14T16:48:35.129Z</time></trkpt><trkpt lat="32.2915771" lon="-111.3333503"><ele>650.0</ele><time>2026-04-14T16:48:36.126Z</time></trkpt><trkpt lat="32.291577" lon="-111.3335986"><ele>650.0</ele><time>2026-04-14T16:48:37.125Z</time></trkpt><trkpt lat="32.2915782" lon="-111.3338473"><ele>649.6666666666666</ele><time>2026-04-14T16:48:38.128Z</time></trkpt><trkpt lat="32.2915787" lon="-111.3340948"><ele>649.3333333333334</ele><time>2026-04-14T16:48:39.123Z</time></trkpt><trkpt lat="32.291577" lon="-111.334345"><ele>649.0</ele><time>2026-04-14T16:48:40.131Z</time></trkpt><trkpt lat="32.2915748" lon="-111.3345914"><ele>649.3333333333334</ele><time>2026-04-14T16:48:41.129Z</time></trkpt><trkpt lat="32.2915732" lon="-111.3348441"><ele>649.6666666666666</ele><time>2026-04-14T16:48:42.142Z</time></trkpt><trkpt lat="32.291572" lon="-111.3350903"><ele>650.0</ele><time>2026-04-14T16:48:43.125Z</time></trkpt><trkpt lat="32.2915705" lon="-111.3353413"><ele>650.0</ele><time>2026-04-14T16:48:44.128Z</time></trkpt><trkpt lat="32.2915689" lon="-111.3355891"><ele>650.0</ele><time>2026-04-14T16:48:45.129Z</time></trkpt><trkpt lat="32.2915677" lon="-111.3358338"><ele>650.0</ele><time>2026-04-14T16:48:46.126Z</time></trkpt><trkpt lat="32.2915674" lon="-111.3360783"><ele>650.0</ele><time>2026-04-14T16:48:47.123Z</time></trkpt><trkpt lat="32.2915675" lon="-111.336319"><ele>650.0</ele><time>2026-04-14T16:48:48.134Z</time></trkpt><trkpt lat="32.2915657" lon="-111.3365458"><ele>650.0</ele><time>2026-04-14T16:48:49.124Z</time></trkpt><trkpt lat="32.2915642" lon="-111.3367745"><ele>650.0</ele><time>2026-04-14T16:48:50.135Z</time></trkpt><trkpt lat="32.2915631" lon="-111.3369893"><ele>650.0</ele><time>2026-04-14T16:48:51.12Z</time></trkpt><trkpt lat="32.2915619" lon="-111.3372063"><ele>650.0</ele><time>2026-04-14T16:48:52.13Z</time></trkpt><trkpt lat="32.2915607" lon="-111.3374211"><ele>649.6666666666666</ele><time>2026-04-14T16:48:53.124Z</time></trkpt><trkpt lat="32.2915589" lon="-111.3376313"><ele>649.3333333333334</ele><time>2026-04-14T16:48:54.122Z</time></trkpt><trkpt lat="32.2915558" lon="-111.3378342"><ele>649.0</ele><time>2026-04-14T16:48:55.13Z</time></trkpt><trkpt lat="32.2915506" lon="-111.3380277"><ele>649.3333333333334</ele><time>2026-04-14T16:48:56.136Z</time></trkpt><trkpt lat="32.2915469" lon="-111.3382141"><ele>649.6666666666666</ele><time>2026-04-14T16:48:57.126Z</time></trkpt><trkpt lat="32.2915447" lon="-111.3384011"><ele>650.0</ele><time>2026-04-14T16:48:58.134Z</time></trkpt><trkpt lat="32.2915426" lon="-111.3385805"><ele>650.0</ele><time>2026-04-14T16:48:59.126Z</time></trkpt><trkpt lat="32.2915408" lon="-111.3387606"><ele>650.0</ele><time>2026-04-14T16:49:00.126Z</time></trkpt><trkpt lat="32.2915399" lon="-111.3389452"><ele>650.0</ele><time>2026-04-14T16:49:01.125Z</time></trkpt><trkpt lat="32.2915408" lon="-111.3391373"><ele>649.6666666666666</ele><time>2026-04-14T16:49:02.137Z</time></trkpt><trkpt lat="32.2915426" lon="-111.3393318"><ele>649.3333333333334</ele><time>2026-04-14T16:49:03.139Z</time></trkpt><trkpt lat="32.2915436" lon="-111.3395272"><ele>649.0</ele><time>2026-04-14T16:49:04.138Z</time></trkpt><trkpt lat="32.2915432" lon="-111.3397201"><ele>649.0</ele><time>2026-04-14T16:49:05.129Z</time></trkpt><trkpt lat="32.2915424" lon="-111.3399149"><ele>649.0</ele><time>2026-04-14T16:49:06.133Z</time></trkpt><trkpt lat="32.2915425" lon="-111.3401084"><ele>649.0</ele><time>2026-04-14T16:49:07.127Z</time></trkpt><trkpt lat="32.2915439" lon="-111.340309"><ele>649.0</ele><time>2026-04-14T16:49:08.151Z</time></trkpt><trkpt lat="32.2915459" lon="-111.3404996"><ele>649.0</ele><time>2026-04-14T16:49:09.128Z</time></trkpt><trkpt lat="32.2915473" lon="-111.3406937"><ele>649.0</ele><time>2026-04-14T16:49:10.126Z</time></trkpt><trkpt lat="32.2915477" lon="-111.3408895"><ele>648.3333333333334</ele><time>2026-04-14T16:49:11.134Z</time></trkpt><trkpt lat="32.2915474" lon="-111.3410852"><ele>647.6666666666666</ele><time>2026-04-14T16:49:12.136Z</time></trkpt><trkpt lat="32.2915473" lon="-111.34128"><ele>647.0</ele><time>2026-04-14T16:49:13.13Z</time></trkpt><trkpt lat="32.2915474" lon="-111.3414787"><ele>647.0</ele><time>2026-04-14T16:49:14.143Z</time></trkpt><trkpt lat="32.2915483" lon="-111.3416721"><ele>647.0</ele><time>2026-04-14T16:49:15.125Z</time></trkpt><trkpt lat="32.2915485" lon="-111.3418685"><ele>647.0</ele><time>2026-04-14T16:49:16.128Z</time></trkpt><trkpt lat="32.2915486" lon="-111.3420641"><ele>647.0</ele><time>2026-04-14T16:49:17.129Z</time></trkpt><trkpt lat="32.2915486" lon="-111.3422623"><ele>647.0</ele><time>2026-04-14T16:49:18.134Z</time></trkpt><trkpt lat="32.2915492" lon="-111.3424597"><ele>647.0</ele><time>2026-04-14T16:49:19.13Z</time></trkpt><trkpt lat="32.2915503" lon="-111.3426608"><ele>647.0</ele><time>2026-04-14T16:49:20.139Z</time></trkpt><trkpt lat="32.2915508" lon="-111.3428616"><ele>647.0</ele><time>2026-04-14T16:49:21.128Z</time></trkpt><trkpt lat="32.2915503" lon="-111.343071"><ele>647.0</ele><time>2026-04-14T16:49:22.149Z</time></trkpt><trkpt lat="32.2915495" lon="-111.3432725"><ele>646.6666666666666</ele><time>2026-04-14T16:49:23.122Z</time></trkpt><trkpt lat="32.2915489" lon="-111.3434813"><ele>646.3333333333334</ele><time>2026-04-14T16:49:24.131Z</time></trkpt><trkpt lat="32.29155" lon="-111.343687"><ele>646.0</ele><time>2026-04-14T16:49:25.129Z</time></trkpt><trkpt lat="32.2915505" lon="-111.3438948"><ele>646.0</ele><time>2026-04-14T16:49:26.133Z</time></trkpt><trkpt lat="32.2915499" lon="-111.3441031"><ele>646.0</ele><time>2026-04-14T16:49:27.132Z</time></trkpt><trkpt lat="32.29155" lon="-111.3443093"><ele>646.0</ele><time>2026-04-14T16:49:28.123Z</time></trkpt><trkpt lat="32.2915512" lon="-111.3445139"><ele>646.0</ele><time>2026-04-14T16:49:29.12Z</time></trkpt><trkpt lat="32.2915526" lon="-111.3447177"><ele>646.0</ele><time>2026-04-14T16:49:30.126Z</time></trkpt><trkpt lat="32.2915536" lon="-111.3449207"><ele>646.0</ele><time>2026-04-14T16:49:31.124Z</time></trkpt><trkpt lat="32.2915548" lon="-111.3451274"><ele>646.0</ele><time>2026-04-14T16:49:32.137Z</time></trkpt><trkpt lat="32.2915555" lon="-111.3453261"><ele>646.0</ele><time>2026-04-14T16:49:33.125Z</time></trkpt><trkpt lat="32.2915537" lon="-111.3455235"><ele>646.0</ele><time>2026-04-14T16:49:34.128Z</time></trkpt><trkpt lat="32.2915512" lon="-111.3457133"><ele>645.6666666666667</ele><time>2026-04-14T16:49:35.125Z</time></trkpt><trkpt lat="32.2915489" lon="-111.3458998"><ele>645.3333333333334</ele><time>2026-04-14T16:49:36.13Z</time></trkpt><trkpt lat="32.2915474" lon="-111.3460821"><ele>645.0</ele><time>2026-04-14T16:49:37.129Z</time></trkpt><trkpt lat="32.2915462" lon="-111.3462591"><ele>645.0</ele><time>2026-04-14T16:49:38.135Z</time></trkpt><trkpt lat="32.2915449" lon="-111.346427"><ele>645.0</ele><time>2026-04-14T16:49:39.128Z</time></trkpt><trkpt lat="32.2915435" lon="-111.3465999"><ele>645.0</ele><time>2026-04-14T16:49:40.146Z</time></trkpt><trkpt lat="32.2915429" lon="-111.3467663"><ele>645.0</ele><time>2026-04-14T16:49:41.128Z</time></trkpt><trkpt lat="32.2915449" lon="-111.346939"><ele>645.0</ele><time>2026-04-14T16:49:42.144Z</time></trkpt><trkpt lat="32.2915483" lon="-111.3471021"><ele>645.0</ele><time>2026-04-14T16:49:43.125Z</time></trkpt><trkpt lat="32.2915545" lon="-111.3472692"><ele>645.0</ele><time>2026-04-14T16:49:44.137Z</time></trkpt><trkpt lat="32.2915594" lon="-111.3474329"><ele>645.0</ele><time>2026-04-14T16:49:45.13Z</time></trkpt><trkpt lat="32.2915622" lon="-111.3475946"><ele>644.75</ele><time>2026-04-14T16:49:46.131Z</time></trkpt><trkpt lat="32.2915638" lon="-111.3477571"><ele>644.5</ele><time>2026-04-14T16:49:47.132Z</time></trkpt><trkpt lat="32.2915657" lon="-111.347923"><ele>644.25</ele><time>2026-04-14T16:49:48.128Z</time></trkpt><trkpt lat="32.2915628" lon="-111.3480934"><ele>644.0</ele><time>2026-04-14T16:49:49.13Z</time></trkpt><trkpt lat="32.2915567" lon="-111.3482664"><ele>644.5</ele><time>2026-04-14T16:49:50.136Z</time></trkpt><trkpt lat="32.2915469" lon="-111.3484377"><ele>645.0</ele><time>2026-04-14T16:49:51.131Z</time></trkpt><trkpt lat="32.291535" lon="-111.3486082"><ele>645.5</ele><time>2026-04-14T16:49:52.123Z</time></trkpt><trkpt lat="32.2915279" lon="-111.3487821"><ele>646.0</ele><time>2026-04-14T16:49:53.127Z</time></trkpt><trkpt lat="32.2915253" lon="-111.3489646"><ele>646.25</ele><time>2026-04-14T16:49:54.155Z</time></trkpt><trkpt lat="32.2915238" lon="-111.3491326"><ele>646.5</ele><time>2026-04-14T16:49:55.132Z</time></trkpt><trkpt lat="32.2915259" lon="-111.3493013"><ele>646.75</ele><time>2026-04-14T16:49:56.133Z</time></trkpt><trkpt lat="32.2915354" lon="-111.3494671"><ele>647.0</ele><time>2026-04-14T16:49:57.127Z</time></trkpt><trkpt lat="32.2915481" lon="-111.3496334"><ele>646.5</ele><time>2026-04-14T16:49:58.129Z</time></trkpt><trkpt lat="32.2915528" lon="-111.3498004"><ele>646.0</ele><time>2026-04-14T16:49:59.126Z</time></trkpt><trkpt lat="32.2915518" lon="-111.3499713"><ele>645.5</ele><time>2026-04-14T16:50:00.129Z</time></trkpt><trkpt lat="32.2915481" lon="-111.3501459"><ele>645.0</ele><time>2026-04-14T16:50:01.131Z</time></trkpt><trkpt lat="32.2915458" lon="-111.3503189"><ele>645.0</ele><time>2026-04-14T16:50:02.127Z</time></trkpt><trkpt lat="32.2915505" lon="-111.3504904"><ele>645.0</ele><time>2026-04-14T16:50:03.124Z</time></trkpt><trkpt lat="32.2915538" lon="-111.3506661"><ele>645.0</ele><time>2026-04-14T16:50:04.134Z</time></trkpt><trkpt lat="32.2915555" lon="-111.3508372"><ele>645.0</ele><time>2026-04-14T16:50:05.128Z</time></trkpt><trkpt lat="32.2915569" lon="-111.3510068"><ele>645.0</ele><time>2026-04-14T16:50:06.137Z</time></trkpt><trkpt lat="32.2915547" lon="-111.3511699"><ele>645.0</ele><time>2026-04-14T16:50:07.125Z</time></trkpt><trkpt lat="32.2915527" lon="-111.3513359"><ele>645.0</ele><time>2026-04-14T16:50:08.129Z</time></trkpt><trkpt lat="32.2915487" lon="-111.351501"><ele>645.0</ele><time>2026-04-14T16:50:09.128Z</time></trkpt><trkpt lat="32.2915426" lon="-111.351665"><ele>645.0</ele><time>2026-04-14T16:50:10.129Z</time></trkpt><trkpt lat="32.29154" lon="-111.3518218"><ele>645.0</ele><time>2026-04-14T16:50:11.129Z</time></trkpt><trkpt lat="32.2915437" lon="-111.3519632"><ele>645.0</ele><time>2026-04-14T16:50:12.128Z</time></trkpt><trkpt lat="32.2915459" lon="-111.3520983"><ele>645.0</ele><time>2026-04-14T16:50:13.132Z</time></trkpt><trkpt lat="32.2915423" lon="-111.3522407"><ele>644.75</ele><time>2026-04-14T16:50:14.131Z</time></trkpt><trkpt lat="32.2915364" lon="-111.3523932"><ele>644.5</ele><time>2026-04-14T16:50:15.129Z</time></trkpt><trkpt lat="32.2915336" lon="-111.3525515"><ele>644.25</ele><time>2026-04-14T16:50:16.131Z</time></trkpt><trkpt lat="32.2915328" lon="-111.3527112"><ele>644.0</ele><time>2026-04-14T16:50:17.125Z</time></trkpt><trkpt lat="32.2915316" lon="-111.3528785"><ele>644.0</ele><time>2026-04-14T16:50:18.14Z</time></trkpt><trkpt lat="32.2915312" lon="-111.3530411"><ele>644.0</ele><time>2026-04-14T16:50:19.129Z</time></trkpt><trkpt lat="32.2915314" lon="-111.3532061"><ele>644.0</ele><time>2026-04-14T16:50:20.13Z</time></trkpt><trkpt lat="32.2915303" lon="-111.3533711"><ele>644.0</ele><time>2026-04-14T16:50:21.126Z</time></trkpt><trkpt lat="32.2915299" lon="-111.353534"><ele>644.0</ele><time>2026-04-14T16:50:22.131Z</time></trkpt><trkpt lat="32.29153" lon="-111.3536925"><ele>644.0</ele><time>2026-04-14T16:50:23.124Z</time></trkpt><trkpt lat="32.2915313" lon="-111.3538572"><ele>644.0</ele><time>2026-04-14T16:50:24.137Z</time></trkpt><trkpt lat="32.29153" lon="-111.3540216"><ele>644.0</ele><time>2026-04-14T16:50:25.126Z</time></trkpt><trkpt lat="32.2915294" lon="-111.3541901"><ele>644.25</ele><time>2026-04-14T16:50:26.126Z</time></trkpt><trkpt lat="32.2915302" lon="-111.3543619"><ele>644.5</ele><time>2026-04-14T16:50:27.124Z</time></trkpt><trkpt lat="32.2915338" lon="-111.3545338"><ele>644.75</ele><time>2026-04-14T16:50:28.136Z</time></trkpt><trkpt lat="32.2915368" lon="-111.3546984"><ele>645.0</ele><time>2026-04-14T16:50:29.13Z</time></trkpt><trkpt lat="32.2915333" lon="-111.3548592"><ele>645.0</ele><time>2026-04-14T16:50:30.134Z</time></trkpt><trkpt lat="32.2915266" lon="-111.3550077"><ele>645.0</ele><time>2026-04-14T16:50:31.13Z</time></trkpt><trkpt lat="32.2915247" lon="-111.3551431"><ele>645.0</ele><time>2026-04-14T16:50:32.135Z</time></trkpt><trkpt lat="32.291524" lon="-111.3552778"><ele>645.0</ele><time>2026-04-14T16:50:33.127Z</time></trkpt><trkpt lat="32.2915226" lon="-111.3554153"><ele>644.75</ele><time>2026-04-14T16:50:34.125Z</time></trkpt><trkpt lat="32.2915225" lon="-111.3555523"><ele>644.5</ele><time>2026-04-14T16:50:35.128Z</time></trkpt><trkpt lat="32.2915208" lon="-111.3556932"><ele>644.25</ele><time>2026-04-14T16:50:36.126Z</time></trkpt><trkpt lat="32.291519" lon="-111.3558427"><ele>644.0</ele><time>2026-04-14T16:50:37.129Z</time></trkpt><trkpt lat="32.2915192" lon="-111.3559946"><ele>644.0</ele><time>2026-04-14T16:50:38.127Z</time></trkpt><trkpt lat="32.2915181" lon="-111.3561525"><ele>644.0</ele><time>2026-04-14T16:50:39.128Z</time></trkpt><trkpt lat="32.2915165" lon="-111.356308"><ele>644.0</ele><time>2026-04-14T16:50:40.13Z</time></trkpt><trkpt lat="32.2915131" lon="-111.356465"><ele>644.0</ele><time>2026-04-14T16:50:41.122Z</time></trkpt><trkpt lat="32.2915148" lon="-111.3566239"><ele>644.25</ele><time>2026-04-14T16:50:42.136Z</time></trkpt><trkpt lat="32.2915176" lon="-111.3567809"><ele>644.5</ele><time>2026-04-14T16:50:43.134Z</time></trkpt><trkpt lat="32.2915186" lon="-111.3569389"><ele>644.75</ele><time>2026-04-14T16:50:44.14Z</time></trkpt><trkpt lat="32.2915187" lon="-111.3570913"><ele>645.0</ele><time>2026-04-14T16:50:45.13Z</time></trkpt><trkpt lat="32.2915179" lon="-111.3572457"><ele>645.0</ele><time>2026-04-14T16:50:46.125Z</time></trkpt><trkpt lat="32.2915159" lon="-111.3574"><ele>645.0</ele><time>2026-04-14T16:50:47.122Z</time></trkpt><trkpt lat="32.2915167" lon="-111.3575568"><ele>645.0</ele><time>2026-04-14T16:50:48.136Z</time></trkpt><trkpt lat="32.2915198" lon="-111.357713"><ele>645.0</ele><time>2026-04-14T16:50:49.132Z</time></trkpt><trkpt lat="32.2915195" lon="-111.3578672"><ele>645.0</ele><time>2026-04-14T16:50:50.122Z</time></trkpt><trkpt lat="32.2915158" lon="-111.3580245"><ele>645.0</ele><time>2026-04-14T16:50:51.129Z</time></trkpt><trkpt lat="32.291516" lon="-111.3581803"><ele>645.0</ele><time>2026-04-14T16:50:52.139Z</time></trkpt><trkpt lat="32.2915172" lon="-111.3583299"><ele>645.0</ele><time>2026-04-14T16:50:53.122Z</time></trkpt><trkpt lat="32.2915153" lon="-111.358483"><ele>645.5</ele><time>2026-04-14T16:50:54.141Z</time></trkpt><trkpt lat="32.2915116" lon="-111.3586332"><ele>646.0</ele><time>2026-04-14T16:50:55.127Z</time></trkpt><trkpt lat="32.2915089" lon="-111.3587893"><ele>646.5</ele><time>2026-04-14T16:50:56.134Z</time></trkpt><trkpt lat="32.2915081" lon="-111.3589421"><ele>647.0</ele><time>2026-04-14T16:50:57.131Z</time></trkpt><trkpt lat="32.2915092" lon="-111.3590973"><ele>647.0</ele><time>2026-04-14T16:50:58.13Z</time></trkpt><trkpt lat="32.2915121" lon="-111.3592475"><ele>647.0</ele><time>2026-04-14T16:50:59.121Z</time></trkpt><trkpt lat="32.2915121" lon="-111.3593899"><ele>647.0</ele><time>2026-04-14T16:51:00.128Z</time></trkpt><trkpt lat="32.291511" lon="-111.3595218"><ele>647.0</ele><time>2026-04-14T16:51:01.128Z</time></trkpt><trkpt lat="32.2915154" lon="-111.3596485"><ele>647.2</ele><time>2026-04-14T16:51:02.13Z</time></trkpt><trkpt lat="32.2915298" lon="-111.3597736"><ele>647.4000000000001</ele><time>2026-04-14T16:51:03.129Z</time></trkpt><trkpt lat="32.2915617" lon="-111.359897"><ele>647.5999999999999</ele><time>2026-04-14T16:51:04.132Z</time></trkpt><trkpt lat="32.2916111" lon="-111.3600134"><ele>647.8</ele><time>2026-04-14T16:51:05.13Z</time></trkpt><trkpt lat="32.2916789" lon="-111.3601202"><ele>648.0</ele><time>2026-04-14T16:51:06.128Z</time></trkpt><trkpt lat="32.2917596" lon="-111.3602176"><ele>648.0</ele><time>2026-04-14T16:51:07.131Z</time></trkpt><trkpt lat="32.2918428" lon="-111.360306"><ele>648.0</ele><time>2026-04-14T16:51:08.131Z</time></trkpt><trkpt lat="32.2919251" lon="-111.36039"><ele>648.0</ele><time>2026-04-14T16:51:09.129Z</time></trkpt><trkpt lat="32.2920091" lon="-111.3604768"><ele>648.0</ele><time>2026-04-14T16:51:10.129Z</time></trkpt><trkpt lat="32.2920824" lon="-111.3605662"><ele>648.0</ele><time>2026-04-14T16:51:11.121Z</time></trkpt><trkpt lat="32.2921413" lon="-111.3606646"><ele>648.2</ele><time>2026-04-14T16:51:12.14Z</time></trkpt><trkpt lat="32.2921772" lon="-111.3607634"><ele>648.4</ele><time>2026-04-14T16:51:13.13Z</time></trkpt><trkpt lat="32.292186" lon="-111.3608714"><ele>648.6</ele><time>2026-04-14T16:51:14.129Z</time></trkpt><trkpt lat="32.2921766" lon="-111.360986"><ele>648.8000000000001</ele><time>2026-04-14T16:51:15.134Z</time></trkpt><trkpt lat="32.2921499" lon="-111.3611074"><ele>649.0</ele><time>2026-04-14T16:51:16.134Z</time></trkpt><trkpt lat="32.2921109" lon="-111.3612343"><ele>649.0</ele><time>2026-04-14T16:51:17.13Z</time></trkpt><trkpt lat="32.2920617" lon="-111.3613682"><ele>649.0</ele><time>2026-04-14T16:51:18.129Z</time></trkpt><trkpt lat="32.2920064" lon="-111.3615028"><ele>649.0</ele><time>2026-04-14T16:51:19.132Z</time></trkpt><trkpt lat="32.291947" lon="-111.3616313"><ele>649.0</ele><time>2026-04-14T16:51:20.124Z</time></trkpt><trkpt lat="32.291883" lon="-111.3617573"><ele>649.0</ele><time>2026-04-14T16:51:21.123Z</time></trkpt><trkpt lat="32.2918145" lon="-111.3618766"><ele>649.0</ele><time>2026-04-14T16:51:22.129Z</time></trkpt><trkpt lat="32.2917429" lon="-111.3619863"><ele>649.0</ele><time>2026-04-14T16:51:23.126Z</time></trkpt><trkpt lat="32.2916706" lon="-111.3620967"><ele>649.0</ele><time>2026-04-14T16:51:24.138Z</time></trkpt><trkpt lat="32.2916072" lon="-111.362211"><ele>648.75</ele><time>2026-04-14T16:51:25.135Z</time></trkpt><trkpt lat="32.2915602" lon="-111.362333"><ele>648.5</ele><time>2026-04-14T16:51:26.128Z</time></trkpt><trkpt lat="32.291527" lon="-111.3624616"><ele>648.25</ele><time>2026-04-14T16:51:27.13Z</time></trkpt><trkpt lat="32.2915084" lon="-111.3625991"><ele>648.0</ele><time>2026-04-14T16:51:28.139Z</time></trkpt><trkpt lat="32.2915043" lon="-111.3627396"><ele>648.0</ele><time>2026-04-14T16:51:29.126Z</time></trkpt><trkpt lat="32.2915066" lon="-111.3628861"><ele>648.0</ele><time>2026-04-14T16:51:30.132Z</time></trkpt><trkpt lat="32.2915086" lon="-111.3630334"><ele>648.0</ele><time>2026-04-14T16:51:31.136Z</time></trkpt><trkpt lat="32.2915088" lon="-111.3631813"><ele>648.0</ele><time>2026-04-14T16:51:32.133Z</time></trkpt><trkpt lat="32.2915064" lon="-111.363331"><ele>648.0</ele><time>2026-04-14T16:51:33.139Z</time></trkpt><trkpt lat="32.2915046" lon="-111.3634761"><ele>648.0</ele><time>2026-04-14T16:51:34.128Z</time></trkpt><trkpt lat="32.291505" lon="-111.3636191"><ele>648.0</ele><time>2026-04-14T16:51:35.131Z</time></trkpt><trkpt lat="32.2915056" lon="-111.3637529"><ele>648.0</ele><time>2026-04-14T16:51:36.134Z</time></trkpt><trkpt lat="32.291505" lon="-111.363875"><ele>648.0</ele><time>2026-04-14T16:51:37.125Z</time></trkpt><trkpt lat="32.2915055" lon="-111.363987"><ele>648.0</ele><time>2026-04-14T16:51:38.123Z</time></trkpt><trkpt lat="32.2915065" lon="-111.3640842"><ele>648.0</ele><time>2026-04-14T16:51:39.129Z</time></trkpt><trkpt lat="32.2915075" lon="-111.3641654"><ele>648.0</ele><time>2026-04-14T16:51:40.133Z</time></trkpt><trkpt lat="32.291509" lon="-111.3642874"><ele>648.0</ele><time>2026-04-14T16:51:42.125Z</time></trkpt><trkpt lat="32.291509" lon="-111.3643662"><ele>648.0</ele><time>2026-04-14T16:51:44.132Z</time></trkpt><trkpt lat="32.2915106" lon="-111.3644515"><ele>648.0</ele><time>2026-04-14T16:52:10.138Z</time></trkpt><trkpt lat="32.291509" lon="-111.3645977"><ele>648.0</ele><time>2026-04-14T16:52:12.133Z</time></trkpt><trkpt lat="32.2915092" lon="-111.3646934"><ele>648.0</ele><time>2026-04-14T16:52:13.13Z</time></trkpt><trkpt lat="32.29151" lon="-111.3647919"><ele>648.0</ele><time>2026-04-14T16:52:14.138Z</time></trkpt><trkpt lat="32.291509" lon="-111.3649015"><ele>648.0</ele><time>2026-04-14T16:52:15.138Z</time></trkpt><trkpt lat="32.2915088" lon="-111.3650168"><ele>648.0</ele><time>2026-04-14T16:52:16.127Z</time></trkpt><trkpt lat="32.2915074" lon="-111.3651381"><ele>648.0</ele><time>2026-04-14T16:52:17.127Z</time></trkpt><trkpt lat="32.2915071" lon="-111.3652617"><ele>648.0</ele><time>2026-04-14T16:52:18.135Z</time></trkpt><trkpt lat="32.2915077" lon="-111.3653894"><ele>648.0</ele><time>2026-04-14T16:52:19.128Z</time></trkpt><trkpt lat="32.2915079" lon="-111.3655167"><ele>648.0</ele><time>2026-04-14T16:52:20.126Z</time></trkpt><trkpt lat="32.2915097" lon="-111.3656465"><ele>648.0</ele><time>2026-04-14T16:52:21.134Z</time></trkpt><trkpt lat="32.2915119" lon="-111.365782"><ele>648.0</ele><time>2026-04-14T16:52:22.133Z</time></trkpt><trkpt lat="32.2915142" lon="-111.3659185"><ele>648.0</ele><time>2026-04-14T16:52:23.13Z</time></trkpt><trkpt lat="32.2915159" lon="-111.3660538"><ele>648.0</ele><time>2026-04-14T16:52:24.135Z</time></trkpt><trkpt lat="32.2915172" lon="-111.3661898"><ele>648.0</ele><time>2026-04-14T16:52:25.128Z</time></trkpt><trkpt lat="32.2915172" lon="-111.3663284"><ele>648.0</ele><time>2026-04-14T16:52:26.136Z</time></trkpt><trkpt lat="32.2915149" lon="-111.3664687"><ele>648.0</ele><time>2026-04-14T16:52:27.145Z</time></trkpt><trkpt lat="32.2915129" lon="-111.3666074"><ele>648.0</ele><time>2026-04-14T16:52:28.136Z</time></trkpt><trkpt lat="32.2915106" lon="-111.3667439"><ele>648.0</ele><time>2026-04-14T16:52:29.129Z</time></trkpt><trkpt lat="32.2915086" lon="-111.3668834"><ele>648.0</ele><time>2026-04-14T16:52:30.135Z</time></trkpt><trkpt lat="32.291506" lon="-111.3670259"><ele>648.0</ele><time>2026-04-14T16:52:31.134Z</time></trkpt><trkpt lat="32.2915057" lon="-111.3671668"><ele>648.0</ele><time>2026-04-14T16:52:32.127Z</time></trkpt><trkpt lat="32.2915066" lon="-111.3673114"><ele>648.25</ele><time>2026-04-14T16:52:33.138Z</time></trkpt><trkpt lat="32.2915078" lon="-111.367453"><ele>648.5</ele><time>2026-04-14T16:52:34.134Z</time></trkpt><trkpt lat="32.2915092" lon="-111.367595"><ele>648.75</ele><time>2026-04-14T16:52:35.131Z</time></trkpt><trkpt lat="32.2915105" lon="-111.3677411"><ele>649.0</ele><time>2026-04-14T16:52:36.127Z</time></trkpt><trkpt lat="32.291511" lon="-111.3678925"><ele>649.0</ele><time>2026-04-14T16:52:37.132Z</time></trkpt><trkpt lat="32.291511" lon="-111.3680442"><ele>649.0</ele><time>2026-04-14T16:52:38.136Z</time></trkpt><trkpt lat="32.291511" lon="-111.3681945"><ele>649.0</ele><time>2026-04-14T16:52:39.129Z</time></trkpt><trkpt lat="32.2915101" lon="-111.3683475"><ele>649.0</ele><time>2026-04-14T16:52:40.13Z</time></trkpt><trkpt lat="32.2915099" lon="-111.3684983"><ele>649.0</ele><time>2026-04-14T16:52:41.128Z</time></trkpt><trkpt lat="32.2915105" lon="-111.3686526"><ele>649.0</ele><time>2026-04-14T16:52:42.144Z</time></trkpt><trkpt lat="32.2915107" lon="-111.3688023"><ele>649.0</ele><time>2026-04-14T16:52:43.134Z</time></trkpt><trkpt lat="32.291509" lon="-111.3689557"><ele>649.0</ele><time>2026-04-14T16:52:44.136Z</time></trkpt><trkpt lat="32.2915073" lon="-111.3691097"><ele>649.0</ele><time>2026-04-14T16:52:45.129Z</time></trkpt><trkpt lat="32.2915054" lon="-111.3692705"><ele>649.0</ele><time>2026-04-14T16:52:46.144Z</time></trkpt><trkpt lat="32.2915048" lon="-111.369428"><ele>649.0</ele><time>2026-04-14T16:52:47.133Z</time></trkpt><trkpt lat="32.2915053" lon="-111.3695841"><ele>649.0</ele><time>2026-04-14T16:52:48.132Z</time></trkpt><trkpt lat="32.2915057" lon="-111.3697403"><ele>649.0</ele><time>2026-04-14T16:52:49.135Z</time></trkpt><trkpt lat="32.2915043" lon="-111.369898"><ele>649.0</ele><time>2026-04-14T16:52:50.13Z</time></trkpt><trkpt lat="32.2915013" lon="-111.3700585"><ele>649.0</ele><time>2026-04-14T16:52:51.129Z</time></trkpt><trkpt lat="32.2914981" lon="-111.3702204"><ele>649.0</ele><time>2026-04-14T16:52:52.136Z</time></trkpt><trkpt lat="32.2914965" lon="-111.370381"><ele>649.0</ele><time>2026-04-14T16:52:53.127Z</time></trkpt><trkpt lat="32.2914954" lon="-111.3705452"><ele>649.0</ele><time>2026-04-14T16:52:54.131Z</time></trkpt><trkpt lat="32.2914956" lon="-111.3707061"><ele>649.0</ele><time>2026-04-14T16:52:55.139Z</time></trkpt><trkpt lat="32.291497" lon="-111.3708637"><ele>649.0</ele><time>2026-04-14T16:52:56.129Z</time></trkpt><trkpt lat="32.2914968" lon="-111.371022"><ele>649.0</ele><time>2026-04-14T16:52:57.128Z</time></trkpt><trkpt lat="32.2914953" lon="-111.3711808"><ele>649.0</ele><time>2026-04-14T16:52:58.138Z</time></trkpt><trkpt lat="32.2914956" lon="-111.3713377"><ele>649.0</ele><time>2026-04-14T16:52:59.132Z</time></trkpt><trkpt lat="32.2914992" lon="-111.371498"><ele>649.0</ele><time>2026-04-14T16:53:00.144Z</time></trkpt><trkpt lat="32.291507" lon="-111.3716497"><ele>649.5</ele><time>2026-04-14T16:53:01.128Z</time></trkpt><trkpt lat="32.2915198" lon="-111.3717959"><ele>650.0</ele><time>2026-04-14T16:53:02.128Z</time></trkpt><trkpt lat="32.2915282" lon="-111.3719382"><ele>650.5</ele><time>2026-04-14T16:53:03.132Z</time></trkpt><trkpt lat="32.2915306" lon="-111.3720729"><ele>651.0</ele><time>2026-04-14T16:53:04.132Z</time></trkpt><trkpt lat="32.2915335" lon="-111.3722009"><ele>651.0</ele><time>2026-04-14T16:53:05.137Z</time></trkpt><trkpt lat="32.2915415" lon="-111.3723236"><ele>651.0</ele><time>2026-04-14T16:53:06.133Z</time></trkpt><trkpt lat="32.2915617" lon="-111.3724494"><ele>651.0</ele><time>2026-04-14T16:53:07.143Z</time></trkpt><trkpt lat="32.2915953" lon="-111.3725725"><ele>651.0</ele><time>2026-04-14T16:53:08.134Z</time></trkpt><trkpt lat="32.2916362" lon="-111.3727025"><ele>651.0</ele><time>2026-04-14T16:53:09.14Z</time></trkpt><trkpt lat="32.2916772" lon="-111.3728396"><ele>651.0</ele><time>2026-04-14T16:53:10.139Z</time></trkpt><trkpt lat="32.2917157" lon="-111.3729837"><ele>651.0</ele><time>2026-04-14T16:53:11.137Z</time></trkpt><trkpt lat="32.291752" lon="-111.373129"><ele>651.0</ele><time>2026-04-14T16:53:12.132Z</time></trkpt><trkpt lat="32.2917844" lon="-111.3732758"><ele>651.0</ele><time>2026-04-14T16:53:13.131Z</time></trkpt><trkpt lat="32.2918128" lon="-111.373426"><ele>651.25</ele><time>2026-04-14T16:53:14.14Z</time></trkpt><trkpt lat="32.2918401" lon="-111.3735708"><ele>651.5</ele><time>2026-04-14T16:53:15.129Z</time></trkpt><trkpt lat="32.2918668" lon="-111.3737193"><ele>651.75</ele><time>2026-04-14T16:53:16.145Z</time></trkpt><trkpt lat="32.2918904" lon="-111.3738612"><ele>652.0</ele><time>2026-04-14T16:53:17.128Z</time></trkpt><trkpt lat="32.2919119" lon="-111.3740048"><ele>652.25</ele><time>2026-04-14T16:53:18.135Z</time></trkpt><trkpt lat="32.2919338" lon="-111.3741457"><ele>652.5</ele><time>2026-04-14T16:53:19.135Z</time></trkpt><trkpt lat="32.2919595" lon="-111.3742777"><ele>652.75</ele><time>2026-04-14T16:53:20.128Z</time></trkpt><trkpt lat="32.291987" lon="-111.3744056"><ele>653.0</ele><time>2026-04-14T16:53:21.129Z</time></trkpt><trkpt lat="32.2920127" lon="-111.3745308"><ele>653.0</ele><time>2026-04-14T16:53:22.132Z</time></trkpt><trkpt lat="32.2920297" lon="-111.3746557"><ele>653.0</ele><time>2026-04-14T16:53:23.129Z</time></trkpt><trkpt lat="32.2920335" lon="-111.3747843"><ele>653.0</ele><time>2026-04-14T16:53:24.134Z</time></trkpt><trkpt lat="32.2920227" lon="-111.3749115"><ele>653.0</ele><time>2026-04-14T16:53:25.126Z</time></trkpt><trkpt lat="32.2919976" lon="-111.375041"><ele>653.0</ele><time>2026-04-14T16:53:26.135Z</time></trkpt><trkpt lat="32.2919596" lon="-111.3751725"><ele>652.75</ele><time>2026-04-14T16:53:27.128Z</time></trkpt><trkpt lat="32.2919105" lon="-111.3753081"><ele>652.5</ele><time>2026-04-14T16:53:28.142Z</time></trkpt><trkpt lat="32.2918578" lon="-111.3754403"><ele>652.25</ele><time>2026-04-14T16:53:29.13Z</time></trkpt><trkpt lat="32.2918073" lon="-111.3755721"><ele>652.0</ele><time>2026-04-14T16:53:30.137Z</time></trkpt><trkpt lat="32.2917646" lon="-111.3757019"><ele>651.75</ele><time>2026-04-14T16:53:31.13Z</time></trkpt><trkpt lat="32.291731" lon="-111.3758382"><ele>651.5</ele><time>2026-04-14T16:53:32.138Z</time></trkpt><trkpt lat="32.2917081" lon="-111.3759825"><ele>651.25</ele><time>2026-04-14T16:53:33.131Z</time></trkpt><trkpt lat="32.2916881" lon="-111.3761332"><ele>651.0</ele><time>2026-04-14T16:53:34.132Z</time></trkpt><trkpt lat="32.2916693" lon="-111.3762777"><ele>651.25</ele><time>2026-04-14T16:53:35.128Z</time></trkpt><trkpt lat="32.2916416" lon="-111.3764208"><ele>651.5</ele><time>2026-04-14T16:53:36.137Z</time></trkpt><trkpt lat="32.2916006" lon="-111.3765607"><ele>651.75</ele><time>2026-04-14T16:53:37.135Z</time></trkpt><trkpt lat="32.2915486" lon="-111.376702"><ele>652.0</ele><time>2026-04-14T16:53:38.125Z</time></trkpt><trkpt lat="32.2914882" lon="-111.3768484"><ele>652.0</ele><time>2026-04-14T16:53:39.139Z</time></trkpt><trkpt lat="32.291428" lon="-111.3769932"><ele>652.0</ele><time>2026-04-14T16:53:40.129Z</time></trkpt><trkpt lat="32.2913667" lon="-111.3771374"><ele>652.0</ele><time>2026-04-14T16:53:41.126Z</time></trkpt><trkpt lat="32.2913042" lon="-111.3772832"><ele>652.0</ele><time>2026-04-14T16:53:42.132Z</time></trkpt><trkpt lat="32.2912426" lon="-111.3774278"><ele>652.0</ele><time>2026-04-14T16:53:43.126Z</time></trkpt><trkpt lat="32.2911807" lon="-111.3775759"><ele>652.0</ele><time>2026-04-14T16:53:44.148Z</time></trkpt><trkpt lat="32.2911204" lon="-111.3777223"><ele>652.0</ele><time>2026-04-14T16:53:45.137Z</time></trkpt><trkpt lat="32.2910591" lon="-111.3778749"><ele>652.0</ele><time>2026-04-14T16:53:46.132Z</time></trkpt><trkpt lat="32.2909979" lon="-111.3780296"><ele>652.5</ele><time>2026-04-14T16:53:47.132Z</time></trkpt><trkpt lat="32.2909392" lon="-111.3781845"><ele>653.0</ele><time>2026-04-14T16:53:48.127Z</time></trkpt><trkpt lat="32.2908808" lon="-111.3783403"><ele>653.5</ele><time>2026-04-14T16:53:49.131Z</time></trkpt><trkpt lat="32.2908205" lon="-111.3784946"><ele>654.0</ele><time>2026-04-14T16:53:50.134Z</time></trkpt><trkpt lat="32.2907589" lon="-111.3786488"><ele>654.0</ele><time>2026-04-14T16:53:51.135Z</time></trkpt><trkpt lat="32.290698" lon="-111.3788013"><ele>654.0</ele><time>2026-04-14T16:53:52.13Z</time></trkpt><trkpt lat="32.290635" lon="-111.3789546"><ele>654.0</ele><time>2026-04-14T16:53:53.137Z</time></trkpt><trkpt lat="32.290573" lon="-111.379103"><ele>654.0</ele><time>2026-04-14T16:53:54.131Z</time></trkpt><trkpt lat="32.290511" lon="-111.3792506"><ele>654.0</ele><time>2026-04-14T16:53:55.128Z</time></trkpt><trkpt lat="32.2904543" lon="-111.3793938"><ele>654.0</ele><time>2026-04-14T16:53:56.123Z</time></trkpt><trkpt lat="32.290398" lon="-111.3795359"><ele>654.0</ele><time>2026-04-14T16:53:57.127Z</time></trkpt><trkpt lat="32.2903397" lon="-111.3796774"><ele>654.0</ele><time>2026-04-14T16:53:58.135Z</time></trkpt><trkpt lat="32.2902848" lon="-111.3798054"><ele>654.0</ele><time>2026-04-14T16:53:59.134Z</time></trkpt><trkpt lat="32.2902311" lon="-111.3799238"><ele>654.0</ele><time>2026-04-14T16:54:00.145Z</time></trkpt><trkpt lat="32.2901725" lon="-111.3800262"><ele>654.0</ele><time>2026-04-14T16:54:01.131Z</time></trkpt><trkpt lat="32.2900989" lon="-111.3801248"><ele>654.0</ele><time>2026-04-14T16:54:02.131Z</time></trkpt><trkpt lat="32.2900186" lon="-111.3802182"><ele>654.0</ele><time>2026-04-14T16:54:03.136Z</time></trkpt><trkpt lat="32.2899433" lon="-111.380313"><ele>654.0</ele><time>2026-04-14T16:54:04.132Z</time></trkpt><trkpt lat="32.289882" lon="-111.3804207"><ele>654.0</ele><time>2026-04-14T16:54:05.129Z</time></trkpt><trkpt lat="32.2898309" lon="-111.3805397"><ele>654.0</ele><time>2026-04-14T16:54:06.129Z</time></trkpt><trkpt lat="32.289787" lon="-111.3806541"><ele>654.0</ele><time>2026-04-14T16:54:07.129Z</time></trkpt><trkpt lat="32.2897476" lon="-111.3807567"><ele>654.0</ele><time>2026-04-14T16:54:08.129Z</time></trkpt><trkpt lat="32.2897114" lon="-111.3808483"><ele>654.3333333333334</ele><time>2026-04-14T16:54:09.136Z</time></trkpt><trkpt lat="32.2896825" lon="-111.3809313"><ele>654.6666666666666</ele><time>2026-04-14T16:54:10.129Z</time></trkpt><trkpt lat="32.2896599" lon="-111.3810072"><ele>655.0</ele><time>2026-04-14T16:54:11.131Z</time></trkpt><trkpt lat="32.2896348" lon="-111.3811185"><ele>655.3333333333333</ele><time>2026-04-14T16:54:13.127Z</time></trkpt><trkpt lat="32.2896084" lon="-111.3812105"><ele>655.6666666666666</ele><time>2026-04-14T16:54:15.138Z</time></trkpt><trkpt lat="32.2895699" lon="-111.3812816"><ele>656.0</ele><time>2026-04-14T16:54:17.132Z</time></trkpt><trkpt lat="32.289535" lon="-111.381351"><ele>656.0</ele><time>2026-04-14T16:54:19.128Z</time></trkpt><trkpt lat="32.2895014" lon="-111.3814164"><ele>656.0</ele><time>2026-04-14T16:54:26.134Z</time></trkpt><trkpt lat="32.2894429" lon="-111.3815263"><ele>656.0</ele><time>2026-04-14T16:54:28.127Z</time></trkpt><trkpt lat="32.2894076" lon="-111.3816036"><ele>656.0</ele><time>2026-04-14T16:54:29.136Z</time></trkpt><trkpt lat="32.2893704" lon="-111.3816982"><ele>656.0</ele><time>2026-04-14T16:54:30.137Z</time></trkpt><trkpt lat="32.2893325" lon="-111.3817996"><ele>656.0</ele><time>2026-04-14T16:54:31.126Z</time></trkpt><trkpt lat="32.2892914" lon="-111.3819006"><ele>656.0</ele><time>2026-04-14T16:54:32.134Z</time></trkpt><trkpt lat="32.2892484" lon="-111.3819982"><ele>656.0</ele><time>2026-04-14T16:54:33.134Z</time></trkpt><trkpt lat="32.2892061" lon="-111.3820925"><ele>656.0</ele><time>2026-04-14T16:54:34.135Z</time></trkpt><trkpt lat="32.2891699" lon="-111.38219"><ele>656.0</ele><time>2026-04-14T16:54:35.132Z</time></trkpt><trkpt lat="32.2891451" lon="-111.3822943"><ele>656.0</ele><time>2026-04-14T16:54:36.131Z</time></trkpt><trkpt lat="32.2891303" lon="-111.382407"><ele>656.0</ele><time>2026-04-14T16:54:37.132Z</time></trkpt><trkpt lat="32.2891143" lon="-111.3825304"><ele>656.0</ele><time>2026-04-14T16:54:38.137Z</time></trkpt><trkpt lat="32.2890901" lon="-111.3826575"><ele>656.0</ele><time>2026-04-14T16:54:39.132Z</time></trkpt><trkpt lat="32.2890627" lon="-111.3827853"><ele>656.0</ele><time>2026-04-14T16:54:40.134Z</time></trkpt><trkpt lat="32.2890391" lon="-111.3829107"><ele>656.0</ele><time>2026-04-14T16:54:41.135Z</time></trkpt><trkpt lat="32.2890206" lon="-111.3830359"><ele>656.5999999999999</ele><time>2026-04-14T16:54:42.141Z</time></trkpt><trkpt lat="32.2890069" lon="-111.3831634"><ele>657.2</ele><time>2026-04-14T16:54:43.131Z</time></trkpt><trkpt lat="32.2890027" lon="-111.3832921"><ele>657.8</ele><time>2026-04-14T16:54:44.15Z</time></trkpt><trkpt lat="32.2890086" lon="-111.3834199"><ele>658.4000000000001</ele><time>2026-04-14T16:54:45.138Z</time></trkpt><trkpt lat="32.2890244" lon="-111.3835579"><ele>659.0</ele><time>2026-04-14T16:54:46.144Z</time></trkpt><trkpt lat="32.2890464" lon="-111.3836938"><ele>659.0</ele><time>2026-04-14T16:54:47.128Z</time></trkpt><trkpt lat="32.2890702" lon="-111.3838322"><ele>659.0</ele><time>2026-04-14T16:54:48.128Z</time></trkpt><trkpt lat="32.2890945" lon="-111.3839601"><ele>659.0</ele><time>2026-04-14T16:54:49.131Z</time></trkpt><trkpt lat="32.2891163" lon="-111.3840796"><ele>659.0</ele><time>2026-04-14T16:54:50.137Z</time></trkpt><trkpt lat="32.2891442" lon="-111.3841979"><ele>659.0</ele><time>2026-04-14T16:54:51.126Z</time></trkpt><trkpt lat="32.2891845" lon="-111.3843204"><ele>659.0</ele><time>2026-04-14T16:54:52.14Z</time></trkpt><trkpt lat="32.2892301" lon="-111.3844442"><ele>659.0</ele><time>2026-04-14T16:54:53.125Z</time></trkpt><trkpt lat="32.2892795" lon="-111.384579"><ele>659.0</ele><time>2026-04-14T16:54:54.133Z</time></trkpt><trkpt lat="32.2893294" lon="-111.3847093"><ele>659.0</ele><time>2026-04-14T16:54:55.127Z</time></trkpt><trkpt lat="32.2893797" lon="-111.3848393"><ele>658.6</ele><time>2026-04-14T16:54:56.134Z</time></trkpt><trkpt lat="32.2894205" lon="-111.3849582"><ele>658.2</ele><time>2026-04-14T16:54:57.131Z</time></trkpt><trkpt lat="32.289452" lon="-111.3850741"><ele>657.8000000000001</ele><time>2026-04-14T16:54:58.129Z</time></trkpt><trkpt lat="32.2894778" lon="-111.3851828"><ele>657.4000000000001</ele><time>2026-04-14T16:54:59.128Z</time></trkpt><trkpt lat="32.2894986" lon="-111.3852759"><ele>657.0</ele><time>2026-04-14T16:55:00.13Z</time></trkpt><trkpt lat="32.2895161" lon="-111.3853525"><ele>657.0</ele><time>2026-04-14T16:55:01.125Z</time></trkpt><trkpt lat="32.2895431" lon="-111.3854687"><ele>657.0</ele><time>2026-04-14T16:55:03.133Z</time></trkpt><trkpt lat="32.2895632" lon="-111.3855523"><ele>657.0</ele><time>2026-04-14T16:55:06.126Z</time></trkpt><trkpt lat="32.2895844" lon="-111.3856585"><ele>657.0</ele><time>2026-04-14T16:55:31.135Z</time></trkpt><trkpt lat="32.289606" lon="-111.3857445"><ele>657.0</ele><time>2026-04-14T16:55:32.15Z</time></trkpt><trkpt lat="32.2896263" lon="-111.385833"><ele>657.0</ele><time>2026-04-14T16:55:33.132Z</time></trkpt><trkpt lat="32.2896527" lon="-111.3859348"><ele>657.0</ele><time>2026-04-14T16:55:34.141Z</time></trkpt><trkpt lat="32.289683" lon="-111.38604"><ele>657.0</ele><time>2026-04-14T16:55:35.127Z</time></trkpt><trkpt lat="32.2897165" lon="-111.3861529"><ele>657.0</ele><time>2026-04-14T16:55:36.125Z</time></trkpt><trkpt lat="32.2897605" lon="-111.3862552"><ele>657.0</ele><time>2026-04-14T16:55:37.131Z</time></trkpt><trkpt lat="32.2898094" lon="-111.3863473"><ele>657.0</ele><time>2026-04-14T16:55:38.137Z</time></trkpt><trkpt lat="32.289851" lon="-111.3864287"><ele>657.0</ele><time>2026-04-14T16:55:39.134Z</time></trkpt><trkpt lat="32.2898914" lon="-111.3865071"><ele>657.0</ele><time>2026-04-14T16:55:40.127Z</time></trkpt><trkpt lat="32.2899294" lon="-111.3865966"><ele>657.0</ele><time>2026-04-14T16:55:41.132Z</time></trkpt><trkpt lat="32.2899593" lon="-111.3866988"><ele>657.0</ele><time>2026-04-14T16:55:42.13Z</time></trkpt><trkpt lat="32.2899788" lon="-111.3868121"><ele>657.0</ele><time>2026-04-14T16:55:43.132Z</time></trkpt><trkpt lat="32.2899915" lon="-111.3869328"><ele>657.0</ele><time>2026-04-14T16:55:44.139Z</time></trkpt><trkpt lat="32.289991" lon="-111.3870516"><ele>657.0</ele><time>2026-04-14T16:55:45.135Z</time></trkpt><trkpt lat="32.2899769" lon="-111.3871711"><ele>657.0</ele><time>2026-04-14T16:55:46.143Z</time></trkpt><trkpt lat="32.2899471" lon="-111.387287"><ele>657.0</ele><time>2026-04-14T16:55:47.131Z</time></trkpt><trkpt lat="32.289903" lon="-111.387397"><ele>657.0</ele><time>2026-04-14T16:55:48.137Z</time></trkpt><trkpt lat="32.2898507" lon="-111.3874952"><ele>657.2</ele><time>2026-04-14T16:55:49.125Z</time></trkpt><trkpt lat="32.2897843" lon="-111.3875896"><ele>657.4000000000001</ele><time>2026-04-14T16:55:50.134Z</time></trkpt><trkpt lat="32.2897066" lon="-111.3876749"><ele>657.5999999999999</ele><time>2026-04-14T16:55:51.123Z</time></trkpt><trkpt lat="32.2896188" lon="-111.3877609"><ele>657.8</ele><time>2026-04-14T16:55:52.13Z</time></trkpt><trkpt lat="32.2895288" lon="-111.3878525"><ele>658.0</ele><time>2026-04-14T16:55:53.135Z</time></trkpt><trkpt lat="32.2894401" lon="-111.3879505"><ele>658.25</ele><time>2026-04-14T16:55:54.13Z</time></trkpt><trkpt lat="32.2893482" lon="-111.388054"><ele>658.5</ele><time>2026-04-14T16:55:55.134Z</time></trkpt><trkpt lat="32.2892562" lon="-111.38816"><ele>658.75</ele><time>2026-04-14T16:55:56.128Z</time></trkpt><trkpt lat="32.2891585" lon="-111.3882689"><ele>659.0</ele><time>2026-04-14T16:55:57.139Z</time></trkpt><trkpt lat="32.2890607" lon="-111.3883764"><ele>659.0</ele><time>2026-04-14T16:55:58.138Z</time></trkpt><trkpt lat="32.2889614" lon="-111.3884859"><ele>659.0</ele><time>2026-04-14T16:55:59.135Z</time></trkpt><trkpt lat="32.2888611" lon="-111.3885983"><ele>659.0</ele><time>2026-04-14T16:56:00.148Z</time></trkpt><trkpt lat="32.288764" lon="-111.3887076"><ele>659.0</ele><time>2026-04-14T16:56:01.128Z</time></trkpt><trkpt lat="32.2886645" lon="-111.3888201"><ele>659.25</ele><time>2026-04-14T16:56:02.135Z</time></trkpt><trkpt lat="32.2885672" lon="-111.3889303"><ele>659.5</ele><time>2026-04-14T16:56:03.13Z</time></trkpt><trkpt lat="32.2884674" lon="-111.3890403"><ele>659.75</ele><time>2026-04-14T16:56:04.134Z</time></trkpt><trkpt lat="32.2883669" lon="-111.3891478"><ele>660.0</ele><time>2026-04-14T16:56:05.132Z</time></trkpt><trkpt lat="32.288268" lon="-111.3892545"><ele>660.0</ele><time>2026-04-14T16:56:06.134Z</time></trkpt><trkpt lat="32.2881674" lon="-111.3893622"><ele>660.0</ele><time>2026-04-14T16:56:07.133Z</time></trkpt><trkpt lat="32.2880681" lon="-111.3894715"><ele>660.0</ele><time>2026-04-14T16:56:08.126Z</time></trkpt><trkpt lat="32.287968" lon="-111.3895834"><ele>660.0</ele><time>2026-04-14T16:56:09.146Z</time></trkpt><trkpt lat="32.2878693" lon="-111.3896933"><ele>661.25</ele><time>2026-04-14T16:56:10.143Z</time></trkpt><trkpt lat="32.2877732" lon="-111.3898049"><ele>662.5</ele><time>2026-04-14T16:56:11.128Z</time></trkpt><trkpt lat="32.2876771" lon="-111.3899226"><ele>663.75</ele><time>2026-04-14T16:56:12.133Z</time></trkpt><trkpt lat="32.2875829" lon="-111.3900425"><ele>665.0</ele><time>2026-04-14T16:56:13.134Z</time></trkpt><trkpt lat="32.2874884" lon="-111.3901681"><ele>665.0</ele><time>2026-04-14T16:56:14.147Z</time></trkpt><trkpt lat="32.2873967" lon="-111.3902916"><ele>665.0</ele><time>2026-04-14T16:56:15.131Z</time></trkpt><trkpt lat="32.2873014" lon="-111.3904165"><ele>665.0</ele><time>2026-04-14T16:56:16.131Z</time></trkpt><trkpt lat="32.287204" lon="-111.3905398"><ele>665.0</ele><time>2026-04-14T16:56:17.131Z</time></trkpt><trkpt lat="32.2871054" lon="-111.3906602"><ele>665.0</ele><time>2026-04-14T16:56:18.132Z</time></trkpt><trkpt lat="32.2870046" lon="-111.3907812"><ele>665.0</ele><time>2026-04-14T16:56:19.135Z</time></trkpt><trkpt lat="32.2869017" lon="-111.3908981"><ele>665.0</ele><time>2026-04-14T16:56:20.135Z</time></trkpt><trkpt lat="32.2867987" lon="-111.3910093"><ele>665.0</ele><time>2026-04-14T16:56:21.129Z</time></trkpt><trkpt lat="32.2866966" lon="-111.3911135"><ele>665.0</ele><time>2026-04-14T16:56:22.127Z</time></trkpt><trkpt lat="32.2865929" lon="-111.39122"><ele>665.0</ele><time>2026-04-14T16:56:23.132Z</time></trkpt><trkpt lat="32.2864907" lon="-111.3913192"><ele>665.0</ele><time>2026-04-14T16:56:24.129Z</time></trkpt><trkpt lat="32.2863945" lon="-111.3914129"><ele>665.0</ele><time>2026-04-14T16:56:25.132Z</time></trkpt><trkpt lat="32.2863043" lon="-111.3915107"><ele>665.0</ele><time>2026-04-14T16:56:26.149Z</time></trkpt><trkpt lat="32.2862189" lon="-111.3916165"><ele>665.0</ele><time>2026-04-14T16:56:27.131Z</time></trkpt><trkpt lat="32.2861292" lon="-111.3917343"><ele>665.0</ele><time>2026-04-14T16:56:28.136Z</time></trkpt><trkpt lat="32.2860336" lon="-111.3918544"><ele>665.0</ele><time>2026-04-14T16:56:29.124Z</time></trkpt><trkpt lat="32.2859281" lon="-111.3919741"><ele>665.0</ele><time>2026-04-14T16:56:30.133Z</time></trkpt><trkpt lat="32.2858225" lon="-111.3920854"><ele>665.0</ele><time>2026-04-14T16:56:31.136Z</time></trkpt><trkpt lat="32.2857179" lon="-111.3921948"><ele>665.0</ele><time>2026-04-14T16:56:32.132Z</time></trkpt><trkpt lat="32.2856174" lon="-111.392303"><ele>665.0</ele><time>2026-04-14T16:56:33.134Z</time></trkpt><trkpt lat="32.2855207" lon="-111.3924159"><ele>665.0</ele><time>2026-04-14T16:56:34.135Z</time></trkpt><trkpt lat="32.2854252" lon="-111.3925308"><ele>665.0</ele><time>2026-04-14T16:56:35.128Z</time></trkpt><trkpt lat="32.2853219" lon="-111.3926384"><ele>665.0</ele><time>2026-04-14T16:56:36.129Z</time></trkpt><trkpt lat="32.2852109" lon="-111.3927357"><ele>665.0</ele><time>2026-04-14T16:56:37.131Z</time></trkpt><trkpt lat="32.2850943" lon="-111.392835"><ele>665.0</ele><time>2026-04-14T16:56:38.131Z</time></trkpt><trkpt lat="32.2849741" lon="-111.3929326"><ele>665.0</ele><time>2026-04-14T16:56:39.132Z</time></trkpt><trkpt lat="32.2848494" lon="-111.3930211"><ele>665.0</ele><time>2026-04-14T16:56:40.146Z</time></trkpt><trkpt lat="32.2847266" lon="-111.3931028"><ele>665.0</ele><time>2026-04-14T16:56:41.129Z</time></trkpt><trkpt lat="32.284597" lon="-111.3931918"><ele>665.25</ele><time>2026-04-14T16:56:42.166Z</time></trkpt><trkpt lat="32.2844777" lon="-111.3932787"><ele>665.5</ele><time>2026-04-14T16:56:43.128Z</time></trkpt><trkpt lat="32.2843568" lon="-111.3933628"><ele>665.75</ele><time>2026-04-14T16:56:44.127Z</time></trkpt><trkpt lat="32.2842319" lon="-111.3934401"><ele>666.0</ele><time>2026-04-14T16:56:45.129Z</time></trkpt><trkpt lat="32.2841019" lon="-111.3935166"><ele>666.0</ele><time>2026-04-14T16:56:46.139Z</time></trkpt><trkpt lat="32.2839757" lon="-111.3935999"><ele>666.0</ele><time>2026-04-14T16:56:47.138Z</time></trkpt><trkpt lat="32.283854" lon="-111.3936937"><ele>666.0</ele><time>2026-04-14T16:56:48.138Z</time></trkpt><trkpt lat="32.2837383" lon="-111.3937903"><ele>666.0</ele><time>2026-04-14T16:56:49.129Z</time></trkpt><trkpt lat="32.2836166" lon="-111.3938823"><ele>666.3333333333334</ele><time>2026-04-14T16:56:50.14Z</time></trkpt><trkpt lat="32.2834894" lon="-111.3939703"><ele>666.6666666666667</ele><time>2026-04-14T16:56:51.13Z</time></trkpt><trkpt lat="32.2833583" lon="-111.3940689"><ele>667.0</ele><time>2026-04-14T16:56:52.134Z</time></trkpt><trkpt lat="32.28323" lon="-111.3941772"><ele>667.0</ele><time>2026-04-14T16:56:53.131Z</time></trkpt><trkpt lat="32.2831116" lon="-111.3942842"><ele>667.0</ele><time>2026-04-14T16:56:54.127Z</time></trkpt><trkpt lat="32.2829987" lon="-111.3943927"><ele>667.0</ele><time>2026-04-14T16:56:55.132Z</time></trkpt><trkpt lat="32.2828934" lon="-111.3945012"><ele>667.0</ele><time>2026-04-14T16:56:56.133Z</time></trkpt><trkpt lat="32.2827951" lon="-111.3946092"><ele>667.5</ele><time>2026-04-14T16:56:57.132Z</time></trkpt><trkpt lat="32.2827089" lon="-111.3947158"><ele>668.0</ele><time>2026-04-14T16:56:58.134Z</time></trkpt><trkpt lat="32.2826327" lon="-111.3948227"><ele>668.5</ele><time>2026-04-14T16:56:59.129Z</time></trkpt><trkpt lat="32.2825598" lon="-111.3949327"><ele>669.0</ele><time>2026-04-14T16:57:00.147Z</time></trkpt><trkpt lat="32.2824904" lon="-111.395039"><ele>669.0</ele><time>2026-04-14T16:57:01.136Z</time></trkpt><trkpt lat="32.2824178" lon="-111.3951461"><ele>669.0</ele><time>2026-04-14T16:57:02.142Z</time></trkpt><trkpt lat="32.2823423" lon="-111.3952444"><ele>669.0</ele><time>2026-04-14T16:57:03.126Z</time></trkpt><trkpt lat="32.2822612" lon="-111.3953398"><ele>669.0</ele><time>2026-04-14T16:57:04.141Z</time></trkpt><trkpt lat="32.2821741" lon="-111.3954365"><ele>669.0</ele><time>2026-04-14T16:57:05.134Z</time></trkpt><trkpt lat="32.2820781" lon="-111.3955362"><ele>669.0</ele><time>2026-04-14T16:57:06.132Z</time></trkpt><trkpt lat="32.2819779" lon="-111.3956377"><ele>669.0</ele><time>2026-04-14T16:57:07.129Z</time></trkpt><trkpt lat="32.2818833" lon="-111.3957315"><ele>669.0</ele><time>2026-04-14T16:57:08.13Z</time></trkpt><trkpt lat="32.2817982" lon="-111.3958179"><ele>669.0</ele><time>2026-04-14T16:57:09.131Z</time></trkpt><trkpt lat="32.2817273" lon="-111.3959054"><ele>669.0</ele><time>2026-04-14T16:57:10.126Z</time></trkpt><trkpt lat="32.2816689" lon="-111.3960012"><ele>669.0</ele><time>2026-04-14T16:57:11.132Z</time></trkpt><trkpt lat="32.2816167" lon="-111.3961025"><ele>669.0</ele><time>2026-04-14T16:57:12.139Z</time></trkpt><trkpt lat="32.2815604" lon="-111.3961854"><ele>669.0</ele><time>2026-04-14T16:57:13.133Z</time></trkpt><trkpt lat="32.2814834" lon="-111.3962694"><ele>669.0</ele><time>2026-04-14T16:57:14.131Z</time></trkpt><trkpt lat="32.2813774" lon="-111.3962864"><ele>669.0</ele><time>2026-04-14T16:57:15.132Z</time></trkpt><trkpt lat="32.2812849" lon="-111.3963328"><ele>669.0</ele><time>2026-04-14T16:57:16.132Z</time></trkpt><trkpt lat="32.2812003" lon="-111.3964027"><ele>669.0</ele><time>2026-04-14T16:57:17.131Z</time></trkpt><trkpt lat="32.2811159" lon="-111.3964842"><ele>669.0</ele><time>2026-04-14T16:57:18.129Z</time></trkpt><trkpt lat="32.2810276" lon="-111.396585"><ele>669.25</ele><time>2026-04-14T16:57:19.134Z</time></trkpt><trkpt lat="32.2809343" lon="-111.3966886"><ele>669.5</ele><time>2026-04-14T16:57:20.162Z</time></trkpt><trkpt lat="32.2808475" lon="-111.3967848"><ele>669.75</ele><time>2026-04-14T16:57:21.131Z</time></trkpt><trkpt lat="32.2807632" lon="-111.3968956"><ele>670.0</ele><time>2026-04-14T16:57:22.133Z</time></trkpt><trkpt lat="32.2806826" lon="-111.3970106"><ele>670.0</ele><time>2026-04-14T16:57:23.127Z</time></trkpt><trkpt lat="32.280609" lon="-111.3971287"><ele>670.0</ele><time>2026-04-14T16:57:24.131Z</time></trkpt><trkpt lat="32.2805466" lon="-111.3972423"><ele>670.0</ele><time>2026-04-14T16:57:25.127Z</time></trkpt><trkpt lat="32.2804911" lon="-111.3973527"><ele>670.0</ele><time>2026-04-14T16:57:26.136Z</time></trkpt><trkpt lat="32.2804482" lon="-111.3974649"><ele>670.75</ele><time>2026-04-14T16:57:27.128Z</time></trkpt><trkpt lat="32.2804176" lon="-111.3975896"><ele>671.5</ele><time>2026-04-14T16:57:28.136Z</time></trkpt><trkpt lat="32.2803989" lon="-111.3977257"><ele>672.25</ele><time>2026-04-14T16:57:29.13Z</time></trkpt><trkpt lat="32.2803854" lon="-111.3978654"><ele>673.0</ele><time>2026-04-14T16:57:30.13Z</time></trkpt><trkpt lat="32.2803678" lon="-111.3980049"><ele>673.0</ele><time>2026-04-14T16:57:31.133Z</time></trkpt><trkpt lat="32.2803398" lon="-111.3981423"><ele>673.0</ele><time>2026-04-14T16:57:32.134Z</time></trkpt><trkpt lat="32.2803032" lon="-111.3982663"><ele>673.0</ele><time>2026-04-14T16:57:33.133Z</time></trkpt><trkpt lat="32.2802605" lon="-111.3983794"><ele>673.0</ele><time>2026-04-14T16:57:34.136Z</time></trkpt><trkpt lat="32.2802013" lon="-111.3984897"><ele>673.0</ele><time>2026-04-14T16:57:35.15Z</time></trkpt><trkpt lat="32.2801251" lon="-111.3985959"><ele>673.0</ele><time>2026-04-14T16:57:36.134Z</time></trkpt><trkpt lat="32.2800338" lon="-111.3987015"><ele>673.0</ele><time>2026-04-14T16:57:37.133Z</time></trkpt><trkpt lat="32.2799314" lon="-111.398806"><ele>673.0</ele><time>2026-04-14T16:57:38.132Z</time></trkpt><trkpt lat="32.2798284" lon="-111.3989079"><ele>673.0</ele><time>2026-04-14T16:57:39.126Z</time></trkpt><trkpt lat="32.2797279" lon="-111.3990085"><ele>673.0</ele><time>2026-04-14T16:57:40.135Z</time></trkpt><trkpt lat="32.2796315" lon="-111.3991118"><ele>673.0</ele><time>2026-04-14T16:57:41.13Z</time></trkpt><trkpt lat="32.2795324" lon="-111.3992204"><ele>673.0</ele><time>2026-04-14T16:57:42.14Z</time></trkpt><trkpt lat="32.2794325" lon="-111.3993277"><ele>673.0</ele><time>2026-04-14T16:57:43.131Z</time></trkpt><trkpt lat="32.2793295" lon="-111.3994358"><ele>673.0</ele><time>2026-04-14T16:57:44.136Z</time></trkpt><trkpt lat="32.2792267" lon="-111.3995401"><ele>673.0</ele><time>2026-04-14T16:57:45.131Z</time></trkpt><trkpt lat="32.2791186" lon="-111.3996382"><ele>673.0</ele><time>2026-04-14T16:57:46.132Z</time></trkpt><trkpt lat="32.2790074" lon="-111.3997333"><ele>673.0</ele><time>2026-04-14T16:57:47.139Z</time></trkpt><trkpt lat="32.2788997" lon="-111.3998262"><ele>673.25</ele><time>2026-04-14T16:57:48.134Z</time></trkpt><trkpt lat="32.2787944" lon="-111.399919"><ele>673.5</ele><time>2026-04-14T16:57:49.133Z</time></trkpt><trkpt lat="32.2786909" lon="-111.4000136"><ele>673.75</ele><time>2026-04-14T16:57:50.137Z</time></trkpt><trkpt lat="32.2785872" lon="-111.4001102"><ele>674.0</ele><time>2026-04-14T16:57:51.135Z</time></trkpt><trkpt lat="32.27848" lon="-111.4002049"><ele>674.0</ele><time>2026-04-14T16:57:52.139Z</time></trkpt><trkpt lat="32.2783706" lon="-111.4002941"><ele>674.0</ele><time>2026-04-14T16:57:53.131Z</time></trkpt><trkpt lat="32.2782588" lon="-111.4003756"><ele>674.0</ele><time>2026-04-14T16:57:54.156Z</time></trkpt><trkpt lat="32.2781529" lon="-111.4004456"><ele>674.0</ele><time>2026-04-14T16:57:55.134Z</time></trkpt><trkpt lat="32.2780483" lon="-111.4005143"><ele>674.6</ele><time>2026-04-14T16:57:56.137Z</time></trkpt><trkpt lat="32.2779576" lon="-111.4005811"><ele>675.2</ele><time>2026-04-14T16:57:57.131Z</time></trkpt><trkpt lat="32.2778824" lon="-111.4006508"><ele>675.8000000000001</ele><time>2026-04-14T16:57:58.128Z</time></trkpt><trkpt lat="32.2778221" lon="-111.4007236"><ele>676.4000000000001</ele><time>2026-04-14T16:57:59.134Z</time></trkpt><trkpt lat="32.2777793" lon="-111.4008018"><ele>677.0</ele><time>2026-04-14T16:58:00.135Z</time></trkpt><trkpt lat="32.2777463" lon="-111.4009038"><ele>677.0</ele><time>2026-04-14T16:58:01.134Z</time></trkpt><trkpt lat="32.2777198" lon="-111.4010212"><ele>677.0</ele><time>2026-04-14T16:58:02.128Z</time></trkpt><trkpt lat="32.2776937" lon="-111.4011331"><ele>677.0</ele><time>2026-04-14T16:58:03.13Z</time></trkpt><trkpt lat="32.2776595" lon="-111.4012426"><ele>677.0</ele><time>2026-04-14T16:58:04.143Z</time></trkpt><trkpt lat="32.2776164" lon="-111.4013423"><ele>677.0</ele><time>2026-04-14T16:58:05.138Z</time></trkpt><trkpt lat="32.2775659" lon="-111.4014447"><ele>677.0</ele><time>2026-04-14T16:58:06.132Z</time></trkpt><trkpt lat="32.2775055" lon="-111.401561"><ele>677.0</ele><time>2026-04-14T16:58:07.127Z</time></trkpt><trkpt lat="32.277439" lon="-111.4016897"><ele>677.0</ele><time>2026-04-14T16:58:08.133Z</time></trkpt><trkpt lat="32.2773679" lon="-111.4018222"><ele>677.0</ele><time>2026-04-14T16:58:09.127Z</time></trkpt><trkpt lat="32.2772996" lon="-111.4019577"><ele>677.5</ele><time>2026-04-14T16:58:10.132Z</time></trkpt><trkpt lat="32.2772346" lon="-111.4020958"><ele>678.0</ele><time>2026-04-14T16:58:11.139Z</time></trkpt><trkpt lat="32.2771711" lon="-111.402234"><ele>678.5</ele><time>2026-04-14T16:58:12.13Z</time></trkpt><trkpt lat="32.2770976" lon="-111.402371"><ele>679.0</ele><time>2026-04-14T16:58:13.142Z</time></trkpt><trkpt lat="32.2770197" lon="-111.4024953"><ele>679.25</ele><time>2026-04-14T16:58:14.132Z</time></trkpt><trkpt lat="32.2769273" lon="-111.402611"><ele>679.5</ele><time>2026-04-14T16:58:15.13Z</time></trkpt><trkpt lat="32.2768222" lon="-111.4027192"><ele>679.75</ele><time>2026-04-14T16:58:16.135Z</time></trkpt><trkpt lat="32.2767053" lon="-111.4028206"><ele>680.0</ele><time>2026-04-14T16:58:17.131Z</time></trkpt><trkpt lat="32.2765788" lon="-111.4029217"><ele>680.0</ele><time>2026-04-14T16:58:18.152Z</time></trkpt><trkpt lat="32.2764517" lon="-111.4030161"><ele>680.0</ele><time>2026-04-14T16:58:19.134Z</time></trkpt><trkpt lat="32.2763198" lon="-111.4031103"><ele>680.0</ele><time>2026-04-14T16:58:20.14Z</time></trkpt><trkpt lat="32.2761928" lon="-111.4032035"><ele>680.0</ele><time>2026-04-14T16:58:21.131Z</time></trkpt><trkpt lat="32.276062" lon="-111.4033068"><ele>680.0</ele><time>2026-04-14T16:58:22.14Z</time></trkpt><trkpt lat="32.2759343" lon="-111.4034094"><ele>680.0</ele><time>2026-04-14T16:58:23.127Z</time></trkpt><trkpt lat="32.2758039" lon="-111.4035092"><ele>680.0</ele><time>2026-04-14T16:58:24.133Z</time></trkpt><trkpt lat="32.2756776" lon="-111.403602"><ele>680.0</ele><time>2026-04-14T16:58:25.13Z</time></trkpt><trkpt lat="32.2755481" lon="-111.403693"><ele>680.0</ele><time>2026-04-14T16:58:26.132Z</time></trkpt><trkpt lat="32.2754147" lon="-111.4037785"><ele>680.75</ele><time>2026-04-14T16:58:27.131Z</time></trkpt><trkpt lat="32.275278" lon="-111.403859"><ele>681.5</ele><time>2026-04-14T16:58:28.137Z</time></trkpt><trkpt lat="32.2751439" lon="-111.4039393"><ele>682.25</ele><time>2026-04-14T16:58:29.14Z</time></trkpt><trkpt lat="32.2750179" lon="-111.4040226"><ele>683.0</ele><time>2026-04-14T16:58:30.133Z</time></trkpt><trkpt lat="32.2749005" lon="-111.4041087"><ele>683.0</ele><time>2026-04-14T16:58:31.131Z</time></trkpt><trkpt lat="32.2747871" lon="-111.4042072"><ele>683.0</ele><time>2026-04-14T16:58:32.13Z</time></trkpt><trkpt lat="32.2746759" lon="-111.4043191"><ele>683.0</ele><time>2026-04-14T16:58:33.128Z</time></trkpt><trkpt lat="32.2745617" lon="-111.4044414"><ele>683.0</ele><time>2026-04-14T16:58:34.144Z</time></trkpt><trkpt lat="32.2744461" lon="-111.4045654"><ele>683.0</ele><time>2026-04-14T16:58:35.135Z</time></trkpt><trkpt lat="32.2743293" lon="-111.4046914"><ele>683.0</ele><time>2026-04-14T16:58:36.128Z</time></trkpt><trkpt lat="32.2742124" lon="-111.4048157"><ele>683.0</ele><time>2026-04-14T16:58:37.129Z</time></trkpt><trkpt lat="32.2740989" lon="-111.4049358"><ele>683.0</ele><time>2026-04-14T16:58:38.131Z</time></trkpt><trkpt lat="32.2739862" lon="-111.4050556"><ele>683.0</ele><time>2026-04-14T16:58:39.141Z</time></trkpt><trkpt lat="32.2738756" lon="-111.4051734"><ele>683.0</ele><time>2026-04-14T16:58:40.133Z</time></trkpt><trkpt lat="32.2737619" lon="-111.4052923"><ele>683.0</ele><time>2026-04-14T16:58:41.138Z</time></trkpt><trkpt lat="32.2736492" lon="-111.4054045"><ele>683.0</ele><time>2026-04-14T16:58:42.133Z</time></trkpt><trkpt lat="32.2735368" lon="-111.4055122"><ele>683.0</ele><time>2026-04-14T16:58:43.13Z</time></trkpt><trkpt lat="32.2734217" lon="-111.4056182"><ele>683.0</ele><time>2026-04-14T16:58:44.136Z</time></trkpt><trkpt lat="32.273315" lon="-111.4057203"><ele>683.25</ele><time>2026-04-14T16:58:45.131Z</time></trkpt><trkpt lat="32.2732195" lon="-111.4058228"><ele>683.5</ele><time>2026-04-14T16:58:46.145Z</time></trkpt><trkpt lat="32.2731369" lon="-111.4059279"><ele>683.75</ele><time>2026-04-14T16:58:47.125Z</time></trkpt><trkpt lat="32.2730578" lon="-111.4060517"><ele>684.0</ele><time>2026-04-14T16:58:48.127Z</time></trkpt><trkpt lat="32.2729829" lon="-111.4061883"><ele>685.0</ele><time>2026-04-14T16:58:49.137Z</time></trkpt><trkpt lat="32.2729044" lon="-111.4063294"><ele>686.0</ele><time>2026-04-14T16:58:50.135Z</time></trkpt><trkpt lat="32.2728241" lon="-111.4064748"><ele>687.0</ele><time>2026-04-14T16:58:51.135Z</time></trkpt><trkpt lat="32.272745" lon="-111.4066215"><ele>688.0</ele><time>2026-04-14T16:58:52.135Z</time></trkpt><trkpt lat="32.2726695" lon="-111.4067692"><ele>688.0</ele><time>2026-04-14T16:58:53.128Z</time></trkpt><trkpt lat="32.2725947" lon="-111.4069247"><ele>688.0</ele><time>2026-04-14T16:58:54.132Z</time></trkpt><trkpt lat="32.2725222" lon="-111.4070794"><ele>688.0</ele><time>2026-04-14T16:58:55.13Z</time></trkpt><trkpt lat="32.2724501" lon="-111.4072359"><ele>688.25</ele><time>2026-04-14T16:58:56.135Z</time></trkpt><trkpt lat="32.2723777" lon="-111.4073856"><ele>688.5</ele><time>2026-04-14T16:58:57.129Z</time></trkpt><trkpt lat="32.2723038" lon="-111.4075383"><ele>688.75</ele><time>2026-04-14T16:58:58.134Z</time></trkpt><trkpt lat="32.2722298" lon="-111.4076901"><ele>689.0</ele><time>2026-04-14T16:58:59.13Z</time></trkpt><trkpt lat="32.272152" lon="-111.4078374"><ele>689.0</ele><time>2026-04-14T16:59:00.137Z</time></trkpt><trkpt lat="32.2720699" lon="-111.4079781"><ele>689.0</ele><time>2026-04-14T16:59:01.133Z</time></trkpt><trkpt lat="32.2719824" lon="-111.4081131"><ele>689.0</ele><time>2026-04-14T16:59:02.131Z</time></trkpt><trkpt lat="32.2718895" lon="-111.4082444"><ele>689.0</ele><time>2026-04-14T16:59:03.133Z</time></trkpt><trkpt lat="32.2718025" lon="-111.4083736"><ele>689.5</ele><time>2026-04-14T16:59:04.133Z</time></trkpt><trkpt lat="32.2717259" lon="-111.4085106"><ele>690.0</ele><time>2026-04-14T16:59:05.131Z</time></trkpt><trkpt lat="32.2716599" lon="-111.4086593"><ele>690.5</ele><time>2026-04-14T16:59:06.131Z</time></trkpt><trkpt lat="32.2716009" lon="-111.4088173"><ele>691.0</ele><time>2026-04-14T16:59:07.131Z</time></trkpt><trkpt lat="32.2715431" lon="-111.4089759"><ele>691.25</ele><time>2026-04-14T16:59:08.127Z</time></trkpt><trkpt lat="32.2714784" lon="-111.4091307"><ele>691.5</ele><time>2026-04-14T16:59:09.128Z</time></trkpt><trkpt lat="32.271402" lon="-111.4092825"><ele>691.75</ele><time>2026-04-14T16:59:10.142Z</time></trkpt><trkpt lat="32.271322" lon="-111.4094297"><ele>692.0</ele><time>2026-04-14T16:59:11.125Z</time></trkpt><trkpt lat="32.2712394" lon="-111.4095767"><ele>692.25</ele><time>2026-04-14T16:59:12.135Z</time></trkpt><trkpt lat="32.2711585" lon="-111.4097215"><ele>692.5</ele><time>2026-04-14T16:59:13.134Z</time></trkpt><trkpt lat="32.2710814" lon="-111.4098689"><ele>692.75</ele><time>2026-04-14T16:59:14.134Z</time></trkpt><trkpt lat="32.2710128" lon="-111.4100152"><ele>693.0</ele><time>2026-04-14T16:59:15.128Z</time></trkpt><trkpt lat="32.270954" lon="-111.4101658"><ele>693.0</ele><time>2026-04-14T16:59:16.137Z</time></trkpt><trkpt lat="32.2709054" lon="-111.4103227"><ele>693.0</ele><time>2026-04-14T16:59:17.132Z</time></trkpt><trkpt lat="32.2708622" lon="-111.4104869"><ele>693.0</ele><time>2026-04-14T16:59:18.129Z</time></trkpt><trkpt lat="32.2708196" lon="-111.4106564"><ele>693.0</ele><time>2026-04-14T16:59:19.135Z</time></trkpt><trkpt lat="32.2707777" lon="-111.4108232"><ele>693.5</ele><time>2026-04-14T16:59:20.132Z</time></trkpt><trkpt lat="32.2707353" lon="-111.4109874"><ele>694.0</ele><time>2026-04-14T16:59:21.127Z</time></trkpt><trkpt lat="32.2706899" lon="-111.4111531"><ele>694.5</ele><time>2026-04-14T16:59:22.124Z</time></trkpt><trkpt lat="32.2706432" lon="-111.4113229"><ele>695.0</ele><time>2026-04-14T16:59:23.136Z</time></trkpt><trkpt lat="32.2705976" lon="-111.4114906"><ele>695.25</ele><time>2026-04-14T16:59:24.139Z</time></trkpt><trkpt lat="32.2705502" lon="-111.4116501"><ele>695.5</ele><time>2026-04-14T16:59:25.136Z</time></trkpt><trkpt lat="32.2705004" lon="-111.411796"><ele>695.75</ele><time>2026-04-14T16:59:26.139Z</time></trkpt><trkpt lat="32.2704506" lon="-111.4119254"><ele>696.0</ele><time>2026-04-14T16:59:27.128Z</time></trkpt><trkpt lat="32.2704031" lon="-111.4120468"><ele>696.3333333333334</ele><time>2026-04-14T16:59:28.146Z</time></trkpt><trkpt lat="32.2703617" lon="-111.4121571"><ele>696.6666666666666</ele><time>2026-04-14T16:59:29.14Z</time></trkpt><trkpt lat="32.2703232" lon="-111.4122583"><ele>697.0</ele><time>2026-04-14T16:59:30.137Z</time></trkpt><trkpt lat="32.2702932" lon="-111.4123444"><ele>697.3333333333333</ele><time>2026-04-14T16:59:31.13Z</time></trkpt><trkpt lat="32.2702718" lon="-111.4124196"><ele>697.6666666666666</ele><time>2026-04-14T16:59:32.129Z</time></trkpt><trkpt lat="32.2702494" lon="-111.4125244"><ele>698.0</ele><time>2026-04-14T16:59:34.135Z</time></trkpt><trkpt lat="32.2702727" lon="-111.4126291"><ele>698.0</ele><time>2026-04-14T16:59:37.14Z</time></trkpt><trkpt lat="32.2703112" lon="-111.4126972"><ele>698.0</ele><time>2026-04-14T16:59:39.137Z</time></trkpt><trkpt lat="32.270333" lon="-111.4127726"><ele>698.0</ele><time>2026-04-14T16:59:41.131Z</time></trkpt><trkpt lat="32.2703314" lon="-111.4128918"><ele>698.0</ele><time>2026-04-14T16:59:43.132Z</time></trkpt><trkpt lat="32.2703252" lon="-111.4129733"><ele>698.0</ele><time>2026-04-14T16:59:44.136Z</time></trkpt><trkpt lat="32.2703183" lon="-111.4130616"><ele>698.0</ele><time>2026-04-14T16:59:45.131Z</time></trkpt><trkpt lat="32.2703082" lon="-111.4131546"><ele>698.0</ele><time>2026-04-14T16:59:46.14Z</time></trkpt><trkpt lat="32.2702974" lon="-111.4132458"><ele>698.0</ele><time>2026-04-14T16:59:47.133Z</time></trkpt><trkpt lat="32.2702868" lon="-111.4133416"><ele>698.0</ele><time>2026-04-14T16:59:48.133Z</time></trkpt><trkpt lat="32.2702714" lon="-111.413439"><ele>698.0</ele><time>2026-04-14T16:59:49.135Z</time></trkpt><trkpt lat="32.2702553" lon="-111.4135374"><ele>698.0</ele><time>2026-04-14T16:59:50.14Z</time></trkpt><trkpt lat="32.2702441" lon="-111.413636"><ele>698.0</ele><time>2026-04-14T16:59:51.13Z</time></trkpt><trkpt lat="32.2702432" lon="-111.4137388"><ele>698.4</ele><time>2026-04-14T16:59:52.142Z</time></trkpt><trkpt lat="32.2702594" lon="-111.4138361"><ele>698.8</ele><time>2026-04-14T16:59:53.133Z</time></trkpt><trkpt lat="32.2702908" lon="-111.4139333"><ele>699.2</ele><time>2026-04-14T16:59:54.134Z</time></trkpt><trkpt lat="32.270328" lon="-111.4140344"><ele>699.6</ele><time>2026-04-14T16:59:55.14Z</time></trkpt><trkpt lat="32.2703622" lon="-111.4141435"><ele>700.0</ele><time>2026-04-14T16:59:56.139Z</time></trkpt><trkpt lat="32.2703907" lon="-111.4142538"><ele>700.0</ele><time>2026-04-14T16:59:57.131Z</time></trkpt><trkpt lat="32.2704205" lon="-111.414369"><ele>700.0</ele><time>2026-04-14T16:59:58.139Z</time></trkpt><trkpt lat="32.2704509" lon="-111.4144847"><ele>700.0</ele><time>2026-04-14T16:59:59.129Z</time></trkpt><trkpt lat="32.2704816" lon="-111.4146025"><ele>700.0</ele><time>2026-04-14T17:00:00.133Z</time></trkpt><trkpt lat="32.2705094" lon="-111.414721"><ele>700.0</ele><time>2026-04-14T17:00:01.134Z</time></trkpt><trkpt lat="32.270537" lon="-111.4148401"><ele>700.2</ele><time>2026-04-14T17:00:02.133Z</time></trkpt><trkpt lat="32.2705657" lon="-111.4149574"><ele>700.4</ele><time>2026-04-14T17:00:03.14Z</time></trkpt><trkpt lat="32.270593" lon="-111.4150731"><ele>700.5999999999999</ele><time>2026-04-14T17:00:04.145Z</time></trkpt><trkpt lat="32.2706141" lon="-111.415194"><ele>700.8</ele><time>2026-04-14T17:00:05.129Z</time></trkpt><trkpt lat="32.2706319" lon="-111.4153187"><ele>701.0</ele><time>2026-04-14T17:00:06.131Z</time></trkpt><trkpt lat="32.2706484" lon="-111.4154394"><ele>701.4</ele><time>2026-04-14T17:00:07.131Z</time></trkpt><trkpt lat="32.2706702" lon="-111.4155533"><ele>701.8</ele><time>2026-04-14T17:00:08.135Z</time></trkpt><trkpt lat="32.2707004" lon="-111.4156594"><ele>702.1999999999999</ele><time>2026-04-14T17:00:09.149Z</time></trkpt><trkpt lat="32.270739" lon="-111.4157569"><ele>702.5999999999999</ele><time>2026-04-14T17:00:10.131Z</time></trkpt><trkpt lat="32.2707797" lon="-111.4158563"><ele>703.0</ele><time>2026-04-14T17:00:11.135Z</time></trkpt><trkpt lat="32.270813" lon="-111.4159596"><ele>703.0</ele><time>2026-04-14T17:00:12.137Z</time></trkpt><trkpt lat="32.2708346" lon="-111.4160678"><ele>703.0</ele><time>2026-04-14T17:00:13.135Z</time></trkpt><trkpt lat="32.2708462" lon="-111.4161782"><ele>703.0</ele><time>2026-04-14T17:00:14.134Z</time></trkpt><trkpt lat="32.270843" lon="-111.4162931"><ele>703.0</ele><time>2026-04-14T17:00:15.131Z</time></trkpt><trkpt lat="32.2708345" lon="-111.4164097"><ele>703.0</ele><time>2026-04-14T17:00:16.132Z</time></trkpt><trkpt lat="32.2708315" lon="-111.4165338"><ele>703.4</ele><time>2026-04-14T17:00:17.137Z</time></trkpt><trkpt lat="32.2708375" lon="-111.4166567"><ele>703.8</ele><time>2026-04-14T17:00:18.131Z</time></trkpt><trkpt lat="32.2708485" lon="-111.4167823"><ele>704.2</ele><time>2026-04-14T17:00:19.137Z</time></trkpt><trkpt lat="32.2708634" lon="-111.4169042"><ele>704.6</ele><time>2026-04-14T17:00:20.14Z</time></trkpt><trkpt lat="32.2708793" lon="-111.4170214"><ele>705.0</ele><time>2026-04-14T17:00:21.132Z</time></trkpt><trkpt lat="32.2708933" lon="-111.4171363"><ele>705.2</ele><time>2026-04-14T17:00:22.134Z</time></trkpt><trkpt lat="32.2709005" lon="-111.41725"><ele>705.4</ele><time>2026-04-14T17:00:23.132Z</time></trkpt><trkpt lat="32.2709054" lon="-111.4173608"><ele>705.5999999999999</ele><time>2026-04-14T17:00:24.133Z</time></trkpt><trkpt lat="32.270917" lon="-111.4174621"><ele>705.8</ele><time>2026-04-14T17:00:25.136Z</time></trkpt><trkpt lat="32.2709442" lon="-111.4175631"><ele>706.0</ele><time>2026-04-14T17:00:26.131Z</time></trkpt><trkpt lat="32.2709892" lon="-111.4176604"><ele>706.0</ele><time>2026-04-14T17:00:27.137Z</time></trkpt><trkpt lat="32.271047" lon="-111.4177508"><ele>706.0</ele><time>2026-04-14T17:00:28.133Z</time></trkpt><trkpt lat="32.2711043" lon="-111.4178448"><ele>706.0</ele><time>2026-04-14T17:00:29.138Z</time></trkpt><trkpt lat="32.2711517" lon="-111.4179443"><ele>706.0</ele><time>2026-04-14T17:00:30.139Z</time></trkpt><trkpt lat="32.2711879" lon="-111.4180461"><ele>706.0</ele><time>2026-04-14T17:00:31.131Z</time></trkpt><trkpt lat="32.2712209" lon="-111.4181401"><ele>706.1666666666667</ele><time>2026-04-14T17:00:32.127Z</time></trkpt><trkpt lat="32.2712556" lon="-111.4182386"><ele>706.3333333333334</ele><time>2026-04-14T17:00:33.131Z</time></trkpt><trkpt lat="32.2712783" lon="-111.4183406"><ele>706.5</ele><time>2026-04-14T17:00:34.131Z</time></trkpt><trkpt lat="32.2712902" lon="-111.4184418"><ele>706.6666666666666</ele><time>2026-04-14T17:00:35.129Z</time></trkpt><trkpt lat="32.2712942" lon="-111.4185437"><ele>706.8333333333333</ele><time>2026-04-14T17:00:36.131Z</time></trkpt><trkpt lat="32.271283" lon="-111.4186483"><ele>707.0</ele><time>2026-04-14T17:00:37.128Z</time></trkpt><trkpt lat="32.271256" lon="-111.41876"><ele>707.6</ele><time>2026-04-14T17:00:38.151Z</time></trkpt><trkpt lat="32.2712298" lon="-111.4188687"><ele>708.2</ele><time>2026-04-14T17:00:39.133Z</time></trkpt><trkpt lat="32.2712066" lon="-111.4189802"><ele>708.8</ele><time>2026-04-14T17:00:40.13Z</time></trkpt><trkpt lat="32.2711865" lon="-111.4190878"><ele>709.4</ele><time>2026-04-14T17:00:41.132Z</time></trkpt><trkpt lat="32.2711684" lon="-111.4191863"><ele>710.0</ele><time>2026-04-14T17:00:42.13Z</time></trkpt><trkpt lat="32.2711552" lon="-111.4192806"><ele>710.0</ele><time>2026-04-14T17:00:43.145Z</time></trkpt><trkpt lat="32.2711498" lon="-111.4193735"><ele>710.0</ele><time>2026-04-14T17:00:44.129Z</time></trkpt><trkpt lat="32.2711478" lon="-111.41947"><ele>710.0</ele><time>2026-04-14T17:00:45.136Z</time></trkpt><trkpt lat="32.2711493" lon="-111.4195697"><ele>710.0</ele><time>2026-04-14T17:00:46.137Z</time></trkpt><trkpt lat="32.2711563" lon="-111.4196719"><ele>710.0</ele><time>2026-04-14T17:00:47.138Z</time></trkpt><trkpt lat="32.2711729" lon="-111.4197704"><ele>710.0</ele><time>2026-04-14T17:00:48.135Z</time></trkpt><trkpt lat="32.271197" lon="-111.4198718"><ele>710.3333333333333</ele><time>2026-04-14T17:00:49.133Z</time></trkpt><trkpt lat="32.2712253" lon="-111.4199724"><ele>710.6666666666666</ele><time>2026-04-14T17:00:50.132Z</time></trkpt><trkpt lat="32.2712485" lon="-111.420067"><ele>711.0</ele><time>2026-04-14T17:00:51.138Z</time></trkpt><trkpt lat="32.2712665" lon="-111.420157"><ele>711.3333333333334</ele><time>2026-04-14T17:00:52.139Z</time></trkpt><trkpt lat="32.2712796" lon="-111.4202605"><ele>711.6666666666667</ele><time>2026-04-14T17:00:53.137Z</time></trkpt><trkpt lat="32.2712822" lon="-111.4203658"><ele>712.0</ele><time>2026-04-14T17:00:54.136Z</time></trkpt><trkpt lat="32.2712745" lon="-111.4204755"><ele>711.8</ele><time>2026-04-14T17:00:55.137Z</time></trkpt><trkpt lat="32.2712548" lon="-111.4205754"><ele>711.6</ele><time>2026-04-14T17:00:56.138Z</time></trkpt><trkpt lat="32.2712325" lon="-111.4206766"><ele>711.4</ele><time>2026-04-14T17:00:57.135Z</time></trkpt><trkpt lat="32.2712229" lon="-111.4207875"><ele>711.1999999999999</ele><time>2026-04-14T17:00:58.129Z</time></trkpt><trkpt lat="32.271227" lon="-111.4209069"><ele>711.0</ele><time>2026-04-14T17:00:59.131Z</time></trkpt><trkpt lat="32.2712291" lon="-111.421025"><ele>711.0</ele><time>2026-04-14T17:01:00.141Z</time></trkpt><trkpt lat="32.2712277" lon="-111.4211365"><ele>711.0</ele><time>2026-04-14T17:01:01.124Z</time></trkpt><trkpt lat="32.2712357" lon="-111.4212452"><ele>711.0</ele><time>2026-04-14T17:01:02.135Z</time></trkpt><trkpt lat="32.2712571" lon="-111.421346"><ele>711.0</ele><time>2026-04-14T17:01:03.138Z</time></trkpt><trkpt lat="32.2712948" lon="-111.4214367"><ele>711.0</ele><time>2026-04-14T17:01:04.13Z</time></trkpt><trkpt lat="32.271336" lon="-111.4215316"><ele>711.3333333333334</ele><time>2026-04-14T17:01:05.136Z</time></trkpt><trkpt lat="32.2713632" lon="-111.4216309"><ele>711.6666666666666</ele><time>2026-04-14T17:01:06.139Z</time></trkpt><trkpt lat="32.271382" lon="-111.4217414"><ele>712.0</ele><time>2026-04-14T17:01:07.132Z</time></trkpt><trkpt lat="32.2714007" lon="-111.4218505"><ele>712.3333333333333</ele><time>2026-04-14T17:01:08.138Z</time></trkpt><trkpt lat="32.2714254" lon="-111.4219499"><ele>712.6666666666666</ele><time>2026-04-14T17:01:09.135Z</time></trkpt><trkpt lat="32.2714568" lon="-111.4220414"><ele>713.0</ele><time>2026-04-14T17:01:10.138Z</time></trkpt><trkpt lat="32.2714969" lon="-111.4221274"><ele>713.5</ele><time>2026-04-14T17:01:11.133Z</time></trkpt><trkpt lat="32.2715469" lon="-111.422188"><ele>714.0</ele><time>2026-04-14T17:01:12.134Z</time></trkpt><trkpt lat="32.2716051" lon="-111.4222196"><ele>714.5</ele><time>2026-04-14T17:01:13.127Z</time></trkpt><trkpt lat="32.2716744" lon="-111.4222329"><ele>715.0</ele><time>2026-04-14T17:01:14.14Z</time></trkpt><trkpt lat="32.2717516" lon="-111.4222305"><ele>715.5</ele><time>2026-04-14T17:01:15.131Z</time></trkpt><trkpt lat="32.2718352" lon="-111.4222293"><ele>716.0</ele><time>2026-04-14T17:01:16.14Z</time></trkpt><trkpt lat="32.2719206" lon="-111.4222298"><ele>716.0</ele><time>2026-04-14T17:01:17.132Z</time></trkpt><trkpt lat="32.2720099" lon="-111.4222238"><ele>716.0</ele><time>2026-04-14T17:01:18.127Z</time></trkpt><trkpt lat="32.2721008" lon="-111.4222059"><ele>716.0</ele><time>2026-04-14T17:01:19.139Z</time></trkpt><trkpt lat="32.2721932" lon="-111.4221893"><ele>716.0</ele><time>2026-04-14T17:01:20.142Z</time></trkpt><trkpt lat="32.2722871" lon="-111.4221826"><ele>716.0</ele><time>2026-04-14T17:01:21.142Z</time></trkpt><trkpt lat="32.2723835" lon="-111.4221852"><ele>715.8</ele><time>2026-04-14T17:01:22.149Z</time></trkpt><trkpt lat="32.272473" lon="-111.4221796"><ele>715.5999999999999</ele><time>2026-04-14T17:01:23.131Z</time></trkpt><trkpt lat="32.2725648" lon="-111.4221575"><ele>715.4</ele><time>2026-04-14T17:01:24.144Z</time></trkpt><trkpt lat="32.2726555" lon="-111.4221323"><ele>715.2</ele><time>2026-04-14T17:01:25.13Z</time></trkpt><trkpt lat="32.2727466" lon="-111.4221208"><ele>715.0</ele><time>2026-04-14T17:01:26.134Z</time></trkpt><trkpt lat="32.2728422" lon="-111.4221218"><ele>715.0</ele><time>2026-04-14T17:01:27.134Z</time></trkpt><trkpt lat="32.2729448" lon="-111.4221422"><ele>715.0</ele><time>2026-04-14T17:01:28.137Z</time></trkpt><trkpt lat="32.2730468" lon="-111.4221622"><ele>715.0</ele><time>2026-04-14T17:01:29.136Z</time></trkpt><trkpt lat="32.2731421" lon="-111.4221827"><ele>715.0</ele><time>2026-04-14T17:01:30.131Z</time></trkpt><trkpt lat="32.273237" lon="-111.4222065"><ele>715.0</ele><time>2026-04-14T17:01:31.139Z</time></trkpt><trkpt lat="32.27333" lon="-111.4222176"><ele>714.8</ele><time>2026-04-14T17:01:32.135Z</time></trkpt><trkpt lat="32.2734291" lon="-111.4222128"><ele>714.6</ele><time>2026-04-14T17:01:33.151Z</time></trkpt><trkpt lat="32.2735201" lon="-111.4221976"><ele>714.4000000000001</ele><time>2026-04-14T17:01:34.132Z</time></trkpt><trkpt lat="32.2736072" lon="-111.4221877"><ele>714.2</ele><time>2026-04-14T17:01:35.133Z</time></trkpt><trkpt lat="32.2736952" lon="-111.4221917"><ele>714.0</ele><time>2026-04-14T17:01:36.129Z</time></trkpt><trkpt lat="32.2737797" lon="-111.4221929"><ele>714.0</ele><time>2026-04-14T17:01:37.134Z</time></trkpt><trkpt lat="32.2738606" lon="-111.4221819"><ele>714.0</ele><time>2026-04-14T17:01:38.134Z</time></trkpt><trkpt lat="32.2739411" lon="-111.4221676"><ele>714.0</ele><time>2026-04-14T17:01:39.132Z</time></trkpt><trkpt lat="32.2740164" lon="-111.4221587"><ele>714.0</ele><time>2026-04-14T17:01:40.139Z</time></trkpt><trkpt lat="32.2741267" lon="-111.4221687"><ele>714.0</ele><time>2026-04-14T17:01:42.152Z</time></trkpt><trkpt lat="32.2742398" lon="-111.4222236"><ele>713.6666666666666</ele><time>2026-04-14T17:01:44.141Z</time></trkpt><trkpt lat="32.2743019" lon="-111.4222687"><ele>713.3333333333334</ele><time>2026-04-14T17:01:45.131Z</time></trkpt><trkpt lat="32.2743703" lon="-111.422311"><ele>713.0</ele><time>2026-04-14T17:01:46.135Z</time></trkpt><trkpt lat="32.2744388" lon="-111.422342"><ele>712.6666666666667</ele><time>2026-04-14T17:01:47.128Z</time></trkpt><trkpt lat="32.2745243" lon="-111.4223576"><ele>712.3333333333334</ele><time>2026-04-14T17:01:48.136Z</time></trkpt><trkpt lat="32.2746178" lon="-111.4223705"><ele>712.0</ele><time>2026-04-14T17:01:49.133Z</time></trkpt><trkpt lat="32.2747206" lon="-111.4223867"><ele>711.6</ele><time>2026-04-14T17:01:50.141Z</time></trkpt><trkpt lat="32.2748202" lon="-111.4224082"><ele>711.2</ele><time>2026-04-14T17:01:51.128Z</time></trkpt><trkpt lat="32.2749236" lon="-111.4224246"><ele>710.8</ele><time>2026-04-14T17:01:52.131Z</time></trkpt><trkpt lat="32.275025" lon="-111.4224286"><ele>710.4</ele><time>2026-04-14T17:01:53.132Z</time></trkpt><trkpt lat="32.275125" lon="-111.4224249"><ele>710.0</ele><time>2026-04-14T17:01:54.144Z</time></trkpt><trkpt lat="32.2752226" lon="-111.4224171"><ele>710.0</ele><time>2026-04-14T17:01:55.133Z</time></trkpt><trkpt lat="32.2753181" lon="-111.4224096"><ele>710.0</ele><time>2026-04-14T17:01:56.15Z</time></trkpt><trkpt lat="32.2754136" lon="-111.4224012"><ele>710.0</ele><time>2026-04-14T17:01:57.142Z</time></trkpt><trkpt lat="32.2755096" lon="-111.422387"><ele>710.0</ele><time>2026-04-14T17:01:58.156Z</time></trkpt><trkpt lat="32.2756066" lon="-111.4223699"><ele>710.0</ele><time>2026-04-14T17:01:59.135Z</time></trkpt><trkpt lat="32.2757081" lon="-111.4223422"><ele>709.5</ele><time>2026-04-14T17:02:00.138Z</time></trkpt><trkpt lat="32.275798" lon="-111.4223016"><ele>709.0</ele><time>2026-04-14T17:02:01.137Z</time></trkpt><trkpt lat="32.2758813" lon="-111.4222571"><ele>708.5</ele><time>2026-04-14T17:02:02.14Z</time></trkpt><trkpt lat="32.2759642" lon="-111.4222174"><ele>708.0</ele><time>2026-04-14T17:02:03.133Z</time></trkpt><trkpt lat="32.2760459" lon="-111.4221896"><ele>707.5</ele><time>2026-04-14T17:02:04.139Z</time></trkpt><trkpt lat="32.2761312" lon="-111.4221687"><ele>707.0</ele><time>2026-04-14T17:02:05.138Z</time></trkpt><trkpt lat="32.2762199" lon="-111.4221506"><ele>706.8</ele><time>2026-04-14T17:02:06.139Z</time></trkpt><trkpt lat="32.2763024" lon="-111.4221217"><ele>706.6</ele><time>2026-04-14T17:02:07.13Z</time></trkpt><trkpt lat="32.2763859" lon="-111.4220807"><ele>706.4</ele><time>2026-04-14T17:02:08.138Z</time></trkpt><trkpt lat="32.2764691" lon="-111.4220274"><ele>706.1999999999999</ele><time>2026-04-14T17:02:09.138Z</time></trkpt><trkpt lat="32.2765504" lon="-111.4219769"><ele>706.0</ele><time>2026-04-14T17:02:10.137Z</time></trkpt><trkpt lat="32.2766356" lon="-111.4219278"><ele>705.8333333333334</ele><time>2026-04-14T17:02:11.133Z</time></trkpt><trkpt lat="32.2767147" lon="-111.4218694"><ele>705.6666666666667</ele><time>2026-04-14T17:02:12.136Z</time></trkpt><trkpt lat="32.2767781" lon="-111.421802"><ele>705.5</ele><time>2026-04-14T17:02:13.141Z</time></trkpt><trkpt lat="32.2768236" lon="-111.4217274"><ele>705.3333333333334</ele><time>2026-04-14T17:02:14.141Z</time></trkpt><trkpt lat="32.2768642" lon="-111.421647"><ele>705.1666666666666</ele><time>2026-04-14T17:02:15.127Z</time></trkpt><trkpt lat="32.2769166" lon="-111.4215602"><ele>705.0</ele><time>2026-04-14T17:02:16.136Z</time></trkpt><trkpt lat="32.2769796" lon="-111.4215001"><ele>705.0</ele><time>2026-04-14T17:02:17.131Z</time></trkpt><trkpt lat="32.2770789" lon="-111.4214687"><ele>705.0</ele><time>2026-04-14T17:02:18.137Z</time></trkpt><trkpt lat="32.2771973" lon="-111.4214846"><ele>705.0</ele><time>2026-04-14T17:02:19.131Z</time></trkpt><trkpt lat="32.2773011" lon="-111.4214948"><ele>705.0</ele><time>2026-04-14T17:02:20.147Z</time></trkpt><trkpt lat="32.2773968" lon="-111.4215004"><ele>705.0</ele><time>2026-04-14T17:02:21.13Z</time></trkpt><trkpt lat="32.2775024" lon="-111.4214881"><ele>704.4</ele><time>2026-04-14T17:02:22.145Z</time></trkpt><trkpt lat="32.2776042" lon="-111.421463"><ele>703.8</ele><time>2026-04-14T17:02:23.131Z</time></trkpt><trkpt lat="32.2777005" lon="-111.4214205"><ele>703.2</ele><time>2026-04-14T17:02:24.135Z</time></trkpt><trkpt lat="32.2777878" lon="-111.421372"><ele>702.6</ele><time>2026-04-14T17:02:25.127Z</time></trkpt><trkpt lat="32.2778799" lon="-111.4213292"><ele>702.0</ele><time>2026-04-14T17:02:26.141Z</time></trkpt><trkpt lat="32.2779772" lon="-111.4212979"><ele>701.6</ele><time>2026-04-14T17:02:27.137Z</time></trkpt><trkpt lat="32.2780763" lon="-111.4212706"><ele>701.2</ele><time>2026-04-14T17:02:28.137Z</time></trkpt><trkpt lat="32.278171" lon="-111.4212401"><ele>700.8</ele><time>2026-04-14T17:02:29.139Z</time></trkpt><trkpt lat="32.2782655" lon="-111.4212051"><ele>700.4</ele><time>2026-04-14T17:02:30.14Z</time></trkpt><trkpt lat="32.2783603" lon="-111.4211709"><ele>700.0</ele><time>2026-04-14T17:02:31.14Z</time></trkpt><trkpt lat="32.2784652" lon="-111.4211496"><ele>699.8</ele><time>2026-04-14T17:02:32.136Z</time></trkpt><trkpt lat="32.2785738" lon="-111.4211338"><ele>699.6</ele><time>2026-04-14T17:02:33.137Z</time></trkpt><trkpt lat="32.2786749" lon="-111.4211187"><ele>699.4000000000001</ele><time>2026-04-14T17:02:34.137Z</time></trkpt><trkpt lat="32.2787759" lon="-111.4211033"><ele>699.2</ele><time>2026-04-14T17:02:35.136Z</time></trkpt><trkpt lat="32.2788743" lon="-111.4210901"><ele>699.0</ele><time>2026-04-14T17:02:36.138Z</time></trkpt><trkpt lat="32.2789666" lon="-111.4210722"><ele>699.0</ele><time>2026-04-14T17:02:37.137Z</time></trkpt><trkpt lat="32.2790571" lon="-111.4210438"><ele>699.0</ele><time>2026-04-14T17:02:38.135Z</time></trkpt><trkpt lat="32.2791501" lon="-111.4210073"><ele>699.0</ele><time>2026-04-14T17:02:39.136Z</time></trkpt><trkpt lat="32.2792465" lon="-111.420979"><ele>699.0</ele><time>2026-04-14T17:02:40.138Z</time></trkpt><trkpt lat="32.2793456" lon="-111.4209663"><ele>699.0</ele><time>2026-04-14T17:02:41.132Z</time></trkpt><trkpt lat="32.2794497" lon="-111.4209619"><ele>699.0</ele><time>2026-04-14T17:02:42.135Z</time></trkpt><trkpt lat="32.2795504" lon="-111.4209584"><ele>699.0</ele><time>2026-04-14T17:02:43.134Z</time></trkpt><trkpt lat="32.2796514" lon="-111.4209546"><ele>699.0</ele><time>2026-04-14T17:02:44.138Z</time></trkpt><trkpt lat="32.2797472" lon="-111.4209476"><ele>699.0</ele><time>2026-04-14T17:02:45.14Z</time></trkpt><trkpt lat="32.2798402" lon="-111.4209438"><ele>699.0</ele><time>2026-04-14T17:02:46.131Z</time></trkpt><trkpt lat="32.2799345" lon="-111.4209477"><ele>698.6</ele><time>2026-04-14T17:02:47.129Z</time></trkpt><trkpt lat="32.2800283" lon="-111.4209628"><ele>698.2</ele><time>2026-04-14T17:02:48.131Z</time></trkpt><trkpt lat="32.280124" lon="-111.4209817"><ele>697.8000000000001</ele><time>2026-04-14T17:02:49.139Z</time></trkpt><trkpt lat="32.2802205" lon="-111.4210072"><ele>697.4000000000001</ele><time>2026-04-14T17:02:50.142Z</time></trkpt><trkpt lat="32.2803133" lon="-111.4210282"><ele>697.0</ele><time>2026-04-14T17:02:51.139Z</time></trkpt><trkpt lat="32.2804033" lon="-111.4210455"><ele>697.0</ele><time>2026-04-14T17:02:52.14Z</time></trkpt><trkpt lat="32.2804862" lon="-111.4210558"><ele>697.0</ele><time>2026-04-14T17:02:53.132Z</time></trkpt><trkpt lat="32.2805729" lon="-111.4210606"><ele>697.0</ele><time>2026-04-14T17:02:54.137Z</time></trkpt><trkpt lat="32.2806609" lon="-111.4210656"><ele>697.0</ele><time>2026-04-14T17:02:55.141Z</time></trkpt><trkpt lat="32.2807383" lon="-111.421074"><ele>697.0</ele><time>2026-04-14T17:02:56.156Z</time></trkpt><trkpt lat="32.280805" lon="-111.421091"><ele>697.0</ele><time>2026-04-14T17:02:57.135Z</time></trkpt><trkpt lat="32.2808766" lon="-111.4211302"><ele>696.8333333333334</ele><time>2026-04-14T17:02:58.138Z</time></trkpt><trkpt lat="32.2809489" lon="-111.4211644"><ele>696.6666666666667</ele><time>2026-04-14T17:02:59.134Z</time></trkpt><trkpt lat="32.2810088" lon="-111.4211924"><ele>696.5</ele><time>2026-04-14T17:03:00.141Z</time></trkpt><trkpt lat="32.2811154" lon="-111.4212373"><ele>696.3333333333334</ele><time>2026-04-14T17:03:02.134Z</time></trkpt><trkpt lat="32.2811615" lon="-111.4212881"><ele>696.1666666666666</ele><time>2026-04-14T17:03:07.136Z</time></trkpt><trkpt lat="32.281191" lon="-111.4213544"><ele>696.0</ele><time>2026-04-14T17:03:09.137Z</time></trkpt><trkpt lat="32.2812331" lon="-111.4214761"><ele>695.4</ele><time>2026-04-14T17:03:11.138Z</time></trkpt><trkpt lat="32.2812626" lon="-111.4215961"><ele>694.8</ele><time>2026-04-14T17:03:13.129Z</time></trkpt><trkpt lat="32.2813175" lon="-111.4216912"><ele>694.1999999999999</ele><time>2026-04-14T17:03:15.139Z</time></trkpt><trkpt lat="32.2814061" lon="-111.4217587"><ele>693.5999999999999</ele><time>2026-04-14T17:03:17.141Z</time></trkpt><trkpt lat="32.2815251" lon="-111.4218172"><ele>693.0</ele><time>2026-04-14T17:03:19.136Z</time></trkpt><trkpt lat="32.2815934" lon="-111.4218426"><ele>692.7142857142857</ele><time>2026-04-14T17:03:20.131Z</time></trkpt><trkpt lat="32.281668" lon="-111.4218468"><ele>692.4285714285714</ele><time>2026-04-14T17:03:21.135Z</time></trkpt><trkpt lat="32.2817397" lon="-111.4218203"><ele>692.1428571428571</ele><time>2026-04-14T17:03:22.15Z</time></trkpt><trkpt lat="32.2818115" lon="-111.4217955"><ele>691.8571428571429</ele><time>2026-04-14T17:03:23.132Z</time></trkpt><trkpt lat="32.2818844" lon="-111.4217825"><ele>691.5714285714286</ele><time>2026-04-14T17:03:24.135Z</time></trkpt><trkpt lat="32.2819499" lon="-111.4217807"><ele>691.2857142857142</ele><time>2026-04-14T17:03:25.135Z</time></trkpt><trkpt lat="32.2820163" lon="-111.4217877"><ele>691.0</ele><time>2026-04-14T17:03:26.134Z</time></trkpt><trkpt lat="32.2820941" lon="-111.4218142"><ele>691.0</ele><time>2026-04-14T17:03:27.132Z</time></trkpt><trkpt lat="32.282182" lon="-111.4218492"><ele>691.0</ele><time>2026-04-14T17:03:28.129Z</time></trkpt><trkpt lat="32.2822767" lon="-111.4218799"><ele>691.0</ele><time>2026-04-14T17:03:29.134Z</time></trkpt><trkpt lat="32.2823717" lon="-111.4219073"><ele>691.0</ele><time>2026-04-14T17:03:30.14Z</time></trkpt><trkpt lat="32.2824659" lon="-111.4219346"><ele>691.0</ele><time>2026-04-14T17:03:31.134Z</time></trkpt><trkpt lat="32.2825604" lon="-111.4219644"><ele>690.8</ele><time>2026-04-14T17:03:32.131Z</time></trkpt><trkpt lat="32.2826541" lon="-111.4219876"><ele>690.5999999999999</ele><time>2026-04-14T17:03:33.135Z</time></trkpt><trkpt lat="32.2827482" lon="-111.4220009"><ele>690.4</ele><time>2026-04-14T17:03:34.152Z</time></trkpt><trkpt lat="32.282841" lon="-111.4220169"><ele>690.2</ele><time>2026-04-14T17:03:35.132Z</time></trkpt><trkpt lat="32.2829385" lon="-111.4220449"><ele>690.0</ele><time>2026-04-14T17:03:36.14Z</time></trkpt><trkpt lat="32.2830339" lon="-111.4220851"><ele>689.8</ele><time>2026-04-14T17:03:37.133Z</time></trkpt><trkpt lat="32.283135" lon="-111.4221354"><ele>689.6</ele><time>2026-04-14T17:03:38.136Z</time></trkpt><trkpt lat="32.2832303" lon="-111.4221836"><ele>689.4000000000001</ele><time>2026-04-14T17:03:39.134Z</time></trkpt><trkpt lat="32.2833198" lon="-111.4222219"><ele>689.2</ele><time>2026-04-14T17:03:40.138Z</time></trkpt><trkpt lat="32.2834036" lon="-111.4222447"><ele>689.0</ele><time>2026-04-14T17:03:41.132Z</time></trkpt><trkpt lat="32.2834789" lon="-111.4222651"><ele>689.5</ele><time>2026-04-14T17:03:42.135Z</time></trkpt><trkpt lat="32.2835406" lon="-111.4222999"><ele>690.0</ele><time>2026-04-14T17:03:43.132Z</time></trkpt><trkpt lat="32.2835891" lon="-111.422355"><ele>690.5</ele><time>2026-04-14T17:03:44.134Z</time></trkpt><trkpt lat="32.2836305" lon="-111.4224313"><ele>691.0</ele><time>2026-04-14T17:03:45.137Z</time></trkpt><trkpt lat="32.2836772" lon="-111.4225043"><ele>691.5</ele><time>2026-04-14T17:03:46.144Z</time></trkpt><trkpt lat="32.2837433" lon="-111.4225691"><ele>692.0</ele><time>2026-04-14T17:03:47.142Z</time></trkpt><trkpt lat="32.2838252" lon="-111.4226284"><ele>692.0</ele><time>2026-04-14T17:03:48.131Z</time></trkpt><trkpt lat="32.2839131" lon="-111.4226857"><ele>692.0</ele><time>2026-04-14T17:03:49.136Z</time></trkpt><trkpt lat="32.284001" lon="-111.4227512"><ele>692.0</ele><time>2026-04-14T17:03:50.135Z</time></trkpt><trkpt lat="32.284086" lon="-111.4228306"><ele>692.0</ele><time>2026-04-14T17:03:51.138Z</time></trkpt><trkpt lat="32.2841697" lon="-111.4229088"><ele>692.0</ele><time>2026-04-14T17:03:52.135Z</time></trkpt><trkpt lat="32.2842522" lon="-111.422982"><ele>692.4000000000001</ele><time>2026-04-14T17:03:53.137Z</time></trkpt><trkpt lat="32.2843398" lon="-111.423055"><ele>692.8000000000001</ele><time>2026-04-14T17:03:54.145Z</time></trkpt><trkpt lat="32.2844152" lon="-111.4231369"><ele>693.2</ele><time>2026-04-14T17:03:55.138Z</time></trkpt><trkpt lat="32.2844951" lon="-111.4232296"><ele>693.6</ele><time>2026-04-14T17:03:56.155Z</time></trkpt><trkpt lat="32.284543" lon="-111.4233501"><ele>694.0</ele><time>2026-04-14T17:03:57.133Z</time></trkpt><trkpt lat="32.2846077" lon="-111.4234596"><ele>694.0</ele><time>2026-04-14T17:03:58.132Z</time></trkpt><trkpt lat="32.2846714" lon="-111.4235621"><ele>694.0</ele><time>2026-04-14T17:03:59.137Z</time></trkpt><trkpt lat="32.2847315" lon="-111.4236537"><ele>694.0</ele><time>2026-04-14T17:04:00.142Z</time></trkpt><trkpt lat="32.2847943" lon="-111.4237491"><ele>694.0</ele><time>2026-04-14T17:04:01.145Z</time></trkpt><trkpt lat="32.2848603" lon="-111.4238457"><ele>694.0</ele><time>2026-04-14T17:04:02.132Z</time></trkpt><trkpt lat="32.2849275" lon="-111.4239477"><ele>693.8000000000001</ele><time>2026-04-14T17:04:03.135Z</time></trkpt><trkpt lat="32.2849951" lon="-111.4240532"><ele>693.6</ele><time>2026-04-14T17:04:04.138Z</time></trkpt><trkpt lat="32.2850663" lon="-111.4241604"><ele>693.4</ele><time>2026-04-14T17:04:05.132Z</time></trkpt><trkpt lat="32.2851361" lon="-111.4242606"><ele>693.2</ele><time>2026-04-14T17:04:06.16Z</time></trkpt><trkpt lat="32.285207" lon="-111.4243545"><ele>693.0</ele><time>2026-04-14T17:04:07.13Z</time></trkpt><trkpt lat="32.2852833" lon="-111.4244512"><ele>693.0</ele><time>2026-04-14T17:04:08.141Z</time></trkpt><trkpt lat="32.2853551" lon="-111.4245491"><ele>693.0</ele><time>2026-04-14T17:04:09.139Z</time></trkpt><trkpt lat="32.2854232" lon="-111.4246562"><ele>693.0</ele><time>2026-04-14T17:04:10.136Z</time></trkpt><trkpt lat="32.2854768" lon="-111.4247623"><ele>693.0</ele><time>2026-04-14T17:04:11.132Z</time></trkpt><trkpt lat="32.2855157" lon="-111.4248771"><ele>693.0</ele><time>2026-04-14T17:04:12.134Z</time></trkpt><trkpt lat="32.2855349" lon="-111.4249994"><ele>693.0</ele><time>2026-04-14T17:04:13.14Z</time></trkpt><trkpt lat="32.28554" lon="-111.4251112"><ele>693.0</ele><time>2026-04-14T17:04:14.135Z</time></trkpt><trkpt lat="32.2855442" lon="-111.4252154"><ele>693.0</ele><time>2026-04-14T17:04:15.14Z</time></trkpt><trkpt lat="32.2855614" lon="-111.4253128"><ele>693.0</ele><time>2026-04-14T17:04:16.141Z</time></trkpt><trkpt lat="32.2855985" lon="-111.4253981"><ele>693.0</ele><time>2026-04-14T17:04:17.126Z</time></trkpt><trkpt lat="32.285647" lon="-111.4254735"><ele>693.0</ele><time>2026-04-14T17:04:18.13Z</time></trkpt><trkpt lat="32.2857031" lon="-111.4255299"><ele>692.8333333333334</ele><time>2026-04-14T17:04:19.132Z</time></trkpt><trkpt lat="32.2857651" lon="-111.4255714"><ele>692.6666666666666</ele><time>2026-04-14T17:04:20.138Z</time></trkpt><trkpt lat="32.2858356" lon="-111.4256013"><ele>692.5</ele><time>2026-04-14T17:04:21.133Z</time></trkpt><trkpt lat="32.2859205" lon="-111.4256189"><ele>692.3333333333333</ele><time>2026-04-14T17:04:22.148Z</time></trkpt><trkpt lat="32.2860025" lon="-111.4256374"><ele>692.1666666666666</ele><time>2026-04-14T17:04:23.137Z</time></trkpt><trkpt lat="32.2860898" lon="-111.4256603"><ele>692.0</ele><time>2026-04-14T17:04:24.132Z</time></trkpt><trkpt lat="32.2861779" lon="-111.4256914"><ele>692.0</ele><time>2026-04-14T17:04:25.132Z</time></trkpt><trkpt lat="32.2862696" lon="-111.4257289"><ele>692.0</ele><time>2026-04-14T17:04:26.141Z</time></trkpt><trkpt lat="32.2863567" lon="-111.425766"><ele>692.0</ele><time>2026-04-14T17:04:27.128Z</time></trkpt><trkpt lat="32.2864435" lon="-111.4257982"><ele>692.0</ele><time>2026-04-14T17:04:28.134Z</time></trkpt><trkpt lat="32.2865179" lon="-111.4258419"><ele>692.0</ele><time>2026-04-14T17:04:29.134Z</time></trkpt><trkpt lat="32.2865739" lon="-111.4258933"><ele>692.0</ele><time>2026-04-14T17:04:30.131Z</time></trkpt><trkpt lat="32.2866233" lon="-111.4259545"><ele>692.0</ele><time>2026-04-14T17:04:31.13Z</time></trkpt><trkpt lat="32.2866571" lon="-111.4260404"><ele>692.0</ele><time>2026-04-14T17:04:32.13Z</time></trkpt><trkpt lat="32.2866924" lon="-111.4261196"><ele>692.0</ele><time>2026-04-14T17:04:33.129Z</time></trkpt><trkpt lat="32.2867346" lon="-111.4261968"><ele>692.0</ele><time>2026-04-14T17:04:34.132Z</time></trkpt><trkpt lat="32.2867801" lon="-111.4262712"><ele>692.0</ele><time>2026-04-14T17:04:35.146Z</time></trkpt><trkpt lat="32.2868322" lon="-111.4263372"><ele>692.0</ele><time>2026-04-14T17:04:36.14Z</time></trkpt><trkpt lat="32.2869068" lon="-111.4263963"><ele>692.0</ele><time>2026-04-14T17:04:37.133Z</time></trkpt><trkpt lat="32.286985" lon="-111.4264661"><ele>692.0</ele><time>2026-04-14T17:04:38.133Z</time></trkpt><trkpt lat="32.2870564" lon="-111.4265388"><ele>692.0</ele><time>2026-04-14T17:04:39.13Z</time></trkpt><trkpt lat="32.2871268" lon="-111.4266113"><ele>692.0</ele><time>2026-04-14T17:04:40.128Z</time></trkpt><trkpt lat="32.2872115" lon="-111.4266786"><ele>692.0</ele><time>2026-04-14T17:04:41.141Z</time></trkpt><trkpt lat="32.2872973" lon="-111.4267429"><ele>692.0</ele><time>2026-04-14T17:04:42.155Z</time></trkpt><trkpt lat="32.2873843" lon="-111.4268086"><ele>692.0</ele><time>2026-04-14T17:04:43.128Z</time></trkpt><trkpt lat="32.2874718" lon="-111.4268739"><ele>692.0</ele><time>2026-04-14T17:04:44.135Z</time></trkpt><trkpt lat="32.2875521" lon="-111.4269385"><ele>692.0</ele><time>2026-04-14T17:04:45.129Z</time></trkpt><trkpt lat="32.2876225" lon="-111.4270037"><ele>692.0</ele><time>2026-04-14T17:04:46.136Z</time></trkpt><trkpt lat="32.2876832" lon="-111.4270616"><ele>692.0</ele><time>2026-04-14T17:04:47.127Z</time></trkpt><trkpt lat="32.2877364" lon="-111.4271103"><ele>692.0</ele><time>2026-04-14T17:04:48.132Z</time></trkpt><trkpt lat="32.2878228" lon="-111.4271865"><ele>692.0</ele><time>2026-04-14T17:04:50.135Z</time></trkpt><trkpt lat="32.2878812" lon="-111.4272445"><ele>692.0</ele><time>2026-04-14T17:04:52.143Z</time></trkpt><trkpt lat="32.2879371" lon="-111.4273068"><ele>692.0</ele><time>2026-04-14T17:04:54.158Z</time></trkpt><trkpt lat="32.2879799" lon="-111.4273691"><ele>692.0</ele><time>2026-04-14T17:04:55.136Z</time></trkpt><trkpt lat="32.2880283" lon="-111.4274489"><ele>692.0</ele><time>2026-04-14T17:04:56.132Z</time></trkpt><trkpt lat="32.2880779" lon="-111.4275308"><ele>692.0</ele><time>2026-04-14T17:04:57.133Z</time></trkpt><trkpt lat="32.2881343" lon="-111.4276153"><ele>692.0</ele><time>2026-04-14T17:04:58.131Z</time></trkpt><trkpt lat="32.2881977" lon="-111.427702"><ele>692.0</ele><time>2026-04-14T17:04:59.138Z</time></trkpt><trkpt lat="32.2882581" lon="-111.4277894"><ele>692.0</ele><time>2026-04-14T17:05:00.141Z</time></trkpt><trkpt lat="32.2883134" lon="-111.42788"><ele>691.2</ele><time>2026-04-14T17:05:01.133Z</time></trkpt><trkpt lat="32.2883661" lon="-111.4279788"><ele>690.4000000000001</ele><time>2026-04-14T17:05:02.137Z</time></trkpt><trkpt lat="32.2884137" lon="-111.4280805"><ele>689.5999999999999</ele><time>2026-04-14T17:05:03.132Z</time></trkpt><trkpt lat="32.2884587" lon="-111.4281913"><ele>688.8</ele><time>2026-04-14T17:05:04.14Z</time></trkpt><trkpt lat="32.2885025" lon="-111.4283068"><ele>688.0</ele><time>2026-04-14T17:05:05.142Z</time></trkpt><trkpt lat="32.288547" lon="-111.4284209"><ele>688.0</ele><time>2026-04-14T17:05:06.133Z</time></trkpt><trkpt lat="32.288594" lon="-111.4285421"><ele>688.0</ele><time>2026-04-14T17:05:07.138Z</time></trkpt><trkpt lat="32.2886427" lon="-111.4286621"><ele>688.0</ele><time>2026-04-14T17:05:08.134Z</time></trkpt><trkpt lat="32.288693" lon="-111.4287768"><ele>688.0</ele><time>2026-04-14T17:05:09.137Z</time></trkpt><trkpt lat="32.288747" lon="-111.4288921"><ele>688.0</ele><time>2026-04-14T17:05:10.139Z</time></trkpt><trkpt lat="32.2887951" lon="-111.429011"><ele>688.2</ele><time>2026-04-14T17:05:11.132Z</time></trkpt><trkpt lat="32.2888418" lon="-111.4291332"><ele>688.4</ele><time>2026-04-14T17:05:12.153Z</time></trkpt><trkpt lat="32.2888882" lon="-111.4292554"><ele>688.6</ele><time>2026-04-14T17:05:13.129Z</time></trkpt><trkpt lat="32.2889298" lon="-111.4293753"><ele>688.8000000000001</ele><time>2026-04-14T17:05:14.131Z</time></trkpt><trkpt lat="32.2889573" lon="-111.4294903"><ele>689.0</ele><time>2026-04-14T17:05:15.142Z</time></trkpt><trkpt lat="32.2889758" lon="-111.4296007"><ele>689.2</ele><time>2026-04-14T17:05:16.13Z</time></trkpt><trkpt lat="32.2890006" lon="-111.4297198"><ele>689.4000000000001</ele><time>2026-04-14T17:05:17.148Z</time></trkpt><trkpt lat="32.2890347" lon="-111.4298369"><ele>689.6</ele><time>2026-04-14T17:05:18.139Z</time></trkpt><trkpt lat="32.2890777" lon="-111.4299536"><ele>689.8</ele><time>2026-04-14T17:05:19.14Z</time></trkpt><trkpt lat="32.2891248" lon="-111.4300697"><ele>690.0</ele><time>2026-04-14T17:05:20.133Z</time></trkpt><trkpt lat="32.2891713" lon="-111.4301831"><ele>690.0</ele><time>2026-04-14T17:05:21.133Z</time></trkpt><trkpt lat="32.2892101" lon="-111.4302999"><ele>690.0</ele><time>2026-04-14T17:05:22.133Z</time></trkpt><trkpt lat="32.2892446" lon="-111.4304283"><ele>690.0</ele><time>2026-04-14T17:05:23.134Z</time></trkpt><trkpt lat="32.2892834" lon="-111.4305604"><ele>690.0</ele><time>2026-04-14T17:05:24.162Z</time></trkpt><trkpt lat="32.2893286" lon="-111.4306814"><ele>690.4</ele><time>2026-04-14T17:05:25.137Z</time></trkpt><trkpt lat="32.2893793" lon="-111.430801"><ele>690.8</ele><time>2026-04-14T17:05:26.131Z</time></trkpt><trkpt lat="32.2894217" lon="-111.4309178"><ele>691.2</ele><time>2026-04-14T17:05:27.136Z</time></trkpt><trkpt lat="32.2894526" lon="-111.431042"><ele>691.6</ele><time>2026-04-14T17:05:28.138Z</time></trkpt><trkpt lat="32.2894738" lon="-111.4311651"><ele>692.0</ele><time>2026-04-14T17:05:29.13Z</time></trkpt><trkpt lat="32.2894893" lon="-111.431293"><ele>692.0</ele><time>2026-04-14T17:05:30.137Z</time></trkpt><trkpt lat="32.289504" lon="-111.4314129"><ele>692.0</ele><time>2026-04-14T17:05:31.135Z</time></trkpt><trkpt lat="32.2895252" lon="-111.4315284"><ele>692.0</ele><time>2026-04-14T17:05:32.142Z</time></trkpt><trkpt lat="32.2895504" lon="-111.4316353"><ele>692.0</ele><time>2026-04-14T17:05:33.141Z</time></trkpt><trkpt lat="32.2895832" lon="-111.4317328"><ele>692.0</ele><time>2026-04-14T17:05:34.14Z</time></trkpt><trkpt lat="32.2896253" lon="-111.4318282"><ele>692.0</ele><time>2026-04-14T17:05:35.142Z</time></trkpt><trkpt lat="32.2896701" lon="-111.4319194"><ele>692.0</ele><time>2026-04-14T17:05:36.134Z</time></trkpt><trkpt lat="32.2897234" lon="-111.4320132"><ele>692.0</ele><time>2026-04-14T17:05:37.132Z</time></trkpt><trkpt lat="32.2897847" lon="-111.4321088"><ele>692.0</ele><time>2026-04-14T17:05:38.139Z</time></trkpt><trkpt lat="32.2898414" lon="-111.4322007"><ele>692.0</ele><time>2026-04-14T17:05:39.137Z</time></trkpt><trkpt lat="32.2898871" lon="-111.4322923"><ele>691.4000000000001</ele><time>2026-04-14T17:05:40.136Z</time></trkpt><trkpt lat="32.2899271" lon="-111.4324004"><ele>690.8000000000001</ele><time>2026-04-14T17:05:41.139Z</time></trkpt><trkpt lat="32.289971" lon="-111.4325079"><ele>690.2</ele><time>2026-04-14T17:05:42.137Z</time></trkpt><trkpt lat="32.2900151" lon="-111.4326245"><ele>689.6</ele><time>2026-04-14T17:05:43.147Z</time></trkpt><trkpt lat="32.2900606" lon="-111.4327369"><ele>689.0</ele><time>2026-04-14T17:05:44.134Z</time></trkpt><trkpt lat="32.2901144" lon="-111.4328469"><ele>689.0</ele><time>2026-04-14T17:05:45.138Z</time></trkpt><trkpt lat="32.2901674" lon="-111.4329533"><ele>689.0</ele><time>2026-04-14T17:05:46.14Z</time></trkpt><trkpt lat="32.2902158" lon="-111.4330661"><ele>689.0</ele><time>2026-04-14T17:05:47.132Z</time></trkpt><trkpt lat="32.2902597" lon="-111.4331935"><ele>689.0</ele><time>2026-04-14T17:05:48.166Z</time></trkpt><trkpt lat="32.2902916" lon="-111.433311"><ele>689.0</ele><time>2026-04-14T17:05:49.14Z</time></trkpt><trkpt lat="32.290313" lon="-111.4334285"><ele>689.4000000000001</ele><time>2026-04-14T17:05:50.135Z</time></trkpt><trkpt lat="32.2903285" lon="-111.4335384"><ele>689.8</ele><time>2026-04-14T17:05:51.14Z</time></trkpt><trkpt lat="32.2903473" lon="-111.4336569"><ele>690.2</ele><time>2026-04-14T17:05:52.139Z</time></trkpt><trkpt lat="32.2903643" lon="-111.4337722"><ele>690.5999999999999</ele><time>2026-04-14T17:05:53.135Z</time></trkpt><trkpt lat="32.2903825" lon="-111.4338872"><ele>691.0</ele><time>2026-04-14T17:05:54.158Z</time></trkpt><trkpt lat="32.2904038" lon="-111.4339931"><ele>691.1999999999999</ele><time>2026-04-14T17:05:55.131Z</time></trkpt><trkpt lat="32.290438" lon="-111.434102"><ele>691.4</ele><time>2026-04-14T17:05:56.14Z</time></trkpt><trkpt lat="32.2904808" lon="-111.4342064"><ele>691.6</ele><time>2026-04-14T17:05:57.135Z</time></trkpt><trkpt lat="32.2905236" lon="-111.4343121"><ele>691.8</ele><time>2026-04-14T17:05:58.132Z</time></trkpt><trkpt lat="32.2905627" lon="-111.4344227"><ele>692.0</ele><time>2026-04-14T17:05:59.133Z</time></trkpt><trkpt lat="32.2905962" lon="-111.4345358"><ele>692.2</ele><time>2026-04-14T17:06:00.133Z</time></trkpt><trkpt lat="32.2906318" lon="-111.4346433"><ele>692.4000000000001</ele><time>2026-04-14T17:06:01.134Z</time></trkpt><trkpt lat="32.2906653" lon="-111.43475"><ele>692.5999999999999</ele><time>2026-04-14T17:06:02.134Z</time></trkpt><trkpt lat="32.2906911" lon="-111.434864"><ele>692.8</ele><time>2026-04-14T17:06:03.14Z</time></trkpt><trkpt lat="32.2907197" lon="-111.4349756"><ele>693.0</ele><time>2026-04-14T17:06:04.144Z</time></trkpt><trkpt lat="32.290753" lon="-111.4350792"><ele>693.0</ele><time>2026-04-14T17:06:05.134Z</time></trkpt><trkpt lat="32.2907964" lon="-111.4351851"><ele>693.0</ele><time>2026-04-14T17:06:06.13Z</time></trkpt><trkpt lat="32.2908453" lon="-111.4352865"><ele>693.0</ele><time>2026-04-14T17:06:07.13Z</time></trkpt><trkpt lat="32.2908944" lon="-111.435386"><ele>693.0</ele><time>2026-04-14T17:06:08.158Z</time></trkpt><trkpt lat="32.2909313" lon="-111.4354845"><ele>693.0</ele><time>2026-04-14T17:06:09.134Z</time></trkpt><trkpt lat="32.2909571" lon="-111.4355908"><ele>693.0</ele><time>2026-04-14T17:06:10.137Z</time></trkpt><trkpt lat="32.2909872" lon="-111.4356947"><ele>693.0</ele><time>2026-04-14T17:06:11.137Z</time></trkpt><trkpt lat="32.291031" lon="-111.4357929"><ele>693.0</ele><time>2026-04-14T17:06:12.138Z</time></trkpt><trkpt lat="32.2910802" lon="-111.4358831"><ele>693.0</ele><time>2026-04-14T17:06:13.131Z</time></trkpt><trkpt lat="32.2911343" lon="-111.4359777"><ele>693.0</ele><time>2026-04-14T17:06:14.142Z</time></trkpt><trkpt lat="32.2911888" lon="-111.4360728"><ele>693.0</ele><time>2026-04-14T17:06:15.132Z</time></trkpt><trkpt lat="32.2912429" lon="-111.4361716"><ele>693.0</ele><time>2026-04-14T17:06:16.14Z</time></trkpt><trkpt lat="32.2913012" lon="-111.4362708"><ele>693.0</ele><time>2026-04-14T17:06:17.137Z</time></trkpt><trkpt lat="32.2913594" lon="-111.4363675"><ele>693.0</ele><time>2026-04-14T17:06:18.136Z</time></trkpt><trkpt lat="32.2914158" lon="-111.4364505"><ele>693.0</ele><time>2026-04-14T17:06:19.132Z</time></trkpt><trkpt lat="32.2914751" lon="-111.4365154"><ele>693.1666666666666</ele><time>2026-04-14T17:06:20.138Z</time></trkpt><trkpt lat="32.2915402" lon="-111.4365685"><ele>693.3333333333334</ele><time>2026-04-14T17:06:21.132Z</time></trkpt><trkpt lat="32.2916044" lon="-111.4366134"><ele>693.5</ele><time>2026-04-14T17:06:22.138Z</time></trkpt><trkpt lat="32.291666" lon="-111.4366553"><ele>693.6666666666667</ele><time>2026-04-14T17:06:23.138Z</time></trkpt><trkpt lat="32.291745" lon="-111.4367489"><ele>693.8333333333334</ele><time>2026-04-14T17:06:25.149Z</time></trkpt><trkpt lat="32.291776" lon="-111.436853"><ele>694.0</ele><time>2026-04-14T17:06:27.13Z</time></trkpt><trkpt lat="32.2917848" lon="-111.4369275"><ele>694.0</ele><time>2026-04-14T17:07:04.142Z</time></trkpt><trkpt lat="32.2917838" lon="-111.437033"><ele>694.0</ele><time>2026-04-14T17:07:06.132Z</time></trkpt><trkpt lat="32.2918209" lon="-111.4371753"><ele>694.0</ele><time>2026-04-14T17:07:08.14Z</time></trkpt><trkpt lat="32.2918512" lon="-111.4372582"><ele>694.0</ele><time>2026-04-14T17:07:09.131Z</time></trkpt><trkpt lat="32.2918824" lon="-111.4373512"><ele>694.0</ele><time>2026-04-14T17:07:10.132Z</time></trkpt><trkpt lat="32.2919081" lon="-111.4374504"><ele>694.2</ele><time>2026-04-14T17:07:11.135Z</time></trkpt><trkpt lat="32.2919256" lon="-111.4375587"><ele>694.4000000000001</ele><time>2026-04-14T17:07:12.134Z</time></trkpt><trkpt lat="32.2919429" lon="-111.4376759"><ele>694.6</ele><time>2026-04-14T17:07:13.132Z</time></trkpt><trkpt lat="32.2919606" lon="-111.4377867"><ele>694.8</ele><time>2026-04-14T17:07:14.141Z</time></trkpt><trkpt lat="32.2919853" lon="-111.4378942"><ele>695.0</ele><time>2026-04-14T17:07:15.129Z</time></trkpt><trkpt lat="32.2920213" lon="-111.4380014"><ele>695.0</ele><time>2026-04-14T17:07:16.162Z</time></trkpt><trkpt lat="32.292068" lon="-111.4380929"><ele>695.0</ele><time>2026-04-14T17:07:17.134Z</time></trkpt><trkpt lat="32.2921306" lon="-111.4381898"><ele>695.0</ele><time>2026-04-14T17:07:18.145Z</time></trkpt><trkpt lat="32.2921964" lon="-111.4382908"><ele>695.0</ele><time>2026-04-14T17:07:19.133Z</time></trkpt><trkpt lat="32.2922622" lon="-111.4383969"><ele>695.0</ele><time>2026-04-14T17:07:20.137Z</time></trkpt><trkpt lat="32.2923209" lon="-111.4384964"><ele>694.6</ele><time>2026-04-14T17:07:21.132Z</time></trkpt><trkpt lat="32.2923738" lon="-111.4385943"><ele>694.2</ele><time>2026-04-14T17:07:22.142Z</time></trkpt><trkpt lat="32.2924182" lon="-111.4387011"><ele>693.8</ele><time>2026-04-14T17:07:23.135Z</time></trkpt><trkpt lat="32.292451" lon="-111.4388097"><ele>693.4</ele><time>2026-04-14T17:07:24.141Z</time></trkpt><trkpt lat="32.2924807" lon="-111.4389153"><ele>693.0</ele><time>2026-04-14T17:07:25.135Z</time></trkpt><trkpt lat="32.2925159" lon="-111.4390217"><ele>693.8</ele><time>2026-04-14T17:07:26.147Z</time></trkpt><trkpt lat="32.2925536" lon="-111.4391202"><ele>694.5999999999999</ele><time>2026-04-14T17:07:27.136Z</time></trkpt><trkpt lat="32.2925973" lon="-111.4392283"><ele>695.4000000000001</ele><time>2026-04-14T17:07:28.145Z</time></trkpt><trkpt lat="32.2926435" lon="-111.439339"><ele>696.2</ele><time>2026-04-14T17:07:29.133Z</time></trkpt><trkpt lat="32.2926817" lon="-111.4394366"><ele>697.0</ele><time>2026-04-14T17:07:30.128Z</time></trkpt><trkpt lat="32.2927157" lon="-111.4395229"><ele>697.0</ele><time>2026-04-14T17:07:31.137Z</time></trkpt><trkpt lat="32.2927548" lon="-111.4396092"><ele>697.0</ele><time>2026-04-14T17:07:32.137Z</time></trkpt><trkpt lat="32.292793" lon="-111.4396931"><ele>697.0</ele><time>2026-04-14T17:07:33.142Z</time></trkpt><trkpt lat="32.2928304" lon="-111.4397604"><ele>697.0</ele><time>2026-04-14T17:07:34.146Z</time></trkpt><trkpt lat="32.2928812" lon="-111.4398119"><ele>697.0</ele><time>2026-04-14T17:07:35.132Z</time></trkpt><trkpt lat="32.2929598" lon="-111.4398642"><ele>697.0</ele><time>2026-04-14T17:07:36.155Z</time></trkpt><trkpt lat="32.2930254" lon="-111.4399233"><ele>696.8</ele><time>2026-04-14T17:07:37.13Z</time></trkpt><trkpt lat="32.29309" lon="-111.4399972"><ele>696.6</ele><time>2026-04-14T17:07:38.133Z</time></trkpt><trkpt lat="32.2931505" lon="-111.4400841"><ele>696.4</ele><time>2026-04-14T17:07:39.133Z</time></trkpt><trkpt lat="32.2932077" lon="-111.4401914"><ele>696.1999999999999</ele><time>2026-04-14T17:07:40.138Z</time></trkpt><trkpt lat="32.2932669" lon="-111.4403133"><ele>696.0</ele><time>2026-04-14T17:07:41.139Z</time></trkpt><trkpt lat="32.2933171" lon="-111.4404294"><ele>695.8</ele><time>2026-04-14T17:07:42.144Z</time></trkpt><trkpt lat="32.2933569" lon="-111.4405393"><ele>695.5999999999999</ele><time>2026-04-14T17:07:43.142Z</time></trkpt><trkpt lat="32.2933915" lon="-111.4406592"><ele>695.4</ele><time>2026-04-14T17:07:44.148Z</time></trkpt><trkpt lat="32.293428" lon="-111.4407749"><ele>695.2</ele><time>2026-04-14T17:07:45.134Z</time></trkpt><trkpt lat="32.2934762" lon="-111.4408835"><ele>695.0</ele><time>2026-04-14T17:07:46.149Z</time></trkpt><trkpt lat="32.2935366" lon="-111.4409925"><ele>695.0</ele><time>2026-04-14T17:07:47.136Z</time></trkpt><trkpt lat="32.2936027" lon="-111.4411104"><ele>695.0</ele><time>2026-04-14T17:07:48.143Z</time></trkpt><trkpt lat="32.2936681" lon="-111.4412141"><ele>695.0</ele><time>2026-04-14T17:07:49.132Z</time></trkpt><trkpt lat="32.2937372" lon="-111.4413099"><ele>695.0</ele><time>2026-04-14T17:07:50.137Z</time></trkpt><trkpt lat="32.2938013" lon="-111.441403"><ele>695.0</ele><time>2026-04-14T17:07:51.135Z</time></trkpt><trkpt lat="32.2938646" lon="-111.4414962"><ele>694.6666666666666</ele><time>2026-04-14T17:07:52.138Z</time></trkpt><trkpt lat="32.2939248" lon="-111.4415802"><ele>694.3333333333333</ele><time>2026-04-14T17:07:53.135Z</time></trkpt><trkpt lat="32.2939867" lon="-111.4416543"><ele>694.0</ele><time>2026-04-14T17:07:54.13Z</time></trkpt><trkpt lat="32.2940494" lon="-111.4417206"><ele>693.6666666666666</ele><time>2026-04-14T17:07:55.141Z</time></trkpt><trkpt lat="32.2941108" lon="-111.4417742"><ele>693.3333333333334</ele><time>2026-04-14T17:07:56.142Z</time></trkpt><trkpt lat="32.2941839" lon="-111.4418081"><ele>693.0</ele><time>2026-04-14T17:07:57.149Z</time></trkpt><trkpt lat="32.2942687" lon="-111.4418295"><ele>693.0</ele><time>2026-04-14T17:07:58.142Z</time></trkpt><trkpt lat="32.2943748" lon="-111.4418533"><ele>693.0</ele><time>2026-04-14T17:07:59.136Z</time></trkpt><trkpt lat="32.2944795" lon="-111.4418832"><ele>693.0</ele><time>2026-04-14T17:08:00.145Z</time></trkpt><trkpt lat="32.2945782" lon="-111.4419216"><ele>693.0</ele><time>2026-04-14T17:08:01.142Z</time></trkpt><trkpt lat="32.2946628" lon="-111.4419672"><ele>693.0</ele><time>2026-04-14T17:08:02.155Z</time></trkpt><trkpt lat="32.29473" lon="-111.4420213"><ele>693.0</ele><time>2026-04-14T17:08:03.134Z</time></trkpt><trkpt lat="32.2947977" lon="-111.4420917"><ele>693.0</ele><time>2026-04-14T17:08:04.139Z</time></trkpt><trkpt lat="32.2948705" lon="-111.4421722"><ele>693.0</ele><time>2026-04-14T17:08:05.136Z</time></trkpt><trkpt lat="32.2949461" lon="-111.4422595"><ele>693.0</ele><time>2026-04-14T17:08:06.138Z</time></trkpt><trkpt lat="32.2950184" lon="-111.4423638"><ele>693.0</ele><time>2026-04-14T17:08:07.132Z</time></trkpt><trkpt lat="32.2950869" lon="-111.442461"><ele>693.0</ele><time>2026-04-14T17:08:08.136Z</time></trkpt><trkpt lat="32.2951543" lon="-111.4425534"><ele>693.0</ele><time>2026-04-14T17:08:09.135Z</time></trkpt><trkpt lat="32.2952249" lon="-111.4426361"><ele>693.0</ele><time>2026-04-14T17:08:10.13Z</time></trkpt><trkpt lat="32.2953031" lon="-111.4427029"><ele>693.0</ele><time>2026-04-14T17:08:11.141Z</time></trkpt><trkpt lat="32.2953891" lon="-111.4427591"><ele>693.0</ele><time>2026-04-14T17:08:12.134Z</time></trkpt><trkpt lat="32.2954706" lon="-111.4428084"><ele>693.0</ele><time>2026-04-14T17:08:13.132Z</time></trkpt><trkpt lat="32.295546" lon="-111.4428712"><ele>693.0</ele><time>2026-04-14T17:08:14.147Z</time></trkpt><trkpt lat="32.2956162" lon="-111.4429564"><ele>693.0</ele><time>2026-04-14T17:08:15.136Z</time></trkpt><trkpt lat="32.2956837" lon="-111.4430628"><ele>693.0</ele><time>2026-04-14T17:08:16.139Z</time></trkpt><trkpt lat="32.2957573" lon="-111.4431783"><ele>693.0</ele><time>2026-04-14T17:08:17.138Z</time></trkpt><trkpt lat="32.2958317" lon="-111.4432915"><ele>693.0</ele><time>2026-04-14T17:08:18.144Z</time></trkpt><trkpt lat="32.2958989" lon="-111.4433973"><ele>693.0</ele><time>2026-04-14T17:08:19.13Z</time></trkpt><trkpt lat="32.2959663" lon="-111.4435051"><ele>693.0</ele><time>2026-04-14T17:08:20.136Z</time></trkpt><trkpt lat="32.2960317" lon="-111.443607"><ele>693.0</ele><time>2026-04-14T17:08:21.138Z</time></trkpt><trkpt lat="32.2960937" lon="-111.44371"><ele>693.0</ele><time>2026-04-14T17:08:22.137Z</time></trkpt><trkpt lat="32.2961523" lon="-111.4438164"><ele>693.0</ele><time>2026-04-14T17:08:23.137Z</time></trkpt><trkpt lat="32.2962111" lon="-111.4439214"><ele>693.0</ele><time>2026-04-14T17:08:24.14Z</time></trkpt><trkpt lat="32.2962708" lon="-111.4440212"><ele>693.0</ele><time>2026-04-14T17:08:25.136Z</time></trkpt><trkpt lat="32.2963288" lon="-111.4441163"><ele>693.0</ele><time>2026-04-14T17:08:26.139Z</time></trkpt><trkpt lat="32.2963826" lon="-111.4442041"><ele>693.0</ele><time>2026-04-14T17:08:27.131Z</time></trkpt><trkpt lat="32.2964411" lon="-111.444281"><ele>693.0</ele><time>2026-04-14T17:08:28.162Z</time></trkpt><trkpt lat="32.2965043" lon="-111.444351"><ele>693.0</ele><time>2026-04-14T17:08:29.131Z</time></trkpt><trkpt lat="32.2965619" lon="-111.4444202"><ele>693.0</ele><time>2026-04-14T17:08:30.128Z</time></trkpt><trkpt lat="32.2966092" lon="-111.4445055"><ele>693.0</ele><time>2026-04-14T17:08:31.13Z</time></trkpt><trkpt lat="32.2966412" lon="-111.4446043"><ele>693.0</ele><time>2026-04-14T17:08:32.135Z</time></trkpt><trkpt lat="32.2966614" lon="-111.4447141"><ele>693.0</ele><time>2026-04-14T17:08:33.138Z</time></trkpt><trkpt lat="32.2966796" lon="-111.4448334"><ele>693.5</ele><time>2026-04-14T17:08:34.147Z</time></trkpt><trkpt lat="32.2966944" lon="-111.4449552"><ele>694.0</ele><time>2026-04-14T17:08:35.145Z</time></trkpt><trkpt lat="32.2967113" lon="-111.4450759"><ele>694.5</ele><time>2026-04-14T17:08:36.14Z</time></trkpt><trkpt lat="32.2967306" lon="-111.4451802"><ele>695.0</ele><time>2026-04-14T17:08:37.145Z</time></trkpt><trkpt lat="32.2967513" lon="-111.4452696"><ele>695.5</ele><time>2026-04-14T17:08:38.14Z</time></trkpt><trkpt lat="32.2967712" lon="-111.4453463"><ele>696.0</ele><time>2026-04-14T17:08:39.146Z</time></trkpt><trkpt lat="32.2967902" lon="-111.4454215"><ele>696.0</ele><time>2026-04-14T17:08:40.144Z</time></trkpt><trkpt lat="32.2968317" lon="-111.4455449"><ele>696.0</ele><time>2026-04-14T17:08:42.139Z</time></trkpt><trkpt lat="32.2968883" lon="-111.4456517"><ele>696.0</ele><time>2026-04-14T17:08:44.146Z</time></trkpt><trkpt lat="32.2969504" lon="-111.4457424"><ele>696.0</ele><time>2026-04-14T17:08:46.138Z</time></trkpt><trkpt lat="32.2969785" lon="-111.4458119"><ele>696.0</ele><time>2026-04-14T17:08:48.143Z</time></trkpt><trkpt lat="32.2969774" lon="-111.4459132"><ele>696.0</ele><time>2026-04-14T17:08:50.151Z</time></trkpt><trkpt lat="32.2969771" lon="-111.4459917"><ele>696.0</ele><time>2026-04-14T17:08:51.137Z</time></trkpt><trkpt lat="32.296978" lon="-111.4460874"><ele>696.0</ele><time>2026-04-14T17:08:52.162Z</time></trkpt><trkpt lat="32.2969757" lon="-111.446192"><ele>696.0</ele><time>2026-04-14T17:08:53.137Z</time></trkpt><trkpt lat="32.2969723" lon="-111.4463122"><ele>696.0</ele><time>2026-04-14T17:08:54.147Z</time></trkpt><trkpt lat="32.2969711" lon="-111.4464392"><ele>696.0</ele><time>2026-04-14T17:08:55.136Z</time></trkpt><trkpt lat="32.2969682" lon="-111.4465735"><ele>696.0</ele><time>2026-04-14T17:08:56.144Z</time></trkpt><trkpt lat="32.2969591" lon="-111.4467021"><ele>696.0</ele><time>2026-04-14T17:08:57.139Z</time></trkpt><trkpt lat="32.2969504" lon="-111.4468368"><ele>696.0</ele><time>2026-04-14T17:08:58.152Z</time></trkpt><trkpt lat="32.2969441" lon="-111.4469696"><ele>696.0</ele><time>2026-04-14T17:08:59.145Z</time></trkpt><trkpt lat="32.296935" lon="-111.4471015"><ele>696.0</ele><time>2026-04-14T17:09:00.151Z</time></trkpt><trkpt lat="32.2969225" lon="-111.4472332"><ele>696.1999999999999</ele><time>2026-04-14T17:09:01.146Z</time></trkpt><trkpt lat="32.2969107" lon="-111.4473591"><ele>696.4</ele><time>2026-04-14T17:09:02.133Z</time></trkpt><trkpt lat="32.2969013" lon="-111.4474801"><ele>696.6</ele><time>2026-04-14T17:09:03.14Z</time></trkpt><trkpt lat="32.2968933" lon="-111.4476016"><ele>696.8</ele><time>2026-04-14T17:09:04.152Z</time></trkpt><trkpt lat="32.2968841" lon="-111.4477155"><ele>697.0</ele><time>2026-04-14T17:09:05.153Z</time></trkpt><trkpt lat="32.2968684" lon="-111.4478314"><ele>697.0</ele><time>2026-04-14T17:09:06.159Z</time></trkpt><trkpt lat="32.2968581" lon="-111.4479528"><ele>697.0</ele><time>2026-04-14T17:09:07.143Z</time></trkpt><trkpt lat="32.2968561" lon="-111.4480714"><ele>697.0</ele><time>2026-04-14T17:09:08.147Z</time></trkpt><trkpt lat="32.2968528" lon="-111.448196"><ele>697.0</ele><time>2026-04-14T17:09:09.146Z</time></trkpt><trkpt lat="32.2968447" lon="-111.448327"><ele>697.0</ele><time>2026-04-14T17:09:10.153Z</time></trkpt><trkpt lat="32.2968361" lon="-111.4484542"><ele>697.25</ele><time>2026-04-14T17:09:11.147Z</time></trkpt><trkpt lat="32.2968249" lon="-111.4485883"><ele>697.5</ele><time>2026-04-14T17:09:12.17Z</time></trkpt><trkpt lat="32.2968195" lon="-111.4487199"><ele>697.75</ele><time>2026-04-14T17:09:13.138Z</time></trkpt><trkpt lat="32.2968181" lon="-111.4488658"><ele>698.0</ele><time>2026-04-14T17:09:14.149Z</time></trkpt><trkpt lat="32.2968124" lon="-111.4489994"><ele>698.2</ele><time>2026-04-14T17:09:15.146Z</time></trkpt><trkpt lat="32.2968015" lon="-111.4491181"><ele>698.4</ele><time>2026-04-14T17:09:16.148Z</time></trkpt><trkpt lat="32.2967898" lon="-111.4492293"><ele>698.6</ele><time>2026-04-14T17:09:17.144Z</time></trkpt><trkpt lat="32.2967792" lon="-111.449334"><ele>698.8000000000001</ele><time>2026-04-14T17:09:18.153Z</time></trkpt><trkpt lat="32.2967649" lon="-111.4494328"><ele>699.0</ele><time>2026-04-14T17:09:19.153Z</time></trkpt><trkpt lat="32.2967409" lon="-111.4495277"><ele>699.0</ele><time>2026-04-14T17:09:20.147Z</time></trkpt><trkpt lat="32.2967195" lon="-111.4496206"><ele>699.0</ele><time>2026-04-14T17:09:21.142Z</time></trkpt><trkpt lat="32.2967071" lon="-111.4497185"><ele>699.0</ele><time>2026-04-14T17:09:22.161Z</time></trkpt><trkpt lat="32.2967041" lon="-111.4498181"><ele>699.0</ele><time>2026-04-14T17:09:23.143Z</time></trkpt><trkpt lat="32.2966998" lon="-111.4499346"><ele>699.0</ele><time>2026-04-14T17:09:24.171Z</time></trkpt><trkpt lat="32.296688" lon="-111.4500492"><ele>699.0</ele><time>2026-04-14T17:09:25.141Z</time></trkpt><trkpt lat="32.2966784" lon="-111.4501567"><ele>699.3333333333334</ele><time>2026-04-14T17:09:26.167Z</time></trkpt><trkpt lat="32.2966676" lon="-111.4502504"><ele>699.6666666666666</ele><time>2026-04-14T17:09:27.145Z</time></trkpt><trkpt lat="32.2966558" lon="-111.4503398"><ele>700.0</ele><time>2026-04-14T17:09:28.151Z</time></trkpt><trkpt lat="32.296642" lon="-111.4504222"><ele>700.3333333333333</ele><time>2026-04-14T17:09:29.137Z</time></trkpt><trkpt lat="32.2966303" lon="-111.4504987"><ele>700.6666666666666</ele><time>2026-04-14T17:09:30.147Z</time></trkpt><trkpt lat="32.2966152" lon="-111.4506211"><ele>701.0</ele><time>2026-04-14T17:09:32.143Z</time></trkpt><trkpt lat="32.2965963" lon="-111.4507433"><ele>701.0</ele><time>2026-04-14T17:09:34.144Z</time></trkpt><trkpt lat="32.2965858" lon="-111.4508241"><ele>701.0</ele><time>2026-04-14T17:09:35.14Z</time></trkpt><trkpt lat="32.2965766" lon="-111.450921"><ele>701.0</ele><time>2026-04-14T17:09:36.145Z</time></trkpt><trkpt lat="32.2965672" lon="-111.4510249"><ele>701.0</ele><time>2026-04-14T17:09:37.142Z</time></trkpt><trkpt lat="32.2965593" lon="-111.4511329"><ele>701.0</ele><time>2026-04-14T17:09:38.166Z</time></trkpt><trkpt lat="32.29655" lon="-111.451235"><ele>701.0</ele><time>2026-04-14T17:09:39.142Z</time></trkpt><trkpt lat="32.2965402" lon="-111.4513383"><ele>701.0</ele><time>2026-04-14T17:09:40.153Z</time></trkpt><trkpt lat="32.2965292" lon="-111.4514429"><ele>701.0</ele><time>2026-04-14T17:09:41.142Z</time></trkpt><trkpt lat="32.2965139" lon="-111.4515425"><ele>701.0</ele><time>2026-04-14T17:09:42.156Z</time></trkpt><trkpt lat="32.2964971" lon="-111.4516296"><ele>701.0</ele><time>2026-04-14T17:09:43.139Z</time></trkpt><trkpt lat="32.2964892" lon="-111.4517041"><ele>701.0</ele><time>2026-04-14T17:09:44.144Z</time></trkpt><trkpt lat="32.2965226" lon="-111.4518178"><ele>701.0</ele><time>2026-04-14T17:09:46.146Z</time></trkpt><trkpt lat="32.2966049" lon="-111.451916"><ele>701.0</ele><time>2026-04-14T17:09:48.157Z</time></trkpt><trkpt lat="32.296663" lon="-111.4519673"><ele>701.0</ele><time>2026-04-14T17:09:49.145Z</time></trkpt><trkpt lat="32.2967288" lon="-111.452019"><ele>701.0</ele><time>2026-04-14T17:09:50.137Z</time></trkpt><trkpt lat="32.2967875" lon="-111.4520559"><ele>701.0</ele><time>2026-04-14T17:09:51.135Z</time></trkpt><trkpt lat="32.2968595" lon="-111.4520999"><ele>701.0</ele><time>2026-04-14T17:09:52.134Z</time></trkpt><trkpt lat="32.2969302" lon="-111.4521422"><ele>701.0</ele><time>2026-04-14T17:09:53.134Z</time></trkpt><trkpt lat="32.2969947" lon="-111.4521754"><ele>701.0</ele><time>2026-04-14T17:09:54.141Z</time></trkpt><trkpt lat="32.2970748" lon="-111.4521833"><ele>701.1666666666666</ele><time>2026-04-14T17:09:55.137Z</time></trkpt><trkpt lat="32.2971641" lon="-111.4521919"><ele>701.3333333333333</ele><time>2026-04-14T17:09:56.136Z</time></trkpt><trkpt lat="32.2972546" lon="-111.4521979"><ele>701.5</ele><time>2026-04-14T17:09:57.136Z</time></trkpt><trkpt lat="32.2973411" lon="-111.4522029"><ele>701.6666666666666</ele><time>2026-04-14T17:09:58.141Z</time></trkpt><trkpt lat="32.297419" lon="-111.4522121"><ele>701.8333333333334</ele><time>2026-04-14T17:09:59.136Z</time></trkpt><trkpt lat="32.2974852" lon="-111.4522226"><ele>702.0</ele><time>2026-04-14T17:10:00.134Z</time></trkpt><trkpt lat="32.2975917" lon="-111.4522384"><ele>702.3333333333334</ele><time>2026-04-14T17:10:02.138Z</time></trkpt><trkpt lat="32.2976774" lon="-111.4522301"><ele>702.6666666666666</ele><time>2026-04-14T17:10:04.133Z</time></trkpt><trkpt lat="32.2977403" lon="-111.4522508"><ele>703.0</ele><time>2026-04-14T17:10:53.137Z</time></trkpt><trkpt lat="32.2977909" lon="-111.4522973"><ele>703.3333333333333</ele><time>2026-04-14T17:10:55.138Z</time></trkpt><trkpt lat="32.297868" lon="-111.4523223"><ele>703.6666666666666</ele><time>2026-04-14T17:11:13.138Z</time></trkpt><trkpt lat="32.2979514" lon="-111.452321"><ele>704.0</ele><time>2026-04-14T17:11:15.141Z</time></trkpt><trkpt lat="32.2980431" lon="-111.4523144"><ele>705.2</ele><time>2026-04-14T17:11:17.135Z</time></trkpt><trkpt lat="32.2981402" lon="-111.4522832"><ele>706.4000000000001</ele><time>2026-04-14T17:11:19.138Z</time></trkpt><trkpt lat="32.2982176" lon="-111.4522137"><ele>707.6</ele><time>2026-04-14T17:11:21.138Z</time></trkpt><trkpt lat="32.298295" lon="-111.4521359"><ele>708.8</ele><time>2026-04-14T17:11:23.139Z</time></trkpt><trkpt lat="32.2983721" lon="-111.4520632"><ele>710.0</ele><time>2026-04-14T17:11:25.135Z</time></trkpt><trkpt lat="32.2984609" lon="-111.4520279"><ele>710.0</ele><time>2026-04-14T17:11:27.142Z</time></trkpt><trkpt lat="32.2985538" lon="-111.4520545"><ele>710.0</ele><time>2026-04-14T17:11:29.137Z</time></trkpt><trkpt lat="32.2986528" lon="-111.4521087"><ele>710.0</ele><time>2026-04-14T17:11:31.145Z</time></trkpt><trkpt lat="32.2987496" lon="-111.4521153"><ele>710.0</ele><time>2026-04-14T17:11:33.135Z</time></trkpt><trkpt lat="32.2988319" lon="-111.4521111"><ele>710.0</ele><time>2026-04-14T17:11:39.13Z</time></trkpt><trkpt lat="32.2989146" lon="-111.4521183"><ele>710.8333333333333</ele><time>2026-04-14T17:11:42.14Z</time></trkpt><trkpt lat="32.2989859" lon="-111.4521012"><ele>711.6666666666666</ele><time>2026-04-14T17:11:44.138Z</time></trkpt><trkpt lat="32.2990514" lon="-111.4520898"><ele>712.5</ele><time>2026-04-14T17:11:46.148Z</time></trkpt><trkpt lat="32.2991116" lon="-111.4521206"><ele>713.3333333333334</ele><time>2026-04-14T17:11:48.141Z</time></trkpt><trkpt lat="32.2991825" lon="-111.4521526"><ele>714.1666666666667</ele><time>2026-04-14T17:11:50.139Z</time></trkpt><trkpt lat="32.2992754" lon="-111.452137"><ele>715.0</ele><time>2026-04-14T17:11:52.139Z</time></trkpt><trkpt lat="32.299374" lon="-111.4521252"><ele>715.0</ele><time>2026-04-14T17:11:54.145Z</time></trkpt><trkpt lat="32.299472" lon="-111.4521111"><ele>715.0</ele><time>2026-04-14T17:11:56.139Z</time></trkpt><trkpt lat="32.2995767" lon="-111.452068"><ele>715.0</ele><time>2026-04-14T17:11:58.142Z</time></trkpt><trkpt lat="32.2996853" lon="-111.451996"><ele>715.0</ele><time>2026-04-14T17:12:00.153Z</time></trkpt><trkpt lat="32.2997425" lon="-111.4519641"><ele>715.0</ele><time>2026-04-14T17:12:01.151Z</time></trkpt><trkpt lat="32.2998056" lon="-111.4519303"><ele>713.3333333333334</ele><time>2026-04-14T17:12:02.161Z</time></trkpt><trkpt lat="32.2998662" lon="-111.4518943"><ele>711.6666666666667</ele><time>2026-04-14T17:12:03.141Z</time></trkpt><trkpt lat="32.2999837" lon="-111.4518529"><ele>710.0</ele><time>2026-04-14T17:12:05.147Z</time></trkpt><trkpt lat="32.3000542" lon="-111.4518491"><ele>708.3333333333334</ele><time>2026-04-14T17:12:06.147Z</time></trkpt><trkpt lat="32.3001374" lon="-111.4518503"><ele>706.6666666666666</ele><time>2026-04-14T17:12:07.139Z</time></trkpt><trkpt lat="32.3002272" lon="-111.4518535"><ele>705.0</ele><time>2026-04-14T17:12:08.15Z</time></trkpt><trkpt lat="32.3003217" lon="-111.4518547"><ele>705.0</ele><time>2026-04-14T17:12:09.133Z</time></trkpt><trkpt lat="32.3004221" lon="-111.451851"><ele>705.0</ele><time>2026-04-14T17:12:10.148Z</time></trkpt><trkpt lat="32.3005199" lon="-111.4518491"><ele>705.0</ele><time>2026-04-14T17:12:11.149Z</time></trkpt><trkpt lat="32.3006186" lon="-111.4518522"><ele>705.0</ele><time>2026-04-14T17:12:12.148Z</time></trkpt><trkpt lat="32.3007179" lon="-111.451856"><ele>705.0</ele><time>2026-04-14T17:12:13.144Z</time></trkpt><trkpt lat="32.3008146" lon="-111.4518588"><ele>704.0</ele><time>2026-04-14T17:12:14.147Z</time></trkpt><trkpt lat="32.3009073" lon="-111.4518601"><ele>703.0</ele><time>2026-04-14T17:12:15.138Z</time></trkpt><trkpt lat="32.3010034" lon="-111.4518618"><ele>702.0</ele><time>2026-04-14T17:12:16.14Z</time></trkpt><trkpt lat="32.3011028" lon="-111.4518623"><ele>701.0</ele><time>2026-04-14T17:12:17.162Z</time></trkpt><trkpt lat="32.3011945" lon="-111.4518668"><ele>700.0</ele><time>2026-04-14T17:12:18.136Z</time></trkpt><trkpt lat="32.30129" lon="-111.45187"><ele>700.0</ele><time>2026-04-14T17:12:19.148Z</time></trkpt><trkpt lat="32.3013795" lon="-111.4518714"><ele>700.0</ele><time>2026-04-14T17:12:20.146Z</time></trkpt><trkpt lat="32.3014705" lon="-111.4518757"><ele>700.0</ele><time>2026-04-14T17:12:21.144Z</time></trkpt><trkpt lat="32.301564" lon="-111.4518874"><ele>700.0</ele><time>2026-04-14T17:12:22.158Z</time></trkpt><trkpt lat="32.3016542" lon="-111.4518976"><ele>700.0</ele><time>2026-04-14T17:12:23.138Z</time></trkpt><trkpt lat="32.3017431" lon="-111.4519062"><ele>699.6666666666667</ele><time>2026-04-14T17:12:24.157Z</time></trkpt><trkpt lat="32.3018261" lon="-111.4519137"><ele>699.3333333333334</ele><time>2026-04-14T17:12:25.148Z</time></trkpt><trkpt lat="32.3019076" lon="-111.4519158"><ele>699.0</ele><time>2026-04-14T17:12:26.136Z</time></trkpt><trkpt lat="32.3019895" lon="-111.4519142"><ele>698.6666666666666</ele><time>2026-04-14T17:12:27.14Z</time></trkpt><trkpt lat="32.3020673" lon="-111.4519172"><ele>698.3333333333333</ele><time>2026-04-14T17:12:28.14Z</time></trkpt><trkpt lat="32.3021455" lon="-111.4519307"><ele>698.0</ele><time>2026-04-14T17:12:29.139Z</time></trkpt><trkpt lat="32.3022293" lon="-111.4519529"><ele>698.0</ele><time>2026-04-14T17:12:30.138Z</time></trkpt><trkpt lat="32.3023219" lon="-111.4519696"><ele>698.0</ele><time>2026-04-14T17:12:31.162Z</time></trkpt><trkpt lat="32.3024203" lon="-111.4519676"><ele>698.0</ele><time>2026-04-14T17:12:32.149Z</time></trkpt><trkpt lat="32.3025297" lon="-111.4519516"><ele>698.0</ele><time>2026-04-14T17:12:33.155Z</time></trkpt><trkpt lat="32.3026536" lon="-111.4519298"><ele>698.0</ele><time>2026-04-14T17:12:34.154Z</time></trkpt><trkpt lat="32.3027911" lon="-111.4519198"><ele>698.0</ele><time>2026-04-14T17:12:35.167Z</time></trkpt><trkpt lat="32.3029392" lon="-111.4519211"><ele>698.0</ele><time>2026-04-14T17:12:36.146Z</time></trkpt><trkpt lat="32.3030865" lon="-111.4519243"><ele>698.0</ele><time>2026-04-14T17:12:37.141Z</time></trkpt><trkpt lat="32.3032217" lon="-111.4519319"><ele>698.0</ele><time>2026-04-14T17:12:38.147Z</time></trkpt><trkpt lat="32.3033565" lon="-111.4519367"><ele>698.0</ele><time>2026-04-14T17:12:39.163Z</time></trkpt><trkpt lat="32.3034829" lon="-111.4519376"><ele>698.0</ele><time>2026-04-14T17:12:40.15Z</time></trkpt><trkpt lat="32.3036038" lon="-111.4519407"><ele>698.0</ele><time>2026-04-14T17:12:41.16Z</time></trkpt><trkpt lat="32.3037373" lon="-111.4519415"><ele>698.0</ele><time>2026-04-14T17:12:42.157Z</time></trkpt><trkpt lat="32.3038613" lon="-111.4519428"><ele>697.75</ele><time>2026-04-14T17:12:43.165Z</time></trkpt><trkpt lat="32.3039818" lon="-111.4519422"><ele>697.5</ele><time>2026-04-14T17:12:44.161Z</time></trkpt><trkpt lat="32.3041118" lon="-111.4519433"><ele>697.25</ele><time>2026-04-14T17:12:45.155Z</time></trkpt><trkpt lat="32.3042481" lon="-111.4519456"><ele>697.0</ele><time>2026-04-14T17:12:46.158Z</time></trkpt><trkpt lat="32.3043837" lon="-111.4519496"><ele>697.0</ele><time>2026-04-14T17:12:47.156Z</time></trkpt><trkpt lat="32.3045315" lon="-111.4519526"><ele>697.0</ele><time>2026-04-14T17:12:48.16Z</time></trkpt><trkpt lat="32.3046862" lon="-111.4519563"><ele>697.0</ele><time>2026-04-14T17:12:49.163Z</time></trkpt><trkpt lat="32.3048433" lon="-111.4519618"><ele>696.75</ele><time>2026-04-14T17:12:50.144Z</time></trkpt><trkpt lat="32.3049949" lon="-111.4519659"><ele>696.5</ele><time>2026-04-14T17:12:51.148Z</time></trkpt><trkpt lat="32.3051408" lon="-111.4519735"><ele>696.25</ele><time>2026-04-14T17:12:52.157Z</time></trkpt><trkpt lat="32.3052854" lon="-111.4519795"><ele>696.0</ele><time>2026-04-14T17:12:53.15Z</time></trkpt><trkpt lat="32.3054295" lon="-111.4519867"><ele>696.0</ele><time>2026-04-14T17:12:54.155Z</time></trkpt><trkpt lat="32.3055619" lon="-111.4519938"><ele>696.0</ele><time>2026-04-14T17:12:55.15Z</time></trkpt><trkpt lat="32.3056863" lon="-111.4520001"><ele>696.0</ele><time>2026-04-14T17:12:56.146Z</time></trkpt><trkpt lat="32.3058056" lon="-111.4520026"><ele>696.0</ele><time>2026-04-14T17:12:57.151Z</time></trkpt><trkpt lat="32.3059247" lon="-111.4519959"><ele>696.8</ele><time>2026-04-14T17:12:58.14Z</time></trkpt><trkpt lat="32.3060438" lon="-111.4519778"><ele>697.5999999999999</ele><time>2026-04-14T17:12:59.15Z</time></trkpt><trkpt lat="32.3061517" lon="-111.4519443"><ele>698.4</ele><time>2026-04-14T17:13:00.152Z</time></trkpt><trkpt lat="32.306248" lon="-111.4518948"><ele>699.2</ele><time>2026-04-14T17:13:01.148Z</time></trkpt><trkpt lat="32.306327" lon="-111.4518268"><ele>700.0</ele><time>2026-04-14T17:13:02.157Z</time></trkpt><trkpt lat="32.3063884" lon="-111.4517447"><ele>700.0</ele><time>2026-04-14T17:13:03.132Z</time></trkpt><trkpt lat="32.3064427" lon="-111.4516412"><ele>700.0</ele><time>2026-04-14T17:13:04.157Z</time></trkpt><trkpt lat="32.3064881" lon="-111.451524"><ele>700.0</ele><time>2026-04-14T17:13:05.153Z</time></trkpt><trkpt lat="32.3065273" lon="-111.4514037"><ele>700.0</ele><time>2026-04-14T17:13:06.15Z</time></trkpt><trkpt lat="32.3065622" lon="-111.4512924"><ele>700.0</ele><time>2026-04-14T17:13:07.156Z</time></trkpt><trkpt lat="32.3065914" lon="-111.4512052"><ele>699.8</ele><time>2026-04-14T17:13:08.154Z</time></trkpt><trkpt lat="32.3066289" lon="-111.4510964"><ele>699.6</ele><time>2026-04-14T17:13:10.14Z</time></trkpt><trkpt lat="32.3067056" lon="-111.4510661"><ele>699.4000000000001</ele><time>2026-04-14T17:13:15.143Z</time></trkpt><trkpt lat="32.3067764" lon="-111.4511441"><ele>699.2</ele><time>2026-04-14T17:13:18.154Z</time></trkpt><trkpt lat="32.3068289" lon="-111.451218"><ele>699.0</ele><time>2026-04-14T17:13:20.138Z</time></trkpt><trkpt lat="32.3069061" lon="-111.4512825"><ele>699.1666666666666</ele><time>2026-04-14T17:13:22.153Z</time></trkpt><trkpt lat="32.3070165" lon="-111.4513382"><ele>699.3333333333334</ele><time>2026-04-14T17:13:24.151Z</time></trkpt><trkpt lat="32.3070777" lon="-111.4513802"><ele>699.5</ele><time>2026-04-14T17:13:25.152Z</time></trkpt><trkpt lat="32.3071421" lon="-111.4514331"><ele>699.6666666666667</ele><time>2026-04-14T17:13:26.15Z</time></trkpt><trkpt lat="32.3072098" lon="-111.4514853"><ele>699.8333333333334</ele><time>2026-04-14T17:13:27.143Z</time></trkpt><trkpt lat="32.3072879" lon="-111.4515399"><ele>700.0</ele><time>2026-04-14T17:13:28.151Z</time></trkpt><trkpt lat="32.3073691" lon="-111.4515867"><ele>700.4</ele><time>2026-04-14T17:13:29.155Z</time></trkpt><trkpt lat="32.307447" lon="-111.4516341"><ele>700.8</ele><time>2026-04-14T17:13:30.138Z</time></trkpt><trkpt lat="32.3075205" lon="-111.4516972"><ele>701.2</ele><time>2026-04-14T17:13:31.139Z</time></trkpt><trkpt lat="32.3075873" lon="-111.4517795"><ele>701.6</ele><time>2026-04-14T17:13:32.149Z</time></trkpt><trkpt lat="32.3076427" lon="-111.4518641"><ele>702.0</ele><time>2026-04-14T17:13:33.144Z</time></trkpt><trkpt lat="32.3076994" lon="-111.4519477"><ele>702.0</ele><time>2026-04-14T17:13:34.146Z</time></trkpt><trkpt lat="32.3077654" lon="-111.4520223"><ele>702.0</ele><time>2026-04-14T17:13:35.161Z</time></trkpt><trkpt lat="32.3078376" lon="-111.4520947"><ele>702.0</ele><time>2026-04-14T17:13:36.153Z</time></trkpt><trkpt lat="32.30792" lon="-111.4521746"><ele>702.0</ele><time>2026-04-14T17:13:37.154Z</time></trkpt><trkpt lat="32.3080111" lon="-111.4522514"><ele>702.0</ele><time>2026-04-14T17:13:38.144Z</time></trkpt><trkpt lat="32.3080964" lon="-111.4523196"><ele>702.2</ele><time>2026-04-14T17:13:39.159Z</time></trkpt><trkpt lat="32.3081822" lon="-111.4523821"><ele>702.4000000000001</ele><time>2026-04-14T17:13:40.141Z</time></trkpt><trkpt lat="32.3082763" lon="-111.452444"><ele>702.5999999999999</ele><time>2026-04-14T17:13:41.15Z</time></trkpt><trkpt lat="32.3083772" lon="-111.4525036"><ele>702.8</ele><time>2026-04-14T17:13:42.139Z</time></trkpt><trkpt lat="32.3084885" lon="-111.4525724"><ele>703.0</ele><time>2026-04-14T17:13:43.155Z</time></trkpt><trkpt lat="32.3086017" lon="-111.4526487"><ele>703.0</ele><time>2026-04-14T17:13:44.152Z</time></trkpt><trkpt lat="32.3087156" lon="-111.4527258"><ele>703.0</ele><time>2026-04-14T17:13:45.163Z</time></trkpt><trkpt lat="32.3088297" lon="-111.4528"><ele>703.0</ele><time>2026-04-14T17:13:46.147Z</time></trkpt><trkpt lat="32.3089482" lon="-111.4528793"><ele>703.0</ele><time>2026-04-14T17:13:47.16Z</time></trkpt><trkpt lat="32.3090626" lon="-111.4529547"><ele>703.5</ele><time>2026-04-14T17:13:48.144Z</time></trkpt><trkpt lat="32.3091771" lon="-111.4530284"><ele>704.0</ele><time>2026-04-14T17:13:49.134Z</time></trkpt><trkpt lat="32.309289" lon="-111.4531027"><ele>704.5</ele><time>2026-04-14T17:13:50.156Z</time></trkpt><trkpt lat="32.3093964" lon="-111.4531771"><ele>705.0</ele><time>2026-04-14T17:13:51.139Z</time></trkpt><trkpt lat="32.309509" lon="-111.4532603"><ele>705.0</ele><time>2026-04-14T17:13:52.156Z</time></trkpt><trkpt lat="32.3096221" lon="-111.4533476"><ele>705.0</ele><time>2026-04-14T17:13:53.162Z</time></trkpt><trkpt lat="32.3097301" lon="-111.4534388"><ele>705.0</ele><time>2026-04-14T17:13:54.143Z</time></trkpt><trkpt lat="32.3098388" lon="-111.4535339"><ele>705.0</ele><time>2026-04-14T17:13:55.142Z</time></trkpt><trkpt lat="32.3099504" lon="-111.4536324"><ele>705.25</ele><time>2026-04-14T17:13:56.154Z</time></trkpt><trkpt lat="32.3100572" lon="-111.4537293"><ele>705.5</ele><time>2026-04-14T17:13:57.142Z</time></trkpt><trkpt lat="32.3101591" lon="-111.45383"><ele>705.75</ele><time>2026-04-14T17:13:58.152Z</time></trkpt><trkpt lat="32.3102581" lon="-111.4539374"><ele>706.0</ele><time>2026-04-14T17:13:59.139Z</time></trkpt><trkpt lat="32.3103643" lon="-111.4540568"><ele>706.25</ele><time>2026-04-14T17:14:00.146Z</time></trkpt><trkpt lat="32.3104697" lon="-111.4541825"><ele>706.5</ele><time>2026-04-14T17:14:01.139Z</time></trkpt><trkpt lat="32.3105717" lon="-111.454316"><ele>706.75</ele><time>2026-04-14T17:14:02.174Z</time></trkpt><trkpt lat="32.3106578" lon="-111.4544406"><ele>707.0</ele><time>2026-04-14T17:14:03.144Z</time></trkpt><trkpt lat="32.310741" lon="-111.4545611"><ele>708.0</ele><time>2026-04-14T17:14:04.149Z</time></trkpt><trkpt lat="32.3108261" lon="-111.4546696"><ele>709.0</ele><time>2026-04-14T17:14:05.139Z</time></trkpt><trkpt lat="32.3109199" lon="-111.454774"><ele>710.0</ele><time>2026-04-14T17:14:06.153Z</time></trkpt><trkpt lat="32.3110167" lon="-111.4548577"><ele>711.0</ele><time>2026-04-14T17:14:07.134Z</time></trkpt><trkpt lat="32.311117" lon="-111.4549276"><ele>711.0</ele><time>2026-04-14T17:14:08.139Z</time></trkpt><trkpt lat="32.3112219" lon="-111.4549815"><ele>711.0</ele><time>2026-04-14T17:14:09.137Z</time></trkpt><trkpt lat="32.3113342" lon="-111.4550181"><ele>711.0</ele><time>2026-04-14T17:14:10.143Z</time></trkpt><trkpt lat="32.311461" lon="-111.4550456"><ele>711.0</ele><time>2026-04-14T17:14:11.162Z</time></trkpt><trkpt lat="32.3115955" lon="-111.4550781"><ele>710.75</ele><time>2026-04-14T17:14:12.154Z</time></trkpt><trkpt lat="32.3117269" lon="-111.4551174"><ele>710.5</ele><time>2026-04-14T17:14:13.164Z</time></trkpt><trkpt lat="32.3118533" lon="-111.4551542"><ele>710.25</ele><time>2026-04-14T17:14:14.15Z</time></trkpt><trkpt lat="32.3119792" lon="-111.4551886"><ele>710.0</ele><time>2026-04-14T17:14:15.144Z</time></trkpt><trkpt lat="32.3121045" lon="-111.4552272"><ele>710.0</ele><time>2026-04-14T17:14:16.142Z</time></trkpt><trkpt lat="32.3122243" lon="-111.455269"><ele>710.0</ele><time>2026-04-14T17:14:17.157Z</time></trkpt><trkpt lat="32.3123432" lon="-111.455311"><ele>710.0</ele><time>2026-04-14T17:14:18.148Z</time></trkpt><trkpt lat="32.3124599" lon="-111.4553527"><ele>710.0</ele><time>2026-04-14T17:14:19.148Z</time></trkpt><trkpt lat="32.3125715" lon="-111.4553929"><ele>710.25</ele><time>2026-04-14T17:14:20.144Z</time></trkpt><trkpt lat="32.3126819" lon="-111.4554265"><ele>710.5</ele><time>2026-04-14T17:14:21.136Z</time></trkpt><trkpt lat="32.3128004" lon="-111.455454"><ele>710.75</ele><time>2026-04-14T17:14:22.151Z</time></trkpt><trkpt lat="32.3129257" lon="-111.4554804"><ele>711.0</ele><time>2026-04-14T17:14:23.158Z</time></trkpt><trkpt lat="32.313052" lon="-111.4555081"><ele>711.5</ele><time>2026-04-14T17:14:24.14Z</time></trkpt><trkpt lat="32.3131814" lon="-111.455539"><ele>712.0</ele><time>2026-04-14T17:14:25.151Z</time></trkpt><trkpt lat="32.3133021" lon="-111.4555699"><ele>712.5</ele><time>2026-04-14T17:14:26.145Z</time></trkpt><trkpt lat="32.3134145" lon="-111.4555927"><ele>713.0</ele><time>2026-04-14T17:14:27.138Z</time></trkpt><trkpt lat="32.3135251" lon="-111.4556094"><ele>713.0</ele><time>2026-04-14T17:14:28.14Z</time></trkpt><trkpt lat="32.3136296" lon="-111.4556229"><ele>713.0</ele><time>2026-04-14T17:14:29.136Z</time></trkpt><trkpt lat="32.3137275" lon="-111.4556409"><ele>713.0</ele><time>2026-04-14T17:14:30.159Z</time></trkpt><trkpt lat="32.3138091" lon="-111.4556721"><ele>713.0</ele><time>2026-04-14T17:14:31.146Z</time></trkpt><trkpt lat="32.313884" lon="-111.4557213"><ele>713.0</ele><time>2026-04-14T17:14:32.136Z</time></trkpt><trkpt lat="32.313959" lon="-111.4557932"><ele>713.2</ele><time>2026-04-14T17:14:33.14Z</time></trkpt><trkpt lat="32.3140324" lon="-111.4558706"><ele>713.4</ele><time>2026-04-14T17:14:34.142Z</time></trkpt><trkpt lat="32.3141009" lon="-111.4559445"><ele>713.6</ele><time>2026-04-14T17:14:35.152Z</time></trkpt><trkpt lat="32.3141647" lon="-111.4560164"><ele>713.8000000000001</ele><time>2026-04-14T17:14:36.156Z</time></trkpt><trkpt lat="32.3142281" lon="-111.4560963"><ele>714.0</ele><time>2026-04-14T17:14:37.151Z</time></trkpt><trkpt lat="32.3142898" lon="-111.4561786"><ele>714.0</ele><time>2026-04-14T17:14:38.139Z</time></trkpt><trkpt lat="32.3143431" lon="-111.4562633"><ele>714.0</ele><time>2026-04-14T17:14:39.156Z</time></trkpt><trkpt lat="32.3143903" lon="-111.4563486"><ele>714.0</ele><time>2026-04-14T17:14:40.148Z</time></trkpt><trkpt lat="32.3144397" lon="-111.4564276"><ele>714.0</ele><time>2026-04-14T17:14:41.163Z</time></trkpt><trkpt lat="32.3144855" lon="-111.4564897"><ele>714.0</ele><time>2026-04-14T17:14:42.143Z</time></trkpt><trkpt lat="32.3145374" lon="-111.4565379"><ele>714.0</ele><time>2026-04-14T17:14:43.15Z</time></trkpt><trkpt lat="32.3146241" lon="-111.4566459"><ele>714.0</ele><time>2026-04-14T17:14:45.14Z</time></trkpt><trkpt lat="32.3146482" lon="-111.4567164"><ele>714.0</ele><time>2026-04-14T17:14:46.147Z</time></trkpt><trkpt lat="32.314644" lon="-111.4568011"><ele>714.0</ele><time>2026-04-14T17:14:47.14Z</time></trkpt><trkpt lat="32.3146524" lon="-111.4569232"><ele>714.0</ele><time>2026-04-14T17:14:49.137Z</time></trkpt><trkpt lat="32.3147003" lon="-111.4570587"><ele>714.0</ele><time>2026-04-14T17:14:51.15Z</time></trkpt><trkpt lat="32.3147449" lon="-111.4571323"><ele>714.0</ele><time>2026-04-14T17:14:52.157Z</time></trkpt><trkpt lat="32.3147794" lon="-111.4572198"><ele>714.6</ele><time>2026-04-14T17:14:53.138Z</time></trkpt><trkpt lat="32.3148134" lon="-111.457312"><ele>715.2</ele><time>2026-04-14T17:14:54.141Z</time></trkpt><trkpt lat="32.3148527" lon="-111.4574059"><ele>715.8000000000001</ele><time>2026-04-14T17:14:55.138Z</time></trkpt><trkpt lat="32.3148986" lon="-111.4575008"><ele>716.4000000000001</ele><time>2026-04-14T17:14:56.156Z</time></trkpt><trkpt lat="32.3149459" lon="-111.457601"><ele>717.0</ele><time>2026-04-14T17:14:57.146Z</time></trkpt><trkpt lat="32.3149931" lon="-111.4577102"><ele>717.0</ele><time>2026-04-14T17:14:58.144Z</time></trkpt><trkpt lat="32.3150404" lon="-111.4578217"><ele>717.0</ele><time>2026-04-14T17:14:59.142Z</time></trkpt><trkpt lat="32.3150865" lon="-111.457925"><ele>717.0</ele><time>2026-04-14T17:15:00.143Z</time></trkpt><trkpt lat="32.315133" lon="-111.4580206"><ele>717.0</ele><time>2026-04-14T17:15:01.138Z</time></trkpt><trkpt lat="32.3151815" lon="-111.4581138"><ele>717.0</ele><time>2026-04-14T17:15:02.133Z</time></trkpt><trkpt lat="32.3152348" lon="-111.4581997"><ele>717.1666666666666</ele><time>2026-04-14T17:15:03.147Z</time></trkpt><trkpt lat="32.3152965" lon="-111.4582794"><ele>717.3333333333334</ele><time>2026-04-14T17:15:04.154Z</time></trkpt><trkpt lat="32.3153601" lon="-111.4583468"><ele>717.5</ele><time>2026-04-14T17:15:05.147Z</time></trkpt><trkpt lat="32.3154305" lon="-111.4584035"><ele>717.6666666666667</ele><time>2026-04-14T17:15:06.156Z</time></trkpt><trkpt lat="32.3155116" lon="-111.4584418"><ele>717.8333333333334</ele><time>2026-04-14T17:15:07.146Z</time></trkpt><trkpt lat="32.3156025" lon="-111.4584782"><ele>718.0</ele><time>2026-04-14T17:15:08.138Z</time></trkpt><trkpt lat="32.3156941" lon="-111.4585155"><ele>718.6666666666667</ele><time>2026-04-14T17:15:09.142Z</time></trkpt><trkpt lat="32.3157795" lon="-111.4585506"><ele>719.3333333333334</ele><time>2026-04-14T17:15:10.139Z</time></trkpt><trkpt lat="32.3158642" lon="-111.4585824"><ele>720.0</ele><time>2026-04-14T17:15:11.142Z</time></trkpt><trkpt lat="32.3159432" lon="-111.45861"><ele>720.6666666666666</ele><time>2026-04-14T17:15:12.15Z</time></trkpt><trkpt lat="32.3160164" lon="-111.4586412"><ele>721.3333333333333</ele><time>2026-04-14T17:15:13.147Z</time></trkpt><trkpt lat="32.3160864" lon="-111.4586651"><ele>722.0</ele><time>2026-04-14T17:15:14.154Z</time></trkpt><trkpt lat="32.3161503" lon="-111.4586634"><ele>722.0</ele><time>2026-04-14T17:15:15.141Z</time></trkpt><trkpt lat="32.3162241" lon="-111.4586482"><ele>722.0</ele><time>2026-04-14T17:15:16.145Z</time></trkpt><trkpt lat="32.3162935" lon="-111.4586432"><ele>722.0</ele><time>2026-04-14T17:15:17.149Z</time></trkpt><trkpt lat="32.3163678" lon="-111.4586469"><ele>722.0</ele><time>2026-04-14T17:15:18.149Z</time></trkpt><trkpt lat="32.3164966" lon="-111.458664"><ele>722.0</ele><time>2026-04-14T17:15:20.153Z</time></trkpt><trkpt lat="32.3165792" lon="-111.4586745"><ele>722.0</ele><time>2026-04-14T17:15:21.138Z</time></trkpt><trkpt lat="32.316654" lon="-111.458688"><ele>723.1666666666666</ele><time>2026-04-14T17:15:22.147Z</time></trkpt><trkpt lat="32.3167363" lon="-111.4587029"><ele>724.3333333333333</ele><time>2026-04-14T17:15:23.148Z</time></trkpt><trkpt lat="32.3168233" lon="-111.4587145"><ele>725.5</ele><time>2026-04-14T17:15:24.141Z</time></trkpt><trkpt lat="32.3169029" lon="-111.4587295"><ele>726.6666666666666</ele><time>2026-04-14T17:15:25.151Z</time></trkpt><trkpt lat="32.3169825" lon="-111.4587427"><ele>727.8333333333334</ele><time>2026-04-14T17:15:26.141Z</time></trkpt><trkpt lat="32.3170656" lon="-111.4587635"><ele>729.0</ele><time>2026-04-14T17:15:27.147Z</time></trkpt><trkpt lat="32.3171461" lon="-111.4587803"><ele>728.8333333333334</ele><time>2026-04-14T17:15:28.145Z</time></trkpt><trkpt lat="32.317218" lon="-111.45881"><ele>728.6666666666666</ele><time>2026-04-14T17:15:29.141Z</time></trkpt><trkpt lat="32.3172952" lon="-111.4588543"><ele>728.5</ele><time>2026-04-14T17:15:30.157Z</time></trkpt><trkpt lat="32.3173719" lon="-111.4589068"><ele>728.3333333333333</ele><time>2026-04-14T17:15:31.161Z</time></trkpt><trkpt lat="32.3174498" lon="-111.4589658"><ele>728.1666666666666</ele><time>2026-04-14T17:15:32.14Z</time></trkpt><trkpt lat="32.3175302" lon="-111.4590298"><ele>728.0</ele><time>2026-04-14T17:15:33.151Z</time></trkpt><trkpt lat="32.3176147" lon="-111.459096"><ele>729.2</ele><time>2026-04-14T17:15:34.142Z</time></trkpt><trkpt lat="32.317701" lon="-111.4591653"><ele>730.4</ele><time>2026-04-14T17:15:35.161Z</time></trkpt><trkpt lat="32.3177799" lon="-111.4592255"><ele>731.6</ele><time>2026-04-14T17:15:36.146Z</time></trkpt><trkpt lat="32.3178494" lon="-111.4592865"><ele>732.8000000000001</ele><time>2026-04-14T17:15:37.142Z</time></trkpt><trkpt lat="32.3179242" lon="-111.4593542"><ele>734.0</ele><time>2026-04-14T17:15:38.147Z</time></trkpt><trkpt lat="32.3179962" lon="-111.4594097"><ele>734.0</ele><time>2026-04-14T17:15:39.153Z</time></trkpt><trkpt lat="32.3180623" lon="-111.4594561"><ele>734.0</ele><time>2026-04-14T17:15:40.144Z</time></trkpt><trkpt lat="32.3181267" lon="-111.4595084"><ele>734.0</ele><time>2026-04-14T17:15:41.139Z</time></trkpt><trkpt lat="32.3181809" lon="-111.4595667"><ele>734.0</ele><time>2026-04-14T17:15:42.14Z</time></trkpt><trkpt lat="32.318234" lon="-111.4596302"><ele>734.0</ele><time>2026-04-14T17:15:43.161Z</time></trkpt><trkpt lat="32.3182838" lon="-111.4596798"><ele>734.0</ele><time>2026-04-14T17:15:44.147Z</time></trkpt><trkpt lat="32.3183792" lon="-111.4597492"><ele>735.6</ele><time>2026-04-14T17:15:46.153Z</time></trkpt><trkpt lat="32.3184371" lon="-111.4597871"><ele>737.2</ele><time>2026-04-14T17:15:47.158Z</time></trkpt><trkpt lat="32.3185457" lon="-111.4598409"><ele>738.8000000000001</ele><time>2026-04-14T17:15:49.144Z</time></trkpt><trkpt lat="32.3186456" lon="-111.4598824"><ele>740.4000000000001</ele><time>2026-04-14T17:15:51.152Z</time></trkpt><trkpt lat="32.3187642" lon="-111.459976"><ele>742.0</ele><time>2026-04-14T17:15:53.159Z</time></trkpt><trkpt lat="32.3188354" lon="-111.460031"><ele>742.3333333333334</ele><time>2026-04-14T17:15:54.153Z</time></trkpt><trkpt lat="32.3189119" lon="-111.4600836"><ele>742.6666666666667</ele><time>2026-04-14T17:15:55.174Z</time></trkpt><trkpt lat="32.3189901" lon="-111.460129"><ele>743.0</ele><time>2026-04-14T17:15:56.154Z</time></trkpt><trkpt lat="32.3190715" lon="-111.4601667"><ele>743.3333333333334</ele><time>2026-04-14T17:15:57.165Z</time></trkpt><trkpt lat="32.3191413" lon="-111.4601997"><ele>743.6666666666666</ele><time>2026-04-14T17:15:58.153Z</time></trkpt><trkpt lat="32.3192041" lon="-111.4602342"><ele>744.0</ele><time>2026-04-14T17:15:59.147Z</time></trkpt><trkpt lat="32.3192654" lon="-111.4602627"><ele>744.0</ele><time>2026-04-14T17:16:00.168Z</time></trkpt><trkpt lat="32.3193361" lon="-111.460288"><ele>744.0</ele><time>2026-04-14T17:16:01.158Z</time></trkpt><trkpt lat="32.3194054" lon="-111.4603124"><ele>744.0</ele><time>2026-04-14T17:16:02.159Z</time></trkpt><trkpt lat="32.3194786" lon="-111.4603332"><ele>744.0</ele><time>2026-04-14T17:16:03.142Z</time></trkpt><trkpt lat="32.3195528" lon="-111.4603524"><ele>744.0</ele><time>2026-04-14T17:16:04.155Z</time></trkpt><trkpt lat="32.3196647" lon="-111.4603795"><ele>744.0</ele><time>2026-04-14T17:16:06.182Z</time></trkpt><trkpt lat="32.3197878" lon="-111.46042"><ele>744.8333333333334</ele><time>2026-04-14T17:16:08.136Z</time></trkpt><trkpt lat="32.3198565" lon="-111.460452"><ele>745.6666666666666</ele><time>2026-04-14T17:16:09.162Z</time></trkpt><trkpt lat="32.3199573" lon="-111.4605004"><ele>746.5</ele><time>2026-04-14T17:16:11.15Z</time></trkpt><trkpt lat="32.3200482" lon="-111.4604765"><ele>747.3333333333333</ele><time>2026-04-14T17:18:22.09Z</time></trkpt><trkpt lat="32.3201365" lon="-111.460468"><ele>748.1666666666666</ele><time>2026-04-14T17:18:24.095Z</time></trkpt><trkpt lat="32.3202194" lon="-111.4604575"><ele>749.0</ele><time>2026-04-14T17:18:26.011Z</time></trkpt><trkpt lat="32.3203088" lon="-111.4604412"><ele>749.4000000000001</ele><time>2026-04-14T17:18:27.091Z</time></trkpt><trkpt lat="32.3203705" lon="-111.4604155"><ele>749.8</ele><time>2026-04-14T17:18:28.09Z</time></trkpt><trkpt lat="32.3204858" lon="-111.4603618"><ele>750.2</ele><time>2026-04-14T17:18:30.109Z</time></trkpt><trkpt lat="32.3205923" lon="-111.460305"><ele>750.5999999999999</ele><time>2026-04-14T17:18:32.083Z</time></trkpt><trkpt lat="32.3206908" lon="-111.4602508"><ele>751.0</ele><time>2026-04-14T17:18:34.108Z</time></trkpt><trkpt lat="32.3207875" lon="-111.4601787"><ele>749.8333333333334</ele><time>2026-04-14T17:18:36.094Z</time></trkpt><trkpt lat="32.320855" lon="-111.4601017"><ele>748.6666666666667</ele><time>2026-04-14T17:18:38.1Z</time></trkpt><trkpt lat="32.3209131" lon="-111.4600269"><ele>747.5</ele><time>2026-04-14T17:18:40.129Z</time></trkpt><trkpt lat="32.320974" lon="-111.4599336"><ele>746.3333333333334</ele><time>2026-04-14T17:18:42.092Z</time></trkpt><trkpt lat="32.3210116" lon="-111.4598484"><ele>745.1666666666666</ele><time>2026-04-14T17:18:44.104Z</time></trkpt><trkpt lat="32.3210457" lon="-111.4597778"><ele>744.0</ele><time>2026-04-14T17:18:46.091Z</time></trkpt><trkpt lat="32.321101" lon="-111.4596907"><ele>743.8000000000001</ele><time>2026-04-14T17:18:48.109Z</time></trkpt><trkpt lat="32.3211547" lon="-111.459594"><ele>743.6</ele><time>2026-04-14T17:18:50.097Z</time></trkpt><trkpt lat="32.3212061" lon="-111.4594755"><ele>743.4</ele><time>2026-04-14T17:18:52.104Z</time></trkpt><trkpt lat="32.3212372" lon="-111.4593667"><ele>743.2</ele><time>2026-04-14T17:18:54.113Z</time></trkpt><trkpt lat="32.3212364" lon="-111.4592559"><ele>743.0</ele><time>2026-04-14T17:18:56.104Z</time></trkpt><trkpt lat="32.3212319" lon="-111.4591132"><ele>743.0</ele><time>2026-04-14T17:18:58.093Z</time></trkpt><trkpt lat="32.3212652" lon="-111.4589996"><ele>743.0</ele><time>2026-04-14T17:19:00.099Z</time></trkpt><trkpt lat="32.3212927" lon="-111.4589246"><ele>743.0</ele><time>2026-04-14T17:19:01.099Z</time></trkpt><trkpt lat="32.3213486" lon="-111.4587951"><ele>743.0</ele><time>2026-04-14T17:19:03.089Z</time></trkpt><trkpt lat="32.321425" lon="-111.4586833"><ele>743.0</ele><time>2026-04-14T17:19:05.104Z</time></trkpt><trkpt lat="32.3214882" lon="-111.4585817"><ele>741.8</ele><time>2026-04-14T17:19:07.086Z</time></trkpt><trkpt lat="32.3214919" lon="-111.4584742"><ele>740.5999999999999</ele><time>2026-04-14T17:19:09.123Z</time></trkpt><trkpt lat="32.3214596" lon="-111.4583449"><ele>739.4000000000001</ele><time>2026-04-14T17:19:11.109Z</time></trkpt><trkpt lat="32.3214273" lon="-111.4582689"><ele>738.2</ele><time>2026-04-14T17:19:12.088Z</time></trkpt><trkpt lat="32.3213972" lon="-111.4581867"><ele>737.0</ele><time>2026-04-14T17:19:13.102Z</time></trkpt><trkpt lat="32.3213699" lon="-111.4580721"><ele>736.6</ele><time>2026-04-14T17:19:15.082Z</time></trkpt><trkpt lat="32.3213761" lon="-111.4579495"><ele>736.2</ele><time>2026-04-14T17:19:17.099Z</time></trkpt><trkpt lat="32.321392" lon="-111.4578058"><ele>735.8</ele><time>2026-04-14T17:19:19.088Z</time></trkpt><trkpt lat="32.3214021" lon="-111.4577108"><ele>735.4</ele><time>2026-04-14T17:19:20.091Z</time></trkpt><trkpt lat="32.3214105" lon="-111.4575978"><ele>735.0</ele><time>2026-04-14T17:19:21.086Z</time></trkpt><trkpt lat="32.3214211" lon="-111.4575042"><ele>734.4285714285714</ele><time>2026-04-14T17:19:22.106Z</time></trkpt><trkpt lat="32.3214376" lon="-111.4574142"><ele>733.8571428571429</ele><time>2026-04-14T17:19:23.109Z</time></trkpt><trkpt lat="32.3214585" lon="-111.457337"><ele>733.2857142857142</ele><time>2026-04-14T17:19:24.097Z</time></trkpt><trkpt lat="32.3214864" lon="-111.4572518"><ele>732.7142857142858</ele><time>2026-04-14T17:19:25.094Z</time></trkpt><trkpt lat="32.3215049" lon="-111.4571662"><ele>732.1428571428571</ele><time>2026-04-14T17:19:26.099Z</time></trkpt><trkpt lat="32.3215049" lon="-111.4570894"><ele>731.5714285714286</ele><time>2026-04-14T17:19:27.097Z</time></trkpt><trkpt lat="32.3214891" lon="-111.457001"><ele>731.0</ele><time>2026-04-14T17:19:28.088Z</time></trkpt><trkpt lat="32.3214695" lon="-111.4569206"><ele>730.5</ele><time>2026-04-14T17:19:29.103Z</time></trkpt><trkpt lat="32.3214609" lon="-111.4568362"><ele>730.0</ele><time>2026-04-14T17:19:30.095Z</time></trkpt><trkpt lat="32.3214569" lon="-111.4567475"><ele>729.5</ele><time>2026-04-14T17:19:31.095Z</time></trkpt><trkpt lat="32.3214667" lon="-111.4566602"><ele>729.0</ele><time>2026-04-14T17:19:32.095Z</time></trkpt><trkpt lat="32.3214943" lon="-111.4565604"><ele>728.5</ele><time>2026-04-14T17:19:33.104Z</time></trkpt><trkpt lat="32.3215204" lon="-111.4564437"><ele>728.0</ele><time>2026-04-14T17:19:34.108Z</time></trkpt><trkpt lat="32.3215357" lon="-111.4563332"><ele>727.6666666666666</ele><time>2026-04-14T17:19:35.099Z</time></trkpt><trkpt lat="32.321546" lon="-111.4562349"><ele>727.3333333333333</ele><time>2026-04-14T17:19:36.096Z</time></trkpt><trkpt lat="32.3215498" lon="-111.4561444"><ele>727.0</ele><time>2026-04-14T17:19:37.096Z</time></trkpt><trkpt lat="32.3215499" lon="-111.4560496"><ele>726.6666666666666</ele><time>2026-04-14T17:19:38.095Z</time></trkpt><trkpt lat="32.321554" lon="-111.4559519"><ele>726.3333333333334</ele><time>2026-04-14T17:19:39.111Z</time></trkpt><trkpt lat="32.3215674" lon="-111.455854"><ele>726.0</ele><time>2026-04-14T17:19:40.09Z</time></trkpt><trkpt lat="32.3215889" lon="-111.4557585"><ele>726.0</ele><time>2026-04-14T17:19:41.099Z</time></trkpt><trkpt lat="32.3216178" lon="-111.4556855"><ele>726.0</ele><time>2026-04-14T17:19:42.101Z</time></trkpt><trkpt lat="32.3216556" lon="-111.455624"><ele>726.0</ele><time>2026-04-14T17:19:43.1Z</time></trkpt><trkpt lat="32.3217134" lon="-111.4555722"><ele>726.0</ele><time>2026-04-14T17:19:44.085Z</time></trkpt><trkpt lat="32.3217763" lon="-111.4555399"><ele>726.0</ele><time>2026-04-14T17:19:45.088Z</time></trkpt><trkpt lat="32.3219003" lon="-111.4554895"><ele>726.0</ele><time>2026-04-14T17:19:47.09Z</time></trkpt><trkpt lat="32.3219884" lon="-111.4554543"><ele>725.5999999999999</ele><time>2026-04-14T17:19:48.107Z</time></trkpt><trkpt lat="32.3220819" lon="-111.4553984"><ele>725.2</ele><time>2026-04-14T17:19:49.1Z</time></trkpt><trkpt lat="32.3221653" lon="-111.4553376"><ele>724.8</ele><time>2026-04-14T17:19:50.089Z</time></trkpt><trkpt lat="32.3222503" lon="-111.4552705"><ele>724.4000000000001</ele><time>2026-04-14T17:19:51.112Z</time></trkpt><trkpt lat="32.3223311" lon="-111.4551995"><ele>724.0</ele><time>2026-04-14T17:19:52.096Z</time></trkpt><trkpt lat="32.3224092" lon="-111.4551302"><ele>723.6</ele><time>2026-04-14T17:19:53.083Z</time></trkpt><trkpt lat="32.3224811" lon="-111.4550641"><ele>723.2</ele><time>2026-04-14T17:19:54.099Z</time></trkpt><trkpt lat="32.3225492" lon="-111.4549972"><ele>722.8000000000001</ele><time>2026-04-14T17:19:55.125Z</time></trkpt><trkpt lat="32.3226749" lon="-111.454841"><ele>722.4000000000001</ele><time>2026-04-14T17:19:57.107Z</time></trkpt><trkpt lat="32.3227235" lon="-111.4547577"><ele>722.0</ele><time>2026-04-14T17:19:58.1Z</time></trkpt><trkpt lat="32.3227725" lon="-111.4546818"><ele>721.4000000000001</ele><time>2026-04-14T17:19:59.103Z</time></trkpt><trkpt lat="32.3228362" lon="-111.4546087"><ele>720.8000000000001</ele><time>2026-04-14T17:20:00.09Z</time></trkpt><trkpt lat="32.3229115" lon="-111.4545461"><ele>720.2</ele><time>2026-04-14T17:20:01.102Z</time></trkpt><trkpt lat="32.3229896" lon="-111.4545043"><ele>719.6</ele><time>2026-04-14T17:20:02.097Z</time></trkpt><trkpt lat="32.3230753" lon="-111.4544575"><ele>719.0</ele><time>2026-04-14T17:20:03.09Z</time></trkpt><trkpt lat="32.3231675" lon="-111.4544224"><ele>719.0</ele><time>2026-04-14T17:20:04.089Z</time></trkpt><trkpt lat="32.32327" lon="-111.4544128"><ele>719.0</ele><time>2026-04-14T17:20:05.109Z</time></trkpt><trkpt lat="32.3233829" lon="-111.4544029"><ele>719.0</ele><time>2026-04-14T17:20:06.086Z</time></trkpt><trkpt lat="32.3234956" lon="-111.4543758"><ele>719.0</ele><time>2026-04-14T17:20:07.098Z</time></trkpt><trkpt lat="32.323612" lon="-111.4543452"><ele>719.0</ele><time>2026-04-14T17:20:08.098Z</time></trkpt><trkpt lat="32.3237324" lon="-111.4543224"><ele>719.0</ele><time>2026-04-14T17:20:09.107Z</time></trkpt><trkpt lat="32.3238454" lon="-111.4543144"><ele>719.0</ele><time>2026-04-14T17:20:10.089Z</time></trkpt><trkpt lat="32.32395" lon="-111.4543055"><ele>719.0</ele><time>2026-04-14T17:20:11.1Z</time></trkpt><trkpt lat="32.3240436" lon="-111.4542864"><ele>719.0</ele><time>2026-04-14T17:20:12.091Z</time></trkpt><trkpt lat="32.3241405" lon="-111.4542708"><ele>718.8000000000001</ele><time>2026-04-14T17:20:13.1Z</time></trkpt><trkpt lat="32.3242427" lon="-111.4542702"><ele>718.6</ele><time>2026-04-14T17:20:14.113Z</time></trkpt><trkpt lat="32.3243369" lon="-111.4542987"><ele>718.4</ele><time>2026-04-14T17:20:15.105Z</time></trkpt><trkpt lat="32.324414" lon="-111.4543593"><ele>718.2</ele><time>2026-04-14T17:20:16.089Z</time></trkpt><trkpt lat="32.3244969" lon="-111.4544119"><ele>718.0</ele><time>2026-04-14T17:20:17.104Z</time></trkpt><trkpt lat="32.3245659" lon="-111.4544337"><ele>718.0</ele><time>2026-04-14T17:20:18.091Z</time></trkpt><trkpt lat="32.3246407" lon="-111.4544267"><ele>718.0</ele><time>2026-04-14T17:20:19.103Z</time></trkpt><trkpt lat="32.324711" lon="-111.4543862"><ele>718.0</ele><time>2026-04-14T17:20:20.087Z</time></trkpt><trkpt lat="32.3247969" lon="-111.454332"><ele>718.0</ele><time>2026-04-14T17:20:21.098Z</time></trkpt><trkpt lat="32.3248788" lon="-111.4542932"><ele>718.0</ele><time>2026-04-14T17:20:22.11Z</time></trkpt><trkpt lat="32.3249516" lon="-111.4542708"><ele>718.0</ele><time>2026-04-14T17:20:23.1Z</time></trkpt><trkpt lat="32.3250651" lon="-111.4543091"><ele>717.2</ele><time>2026-04-14T17:20:25.097Z</time></trkpt><trkpt lat="32.3251867" lon="-111.4543284"><ele>716.4</ele><time>2026-04-14T17:20:27.092Z</time></trkpt><trkpt lat="32.325273" lon="-111.4542969"><ele>715.6</ele><time>2026-04-14T17:20:28.105Z</time></trkpt><trkpt lat="32.3253724" lon="-111.4542648"><ele>714.8000000000001</ele><time>2026-04-14T17:20:29.112Z</time></trkpt><trkpt lat="32.3254619" lon="-111.4542347"><ele>714.0</ele><time>2026-04-14T17:20:30.092Z</time></trkpt><trkpt lat="32.3255365" lon="-111.4542093"><ele>713.8333333333334</ele><time>2026-04-14T17:20:31.106Z</time></trkpt><trkpt lat="32.3256057" lon="-111.4541912"><ele>713.6666666666666</ele><time>2026-04-14T17:20:32.082Z</time></trkpt><trkpt lat="32.3256711" lon="-111.454169"><ele>713.5</ele><time>2026-04-14T17:20:33.094Z</time></trkpt><trkpt lat="32.3257433" lon="-111.4541416"><ele>713.3333333333333</ele><time>2026-04-14T17:20:34.094Z</time></trkpt><trkpt lat="32.3258342" lon="-111.4541044"><ele>713.1666666666666</ele><time>2026-04-14T17:20:35.094Z</time></trkpt><trkpt lat="32.3259181" lon="-111.4540648"><ele>713.0</ele><time>2026-04-14T17:20:36.116Z</time></trkpt><trkpt lat="32.3259965" lon="-111.4540331"><ele>713.0</ele><time>2026-04-14T17:20:37.095Z</time></trkpt><trkpt lat="32.3260699" lon="-111.4540177"><ele>713.0</ele><time>2026-04-14T17:20:38.089Z</time></trkpt><trkpt lat="32.3261474" lon="-111.4540232"><ele>713.0</ele><time>2026-04-14T17:20:39.094Z</time></trkpt><trkpt lat="32.3262443" lon="-111.4540611"><ele>713.0</ele><time>2026-04-14T17:20:40.089Z</time></trkpt><trkpt lat="32.3263352" lon="-111.454091"><ele>713.0</ele><time>2026-04-14T17:20:41.086Z</time></trkpt><trkpt lat="32.3264073" lon="-111.4541028"><ele>713.0</ele><time>2026-04-14T17:20:42.093Z</time></trkpt><trkpt lat="32.3264863" lon="-111.4541141"><ele>713.0</ele><time>2026-04-14T17:20:43.103Z</time></trkpt><trkpt lat="32.3265588" lon="-111.4541354"><ele>713.0</ele><time>2026-04-14T17:20:44.118Z</time></trkpt><trkpt lat="32.3266221" lon="-111.454158"><ele>713.0</ele><time>2026-04-14T17:20:45.1Z</time></trkpt><trkpt lat="32.3267126" lon="-111.4542512"><ele>713.0</ele><time>2026-04-14T17:20:47.089Z</time></trkpt><trkpt lat="32.3267503" lon="-111.4543131"><ele>713.0</ele><time>2026-04-14T17:20:48.093Z</time></trkpt><trkpt lat="32.3268181" lon="-111.4544339"><ele>713.0</ele><time>2026-04-14T17:20:50.1Z</time></trkpt><trkpt lat="32.3269309" lon="-111.4545102"><ele>713.0</ele><time>2026-04-14T17:20:52.088Z</time></trkpt><trkpt lat="32.3270142" lon="-111.454533"><ele>713.0</ele><time>2026-04-14T17:20:53.082Z</time></trkpt><trkpt lat="32.3270915" lon="-111.4545639"><ele>713.0</ele><time>2026-04-14T17:20:54.099Z</time></trkpt><trkpt lat="32.3271621" lon="-111.4546037"><ele>713.0</ele><time>2026-04-14T17:20:55.089Z</time></trkpt><trkpt lat="32.3272347" lon="-111.4546457"><ele>713.0</ele><time>2026-04-14T17:20:56.085Z</time></trkpt><trkpt lat="32.327314" lon="-111.4546794"><ele>713.0</ele><time>2026-04-14T17:20:57.09Z</time></trkpt><trkpt lat="32.3274105" lon="-111.4547005"><ele>713.6666666666666</ele><time>2026-04-14T17:20:58.086Z</time></trkpt><trkpt lat="32.3275109" lon="-111.454712"><ele>714.3333333333333</ele><time>2026-04-14T17:20:59.097Z</time></trkpt><trkpt lat="32.3275998" lon="-111.4547253"><ele>715.0</ele><time>2026-04-14T17:21:00.093Z</time></trkpt><trkpt lat="32.3276726" lon="-111.4547408"><ele>715.6666666666666</ele><time>2026-04-14T17:21:01.1Z</time></trkpt><trkpt lat="32.3277447" lon="-111.4547555"><ele>716.3333333333334</ele><time>2026-04-14T17:21:02.093Z</time></trkpt><trkpt lat="32.327828" lon="-111.4547766"><ele>717.0</ele><time>2026-04-14T17:21:03.095Z</time></trkpt><trkpt lat="32.3279022" lon="-111.4547948"><ele>717.0</ele><time>2026-04-14T17:21:04.112Z</time></trkpt><trkpt lat="32.3279686" lon="-111.4548053"><ele>717.0</ele><time>2026-04-14T17:21:05.102Z</time></trkpt><trkpt lat="32.328047" lon="-111.4548208"><ele>717.0</ele><time>2026-04-14T17:21:06.111Z</time></trkpt><trkpt lat="32.3281293" lon="-111.4548483"><ele>717.0</ele><time>2026-04-14T17:21:07.082Z</time></trkpt><trkpt lat="32.328215" lon="-111.4548935"><ele>717.0</ele><time>2026-04-14T17:21:08.111Z</time></trkpt><trkpt lat="32.3283043" lon="-111.4549402"><ele>717.0</ele><time>2026-04-14T17:21:09.086Z</time></trkpt><trkpt lat="32.3283963" lon="-111.4549869"><ele>717.1666666666666</ele><time>2026-04-14T17:21:10.102Z</time></trkpt><trkpt lat="32.3284793" lon="-111.4550263"><ele>717.3333333333334</ele><time>2026-04-14T17:21:11.096Z</time></trkpt><trkpt lat="32.3285642" lon="-111.4550578"><ele>717.5</ele><time>2026-04-14T17:21:12.083Z</time></trkpt><trkpt lat="32.3286534" lon="-111.4550987"><ele>717.6666666666667</ele><time>2026-04-14T17:21:13.095Z</time></trkpt><trkpt lat="32.3287171" lon="-111.4551531"><ele>717.8333333333334</ele><time>2026-04-14T17:21:14.088Z</time></trkpt><trkpt lat="32.3287811" lon="-111.455225"><ele>718.0</ele><time>2026-04-14T17:21:15.095Z</time></trkpt><trkpt lat="32.3288359" lon="-111.4553165"><ele>718.0</ele><time>2026-04-14T17:21:16.095Z</time></trkpt><trkpt lat="32.3288825" lon="-111.4554281"><ele>718.0</ele><time>2026-04-14T17:21:17.099Z</time></trkpt><trkpt lat="32.3289307" lon="-111.4555524"><ele>718.0</ele><time>2026-04-14T17:21:18.094Z</time></trkpt><trkpt lat="32.3289766" lon="-111.4556708"><ele>718.0</ele><time>2026-04-14T17:21:19.08Z</time></trkpt><trkpt lat="32.3290258" lon="-111.4557876"><ele>718.0</ele><time>2026-04-14T17:21:20.106Z</time></trkpt><trkpt lat="32.3290717" lon="-111.4559075"><ele>718.4</ele><time>2026-04-14T17:21:21.089Z</time></trkpt><trkpt lat="32.3291083" lon="-111.4560211"><ele>718.8</ele><time>2026-04-14T17:21:22.088Z</time></trkpt><trkpt lat="32.329135" lon="-111.4561365"><ele>719.2</ele><time>2026-04-14T17:21:23.112Z</time></trkpt><trkpt lat="32.3291671" lon="-111.4562511"><ele>719.6</ele><time>2026-04-14T17:21:24.104Z</time></trkpt><trkpt lat="32.3292115" lon="-111.4563639"><ele>720.0</ele><time>2026-04-14T17:21:25.094Z</time></trkpt><trkpt lat="32.3292638" lon="-111.4564815"><ele>720.2</ele><time>2026-04-14T17:21:26.13Z</time></trkpt><trkpt lat="32.3293142" lon="-111.4565848"><ele>720.4</ele><time>2026-04-14T17:21:27.09Z</time></trkpt><trkpt lat="32.3293699" lon="-111.4566855"><ele>720.5999999999999</ele><time>2026-04-14T17:21:28.092Z</time></trkpt><trkpt lat="32.3294341" lon="-111.4567797"><ele>720.8</ele><time>2026-04-14T17:21:29.1Z</time></trkpt><trkpt lat="32.3294975" lon="-111.45687"><ele>721.0</ele><time>2026-04-14T17:21:30.088Z</time></trkpt><trkpt lat="32.3295545" lon="-111.4569589"><ele>721.0</ele><time>2026-04-14T17:21:31.094Z</time></trkpt><trkpt lat="32.3296099" lon="-111.45705"><ele>721.0</ele><time>2026-04-14T17:21:32.085Z</time></trkpt><trkpt lat="32.3296601" lon="-111.4571297"><ele>721.0</ele><time>2026-04-14T17:21:33.098Z</time></trkpt><trkpt lat="32.3297121" lon="-111.4571987"><ele>721.0</ele><time>2026-04-14T17:21:34.106Z</time></trkpt><trkpt lat="32.3297686" lon="-111.457242"><ele>721.0</ele><time>2026-04-14T17:21:35.084Z</time></trkpt><trkpt lat="32.3298338" lon="-111.4572624"><ele>721.0</ele><time>2026-04-14T17:21:36.082Z</time></trkpt><trkpt lat="32.3299121" lon="-111.4572639"><ele>721.6666666666667</ele><time>2026-04-14T17:21:37.092Z</time></trkpt><trkpt lat="32.3299902" lon="-111.4572663"><ele>722.3333333333334</ele><time>2026-04-14T17:21:38.098Z</time></trkpt><trkpt lat="32.3300777" lon="-111.4572768"><ele>723.0</ele><time>2026-04-14T17:21:39.101Z</time></trkpt><trkpt lat="32.3301541" lon="-111.457303"><ele>723.6666666666666</ele><time>2026-04-14T17:21:40.095Z</time></trkpt><trkpt lat="32.3302233" lon="-111.4573408"><ele>724.3333333333333</ele><time>2026-04-14T17:21:41.089Z</time></trkpt><trkpt lat="32.3302862" lon="-111.4574068"><ele>725.0</ele><time>2026-04-14T17:21:42.095Z</time></trkpt><trkpt lat="32.3303343" lon="-111.4574873"><ele>725.0</ele><time>2026-04-14T17:21:43.097Z</time></trkpt><trkpt lat="32.3304079" lon="-111.4575736"><ele>725.0</ele><time>2026-04-14T17:21:44.103Z</time></trkpt><trkpt lat="32.3304888" lon="-111.4576596"><ele>725.0</ele><time>2026-04-14T17:21:45.085Z</time></trkpt><trkpt lat="32.330572" lon="-111.4577476"><ele>725.0</ele><time>2026-04-14T17:21:46.082Z</time></trkpt><trkpt lat="32.3306655" lon="-111.4578388"><ele>725.0</ele><time>2026-04-14T17:21:47.097Z</time></trkpt><trkpt lat="32.3307433" lon="-111.4579085"><ele>725.2</ele><time>2026-04-14T17:21:48.098Z</time></trkpt><trkpt lat="32.3308279" lon="-111.4579729"><ele>725.4</ele><time>2026-04-14T17:21:49.095Z</time></trkpt><trkpt lat="32.3309168" lon="-111.4580308"><ele>725.5999999999999</ele><time>2026-04-14T17:21:50.085Z</time></trkpt><trkpt lat="32.331002" lon="-111.458088"><ele>725.8</ele><time>2026-04-14T17:21:51.088Z</time></trkpt><trkpt lat="32.3310888" lon="-111.458146"><ele>726.0</ele><time>2026-04-14T17:21:52.103Z</time></trkpt><trkpt lat="32.331167" lon="-111.4582045"><ele>726.0</ele><time>2026-04-14T17:21:53.085Z</time></trkpt><trkpt lat="32.3312487" lon="-111.4582574"><ele>726.0</ele><time>2026-04-14T17:21:54.089Z</time></trkpt><trkpt lat="32.3313333" lon="-111.4583137"><ele>726.0</ele><time>2026-04-14T17:21:55.101Z</time></trkpt><trkpt lat="32.3314156" lon="-111.4583655"><ele>726.0</ele><time>2026-04-14T17:21:56.088Z</time></trkpt><trkpt lat="32.3314936" lon="-111.4584156"><ele>726.0</ele><time>2026-04-14T17:21:57.097Z</time></trkpt><trkpt lat="32.3315692" lon="-111.4584771"><ele>726.5</ele><time>2026-04-14T17:21:58.086Z</time></trkpt><trkpt lat="32.3316441" lon="-111.4585401"><ele>727.0</ele><time>2026-04-14T17:21:59.091Z</time></trkpt><trkpt lat="32.3317119" lon="-111.4585988"><ele>727.5</ele><time>2026-04-14T17:22:00.099Z</time></trkpt><trkpt lat="32.3317689" lon="-111.4586534"><ele>728.0</ele><time>2026-04-14T17:22:01.086Z</time></trkpt><trkpt lat="32.3318319" lon="-111.4587163"><ele>728.5</ele><time>2026-04-14T17:22:02.092Z</time></trkpt><trkpt lat="32.3318979" lon="-111.4587874"><ele>729.0</ele><time>2026-04-14T17:22:03.109Z</time></trkpt><trkpt lat="32.3319656" lon="-111.4588501"><ele>729.2</ele><time>2026-04-14T17:22:04.115Z</time></trkpt><trkpt lat="32.3320253" lon="-111.4589222"><ele>729.4000000000001</ele><time>2026-04-14T17:22:05.095Z</time></trkpt><trkpt lat="32.3320902" lon="-111.4590065"><ele>729.6</ele><time>2026-04-14T17:22:06.097Z</time></trkpt><trkpt lat="32.3321517" lon="-111.4591002"><ele>729.8</ele><time>2026-04-14T17:22:07.094Z</time></trkpt><trkpt lat="32.3322123" lon="-111.4591974"><ele>730.0</ele><time>2026-04-14T17:22:08.096Z</time></trkpt><trkpt lat="32.3322657" lon="-111.4592866"><ele>730.2</ele><time>2026-04-14T17:22:09.09Z</time></trkpt><trkpt lat="32.332333" lon="-111.4593835"><ele>730.4</ele><time>2026-04-14T17:22:10.095Z</time></trkpt><trkpt lat="32.3324053" lon="-111.459464"><ele>730.5999999999999</ele><time>2026-04-14T17:22:11.091Z</time></trkpt><trkpt lat="32.3324957" lon="-111.4595456"><ele>730.8</ele><time>2026-04-14T17:22:12.123Z</time></trkpt><trkpt lat="32.3325734" lon="-111.4596212"><ele>731.0</ele><time>2026-04-14T17:22:13.088Z</time></trkpt><trkpt lat="32.33264" lon="-111.4596893"><ele>731.3333333333333</ele><time>2026-04-14T17:22:14.093Z</time></trkpt><trkpt lat="32.3326995" lon="-111.459752"><ele>731.6666666666666</ele><time>2026-04-14T17:22:15.089Z</time></trkpt><trkpt lat="32.3327487" lon="-111.4598116"><ele>732.0</ele><time>2026-04-14T17:22:16.099Z</time></trkpt><trkpt lat="32.3328278" lon="-111.4599122"><ele>732.3333333333334</ele><time>2026-04-14T17:22:18.09Z</time></trkpt><trkpt lat="32.3328967" lon="-111.459966"><ele>732.6666666666667</ele><time>2026-04-14T17:22:43.1Z</time></trkpt><trkpt lat="32.3329477" lon="-111.4600185"><ele>733.0</ele><time>2026-04-14T17:22:45.087Z</time></trkpt><trkpt lat="32.3328895" lon="-111.4599644"><ele>733.0</ele><time>2026-04-14T17:22:53.099Z</time></trkpt><trkpt lat="32.3328324" lon="-111.4599039"><ele>733.0</ele><time>2026-04-14T17:22:54.093Z</time></trkpt><trkpt lat="32.3327659" lon="-111.4598365"><ele>733.0</ele><time>2026-04-14T17:22:55.097Z</time></trkpt><trkpt lat="32.3327157" lon="-111.4597655"><ele>733.0</ele><time>2026-04-14T17:22:56.089Z</time></trkpt><trkpt lat="32.3326669" lon="-111.4597001"><ele>733.0</ele><time>2026-04-14T17:22:57.091Z</time></trkpt><trkpt lat="32.3326131" lon="-111.4596437"><ele>733.0</ele><time>2026-04-14T17:22:58.098Z</time></trkpt><trkpt lat="32.3325547" lon="-111.4595886"><ele>732.6666666666667</ele><time>2026-04-14T17:22:59.1Z</time></trkpt><trkpt lat="32.3324959" lon="-111.4595326"><ele>732.3333333333334</ele><time>2026-04-14T17:23:00.093Z</time></trkpt><trkpt lat="32.332433" lon="-111.4594814"><ele>732.0</ele><time>2026-04-14T17:23:01.086Z</time></trkpt><trkpt lat="32.3323738" lon="-111.459435"><ele>731.6666666666666</ele><time>2026-04-14T17:23:02.127Z</time></trkpt><trkpt lat="32.3323135" lon="-111.4593806"><ele>731.3333333333333</ele><time>2026-04-14T17:23:03.096Z</time></trkpt><trkpt lat="32.3322504" lon="-111.4593204"><ele>731.0</ele><time>2026-04-14T17:23:04.099Z</time></trkpt><trkpt lat="32.3321995" lon="-111.4592638"><ele>730.8571428571429</ele><time>2026-04-14T17:23:05.098Z</time></trkpt><trkpt lat="32.3321523" lon="-111.4592096"><ele>730.7142857142857</ele><time>2026-04-14T17:23:06.094Z</time></trkpt><trkpt lat="32.3321116" lon="-111.4591513"><ele>730.5714285714287</ele><time>2026-04-14T17:23:07.081Z</time></trkpt><trkpt lat="32.3320691" lon="-111.4590868"><ele>730.4285714285714</ele><time>2026-04-14T17:23:08.098Z</time></trkpt><trkpt lat="32.3320247" lon="-111.4590227"><ele>730.2857142857143</ele><time>2026-04-14T17:23:09.079Z</time></trkpt><trkpt lat="32.3319767" lon="-111.4589586"><ele>730.1428571428572</ele><time>2026-04-14T17:23:10.095Z</time></trkpt><trkpt lat="32.3319238" lon="-111.4588916"><ele>730.0</ele><time>2026-04-14T17:23:11.085Z</time></trkpt><trkpt lat="32.3318483" lon="-111.4588224"><ele>729.8</ele><time>2026-04-14T17:23:13.086Z</time></trkpt><trkpt lat="32.3317884" lon="-111.4587654"><ele>729.6</ele><time>2026-04-14T17:23:14.094Z</time></trkpt><trkpt lat="32.3316792" lon="-111.4586699"><ele>729.4000000000001</ele><time>2026-04-14T17:23:16.405Z</time></trkpt><trkpt lat="32.3316143" lon="-111.4586381"><ele>729.2</ele><time>2026-04-14T17:23:18.147Z</time></trkpt><trkpt lat="32.3315437" lon="-111.4585845"><ele>729.0</ele><time>2026-04-14T17:23:19.142Z</time></trkpt><trkpt lat="32.3314699" lon="-111.4585333"><ele>728.4000000000001</ele><time>2026-04-14T17:23:20.169Z</time></trkpt><trkpt lat="32.3313768" lon="-111.4584497"><ele>727.8</ele><time>2026-04-14T17:23:21.162Z</time></trkpt><trkpt lat="32.3312902" lon="-111.458395"><ele>727.2</ele><time>2026-04-14T17:23:22.167Z</time></trkpt><trkpt lat="32.3312159" lon="-111.4583307"><ele>726.5999999999999</ele><time>2026-04-14T17:23:23.151Z</time></trkpt><trkpt lat="32.3311565" lon="-111.4582659"><ele>726.0</ele><time>2026-04-14T17:23:24.153Z</time></trkpt><trkpt lat="32.3310759" lon="-111.4582086"><ele>726.0</ele><time>2026-04-14T17:23:25.156Z</time></trkpt><trkpt lat="32.3310074" lon="-111.4581515"><ele>726.0</ele><time>2026-04-14T17:23:26.156Z</time></trkpt><trkpt lat="32.3309428" lon="-111.4581014"><ele>726.0</ele><time>2026-04-14T17:23:27.147Z</time></trkpt><trkpt lat="32.3308762" lon="-111.45805"><ele>726.0</ele><time>2026-04-14T17:23:28.161Z</time></trkpt><trkpt lat="32.330801" lon="-111.4579871"><ele>726.0</ele><time>2026-04-14T17:23:29.156Z</time></trkpt><trkpt lat="32.3307257" lon="-111.4579226"><ele>726.0</ele><time>2026-04-14T17:23:30.145Z</time></trkpt><trkpt lat="32.330647" lon="-111.4578468"><ele>725.8</ele><time>2026-04-14T17:23:31.151Z</time></trkpt><trkpt lat="32.3305637" lon="-111.4577589"><ele>725.5999999999999</ele><time>2026-04-14T17:23:32.166Z</time></trkpt><trkpt lat="32.3304862" lon="-111.4576786"><ele>725.4</ele><time>2026-04-14T17:23:33.149Z</time></trkpt><trkpt lat="32.3304074" lon="-111.4576036"><ele>725.2</ele><time>2026-04-14T17:23:34.165Z</time></trkpt><trkpt lat="32.3303487" lon="-111.4575547"><ele>725.0</ele><time>2026-04-14T17:23:35.16Z</time></trkpt><trkpt lat="32.3302638" lon="-111.4574842"><ele>725.0</ele><time>2026-04-14T17:23:37.154Z</time></trkpt><trkpt lat="32.3303195" lon="-111.4575389"><ele>725.0</ele><time>2026-04-14T17:37:47.104Z</time></trkpt><trkpt lat="32.3304179" lon="-111.4576145"><ele>725.0</ele><time>2026-04-14T17:37:49.093Z</time></trkpt><trkpt lat="32.3304713" lon="-111.4576579"><ele>725.0</ele><time>2026-04-14T17:37:50.111Z</time></trkpt><trkpt lat="32.3305212" lon="-111.4577068"><ele>725.0</ele><time>2026-04-14T17:37:51.101Z</time></trkpt><trkpt lat="32.3305804" lon="-111.4577678"><ele>725.0</ele><time>2026-04-14T17:37:52.1Z</time></trkpt><trkpt lat="32.3306408" lon="-111.4578358"><ele>725.0</ele><time>2026-04-14T17:37:53.113Z</time></trkpt><trkpt lat="32.3307131" lon="-111.4578958"><ele>725.0</ele><time>2026-04-14T17:37:54.102Z</time></trkpt><trkpt lat="32.3307951" lon="-111.4579472"><ele>725.0</ele><time>2026-04-14T17:37:55.109Z</time></trkpt><trkpt lat="32.3308767" lon="-111.4579898"><ele>725.0</ele><time>2026-04-14T17:37:56.116Z</time></trkpt><trkpt lat="32.3309533" lon="-111.4580385"><ele>725.0</ele><time>2026-04-14T17:37:57.111Z</time></trkpt><trkpt lat="32.3310275" lon="-111.4580945"><ele>725.0</ele><time>2026-04-14T17:37:58.108Z</time></trkpt><trkpt lat="32.3310993" lon="-111.4581558"><ele>725.2</ele><time>2026-04-14T17:37:59.111Z</time></trkpt><trkpt lat="32.3311789" lon="-111.4582164"><ele>725.4</ele><time>2026-04-14T17:38:00.124Z</time></trkpt><trkpt lat="32.3312588" lon="-111.4582728"><ele>725.5999999999999</ele><time>2026-04-14T17:38:01.097Z</time></trkpt><trkpt lat="32.3313442" lon="-111.4583245"><ele>725.8</ele><time>2026-04-14T17:38:02.097Z</time></trkpt><trkpt lat="32.3314253" lon="-111.4583747"><ele>726.0</ele><time>2026-04-14T17:38:03.111Z</time></trkpt><trkpt lat="32.3315026" lon="-111.4584291"><ele>726.5</ele><time>2026-04-14T17:38:04.108Z</time></trkpt><trkpt lat="32.3315749" lon="-111.4584886"><ele>727.0</ele><time>2026-04-14T17:38:05.101Z</time></trkpt><trkpt lat="32.3316502" lon="-111.4585454"><ele>727.5</ele><time>2026-04-14T17:38:06.11Z</time></trkpt><trkpt lat="32.3317249" lon="-111.4585946"><ele>728.0</ele><time>2026-04-14T17:38:07.1Z</time></trkpt><trkpt lat="32.331789" lon="-111.4586601"><ele>728.5</ele><time>2026-04-14T17:38:08.136Z</time></trkpt><trkpt lat="32.331856" lon="-111.4587253"><ele>729.0</ele><time>2026-04-14T17:38:09.117Z</time></trkpt><trkpt lat="32.3319229" lon="-111.4587891"><ele>729.2</ele><time>2026-04-14T17:38:10.102Z</time></trkpt><trkpt lat="32.3319893" lon="-111.4588567"><ele>729.4000000000001</ele><time>2026-04-14T17:38:11.103Z</time></trkpt><trkpt lat="32.3320473" lon="-111.4589338"><ele>729.6</ele><time>2026-04-14T17:38:12.095Z</time></trkpt><trkpt lat="32.3321056" lon="-111.4590235"><ele>729.8</ele><time>2026-04-14T17:38:13.102Z</time></trkpt><trkpt lat="32.3321665" lon="-111.4591202"><ele>730.0</ele><time>2026-04-14T17:38:14.125Z</time></trkpt><trkpt lat="32.3322145" lon="-111.4592124"><ele>730.2</ele><time>2026-04-14T17:38:15.108Z</time></trkpt><trkpt lat="32.3322695" lon="-111.4592992"><ele>730.4</ele><time>2026-04-14T17:38:16.105Z</time></trkpt><trkpt lat="32.3323398" lon="-111.4593906"><ele>730.5999999999999</ele><time>2026-04-14T17:38:17.108Z</time></trkpt><trkpt lat="32.3324158" lon="-111.4594656"><ele>730.8</ele><time>2026-04-14T17:38:18.094Z</time></trkpt><trkpt lat="32.3324932" lon="-111.4595398"><ele>731.0</ele><time>2026-04-14T17:38:19.104Z</time></trkpt><trkpt lat="32.3325744" lon="-111.4596214"><ele>731.4</ele><time>2026-04-14T17:38:20.112Z</time></trkpt><trkpt lat="32.3326529" lon="-111.4596972"><ele>731.8</ele><time>2026-04-14T17:38:21.103Z</time></trkpt><trkpt lat="32.3327272" lon="-111.4597696"><ele>732.1999999999999</ele><time>2026-04-14T17:38:22.112Z</time></trkpt><trkpt lat="32.3327911" lon="-111.4598397"><ele>732.5999999999999</ele><time>2026-04-14T17:38:23.093Z</time></trkpt><trkpt lat="32.3328581" lon="-111.459924"><ele>733.0</ele><time>2026-04-14T17:38:24.108Z</time></trkpt><trkpt lat="32.3329329" lon="-111.4600072"><ele>733.0</ele><time>2026-04-14T17:38:25.11Z</time></trkpt><trkpt lat="32.3330222" lon="-111.4600819"><ele>733.0</ele><time>2026-04-14T17:38:26.106Z</time></trkpt><trkpt lat="32.3331094" lon="-111.4601574"><ele>733.0</ele><time>2026-04-14T17:38:27.109Z</time></trkpt><trkpt lat="32.3331858" lon="-111.4602373"><ele>733.0</ele><time>2026-04-14T17:38:28.105Z</time></trkpt><trkpt lat="32.3332558" lon="-111.4603234"><ele>733.0</ele><time>2026-04-14T17:38:29.114Z</time></trkpt><trkpt lat="32.3333356" lon="-111.4604293"><ele>733.5999999999999</ele><time>2026-04-14T17:38:30.114Z</time></trkpt><trkpt lat="32.3334129" lon="-111.4605376"><ele>734.1999999999999</ele><time>2026-04-14T17:38:31.107Z</time></trkpt><trkpt lat="32.3334799" lon="-111.4606414"><ele>734.8</ele><time>2026-04-14T17:38:32.106Z</time></trkpt><trkpt lat="32.3335434" lon="-111.4607268"><ele>735.4</ele><time>2026-04-14T17:38:33.094Z</time></trkpt><trkpt lat="32.3336149" lon="-111.460802"><ele>736.0</ele><time>2026-04-14T17:38:34.118Z</time></trkpt><trkpt lat="32.3336998" lon="-111.4608665"><ele>736.0</ele><time>2026-04-14T17:38:35.103Z</time></trkpt><trkpt lat="32.3337919" lon="-111.4609125"><ele>736.0</ele><time>2026-04-14T17:38:36.114Z</time></trkpt><trkpt lat="32.3338707" lon="-111.4609469"><ele>736.0</ele><time>2026-04-14T17:38:37.107Z</time></trkpt><trkpt lat="32.3339945" lon="-111.4610652"><ele>736.0</ele><time>2026-04-14T17:38:39.103Z</time></trkpt><trkpt lat="32.3340498" lon="-111.4611512"><ele>736.0</ele><time>2026-04-14T17:38:40.102Z</time></trkpt><trkpt lat="32.3341044" lon="-111.4612357"><ele>736.3333333333334</ele><time>2026-04-14T17:38:41.113Z</time></trkpt><trkpt lat="32.3341595" lon="-111.4613047"><ele>736.6666666666667</ele><time>2026-04-14T17:38:42.112Z</time></trkpt><trkpt lat="32.3342137" lon="-111.4613645"><ele>737.0</ele><time>2026-04-14T17:38:43.107Z</time></trkpt><trkpt lat="32.3342853" lon="-111.4614192"><ele>737.3333333333334</ele><time>2026-04-14T17:38:44.106Z</time></trkpt><trkpt lat="32.3343682" lon="-111.461483"><ele>737.6666666666666</ele><time>2026-04-14T17:38:45.096Z</time></trkpt><trkpt lat="32.3344523" lon="-111.4615586"><ele>738.0</ele><time>2026-04-14T17:38:46.114Z</time></trkpt><trkpt lat="32.3345142" lon="-111.4616382"><ele>738.0</ele><time>2026-04-14T17:38:47.092Z</time></trkpt><trkpt lat="32.3345684" lon="-111.4617192"><ele>738.0</ele><time>2026-04-14T17:38:48.1Z</time></trkpt><trkpt lat="32.3346187" lon="-111.4618068"><ele>738.0</ele><time>2026-04-14T17:38:49.107Z</time></trkpt><trkpt lat="32.3346676" lon="-111.4618988"><ele>738.0</ele><time>2026-04-14T17:38:50.121Z</time></trkpt><trkpt lat="32.3347157" lon="-111.4619851"><ele>738.0</ele><time>2026-04-14T17:38:51.105Z</time></trkpt><trkpt lat="32.3347687" lon="-111.462078"><ele>738.8</ele><time>2026-04-14T17:38:52.119Z</time></trkpt><trkpt lat="32.3348232" lon="-111.4621758"><ele>739.5999999999999</ele><time>2026-04-14T17:38:53.122Z</time></trkpt><trkpt lat="32.3348762" lon="-111.4622588"><ele>740.4000000000001</ele><time>2026-04-14T17:38:54.1Z</time></trkpt><trkpt lat="32.334936" lon="-111.4623302"><ele>741.2</ele><time>2026-04-14T17:38:55.107Z</time></trkpt><trkpt lat="32.3350087" lon="-111.4623934"><ele>742.0</ele><time>2026-04-14T17:38:56.103Z</time></trkpt><trkpt lat="32.335081" lon="-111.4624648"><ele>742.0</ele><time>2026-04-14T17:38:57.121Z</time></trkpt><trkpt lat="32.3351506" lon="-111.4625412"><ele>742.0</ele><time>2026-04-14T17:38:58.101Z</time></trkpt><trkpt lat="32.3352206" lon="-111.4626207"><ele>742.0</ele><time>2026-04-14T17:38:59.1Z</time></trkpt><trkpt lat="32.3352824" lon="-111.4627035"><ele>742.0</ele><time>2026-04-14T17:39:00.092Z</time></trkpt><trkpt lat="32.3353403" lon="-111.4627892"><ele>742.0</ele><time>2026-04-14T17:39:01.098Z</time></trkpt><trkpt lat="32.3354001" lon="-111.4628797"><ele>741.8</ele><time>2026-04-14T17:39:02.104Z</time></trkpt><trkpt lat="32.3354624" lon="-111.4629598"><ele>741.6</ele><time>2026-04-14T17:39:03.097Z</time></trkpt><trkpt lat="32.3355309" lon="-111.4630342"><ele>741.4</ele><time>2026-04-14T17:39:04.106Z</time></trkpt><trkpt lat="32.3356046" lon="-111.463103"><ele>741.1999999999999</ele><time>2026-04-14T17:39:05.09Z</time></trkpt><trkpt lat="32.3356787" lon="-111.4631733"><ele>741.0</ele><time>2026-04-14T17:39:06.098Z</time></trkpt><trkpt lat="32.3357552" lon="-111.4632478"><ele>741.5999999999999</ele><time>2026-04-14T17:39:07.111Z</time></trkpt><trkpt lat="32.3358277" lon="-111.4633175"><ele>742.2</ele><time>2026-04-14T17:39:08.107Z</time></trkpt><trkpt lat="32.335896" lon="-111.4633801"><ele>742.8</ele><time>2026-04-14T17:39:09.097Z</time></trkpt><trkpt lat="32.3359718" lon="-111.4634415"><ele>743.4000000000001</ele><time>2026-04-14T17:39:10.095Z</time></trkpt><trkpt lat="32.3360497" lon="-111.4635117"><ele>744.0</ele><time>2026-04-14T17:39:11.11Z</time></trkpt><trkpt lat="32.3361131" lon="-111.4635946"><ele>744.0000000000001</ele><time>2026-04-14T17:39:12.12Z</time></trkpt><trkpt lat="32.3361447" lon="-111.4636763"><ele>744.0</ele><time>2026-04-14T17:39:13.106Z</time></trkpt><trkpt lat="32.3361627" lon="-111.463761"><ele>744.0</ele><time>2026-04-14T17:39:14.095Z</time></trkpt><trkpt lat="32.3361811" lon="-111.4638419"><ele>744.0</ele><time>2026-04-14T17:39:15.101Z</time></trkpt><trkpt lat="32.336205" lon="-111.4639118"><ele>744.0</ele><time>2026-04-14T17:39:16.11Z</time></trkpt><trkpt lat="32.3362372" lon="-111.4639779"><ele>744.0000000000001</ele><time>2026-04-14T17:39:17.096Z</time></trkpt><trkpt lat="32.3362782" lon="-111.4640531"><ele>744.0</ele><time>2026-04-14T17:39:18.093Z</time></trkpt><trkpt lat="32.3363127" lon="-111.4641377"><ele>744.1666666666666</ele><time>2026-04-14T17:39:19.111Z</time></trkpt><trkpt lat="32.3363442" lon="-111.4642348"><ele>744.3333333333334</ele><time>2026-04-14T17:39:20.105Z</time></trkpt><trkpt lat="32.3363757" lon="-111.4643294"><ele>744.5</ele><time>2026-04-14T17:39:21.094Z</time></trkpt><trkpt lat="32.336412" lon="-111.4644193"><ele>744.6666666666667</ele><time>2026-04-14T17:39:22.1Z</time></trkpt><trkpt lat="32.3364523" lon="-111.4644887"><ele>744.8333333333334</ele><time>2026-04-14T17:39:23.103Z</time></trkpt><trkpt lat="32.3365003" lon="-111.4645452"><ele>745.0</ele><time>2026-04-14T17:39:24.095Z</time></trkpt><trkpt lat="32.3365625" lon="-111.4645949"><ele>746.0</ele><time>2026-04-14T17:39:25.11Z</time></trkpt><trkpt lat="32.3366288" lon="-111.4646522"><ele>747.0</ele><time>2026-04-14T17:39:26.096Z</time></trkpt><trkpt lat="32.3366855" lon="-111.4647224"><ele>748.0</ele><time>2026-04-14T17:39:27.099Z</time></trkpt><trkpt lat="32.3367338" lon="-111.4648047"><ele>749.0</ele><time>2026-04-14T17:39:28.098Z</time></trkpt><trkpt lat="32.3367668" lon="-111.4649044"><ele>750.0</ele><time>2026-04-14T17:39:29.095Z</time></trkpt><trkpt lat="32.3367935" lon="-111.4649977"><ele>751.0</ele><time>2026-04-14T17:39:30.101Z</time></trkpt><trkpt lat="32.3368221" lon="-111.4650771"><ele>751.0</ele><time>2026-04-14T17:39:31.093Z</time></trkpt><trkpt lat="32.3368577" lon="-111.4651397"><ele>751.0</ele><time>2026-04-14T17:39:32.116Z</time></trkpt><trkpt lat="32.3369327" lon="-111.4651972"><ele>751.0</ele><time>2026-04-14T17:39:34.104Z</time></trkpt><trkpt lat="32.3370203" lon="-111.4651874"><ele>751.0</ele><time>2026-04-14T17:39:36.096Z</time></trkpt><trkpt lat="32.3371157" lon="-111.465152"><ele>751.0</ele><time>2026-04-14T17:39:38.104Z</time></trkpt><trkpt lat="32.3372285" lon="-111.4651128"><ele>751.1666666666667</ele><time>2026-04-14T17:39:40.097Z</time></trkpt><trkpt lat="32.3373205" lon="-111.4650672"><ele>751.3333333333334</ele><time>2026-04-14T17:39:42.104Z</time></trkpt><trkpt lat="32.3374339" lon="-111.4650419"><ele>751.5</ele><time>2026-04-14T17:39:44.099Z</time></trkpt><trkpt lat="32.3374996" lon="-111.4650435"><ele>751.6666666666666</ele><time>2026-04-14T17:39:45.102Z</time></trkpt><trkpt lat="32.3375646" lon="-111.465043"><ele>751.8333333333333</ele><time>2026-04-14T17:39:46.111Z</time></trkpt><trkpt lat="32.337643" lon="-111.4650541"><ele>752.0</ele><time>2026-04-14T17:39:47.107Z</time></trkpt><trkpt lat="32.3377225" lon="-111.4650673"><ele>752.0</ele><time>2026-04-14T17:39:48.106Z</time></trkpt><trkpt lat="32.3378023" lon="-111.4650895"><ele>752.0</ele><time>2026-04-14T17:39:49.099Z</time></trkpt><trkpt lat="32.3378725" lon="-111.4651093"><ele>752.0</ele><time>2026-04-14T17:39:50.095Z</time></trkpt><trkpt lat="32.337937" lon="-111.4651256"><ele>752.0</ele><time>2026-04-14T17:39:51.093Z</time></trkpt><trkpt lat="32.3380634" lon="-111.4651483"><ele>752.0</ele><time>2026-04-14T17:39:53.112Z</time></trkpt><trkpt lat="32.3381267" lon="-111.4651462"><ele>752.0</ele><time>2026-04-14T17:39:54.099Z</time></trkpt><trkpt lat="32.3382037" lon="-111.4651375"><ele>753.4000000000001</ele><time>2026-04-14T17:39:55.095Z</time></trkpt><trkpt lat="32.3382894" lon="-111.4651377"><ele>754.8000000000001</ele><time>2026-04-14T17:39:56.1Z</time></trkpt><trkpt lat="32.3383746" lon="-111.4651515"><ele>756.2</ele><time>2026-04-14T17:39:57.095Z</time></trkpt><trkpt lat="32.3384415" lon="-111.4651889"><ele>757.6</ele><time>2026-04-14T17:39:58.117Z</time></trkpt><trkpt lat="32.3385659" lon="-111.4652435"><ele>759.0</ele><time>2026-04-14T17:40:00.103Z</time></trkpt><trkpt lat="32.3386448" lon="-111.4652579"><ele>759.0</ele><time>2026-04-14T17:40:01.091Z</time></trkpt><trkpt lat="32.3387307" lon="-111.4652554"><ele>759.0</ele><time>2026-04-14T17:40:02.095Z</time></trkpt><trkpt lat="32.3388198" lon="-111.4652348"><ele>759.0</ele><time>2026-04-14T17:40:03.091Z</time></trkpt><trkpt lat="32.3389128" lon="-111.4652181"><ele>759.0</ele><time>2026-04-14T17:40:04.1Z</time></trkpt><trkpt lat="32.339001" lon="-111.4651945"><ele>759.0</ele><time>2026-04-14T17:40:05.094Z</time></trkpt><trkpt lat="32.3390829" lon="-111.4651745"><ele>759.0</ele><time>2026-04-14T17:40:06.108Z</time></trkpt><trkpt lat="32.3391589" lon="-111.4651558"><ele>758.8333333333334</ele><time>2026-04-14T17:40:07.093Z</time></trkpt><trkpt lat="32.3392248" lon="-111.465141"><ele>758.6666666666666</ele><time>2026-04-14T17:40:08.098Z</time></trkpt><trkpt lat="32.3392857" lon="-111.465122"><ele>758.5</ele><time>2026-04-14T17:40:09.097Z</time></trkpt><trkpt lat="32.3393778" lon="-111.4650732"><ele>758.3333333333333</ele><time>2026-04-14T17:40:11.104Z</time></trkpt><trkpt lat="32.3394366" lon="-111.4649725"><ele>758.1666666666666</ele><time>2026-04-14T17:40:13.092Z</time></trkpt><trkpt lat="32.3394505" lon="-111.4648872"><ele>758.0</ele><time>2026-04-14T17:40:14.095Z</time></trkpt><trkpt lat="32.3394764" lon="-111.4647849"><ele>758.0</ele><time>2026-04-14T17:40:15.1Z</time></trkpt><trkpt lat="32.3395021" lon="-111.4646856"><ele>758.0</ele><time>2026-04-14T17:40:16.105Z</time></trkpt><trkpt lat="32.3395205" lon="-111.4645893"><ele>758.0</ele><time>2026-04-14T17:40:17.099Z</time></trkpt><trkpt lat="32.3395317" lon="-111.4644912"><ele>758.0</ele><time>2026-04-14T17:40:18.132Z</time></trkpt><trkpt lat="32.3395419" lon="-111.4643956"><ele>758.0</ele><time>2026-04-14T17:40:19.096Z</time></trkpt><trkpt lat="32.3395563" lon="-111.4642943"><ele>758.0</ele><time>2026-04-14T17:40:20.099Z</time></trkpt><trkpt lat="32.3395827" lon="-111.4642087"><ele>758.5999999999999</ele><time>2026-04-14T17:40:21.094Z</time></trkpt><trkpt lat="32.3396323" lon="-111.4641287"><ele>759.1999999999999</ele><time>2026-04-14T17:40:22.093Z</time></trkpt><trkpt lat="32.3396929" lon="-111.4640364"><ele>759.8</ele><time>2026-04-14T17:40:23.097Z</time></trkpt><trkpt lat="32.3397466" lon="-111.4639345"><ele>760.4</ele><time>2026-04-14T17:40:24.097Z</time></trkpt><trkpt lat="32.3397906" lon="-111.4638327"><ele>761.0</ele><time>2026-04-14T17:40:25.097Z</time></trkpt><trkpt lat="32.3398241" lon="-111.463738"><ele>761.8</ele><time>2026-04-14T17:40:26.137Z</time></trkpt><trkpt lat="32.3398447" lon="-111.4636559"><ele>762.5999999999999</ele><time>2026-04-14T17:40:27.092Z</time></trkpt><trkpt lat="32.3398664" lon="-111.4635563"><ele>763.4</ele><time>2026-04-14T17:40:28.095Z</time></trkpt><trkpt lat="32.3398823" lon="-111.4634494"><ele>764.2</ele><time>2026-04-14T17:40:29.097Z</time></trkpt><trkpt lat="32.3398973" lon="-111.4633366"><ele>765.0</ele><time>2026-04-14T17:40:30.103Z</time></trkpt><trkpt lat="32.3399254" lon="-111.4632128"><ele>765.0</ele><time>2026-04-14T17:40:31.095Z</time></trkpt><trkpt lat="32.3399718" lon="-111.4630879"><ele>765.0</ele><time>2026-04-14T17:40:32.1Z</time></trkpt><trkpt lat="32.3400254" lon="-111.4629808"><ele>765.0</ele><time>2026-04-14T17:40:33.097Z</time></trkpt><trkpt lat="32.3400796" lon="-111.462883"><ele>765.0</ele><time>2026-04-14T17:40:34.1Z</time></trkpt><trkpt lat="32.3401357" lon="-111.4627809"><ele>765.0</ele><time>2026-04-14T17:40:35.098Z</time></trkpt><trkpt lat="32.3401985" lon="-111.4626816"><ele>765.0</ele><time>2026-04-14T17:40:36.099Z</time></trkpt><trkpt lat="32.3402684" lon="-111.4625813"><ele>765.0</ele><time>2026-04-14T17:40:37.105Z</time></trkpt><trkpt lat="32.3403335" lon="-111.4624861"><ele>765.0</ele><time>2026-04-14T17:40:38.098Z</time></trkpt><trkpt lat="32.3403866" lon="-111.4623982"><ele>765.0</ele><time>2026-04-14T17:40:39.102Z</time></trkpt><trkpt lat="32.3404297" lon="-111.4623206"><ele>765.0</ele><time>2026-04-14T17:40:40.102Z</time></trkpt><trkpt lat="32.3404662" lon="-111.4622506"><ele>765.0</ele><time>2026-04-14T17:40:41.099Z</time></trkpt><trkpt lat="32.3405024" lon="-111.4621849"><ele>765.0</ele><time>2026-04-14T17:40:42.104Z</time></trkpt><trkpt lat="32.3405627" lon="-111.462109"><ele>765.0</ele><time>2026-04-14T17:40:44.105Z</time></trkpt><trkpt lat="32.3406127" lon="-111.4620029"><ele>765.0</ele><time>2026-04-14T17:40:57.094Z</time></trkpt><trkpt lat="32.340605" lon="-111.4618798"><ele>765.0</ele><time>2026-04-14T17:40:59.1Z</time></trkpt><trkpt lat="32.3406014" lon="-111.461785"><ele>765.0</ele><time>2026-04-14T17:41:01.099Z</time></trkpt><trkpt lat="32.3406552" lon="-111.4616902"><ele>764.2</ele><time>2026-04-14T17:41:03.099Z</time></trkpt><trkpt lat="32.3406971" lon="-111.4616199"><ele>763.4</ele><time>2026-04-14T17:41:04.097Z</time></trkpt><trkpt lat="32.3407313" lon="-111.4615506"><ele>762.5999999999999</ele><time>2026-04-14T17:41:05.102Z</time></trkpt><trkpt lat="32.3407706" lon="-111.4614374"><ele>761.8</ele><time>2026-04-14T17:41:07.099Z</time></trkpt><trkpt lat="32.3408331" lon="-111.4613136"><ele>761.0</ele><time>2026-04-14T17:41:09.095Z</time></trkpt><trkpt lat="32.3408864" lon="-111.4612042"><ele>761.0</ele><time>2026-04-14T17:41:11.111Z</time></trkpt><trkpt lat="32.3409248" lon="-111.4610899"><ele>761.0</ele><time>2026-04-14T17:41:13.113Z</time></trkpt><trkpt lat="32.3409697" lon="-111.4609787"><ele>761.0</ele><time>2026-04-14T17:41:15.103Z</time></trkpt><trkpt lat="32.3410214" lon="-111.4608872"><ele>761.0</ele><time>2026-04-14T17:41:17.101Z</time></trkpt><trkpt lat="32.3410739" lon="-111.4608021"><ele>761.0</ele><time>2026-04-14T17:41:19.1Z</time></trkpt><trkpt lat="32.3411207" lon="-111.4607018"><ele>761.0</ele><time>2026-04-14T17:41:21.104Z</time></trkpt><trkpt lat="32.341161" lon="-111.4605591"><ele>761.0</ele><time>2026-04-14T17:41:23.112Z</time></trkpt><trkpt lat="32.3411924" lon="-111.4604856"><ele>761.0</ele><time>2026-04-14T17:41:24.105Z</time></trkpt><trkpt lat="32.3412267" lon="-111.4604025"><ele>761.0</ele><time>2026-04-14T17:41:25.113Z</time></trkpt><trkpt lat="32.3412541" lon="-111.4603197"><ele>761.0</ele><time>2026-04-14T17:41:26.105Z</time></trkpt><trkpt lat="32.341276" lon="-111.4602391"><ele>761.0</ele><time>2026-04-14T17:41:27.103Z</time></trkpt><trkpt lat="32.3412908" lon="-111.4601556"><ele>760.8571428571428</ele><time>2026-04-14T17:41:28.133Z</time></trkpt><trkpt lat="32.3412935" lon="-111.4600738"><ele>760.7142857142857</ele><time>2026-04-14T17:41:29.1Z</time></trkpt><trkpt lat="32.3412947" lon="-111.4599854"><ele>760.5714285714286</ele><time>2026-04-14T17:41:30.103Z</time></trkpt><trkpt lat="32.3412953" lon="-111.4599017"><ele>760.4285714285713</ele><time>2026-04-14T17:41:31.107Z</time></trkpt><trkpt lat="32.3413031" lon="-111.4598206"><ele>760.2857142857143</ele><time>2026-04-14T17:41:32.097Z</time></trkpt><trkpt lat="32.3413223" lon="-111.4597356"><ele>760.1428571428571</ele><time>2026-04-14T17:41:33.103Z</time></trkpt><trkpt lat="32.3413458" lon="-111.4596433"><ele>760.0</ele><time>2026-04-14T17:41:34.097Z</time></trkpt><trkpt lat="32.341367" lon="-111.4595488"><ele>758.2</ele><time>2026-04-14T17:41:35.097Z</time></trkpt><trkpt lat="32.3413896" lon="-111.4594492"><ele>756.4</ele><time>2026-04-14T17:41:36.102Z</time></trkpt><trkpt lat="32.3414068" lon="-111.4593633"><ele>754.5999999999999</ele><time>2026-04-14T17:41:37.1Z</time></trkpt><trkpt lat="32.3414145" lon="-111.4592294"><ele>752.8</ele><time>2026-04-14T17:41:39.104Z</time></trkpt><trkpt lat="32.3414171" lon="-111.4591507"><ele>751.0</ele><time>2026-04-14T17:42:18.095Z</time></trkpt><trkpt lat="32.3414893" lon="-111.4590437"><ele>751.0</ele><time>2026-04-14T17:42:20.091Z</time></trkpt><trkpt lat="32.3415368" lon="-111.4589821"><ele>751.0</ele><time>2026-04-14T17:42:21.104Z</time></trkpt><trkpt lat="32.3415834" lon="-111.4589284"><ele>751.0</ele><time>2026-04-14T17:42:22.1Z</time></trkpt><trkpt lat="32.3416372" lon="-111.4588885"><ele>751.0</ele><time>2026-04-14T17:42:23.103Z</time></trkpt><trkpt lat="32.3417538" lon="-111.4588174"><ele>751.0</ele><time>2026-04-14T17:42:25.098Z</time></trkpt><trkpt lat="32.3418179" lon="-111.4587893"><ele>751.0</ele><time>2026-04-14T17:42:26.104Z</time></trkpt><trkpt lat="32.3418832" lon="-111.4587702"><ele>750.8333333333334</ele><time>2026-04-14T17:42:27.099Z</time></trkpt><trkpt lat="32.3419537" lon="-111.4587509"><ele>750.6666666666667</ele><time>2026-04-14T17:42:28.101Z</time></trkpt><trkpt lat="32.3420197" lon="-111.4587353"><ele>750.5</ele><time>2026-04-14T17:42:29.1Z</time></trkpt><trkpt lat="32.3420952" lon="-111.4587238"><ele>750.3333333333334</ele><time>2026-04-14T17:42:30.103Z</time></trkpt><trkpt lat="32.3421806" lon="-111.4587134"><ele>750.1666666666666</ele><time>2026-04-14T17:42:31.093Z</time></trkpt><trkpt lat="32.3422683" lon="-111.4586973"><ele>750.0</ele><time>2026-04-14T17:42:32.096Z</time></trkpt><trkpt lat="32.3423548" lon="-111.4586821"><ele>751.1666666666666</ele><time>2026-04-14T17:42:33.097Z</time></trkpt><trkpt lat="32.3424385" lon="-111.4586629"><ele>752.3333333333334</ele><time>2026-04-14T17:42:34.103Z</time></trkpt><trkpt lat="32.3425005" lon="-111.4586313"><ele>753.5</ele><time>2026-04-14T17:42:35.103Z</time></trkpt><trkpt lat="32.3425524" lon="-111.4585869"><ele>754.6666666666667</ele><time>2026-04-14T17:42:36.095Z</time></trkpt><trkpt lat="32.3425992" lon="-111.4585316"><ele>755.8333333333334</ele><time>2026-04-14T17:42:37.101Z</time></trkpt><trkpt lat="32.342649" lon="-111.458466"><ele>757.0</ele><time>2026-04-14T17:42:38.099Z</time></trkpt><trkpt lat="32.3427545" lon="-111.458388"><ele>757.0</ele><time>2026-04-14T17:42:40.097Z</time></trkpt><trkpt lat="32.3428215" lon="-111.4583725"><ele>757.0</ele><time>2026-04-14T17:42:41.099Z</time></trkpt><trkpt lat="32.3428983" lon="-111.4583706"><ele>757.0</ele><time>2026-04-14T17:42:42.095Z</time></trkpt><trkpt lat="32.3429833" lon="-111.4583732"><ele>757.0</ele><time>2026-04-14T17:42:43.094Z</time></trkpt><trkpt lat="32.3430718" lon="-111.4583713"><ele>757.0</ele><time>2026-04-14T17:42:44.102Z</time></trkpt><trkpt lat="32.3431528" lon="-111.4583669"><ele>757.0</ele><time>2026-04-14T17:42:45.099Z</time></trkpt><trkpt lat="32.3432312" lon="-111.4583551"><ele>757.5</ele><time>2026-04-14T17:42:46.116Z</time></trkpt><trkpt lat="32.3433005" lon="-111.4583393"><ele>758.0</ele><time>2026-04-14T17:42:47.096Z</time></trkpt><trkpt lat="32.3433652" lon="-111.4583065"><ele>758.5</ele><time>2026-04-14T17:42:48.101Z</time></trkpt><trkpt lat="32.3434262" lon="-111.4582552"><ele>759.0</ele><time>2026-04-14T17:42:49.091Z</time></trkpt><trkpt lat="32.3434751" lon="-111.4581815"><ele>759.5</ele><time>2026-04-14T17:42:50.098Z</time></trkpt><trkpt lat="32.3435126" lon="-111.458083"><ele>760.0</ele><time>2026-04-14T17:42:51.11Z</time></trkpt><trkpt lat="32.3435447" lon="-111.4579683"><ele>759.4</ele><time>2026-04-14T17:42:52.101Z</time></trkpt><trkpt lat="32.3435826" lon="-111.4578503"><ele>758.8</ele><time>2026-04-14T17:42:53.098Z</time></trkpt><trkpt lat="32.3436254" lon="-111.4577337"><ele>758.2</ele><time>2026-04-14T17:42:54.106Z</time></trkpt><trkpt lat="32.343672" lon="-111.4576154"><ele>757.6</ele><time>2026-04-14T17:42:55.094Z</time></trkpt><trkpt lat="32.3437196" lon="-111.4574964"><ele>757.0</ele><time>2026-04-14T17:42:56.102Z</time></trkpt><trkpt lat="32.3437639" lon="-111.4573951"><ele>757.0</ele><time>2026-04-14T17:42:57.097Z</time></trkpt><trkpt lat="32.34381" lon="-111.4573"><ele>757.0</ele><time>2026-04-14T17:42:58.105Z</time></trkpt><trkpt lat="32.3438553" lon="-111.4572209"><ele>757.0</ele><time>2026-04-14T17:42:59.103Z</time></trkpt><trkpt lat="32.3438958" lon="-111.4571599"><ele>757.0</ele><time>2026-04-14T17:43:00.106Z</time></trkpt><trkpt lat="32.3439355" lon="-111.4570968"><ele>757.0</ele><time>2026-04-14T17:43:01.102Z</time></trkpt><trkpt lat="32.3439654" lon="-111.4570299"><ele>757.0</ele><time>2026-04-14T17:43:02.105Z</time></trkpt><trkpt lat="32.3439916" lon="-111.4569464"><ele>757.0</ele><time>2026-04-14T17:43:03.103Z</time></trkpt><trkpt lat="32.3440202" lon="-111.4568636"><ele>757.3333333333334</ele><time>2026-04-14T17:43:04.105Z</time></trkpt><trkpt lat="32.3440613" lon="-111.4567755"><ele>757.6666666666667</ele><time>2026-04-14T17:43:05.094Z</time></trkpt><trkpt lat="32.3441137" lon="-111.4566829"><ele>758.0</ele><time>2026-04-14T17:43:06.102Z</time></trkpt><trkpt lat="32.3441577" lon="-111.4565909"><ele>758.3333333333334</ele><time>2026-04-14T17:43:07.094Z</time></trkpt><trkpt lat="32.3441951" lon="-111.4564962"><ele>758.6666666666666</ele><time>2026-04-14T17:43:08.094Z</time></trkpt><trkpt lat="32.3442141" lon="-111.456407"><ele>759.0</ele><time>2026-04-14T17:43:09.104Z</time></trkpt><trkpt lat="32.3442263" lon="-111.4563186"><ele>758.4000000000001</ele><time>2026-04-14T17:43:10.093Z</time></trkpt><trkpt lat="32.3442359" lon="-111.4562157"><ele>757.8</ele><time>2026-04-14T17:43:11.102Z</time></trkpt><trkpt lat="32.344237" lon="-111.4560865"><ele>757.2</ele><time>2026-04-14T17:43:12.1Z</time></trkpt><trkpt lat="32.3442301" lon="-111.4559685"><ele>756.5999999999999</ele><time>2026-04-14T17:43:13.102Z</time></trkpt><trkpt lat="32.3442282" lon="-111.4558497"><ele>756.0</ele><time>2026-04-14T17:43:14.103Z</time></trkpt><trkpt lat="32.3442265" lon="-111.4557507"><ele>756.0</ele><time>2026-04-14T17:43:15.101Z</time></trkpt><trkpt lat="32.3442266" lon="-111.4556423"><ele>756.0</ele><time>2026-04-14T17:43:16.143Z</time></trkpt><trkpt lat="32.344232" lon="-111.4555443"><ele>756.0</ele><time>2026-04-14T17:43:17.1Z</time></trkpt><trkpt lat="32.3442454" lon="-111.4554353"><ele>756.0</ele><time>2026-04-14T17:43:18.107Z</time></trkpt><trkpt lat="32.3442594" lon="-111.4553376"><ele>756.0</ele><time>2026-04-14T17:43:19.097Z</time></trkpt><trkpt lat="32.3442805" lon="-111.4552355"><ele>756.0</ele><time>2026-04-14T17:43:20.108Z</time></trkpt><trkpt lat="32.3443124" lon="-111.455111"><ele>755.0</ele><time>2026-04-14T17:43:21.097Z</time></trkpt><trkpt lat="32.3443536" lon="-111.4549821"><ele>754.0</ele><time>2026-04-14T17:43:22.111Z</time></trkpt><trkpt lat="32.3444036" lon="-111.4548219"><ele>753.0</ele><time>2026-04-14T17:43:23.425Z</time></trkpt><trkpt lat="32.3444713" lon="-111.4546397"><ele>752.0</ele><time>2026-04-14T17:43:25.158Z</time></trkpt><trkpt lat="32.3445118" lon="-111.4545445"><ele>752.0</ele><time>2026-04-14T17:43:26.153Z</time></trkpt><trkpt lat="32.3445551" lon="-111.4544487"><ele>752.0</ele><time>2026-04-14T17:43:27.152Z</time></trkpt><trkpt lat="32.3445992" lon="-111.4543568"><ele>752.0</ele><time>2026-04-14T17:43:28.154Z</time></trkpt><trkpt lat="32.344655" lon="-111.4542629"><ele>752.0</ele><time>2026-04-14T17:43:29.158Z</time></trkpt><trkpt lat="32.344732" lon="-111.4541797"><ele>752.0</ele><time>2026-04-14T17:43:30.157Z</time></trkpt><trkpt lat="32.3448098" lon="-111.4540948"><ele>752.0</ele><time>2026-04-14T17:43:31.154Z</time></trkpt><trkpt lat="32.3448796" lon="-111.4540198"><ele>752.0</ele><time>2026-04-14T17:43:32.154Z</time></trkpt><trkpt lat="32.3449421" lon="-111.4539443"><ele>752.0</ele><time>2026-04-14T17:43:33.171Z</time></trkpt><trkpt lat="32.3449945" lon="-111.4538757"><ele>752.0</ele><time>2026-04-14T17:43:34.153Z</time></trkpt><trkpt lat="32.3450496" lon="-111.4538114"><ele>752.0</ele><time>2026-04-14T17:43:35.15Z</time></trkpt><trkpt lat="32.3451262" lon="-111.4537671"><ele>752.0</ele><time>2026-04-14T17:43:36.159Z</time></trkpt><trkpt lat="32.3452008" lon="-111.4537084"><ele>751.4000000000001</ele><time>2026-04-14T17:43:37.156Z</time></trkpt><trkpt lat="32.3452789" lon="-111.4536354"><ele>750.8000000000001</ele><time>2026-04-14T17:43:38.154Z</time></trkpt><trkpt lat="32.345356" lon="-111.4535622"><ele>750.2</ele><time>2026-04-14T17:43:39.168Z</time></trkpt><trkpt lat="32.3454258" lon="-111.4534856"><ele>749.6</ele><time>2026-04-14T17:43:40.153Z</time></trkpt><trkpt lat="32.3454951" lon="-111.4534027"><ele>749.0</ele><time>2026-04-14T17:43:41.167Z</time></trkpt><trkpt lat="32.3455601" lon="-111.4533269"><ele>749.0</ele><time>2026-04-14T17:43:42.154Z</time></trkpt><trkpt lat="32.3456165" lon="-111.4532501"><ele>749.0</ele><time>2026-04-14T17:43:43.154Z</time></trkpt><trkpt lat="32.3456752" lon="-111.4531632"><ele>749.0</ele><time>2026-04-14T17:43:44.187Z</time></trkpt><trkpt lat="32.3457361" lon="-111.4530948"><ele>749.0</ele><time>2026-04-14T17:43:45.157Z</time></trkpt><trkpt lat="32.345793" lon="-111.4530302"><ele>749.0</ele><time>2026-04-14T17:43:46.169Z</time></trkpt><trkpt lat="32.3458524" lon="-111.4529686"><ele>749.0</ele><time>2026-04-14T17:43:47.158Z</time></trkpt><trkpt lat="32.3459152" lon="-111.4529197"><ele>748.6666666666666</ele><time>2026-04-14T17:43:48.171Z</time></trkpt><trkpt lat="32.3459905" lon="-111.4528728"><ele>748.3333333333333</ele><time>2026-04-14T17:43:49.161Z</time></trkpt><trkpt lat="32.3460684" lon="-111.4528214"><ele>748.0</ele><time>2026-04-14T17:43:50.159Z</time></trkpt><trkpt lat="32.3461427" lon="-111.4527599"><ele>747.6666666666666</ele><time>2026-04-14T17:43:51.17Z</time></trkpt><trkpt lat="32.346207" lon="-111.4526756"><ele>747.3333333333334</ele><time>2026-04-14T17:43:52.152Z</time></trkpt><trkpt lat="32.3462639" lon="-111.4525997"><ele>747.0</ele><time>2026-04-14T17:43:53.162Z</time></trkpt><trkpt lat="32.3463173" lon="-111.4525331"><ele>747.0</ele><time>2026-04-14T17:43:54.171Z</time></trkpt><trkpt lat="32.3463795" lon="-111.4524881"><ele>747.0</ele><time>2026-04-14T17:43:55.157Z</time></trkpt><trkpt lat="32.3464607" lon="-111.4524583"><ele>747.0</ele><time>2026-04-14T17:43:56.169Z</time></trkpt><trkpt lat="32.3465487" lon="-111.4524326"><ele>747.0</ele><time>2026-04-14T17:43:57.164Z</time></trkpt><trkpt lat="32.3466383" lon="-111.4524082"><ele>747.0</ele><time>2026-04-14T17:43:58.163Z</time></trkpt><trkpt lat="32.3467192" lon="-111.4523905"><ele>747.0</ele><time>2026-04-14T17:43:59.159Z</time></trkpt><trkpt lat="32.3467925" lon="-111.4523801"><ele>747.0</ele><time>2026-04-14T17:44:00.163Z</time></trkpt><trkpt lat="32.3468551" lon="-111.452372"><ele>747.0</ele><time>2026-04-14T17:44:01.164Z</time></trkpt><trkpt lat="32.3469936" lon="-111.4523557"><ele>747.0</ele><time>2026-04-14T17:44:03.156Z</time></trkpt><trkpt lat="32.3470689" lon="-111.4523191"><ele>747.0</ele><time>2026-04-14T17:44:04.162Z</time></trkpt><trkpt lat="32.3471438" lon="-111.4522749"><ele>747.0</ele><time>2026-04-14T17:44:05.151Z</time></trkpt><trkpt lat="32.3472164" lon="-111.4522278"><ele>747.1666666666666</ele><time>2026-04-14T17:44:06.167Z</time></trkpt><trkpt lat="32.3472795" lon="-111.4521705"><ele>747.3333333333334</ele><time>2026-04-14T17:44:07.153Z</time></trkpt><trkpt lat="32.3473512" lon="-111.4521018"><ele>747.5</ele><time>2026-04-14T17:44:08.167Z</time></trkpt><trkpt lat="32.3474106" lon="-111.4520379"><ele>747.6666666666667</ele><time>2026-04-14T17:44:09.158Z</time></trkpt><trkpt lat="32.3474711" lon="-111.4519659"><ele>747.8333333333334</ele><time>2026-04-14T17:44:10.165Z</time></trkpt><trkpt lat="32.3475321" lon="-111.451905"><ele>748.0</ele><time>2026-04-14T17:44:11.155Z</time></trkpt><trkpt lat="32.3476005" lon="-111.4518397"><ele>746.2</ele><time>2026-04-14T17:44:12.165Z</time></trkpt><trkpt lat="32.3476723" lon="-111.4517803"><ele>744.4</ele><time>2026-04-14T17:44:13.165Z</time></trkpt><trkpt lat="32.3477488" lon="-111.4517263"><ele>742.6</ele><time>2026-04-14T17:44:14.15Z</time></trkpt><trkpt lat="32.3478276" lon="-111.4516708"><ele>740.8000000000001</ele><time>2026-04-14T17:44:15.16Z</time></trkpt><trkpt lat="32.3479049" lon="-111.4516186"><ele>739.0</ele><time>2026-04-14T17:44:16.161Z</time></trkpt><trkpt lat="32.3479923" lon="-111.4515712"><ele>738.2</ele><time>2026-04-14T17:44:17.175Z</time></trkpt><trkpt lat="32.3480791" lon="-111.4515344"><ele>737.4000000000001</ele><time>2026-04-14T17:44:18.172Z</time></trkpt><trkpt lat="32.3481673" lon="-111.4515014"><ele>736.6</ele><time>2026-04-14T17:44:19.16Z</time></trkpt><trkpt lat="32.3482573" lon="-111.4514784"><ele>735.8</ele><time>2026-04-14T17:44:20.171Z</time></trkpt><trkpt lat="32.3483457" lon="-111.4514565"><ele>735.0</ele><time>2026-04-14T17:44:21.157Z</time></trkpt><trkpt lat="32.3484307" lon="-111.4514271"><ele>735.0</ele><time>2026-04-14T17:44:22.161Z</time></trkpt><trkpt lat="32.3485161" lon="-111.4513974"><ele>735.0</ele><time>2026-04-14T17:44:23.154Z</time></trkpt><trkpt lat="32.3486058" lon="-111.4513786"><ele>735.0</ele><time>2026-04-14T17:44:24.163Z</time></trkpt><trkpt lat="32.3486963" lon="-111.4513653"><ele>735.0</ele><time>2026-04-14T17:44:25.163Z</time></trkpt><trkpt lat="32.3487888" lon="-111.4513536"><ele>735.0</ele><time>2026-04-14T17:44:26.157Z</time></trkpt><trkpt lat="32.3488709" lon="-111.4513361"><ele>735.0</ele><time>2026-04-14T17:44:27.158Z</time></trkpt><trkpt lat="32.3489483" lon="-111.451305"><ele>733.8333333333334</ele><time>2026-04-14T17:44:28.157Z</time></trkpt><trkpt lat="32.3490272" lon="-111.4512707"><ele>732.6666666666666</ele><time>2026-04-14T17:44:29.168Z</time></trkpt><trkpt lat="32.3491015" lon="-111.4512439"><ele>731.5</ele><time>2026-04-14T17:44:30.157Z</time></trkpt><trkpt lat="32.3491816" lon="-111.4512405"><ele>730.3333333333333</ele><time>2026-04-14T17:44:31.153Z</time></trkpt><trkpt lat="32.3492674" lon="-111.4512422"><ele>729.1666666666666</ele><time>2026-04-14T17:44:32.154Z</time></trkpt><trkpt lat="32.3493528" lon="-111.4512487"><ele>728.0</ele><time>2026-04-14T17:44:33.163Z</time></trkpt><trkpt lat="32.3494432" lon="-111.451248"><ele>728.0</ele><time>2026-04-14T17:44:34.155Z</time></trkpt><trkpt lat="32.3495377" lon="-111.4512387"><ele>728.0</ele><time>2026-04-14T17:44:35.169Z</time></trkpt><trkpt lat="32.3496267" lon="-111.4512342"><ele>728.0</ele><time>2026-04-14T17:44:36.152Z</time></trkpt><trkpt lat="32.3497182" lon="-111.4512238"><ele>728.0</ele><time>2026-04-14T17:44:37.158Z</time></trkpt><trkpt lat="32.3498056" lon="-111.4512091"><ele>728.0</ele><time>2026-04-14T17:44:38.165Z</time></trkpt><trkpt lat="32.3499025" lon="-111.4511817"><ele>727.5999999999999</ele><time>2026-04-14T17:44:39.166Z</time></trkpt><trkpt lat="32.350002" lon="-111.4511439"><ele>727.1999999999999</ele><time>2026-04-14T17:44:40.17Z</time></trkpt><trkpt lat="32.3500976" lon="-111.4511052"><ele>726.8</ele><time>2026-04-14T17:44:41.164Z</time></trkpt><trkpt lat="32.3501914" lon="-111.4510736"><ele>726.4</ele><time>2026-04-14T17:44:42.164Z</time></trkpt><trkpt lat="32.3502805" lon="-111.4510465"><ele>726.0</ele><time>2026-04-14T17:44:43.164Z</time></trkpt><trkpt lat="32.3503641" lon="-111.4510312"><ele>726.0</ele><time>2026-04-14T17:44:44.158Z</time></trkpt><trkpt lat="32.3504493" lon="-111.4510027"><ele>726.0</ele><time>2026-04-14T17:44:45.164Z</time></trkpt><trkpt lat="32.3505369" lon="-111.4509659"><ele>726.0</ele><time>2026-04-14T17:44:46.159Z</time></trkpt><trkpt lat="32.3506155" lon="-111.4509216"><ele>726.0</ele><time>2026-04-14T17:44:47.17Z</time></trkpt><trkpt lat="32.3506929" lon="-111.4508818"><ele>726.0</ele><time>2026-04-14T17:44:48.162Z</time></trkpt><trkpt lat="32.3507763" lon="-111.4508369"><ele>726.0</ele><time>2026-04-14T17:44:49.159Z</time></trkpt><trkpt lat="32.3508606" lon="-111.4507844"><ele>725.5999999999999</ele><time>2026-04-14T17:44:50.159Z</time></trkpt><trkpt lat="32.3509419" lon="-111.4507193"><ele>725.2</ele><time>2026-04-14T17:44:51.164Z</time></trkpt><trkpt lat="32.3510163" lon="-111.4506553"><ele>724.8</ele><time>2026-04-14T17:44:52.163Z</time></trkpt><trkpt lat="32.3510967" lon="-111.4506016"><ele>724.4000000000001</ele><time>2026-04-14T17:44:53.157Z</time></trkpt><trkpt lat="32.351177" lon="-111.4505517"><ele>724.0</ele><time>2026-04-14T17:44:54.148Z</time></trkpt><trkpt lat="32.3512545" lon="-111.4504969"><ele>723.6</ele><time>2026-04-14T17:44:55.161Z</time></trkpt><trkpt lat="32.3513283" lon="-111.4504352"><ele>723.2</ele><time>2026-04-14T17:44:56.154Z</time></trkpt><trkpt lat="32.3513994" lon="-111.450363"><ele>722.8000000000001</ele><time>2026-04-14T17:44:57.156Z</time></trkpt><trkpt lat="32.3514654" lon="-111.4502801"><ele>722.4000000000001</ele><time>2026-04-14T17:44:58.163Z</time></trkpt><trkpt lat="32.3515228" lon="-111.4501893"><ele>722.0</ele><time>2026-04-14T17:44:59.152Z</time></trkpt><trkpt lat="32.3515743" lon="-111.4500971"><ele>721.6</ele><time>2026-04-14T17:45:00.155Z</time></trkpt><trkpt lat="32.3516312" lon="-111.4500059"><ele>721.2</ele><time>2026-04-14T17:45:01.159Z</time></trkpt><trkpt lat="32.3516904" lon="-111.449913"><ele>720.8</ele><time>2026-04-14T17:45:02.152Z</time></trkpt><trkpt lat="32.3517468" lon="-111.4498184"><ele>720.4</ele><time>2026-04-14T17:45:03.155Z</time></trkpt><trkpt lat="32.3518034" lon="-111.4497192"><ele>720.0</ele><time>2026-04-14T17:45:04.163Z</time></trkpt><trkpt lat="32.3518564" lon="-111.4496213"><ele>719.8</ele><time>2026-04-14T17:45:05.154Z</time></trkpt><trkpt lat="32.3519083" lon="-111.449524"><ele>719.6</ele><time>2026-04-14T17:45:06.159Z</time></trkpt><trkpt lat="32.3519646" lon="-111.4494291"><ele>719.4000000000001</ele><time>2026-04-14T17:45:07.155Z</time></trkpt><trkpt lat="32.35203" lon="-111.4493416"><ele>719.2</ele><time>2026-04-14T17:45:08.176Z</time></trkpt><trkpt lat="32.3521047" lon="-111.449263"><ele>719.0</ele><time>2026-04-14T17:45:09.162Z</time></trkpt><trkpt lat="32.3521889" lon="-111.4491828"><ele>718.6</ele><time>2026-04-14T17:45:10.158Z</time></trkpt><trkpt lat="32.352276" lon="-111.4491069"><ele>718.2</ele><time>2026-04-14T17:45:11.154Z</time></trkpt><trkpt lat="32.3523675" lon="-111.4490339"><ele>717.8000000000001</ele><time>2026-04-14T17:45:12.16Z</time></trkpt><trkpt lat="32.3524605" lon="-111.4489631"><ele>717.4000000000001</ele><time>2026-04-14T17:45:13.157Z</time></trkpt><trkpt lat="32.3525522" lon="-111.4488924"><ele>717.0</ele><time>2026-04-14T17:45:14.16Z</time></trkpt><trkpt lat="32.352641" lon="-111.4488222"><ele>716.5</ele><time>2026-04-14T17:45:15.167Z</time></trkpt><trkpt lat="32.352729" lon="-111.448749"><ele>716.0</ele><time>2026-04-14T17:45:16.16Z</time></trkpt><trkpt lat="32.3528208" lon="-111.4486654"><ele>715.5</ele><time>2026-04-14T17:45:17.158Z</time></trkpt><trkpt lat="32.3529173" lon="-111.4485711"><ele>715.0</ele><time>2026-04-14T17:45:18.161Z</time></trkpt><trkpt lat="32.3530119" lon="-111.448485"><ele>715.0</ele><time>2026-04-14T17:45:19.164Z</time></trkpt><trkpt lat="32.3531025" lon="-111.4484101"><ele>715.0</ele><time>2026-04-14T17:45:20.163Z</time></trkpt><trkpt lat="32.3531833" lon="-111.4483411"><ele>715.0</ele><time>2026-04-14T17:45:21.155Z</time></trkpt><trkpt lat="32.3532629" lon="-111.4482715"><ele>715.0</ele><time>2026-04-14T17:45:22.158Z</time></trkpt><trkpt lat="32.3533465" lon="-111.4482022"><ele>715.0</ele><time>2026-04-14T17:45:23.159Z</time></trkpt><trkpt lat="32.3534514" lon="-111.4481365"><ele>715.0</ele><time>2026-04-14T17:45:24.153Z</time></trkpt><trkpt lat="32.3535759" lon="-111.4480584"><ele>715.0</ele><time>2026-04-14T17:45:25.166Z</time></trkpt><trkpt lat="32.3536959" lon="-111.4479778"><ele>715.0</ele><time>2026-04-14T17:45:26.165Z</time></trkpt><trkpt lat="32.3538102" lon="-111.4478994"><ele>715.0</ele><time>2026-04-14T17:45:27.158Z</time></trkpt><trkpt lat="32.3539231" lon="-111.4478227"><ele>714.0</ele><time>2026-04-14T17:45:28.16Z</time></trkpt><trkpt lat="32.3540312" lon="-111.4477488"><ele>713.0</ele><time>2026-04-14T17:45:29.153Z</time></trkpt><trkpt lat="32.3541339" lon="-111.4476757"><ele>712.0</ele><time>2026-04-14T17:45:30.172Z</time></trkpt><trkpt lat="32.3542259" lon="-111.4476074"><ele>711.0</ele><time>2026-04-14T17:45:31.165Z</time></trkpt><trkpt lat="32.3543144" lon="-111.4475403"><ele>711.0</ele><time>2026-04-14T17:45:32.157Z</time></trkpt><trkpt lat="32.3543966" lon="-111.4474769"><ele>711.0</ele><time>2026-04-14T17:45:33.161Z</time></trkpt><trkpt lat="32.3544823" lon="-111.4474149"><ele>711.0</ele><time>2026-04-14T17:45:34.154Z</time></trkpt><trkpt lat="32.3545776" lon="-111.4473679"><ele>711.0</ele><time>2026-04-14T17:45:35.161Z</time></trkpt><trkpt lat="32.3546615" lon="-111.4473247"><ele>711.0</ele><time>2026-04-14T17:45:36.163Z</time></trkpt><trkpt lat="32.3547357" lon="-111.4472913"><ele>710.1999999999999</ele><time>2026-04-14T17:45:37.158Z</time></trkpt><trkpt lat="32.3548128" lon="-111.447248"><ele>709.4</ele><time>2026-04-14T17:45:38.174Z</time></trkpt><trkpt lat="32.3548884" lon="-111.4471865"><ele>708.6</ele><time>2026-04-14T17:45:39.153Z</time></trkpt><trkpt lat="32.3549669" lon="-111.4471142"><ele>707.8</ele><time>2026-04-14T17:45:40.161Z</time></trkpt><trkpt lat="32.3550473" lon="-111.447045"><ele>707.0</ele><time>2026-04-14T17:45:41.157Z</time></trkpt><trkpt lat="32.3551305" lon="-111.4469811"><ele>707.0</ele><time>2026-04-14T17:45:42.163Z</time></trkpt><trkpt lat="32.3552166" lon="-111.4469148"><ele>707.0</ele><time>2026-04-14T17:45:43.155Z</time></trkpt><trkpt lat="32.3553112" lon="-111.4468339"><ele>707.0</ele><time>2026-04-14T17:45:44.161Z</time></trkpt><trkpt lat="32.3553989" lon="-111.44676"><ele>707.0</ele><time>2026-04-14T17:45:45.153Z</time></trkpt><trkpt lat="32.355493" lon="-111.4466801"><ele>707.0</ele><time>2026-04-14T17:45:46.152Z</time></trkpt><trkpt lat="32.355591" lon="-111.4465953"><ele>706.5</ele><time>2026-04-14T17:45:47.157Z</time></trkpt><trkpt lat="32.3556866" lon="-111.4464993"><ele>706.0</ele><time>2026-04-14T17:45:48.164Z</time></trkpt><trkpt lat="32.3557859" lon="-111.4463881"><ele>705.5</ele><time>2026-04-14T17:45:49.168Z</time></trkpt><trkpt lat="32.3558897" lon="-111.4462664"><ele>705.0</ele><time>2026-04-14T17:45:50.164Z</time></trkpt><trkpt lat="32.3559974" lon="-111.4461375"><ele>704.5</ele><time>2026-04-14T17:45:51.156Z</time></trkpt><trkpt lat="32.356103" lon="-111.446007"><ele>704.0</ele><time>2026-04-14T17:45:52.164Z</time></trkpt><trkpt lat="32.356203" lon="-111.4458791"><ele>703.5</ele><time>2026-04-14T17:45:53.165Z</time></trkpt><trkpt lat="32.3562934" lon="-111.4457525"><ele>703.0</ele><time>2026-04-14T17:45:54.158Z</time></trkpt><trkpt lat="32.3563778" lon="-111.4456227"><ele>702.75</ele><time>2026-04-14T17:45:55.167Z</time></trkpt><trkpt lat="32.356461" lon="-111.4455011"><ele>702.5</ele><time>2026-04-14T17:45:56.16Z</time></trkpt><trkpt lat="32.3565443" lon="-111.4453878"><ele>702.25</ele><time>2026-04-14T17:45:57.16Z</time></trkpt><trkpt lat="32.3566352" lon="-111.4452772"><ele>702.0</ele><time>2026-04-14T17:45:58.172Z</time></trkpt><trkpt lat="32.356738" lon="-111.4451774"><ele>702.0</ele><time>2026-04-14T17:45:59.161Z</time></trkpt><trkpt lat="32.3568518" lon="-111.445087"><ele>702.0</ele><time>2026-04-14T17:46:00.157Z</time></trkpt><trkpt lat="32.3569601" lon="-111.4450155"><ele>702.0</ele><time>2026-04-14T17:46:01.157Z</time></trkpt><trkpt lat="32.3570579" lon="-111.4449466"><ele>702.0</ele><time>2026-04-14T17:46:02.16Z</time></trkpt><trkpt lat="32.3571558" lon="-111.4448796"><ele>701.6</ele><time>2026-04-14T17:46:03.174Z</time></trkpt><trkpt lat="32.3572367" lon="-111.4448249"><ele>701.2</ele><time>2026-04-14T17:46:04.155Z</time></trkpt><trkpt lat="32.3573256" lon="-111.444762"><ele>700.8</ele><time>2026-04-14T17:46:05.159Z</time></trkpt><trkpt lat="32.3574092" lon="-111.4447018"><ele>700.4</ele><time>2026-04-14T17:46:06.158Z</time></trkpt><trkpt lat="32.3574943" lon="-111.444657"><ele>700.0</ele><time>2026-04-14T17:46:07.164Z</time></trkpt><trkpt lat="32.3575786" lon="-111.4446256"><ele>699.8333333333334</ele><time>2026-04-14T17:46:08.16Z</time></trkpt><trkpt lat="32.3576601" lon="-111.4446123"><ele>699.6666666666667</ele><time>2026-04-14T17:46:09.156Z</time></trkpt><trkpt lat="32.3577543" lon="-111.4446216"><ele>699.5</ele><time>2026-04-14T17:46:10.163Z</time></trkpt><trkpt lat="32.3578556" lon="-111.444624"><ele>699.3333333333334</ele><time>2026-04-14T17:46:11.161Z</time></trkpt><trkpt lat="32.3579445" lon="-111.4446248"><ele>699.1666666666666</ele><time>2026-04-14T17:46:12.173Z</time></trkpt><trkpt lat="32.3580163" lon="-111.4446268"><ele>699.0</ele><time>2026-04-14T17:46:13.166Z</time></trkpt><trkpt lat="32.358089" lon="-111.4446242"><ele>698.6</ele><time>2026-04-14T17:46:14.159Z</time></trkpt><trkpt lat="32.3581706" lon="-111.4446109"><ele>698.2</ele><time>2026-04-14T17:46:15.16Z</time></trkpt><trkpt lat="32.3582662" lon="-111.4446133"><ele>697.8000000000001</ele><time>2026-04-14T17:46:16.156Z</time></trkpt><trkpt lat="32.3583721" lon="-111.4446154"><ele>697.4000000000001</ele><time>2026-04-14T17:46:17.155Z</time></trkpt><trkpt lat="32.3584714" lon="-111.4446115"><ele>697.0</ele><time>2026-04-14T17:46:18.155Z</time></trkpt><trkpt lat="32.3585716" lon="-111.4446048"><ele>697.0</ele><time>2026-04-14T17:46:19.151Z</time></trkpt><trkpt lat="32.3586653" lon="-111.4445934"><ele>697.0</ele><time>2026-04-14T17:46:20.165Z</time></trkpt><trkpt lat="32.3587737" lon="-111.4445543"><ele>697.0</ele><time>2026-04-14T17:46:21.158Z</time></trkpt><trkpt lat="32.3588822" lon="-111.44452"><ele>697.0</ele><time>2026-04-14T17:46:22.161Z</time></trkpt><trkpt lat="32.358987" lon="-111.4444907"><ele>697.0</ele><time>2026-04-14T17:46:23.159Z</time></trkpt><trkpt lat="32.3590925" lon="-111.444458"><ele>697.8</ele><time>2026-04-14T17:46:24.167Z</time></trkpt><trkpt lat="32.3592051" lon="-111.4444242"><ele>698.6</ele><time>2026-04-14T17:46:25.162Z</time></trkpt><trkpt lat="32.3593177" lon="-111.4443926"><ele>699.4</ele><time>2026-04-14T17:46:26.183Z</time></trkpt><trkpt lat="32.3594193" lon="-111.4443594"><ele>700.1999999999999</ele><time>2026-04-14T17:46:27.153Z</time></trkpt><trkpt lat="32.3595194" lon="-111.4443158"><ele>701.0</ele><time>2026-04-14T17:46:28.161Z</time></trkpt><trkpt lat="32.3596187" lon="-111.4442697"><ele>701.25</ele><time>2026-04-14T17:46:29.155Z</time></trkpt><trkpt lat="32.3597281" lon="-111.4442295"><ele>701.5</ele><time>2026-04-14T17:46:30.162Z</time></trkpt><trkpt lat="32.3598498" lon="-111.4441967"><ele>701.75</ele><time>2026-04-14T17:46:31.16Z</time></trkpt><trkpt lat="32.3599628" lon="-111.4441716"><ele>702.0</ele><time>2026-04-14T17:46:32.163Z</time></trkpt><trkpt lat="32.3600764" lon="-111.4441529"><ele>702.0</ele><time>2026-04-14T17:46:33.165Z</time></trkpt><trkpt lat="32.3601851" lon="-111.4441353"><ele>702.0</ele><time>2026-04-14T17:46:34.162Z</time></trkpt><trkpt lat="32.3602931" lon="-111.444122"><ele>702.0</ele><time>2026-04-14T17:46:35.161Z</time></trkpt><trkpt lat="32.3604012" lon="-111.4440983"><ele>702.0</ele><time>2026-04-14T17:46:36.162Z</time></trkpt><trkpt lat="32.3604973" lon="-111.4440338"><ele>702.0</ele><time>2026-04-14T17:46:37.166Z</time></trkpt><trkpt lat="32.3605952" lon="-111.4439795"><ele>702.0</ele><time>2026-04-14T17:46:38.157Z</time></trkpt><trkpt lat="32.3606936" lon="-111.4439278"><ele>702.0</ele><time>2026-04-14T17:46:39.161Z</time></trkpt><trkpt lat="32.3607909" lon="-111.4438796"><ele>702.0</ele><time>2026-04-14T17:46:40.162Z</time></trkpt><trkpt lat="32.3608868" lon="-111.4438386"><ele>702.0</ele><time>2026-04-14T17:46:41.153Z</time></trkpt><trkpt lat="32.3609867" lon="-111.4437946"><ele>702.0</ele><time>2026-04-14T17:46:42.163Z</time></trkpt><trkpt lat="32.3610809" lon="-111.4437471"><ele>701.8</ele><time>2026-04-14T17:46:43.163Z</time></trkpt><trkpt lat="32.3611662" lon="-111.4436984"><ele>701.6</ele><time>2026-04-14T17:46:44.155Z</time></trkpt><trkpt lat="32.3612544" lon="-111.4436528"><ele>701.4</ele><time>2026-04-14T17:46:45.158Z</time></trkpt><trkpt lat="32.361346" lon="-111.4436125"><ele>701.1999999999999</ele><time>2026-04-14T17:46:46.157Z</time></trkpt><trkpt lat="32.3614453" lon="-111.4435832"><ele>701.0</ele><time>2026-04-14T17:46:47.162Z</time></trkpt><trkpt lat="32.3615429" lon="-111.4435573"><ele>701.0</ele><time>2026-04-14T17:46:48.168Z</time></trkpt><trkpt lat="32.3616507" lon="-111.443521"><ele>701.0</ele><time>2026-04-14T17:46:49.159Z</time></trkpt><trkpt lat="32.3617694" lon="-111.4434863"><ele>701.0</ele><time>2026-04-14T17:46:50.166Z</time></trkpt><trkpt lat="32.3618917" lon="-111.4434526"><ele>701.0</ele><time>2026-04-14T17:46:51.159Z</time></trkpt><trkpt lat="32.3620097" lon="-111.4434166"><ele>701.0</ele><time>2026-04-14T17:46:52.173Z</time></trkpt><trkpt lat="32.3621316" lon="-111.4433762"><ele>701.0</ele><time>2026-04-14T17:46:53.153Z</time></trkpt><trkpt lat="32.3622572" lon="-111.4433358"><ele>701.0</ele><time>2026-04-14T17:46:54.157Z</time></trkpt><trkpt lat="32.362376" lon="-111.4432953"><ele>701.0</ele><time>2026-04-14T17:46:55.159Z</time></trkpt><trkpt lat="32.3624936" lon="-111.4432546"><ele>701.5</ele><time>2026-04-14T17:46:56.165Z</time></trkpt><trkpt lat="32.3626161" lon="-111.4432124"><ele>702.0</ele><time>2026-04-14T17:46:57.164Z</time></trkpt><trkpt lat="32.3627551" lon="-111.4431611"><ele>702.5</ele><time>2026-04-14T17:46:58.165Z</time></trkpt><trkpt lat="32.3628992" lon="-111.4431064"><ele>703.0</ele><time>2026-04-14T17:46:59.156Z</time></trkpt><trkpt lat="32.363064" lon="-111.4430464"><ele>703.0</ele><time>2026-04-14T17:47:00.166Z</time></trkpt><trkpt lat="32.3632222" lon="-111.4429851"><ele>703.0</ele><time>2026-04-14T17:47:01.155Z</time></trkpt><trkpt lat="32.3633942" lon="-111.4429125"><ele>703.0</ele><time>2026-04-14T17:47:02.161Z</time></trkpt><trkpt lat="32.3635654" lon="-111.4428386"><ele>703.0</ele><time>2026-04-14T17:47:03.155Z</time></trkpt><trkpt lat="32.3637255" lon="-111.4427633"><ele>703.0</ele><time>2026-04-14T17:47:04.161Z</time></trkpt><trkpt lat="32.3638726" lon="-111.4426885"><ele>703.0</ele><time>2026-04-14T17:47:05.159Z</time></trkpt><trkpt lat="32.3640084" lon="-111.4426254"><ele>703.2</ele><time>2026-04-14T17:47:06.152Z</time></trkpt><trkpt lat="32.3641316" lon="-111.4425772"><ele>703.4</ele><time>2026-04-14T17:47:07.157Z</time></trkpt><trkpt lat="32.3642336" lon="-111.4425358"><ele>703.6</ele><time>2026-04-14T17:47:08.157Z</time></trkpt><trkpt lat="32.3643283" lon="-111.4424942"><ele>703.8000000000001</ele><time>2026-04-14T17:47:09.169Z</time></trkpt><trkpt lat="32.3644207" lon="-111.4424548"><ele>704.0</ele><time>2026-04-14T17:47:10.153Z</time></trkpt><trkpt lat="32.3645333" lon="-111.4424011"><ele>704.0</ele><time>2026-04-14T17:47:11.161Z</time></trkpt><trkpt lat="32.3646535" lon="-111.4423312"><ele>704.0</ele><time>2026-04-14T17:47:12.156Z</time></trkpt><trkpt lat="32.3647986" lon="-111.4422611"><ele>704.0</ele><time>2026-04-14T17:47:13.159Z</time></trkpt><trkpt lat="32.3649397" lon="-111.4421962"><ele>704.0</ele><time>2026-04-14T17:47:14.153Z</time></trkpt><trkpt lat="32.3650727" lon="-111.4421376"><ele>703.75</ele><time>2026-04-14T17:47:15.152Z</time></trkpt><trkpt lat="32.3651983" lon="-111.4420889"><ele>703.5</ele><time>2026-04-14T17:47:16.163Z</time></trkpt><trkpt lat="32.3653152" lon="-111.4420474"><ele>703.25</ele><time>2026-04-14T17:47:17.159Z</time></trkpt><trkpt lat="32.3654254" lon="-111.4420071"><ele>703.0</ele><time>2026-04-14T17:47:18.169Z</time></trkpt><trkpt lat="32.3655264" lon="-111.4419723"><ele>702.8</ele><time>2026-04-14T17:47:19.159Z</time></trkpt><trkpt lat="32.3656211" lon="-111.4419336"><ele>702.5999999999999</ele><time>2026-04-14T17:47:20.155Z</time></trkpt><trkpt lat="32.365699" lon="-111.4418843"><ele>702.4000000000001</ele><time>2026-04-14T17:47:21.156Z</time></trkpt><trkpt lat="32.3657678" lon="-111.4418313"><ele>702.2</ele><time>2026-04-14T17:47:22.151Z</time></trkpt><trkpt lat="32.3658479" lon="-111.4417761"><ele>702.0</ele><time>2026-04-14T17:47:23.157Z</time></trkpt><trkpt lat="32.3659408" lon="-111.4417517"><ele>702.0</ele><time>2026-04-14T17:47:24.151Z</time></trkpt><trkpt lat="32.3660214" lon="-111.4417236"><ele>702.0</ele><time>2026-04-14T17:47:25.158Z</time></trkpt><trkpt lat="32.3660961" lon="-111.4416862"><ele>702.0</ele><time>2026-04-14T17:47:26.15Z</time></trkpt><trkpt lat="32.3661911" lon="-111.441606"><ele>702.0</ele><time>2026-04-14T17:47:27.157Z</time></trkpt><trkpt lat="32.3662654" lon="-111.4415176"><ele>702.0</ele><time>2026-04-14T17:47:28.165Z</time></trkpt><trkpt lat="32.3663409" lon="-111.4414424"><ele>701.8</ele><time>2026-04-14T17:47:29.153Z</time></trkpt><trkpt lat="32.3664326" lon="-111.4413809"><ele>701.6</ele><time>2026-04-14T17:47:30.175Z</time></trkpt><trkpt lat="32.3665252" lon="-111.4413136"><ele>701.4</ele><time>2026-04-14T17:47:31.167Z</time></trkpt><trkpt lat="32.3666131" lon="-111.4412422"><ele>701.1999999999999</ele><time>2026-04-14T17:47:32.163Z</time></trkpt><trkpt lat="32.3667024" lon="-111.441165"><ele>701.0</ele><time>2026-04-14T17:47:33.157Z</time></trkpt><trkpt lat="32.3667829" lon="-111.4410855"><ele>700.5999999999999</ele><time>2026-04-14T17:47:34.158Z</time></trkpt><trkpt lat="32.366853" lon="-111.4409991"><ele>700.2</ele><time>2026-04-14T17:47:35.156Z</time></trkpt><trkpt lat="32.366925" lon="-111.4409068"><ele>699.8</ele><time>2026-04-14T17:47:36.164Z</time></trkpt><trkpt lat="32.3669926" lon="-111.440818"><ele>699.4000000000001</ele><time>2026-04-14T17:47:37.153Z</time></trkpt><trkpt lat="32.3670605" lon="-111.4407203"><ele>699.0</ele><time>2026-04-14T17:47:38.171Z</time></trkpt><trkpt lat="32.3671333" lon="-111.44063"><ele>699.5</ele><time>2026-04-14T17:47:39.157Z</time></trkpt><trkpt lat="32.3672216" lon="-111.4405449"><ele>700.0</ele><time>2026-04-14T17:47:40.156Z</time></trkpt><trkpt lat="32.3673215" lon="-111.4404582"><ele>700.5</ele><time>2026-04-14T17:47:41.159Z</time></trkpt><trkpt lat="32.3674255" lon="-111.4403678"><ele>701.0</ele><time>2026-04-14T17:47:42.164Z</time></trkpt><trkpt lat="32.3675291" lon="-111.4402819"><ele>701.0</ele><time>2026-04-14T17:47:43.157Z</time></trkpt><trkpt lat="32.367647" lon="-111.4401951"><ele>701.0</ele><time>2026-04-14T17:47:44.155Z</time></trkpt><trkpt lat="32.3677678" lon="-111.4401092"><ele>701.0</ele><time>2026-04-14T17:47:45.154Z</time></trkpt><trkpt lat="32.3678848" lon="-111.4400249"><ele>701.0</ele><time>2026-04-14T17:47:46.163Z</time></trkpt><trkpt lat="32.3680012" lon="-111.4399356"><ele>700.75</ele><time>2026-04-14T17:47:47.161Z</time></trkpt><trkpt lat="32.3681144" lon="-111.439844"><ele>700.5</ele><time>2026-04-14T17:47:48.161Z</time></trkpt><trkpt lat="32.3682237" lon="-111.4397593"><ele>700.25</ele><time>2026-04-14T17:47:49.154Z</time></trkpt><trkpt lat="32.368331" lon="-111.4396801"><ele>700.0</ele><time>2026-04-14T17:47:50.161Z</time></trkpt><trkpt lat="32.3684309" lon="-111.4396026"><ele>699.8</ele><time>2026-04-14T17:47:51.161Z</time></trkpt><trkpt lat="32.3685209" lon="-111.439523"><ele>699.6</ele><time>2026-04-14T17:47:52.156Z</time></trkpt><trkpt lat="32.3686013" lon="-111.4394401"><ele>699.4000000000001</ele><time>2026-04-14T17:47:53.155Z</time></trkpt><trkpt lat="32.3686717" lon="-111.4393612"><ele>699.2</ele><time>2026-04-14T17:47:54.164Z</time></trkpt><trkpt lat="32.3687318" lon="-111.4392879"><ele>699.0</ele><time>2026-04-14T17:47:55.157Z</time></trkpt><trkpt lat="32.3687883" lon="-111.439219"><ele>699.0</ele><time>2026-04-14T17:47:56.171Z</time></trkpt><trkpt lat="32.3688534" lon="-111.439163"><ele>699.0</ele><time>2026-04-14T17:47:57.169Z</time></trkpt><trkpt lat="32.3689262" lon="-111.4391189"><ele>699.0</ele><time>2026-04-14T17:47:58.16Z</time></trkpt><trkpt lat="32.3690073" lon="-111.4390723"><ele>699.0</ele><time>2026-04-14T17:47:59.167Z</time></trkpt><trkpt lat="32.3690896" lon="-111.4390411"><ele>699.0</ele><time>2026-04-14T17:48:00.161Z</time></trkpt><trkpt lat="32.3691697" lon="-111.4390303"><ele>699.0</ele><time>2026-04-14T17:48:01.156Z</time></trkpt><trkpt lat="32.3692828" lon="-111.4390144"><ele>698.25</ele><time>2026-04-14T17:48:02.169Z</time></trkpt><trkpt lat="32.3694014" lon="-111.4389783"><ele>697.5</ele><time>2026-04-14T17:48:03.157Z</time></trkpt><trkpt lat="32.3695025" lon="-111.4389286"><ele>696.75</ele><time>2026-04-14T17:48:04.166Z</time></trkpt><trkpt lat="32.3696036" lon="-111.4388819"><ele>696.0</ele><time>2026-04-14T17:48:05.159Z</time></trkpt><trkpt lat="32.3697069" lon="-111.4388318"><ele>695.5999999999999</ele><time>2026-04-14T17:48:06.161Z</time></trkpt><trkpt lat="32.3698032" lon="-111.4387778"><ele>695.2</ele><time>2026-04-14T17:48:07.165Z</time></trkpt><trkpt lat="32.3698842" lon="-111.4387182"><ele>694.8</ele><time>2026-04-14T17:48:08.164Z</time></trkpt><trkpt lat="32.3699536" lon="-111.4386614"><ele>694.4000000000001</ele><time>2026-04-14T17:48:09.154Z</time></trkpt><trkpt lat="32.370019" lon="-111.4385962"><ele>694.0</ele><time>2026-04-14T17:48:10.162Z</time></trkpt><trkpt lat="32.3700886" lon="-111.4385426"><ele>694.0</ele><time>2026-04-14T17:48:11.16Z</time></trkpt><trkpt lat="32.3701821" lon="-111.4384915"><ele>694.0</ele><time>2026-04-14T17:48:12.164Z</time></trkpt><trkpt lat="32.3702722" lon="-111.438404"><ele>694.0</ele><time>2026-04-14T17:48:13.162Z</time></trkpt><trkpt lat="32.3703622" lon="-111.4383065"><ele>694.0</ele><time>2026-04-14T17:48:14.164Z</time></trkpt><trkpt lat="32.3704407" lon="-111.4382077"><ele>694.0</ele><time>2026-04-14T17:48:15.157Z</time></trkpt><trkpt lat="32.3705199" lon="-111.4381175"><ele>694.0</ele><time>2026-04-14T17:48:16.171Z</time></trkpt><trkpt lat="32.3706054" lon="-111.438036"><ele>694.0</ele><time>2026-04-14T17:48:17.169Z</time></trkpt><trkpt lat="32.3706928" lon="-111.437957"><ele>694.0</ele><time>2026-04-14T17:48:18.164Z</time></trkpt><trkpt lat="32.3707793" lon="-111.4378743"><ele>694.0</ele><time>2026-04-14T17:48:19.161Z</time></trkpt><trkpt lat="32.3708726" lon="-111.4377984"><ele>693.8333333333334</ele><time>2026-04-14T17:48:20.161Z</time></trkpt><trkpt lat="32.3709581" lon="-111.4377304"><ele>693.6666666666667</ele><time>2026-04-14T17:48:21.16Z</time></trkpt><trkpt lat="32.3710394" lon="-111.4376672"><ele>693.5</ele><time>2026-04-14T17:48:22.169Z</time></trkpt><trkpt lat="32.3711157" lon="-111.4376148"><ele>693.3333333333334</ele><time>2026-04-14T17:48:23.159Z</time></trkpt><trkpt lat="32.3711873" lon="-111.4375694"><ele>693.1666666666666</ele><time>2026-04-14T17:48:24.174Z</time></trkpt><trkpt lat="32.3712444" lon="-111.4375302"><ele>693.0</ele><time>2026-04-14T17:48:25.159Z</time></trkpt><trkpt lat="32.3713275" lon="-111.437452"><ele>693.0</ele><time>2026-04-14T17:48:27.156Z</time></trkpt><trkpt lat="32.3713931" lon="-111.4373982"><ele>693.0</ele><time>2026-04-14T17:48:29.164Z</time></trkpt><trkpt lat="32.3714633" lon="-111.4374184"><ele>693.0</ele><time>2026-04-14T17:49:31.176Z</time></trkpt><trkpt lat="32.3715138" lon="-111.4375014"><ele>693.0</ele><time>2026-04-14T17:49:33.16Z</time></trkpt><trkpt lat="32.3715319" lon="-111.4375841"><ele>693.0</ele><time>2026-04-14T17:49:34.179Z</time></trkpt><trkpt lat="32.3715441" lon="-111.4376791"><ele>693.0</ele><time>2026-04-14T17:49:35.153Z</time></trkpt><trkpt lat="32.3715582" lon="-111.4378045"><ele>693.0</ele><time>2026-04-14T17:49:36.181Z</time></trkpt><trkpt lat="32.3715764" lon="-111.4379517"><ele>693.0</ele><time>2026-04-14T17:49:37.166Z</time></trkpt><trkpt lat="32.3715975" lon="-111.4381138"><ele>693.0</ele><time>2026-04-14T17:49:38.164Z</time></trkpt><trkpt lat="32.37162" lon="-111.4382989"><ele>693.0</ele><time>2026-04-14T17:49:39.177Z</time></trkpt><trkpt lat="32.3716424" lon="-111.4384935"><ele>694.3333333333334</ele><time>2026-04-14T17:49:40.174Z</time></trkpt><trkpt lat="32.3716677" lon="-111.4387107"><ele>695.6666666666667</ele><time>2026-04-14T17:49:41.167Z</time></trkpt><trkpt lat="32.3716952" lon="-111.4389414"><ele>697.0</ele><time>2026-04-14T17:49:42.179Z</time></trkpt><trkpt lat="32.3717236" lon="-111.4391837"><ele>697.6666666666667</ele><time>2026-04-14T17:49:43.177Z</time></trkpt><trkpt lat="32.3717527" lon="-111.4394263"><ele>698.3333333333334</ele><time>2026-04-14T17:49:44.162Z</time></trkpt><trkpt lat="32.3717828" lon="-111.4396748"><ele>699.0</ele><time>2026-04-14T17:49:45.17Z</time></trkpt><trkpt lat="32.3718131" lon="-111.4399222"><ele>699.0</ele><time>2026-04-14T17:49:46.176Z</time></trkpt><trkpt lat="32.3718424" lon="-111.4401647"><ele>699.0</ele><time>2026-04-14T17:49:47.158Z</time></trkpt><trkpt lat="32.3718714" lon="-111.4404105"><ele>699.0</ele><time>2026-04-14T17:49:48.157Z</time></trkpt><trkpt lat="32.3719001" lon="-111.4406604"><ele>699.0</ele><time>2026-04-14T17:49:49.171Z</time></trkpt><trkpt lat="32.3719278" lon="-111.4409029"><ele>699.0</ele><time>2026-04-14T17:49:50.157Z</time></trkpt><trkpt lat="32.3719572" lon="-111.4411535"><ele>699.0</ele><time>2026-04-14T17:49:51.182Z</time></trkpt><trkpt lat="32.3719857" lon="-111.4413922"><ele>700.0</ele><time>2026-04-14T17:49:52.157Z</time></trkpt><trkpt lat="32.3720161" lon="-111.4416412"><ele>701.0</ele><time>2026-04-14T17:49:53.181Z</time></trkpt><trkpt lat="32.372045" lon="-111.4418776"><ele>702.0</ele><time>2026-04-14T17:49:54.153Z</time></trkpt><trkpt lat="32.3720747" lon="-111.4421268"><ele>701.6666666666666</ele><time>2026-04-14T17:49:55.179Z</time></trkpt><trkpt lat="32.3721034" lon="-111.4423684"><ele>701.3333333333333</ele><time>2026-04-14T17:49:56.168Z</time></trkpt><trkpt lat="32.3721323" lon="-111.4426121"><ele>701.0</ele><time>2026-04-14T17:49:57.175Z</time></trkpt><trkpt lat="32.3721596" lon="-111.4428481"><ele>700.3333333333333</ele><time>2026-04-14T17:49:58.169Z</time></trkpt><trkpt lat="32.3721876" lon="-111.4430844"><ele>699.6666666666666</ele><time>2026-04-14T17:49:59.156Z</time></trkpt><trkpt lat="32.3722175" lon="-111.4433294"><ele>699.0</ele><time>2026-04-14T17:50:00.17Z</time></trkpt><trkpt lat="32.3722475" lon="-111.4435713"><ele>699.3333333333334</ele><time>2026-04-14T17:50:01.169Z</time></trkpt><trkpt lat="32.3722776" lon="-111.4438152"><ele>699.6666666666667</ele><time>2026-04-14T17:50:02.174Z</time></trkpt><trkpt lat="32.3723065" lon="-111.444058"><ele>700.0</ele><time>2026-04-14T17:50:03.184Z</time></trkpt><trkpt lat="32.3723327" lon="-111.4442894"><ele>700.0</ele><time>2026-04-14T17:50:04.159Z</time></trkpt><trkpt lat="32.37236" lon="-111.4445252"><ele>700.0</ele><time>2026-04-14T17:50:05.159Z</time></trkpt><trkpt lat="32.372389" lon="-111.4447666"><ele>700.0</ele><time>2026-04-14T17:50:06.184Z</time></trkpt><trkpt lat="32.3724184" lon="-111.4450016"><ele>700.6666666666667</ele><time>2026-04-14T17:50:07.182Z</time></trkpt><trkpt lat="32.3724484" lon="-111.4452342"><ele>701.3333333333334</ele><time>2026-04-14T17:50:08.165Z</time></trkpt><trkpt lat="32.3724786" lon="-111.4454715"><ele>702.0</ele><time>2026-04-14T17:50:09.159Z</time></trkpt><trkpt lat="32.3725076" lon="-111.4457126"><ele>702.3333333333334</ele><time>2026-04-14T17:50:10.166Z</time></trkpt><trkpt lat="32.3725354" lon="-111.4459521"><ele>702.6666666666667</ele><time>2026-04-14T17:50:11.162Z</time></trkpt><trkpt lat="32.3725636" lon="-111.4461934"><ele>703.0</ele><time>2026-04-14T17:50:12.167Z</time></trkpt><trkpt lat="32.3725913" lon="-111.4464308"><ele>703.0</ele><time>2026-04-14T17:50:13.155Z</time></trkpt><trkpt lat="32.3726208" lon="-111.4466774"><ele>703.0</ele><time>2026-04-14T17:50:14.18Z</time></trkpt><trkpt lat="32.3726497" lon="-111.4469162"><ele>703.0</ele><time>2026-04-14T17:50:15.167Z</time></trkpt><trkpt lat="32.3726787" lon="-111.4471576"><ele>703.6666666666667</ele><time>2026-04-14T17:50:16.163Z</time></trkpt><trkpt lat="32.3727091" lon="-111.4474121"><ele>704.3333333333334</ele><time>2026-04-14T17:50:17.165Z</time></trkpt><trkpt lat="32.3727403" lon="-111.4476789"><ele>705.0</ele><time>2026-04-14T17:50:18.174Z</time></trkpt><trkpt lat="32.3727712" lon="-111.4479422"><ele>705.5</ele><time>2026-04-14T17:50:19.164Z</time></trkpt><trkpt lat="32.3728033" lon="-111.4482119"><ele>706.0</ele><time>2026-04-14T17:50:20.179Z</time></trkpt><trkpt lat="32.3728344" lon="-111.4484777"><ele>706.0</ele><time>2026-04-14T17:50:21.184Z</time></trkpt><trkpt lat="32.3728653" lon="-111.4487386"><ele>706.0</ele><time>2026-04-14T17:50:22.172Z</time></trkpt><trkpt lat="32.3728978" lon="-111.449006"><ele>705.6666666666667</ele><time>2026-04-14T17:50:23.186Z</time></trkpt><trkpt lat="32.3729292" lon="-111.4492639"><ele>705.3333333333334</ele><time>2026-04-14T17:50:24.168Z</time></trkpt><trkpt lat="32.3729612" lon="-111.4495258"><ele>705.0</ele><time>2026-04-14T17:50:25.168Z</time></trkpt><trkpt lat="32.3729932" lon="-111.449785"><ele>705.6666666666666</ele><time>2026-04-14T17:50:26.163Z</time></trkpt><trkpt lat="32.3730254" lon="-111.4500476"><ele>706.3333333333333</ele><time>2026-04-14T17:50:27.173Z</time></trkpt><trkpt lat="32.3730569" lon="-111.4503064"><ele>707.0</ele><time>2026-04-14T17:50:28.177Z</time></trkpt><trkpt lat="32.3730868" lon="-111.45056"><ele>707.3333333333333</ele><time>2026-04-14T17:50:29.161Z</time></trkpt><trkpt lat="32.3731174" lon="-111.4508187"><ele>707.6666666666666</ele><time>2026-04-14T17:50:30.167Z</time></trkpt><trkpt lat="32.3731486" lon="-111.4510751"><ele>708.0</ele><time>2026-04-14T17:50:31.165Z</time></trkpt><trkpt lat="32.3731805" lon="-111.4513371"><ele>708.0</ele><time>2026-04-14T17:50:32.172Z</time></trkpt><trkpt lat="32.3732129" lon="-111.4516018"><ele>708.0</ele><time>2026-04-14T17:50:33.182Z</time></trkpt><trkpt lat="32.3732451" lon="-111.4518636"><ele>708.0</ele><time>2026-04-14T17:50:34.179Z</time></trkpt><trkpt lat="32.373277" lon="-111.4521225"><ele>708.5</ele><time>2026-04-14T17:50:35.158Z</time></trkpt><trkpt lat="32.3733095" lon="-111.4523894"><ele>709.0</ele><time>2026-04-14T17:50:36.162Z</time></trkpt><trkpt lat="32.3733417" lon="-111.4526581"><ele>709.0</ele><time>2026-04-14T17:50:37.171Z</time></trkpt><trkpt lat="32.3733735" lon="-111.4529212"><ele>709.0</ele><time>2026-04-14T17:50:38.158Z</time></trkpt><trkpt lat="32.3734062" lon="-111.4531897"><ele>710.0</ele><time>2026-04-14T17:50:39.166Z</time></trkpt><trkpt lat="32.373439" lon="-111.4534572"><ele>711.0</ele><time>2026-04-14T17:50:40.171Z</time></trkpt><trkpt lat="32.3734704" lon="-111.4537224"><ele>712.0</ele><time>2026-04-14T17:50:41.171Z</time></trkpt><trkpt lat="32.3734994" lon="-111.4539782"><ele>713.0</ele><time>2026-04-14T17:50:42.137Z</time></trkpt><trkpt lat="32.37353" lon="-111.4542348"><ele>714.0</ele><time>2026-04-14T17:50:43.106Z</time></trkpt><trkpt lat="32.373564" lon="-111.4545008"><ele>713.0</ele><time>2026-04-14T17:50:44.12Z</time></trkpt><trkpt lat="32.3736033" lon="-111.4547696"><ele>712.0</ele><time>2026-04-14T17:50:45.128Z</time></trkpt><trkpt lat="32.3736452" lon="-111.4550347"><ele>712.0</ele><time>2026-04-14T17:50:46.114Z</time></trkpt><trkpt lat="32.3736925" lon="-111.4552998"><ele>712.0</ele><time>2026-04-14T17:50:47.107Z</time></trkpt><trkpt lat="32.3737324" lon="-111.4555744"><ele>712.0</ele><time>2026-04-14T17:50:48.112Z</time></trkpt><trkpt lat="32.3737769" lon="-111.4558693"><ele>712.0</ele><time>2026-04-14T17:50:49.117Z</time></trkpt><trkpt lat="32.3738241" lon="-111.4561587"><ele>713.0</ele><time>2026-04-14T17:50:50.135Z</time></trkpt><trkpt lat="32.3738669" lon="-111.4564277"><ele>714.0</ele><time>2026-04-14T17:50:51.107Z</time></trkpt><trkpt lat="32.3739099" lon="-111.4566932"><ele>714.0</ele><time>2026-04-14T17:50:52.099Z</time></trkpt><trkpt lat="32.3739513" lon="-111.4569648"><ele>714.0</ele><time>2026-04-14T17:50:53.101Z</time></trkpt><trkpt lat="32.3739959" lon="-111.4572408"><ele>714.0</ele><time>2026-04-14T17:50:54.127Z</time></trkpt><trkpt lat="32.3740381" lon="-111.457505"><ele>714.0</ele><time>2026-04-14T17:50:55.118Z</time></trkpt><trkpt lat="32.3740791" lon="-111.4577782"><ele>715.5</ele><time>2026-04-14T17:50:56.134Z</time></trkpt><trkpt lat="32.3741173" lon="-111.458037"><ele>717.0</ele><time>2026-04-14T17:50:57.099Z</time></trkpt><trkpt lat="32.3741574" lon="-111.4583073"><ele>717.0</ele><time>2026-04-14T17:50:58.115Z</time></trkpt><trkpt lat="32.3742021" lon="-111.4585814"><ele>717.0</ele><time>2026-04-14T17:50:59.11Z</time></trkpt><trkpt lat="32.3742433" lon="-111.4588395"><ele>718.5</ele><time>2026-04-14T17:51:00.103Z</time></trkpt><trkpt lat="32.3742873" lon="-111.4591131"><ele>720.0</ele><time>2026-04-14T17:51:01.112Z</time></trkpt><trkpt lat="32.3743271" lon="-111.459373"><ele>720.0</ele><time>2026-04-14T17:51:02.102Z</time></trkpt><trkpt lat="32.374369" lon="-111.459643"><ele>720.0</ele><time>2026-04-14T17:51:03.109Z</time></trkpt><trkpt lat="32.3744108" lon="-111.4599028"><ele>720.0</ele><time>2026-04-14T17:51:04.105Z</time></trkpt><trkpt lat="32.3744519" lon="-111.4601724"><ele>720.0</ele><time>2026-04-14T17:51:05.104Z</time></trkpt><trkpt lat="32.3744948" lon="-111.4604432"><ele>719.5</ele><time>2026-04-14T17:51:06.113Z</time></trkpt><trkpt lat="32.3745357" lon="-111.4607147"><ele>719.0</ele><time>2026-04-14T17:51:07.117Z</time></trkpt><trkpt lat="32.3745775" lon="-111.4609846"><ele>719.0</ele><time>2026-04-14T17:51:08.123Z</time></trkpt><trkpt lat="32.3746179" lon="-111.4612425"><ele>719.0</ele><time>2026-04-14T17:51:09.099Z</time></trkpt><trkpt lat="32.3746611" lon="-111.4615166"><ele>720.0</ele><time>2026-04-14T17:51:10.098Z</time></trkpt><trkpt lat="32.3746994" lon="-111.461782"><ele>721.0</ele><time>2026-04-14T17:51:11.107Z</time></trkpt><trkpt lat="32.3747396" lon="-111.4620519"><ele>722.5</ele><time>2026-04-14T17:51:12.114Z</time></trkpt><trkpt lat="32.374782" lon="-111.4623207"><ele>724.0</ele><time>2026-04-14T17:51:13.111Z</time></trkpt><trkpt lat="32.374826" lon="-111.4625893"><ele>724.0</ele><time>2026-04-14T17:51:14.118Z</time></trkpt><trkpt lat="32.374868" lon="-111.4628517"><ele>724.0</ele><time>2026-04-14T17:51:15.102Z</time></trkpt><trkpt lat="32.3749071" lon="-111.4631171"><ele>723.6666666666667</ele><time>2026-04-14T17:51:16.123Z</time></trkpt><trkpt lat="32.3749486" lon="-111.4633738"><ele>723.3333333333334</ele><time>2026-04-14T17:51:17.109Z</time></trkpt><trkpt lat="32.3749918" lon="-111.4636338"><ele>723.0</ele><time>2026-04-14T17:51:18.109Z</time></trkpt><trkpt lat="32.3750323" lon="-111.4638914"><ele>722.6666666666666</ele><time>2026-04-14T17:51:19.109Z</time></trkpt><trkpt lat="32.3750699" lon="-111.4641526"><ele>722.3333333333333</ele><time>2026-04-14T17:51:20.113Z</time></trkpt><trkpt lat="32.3751078" lon="-111.4644092"><ele>722.0</ele><time>2026-04-14T17:51:21.117Z</time></trkpt><trkpt lat="32.3751439" lon="-111.4646637"><ele>722.6666666666666</ele><time>2026-04-14T17:51:22.116Z</time></trkpt><trkpt lat="32.3751803" lon="-111.4649155"><ele>723.3333333333334</ele><time>2026-04-14T17:51:23.11Z</time></trkpt><trkpt lat="32.3752203" lon="-111.4651714"><ele>724.0</ele><time>2026-04-14T17:51:24.108Z</time></trkpt><trkpt lat="32.3752577" lon="-111.4654264"><ele>724.0</ele><time>2026-04-14T17:51:25.101Z</time></trkpt><trkpt lat="32.3752953" lon="-111.4656785"><ele>724.0</ele><time>2026-04-14T17:51:26.106Z</time></trkpt><trkpt lat="32.3753331" lon="-111.4659255"><ele>724.0</ele><time>2026-04-14T17:51:27.11Z</time></trkpt><trkpt lat="32.3753726" lon="-111.4661753"><ele>725.0</ele><time>2026-04-14T17:51:28.108Z</time></trkpt><trkpt lat="32.3754139" lon="-111.4664331"><ele>726.0</ele><time>2026-04-14T17:51:29.106Z</time></trkpt><trkpt lat="32.3754551" lon="-111.4666923"><ele>727.0</ele><time>2026-04-14T17:51:30.11Z</time></trkpt><trkpt lat="32.3754953" lon="-111.4669523"><ele>728.5</ele><time>2026-04-14T17:51:31.104Z</time></trkpt><trkpt lat="32.3755385" lon="-111.4672183"><ele>730.0</ele><time>2026-04-14T17:51:32.105Z</time></trkpt><trkpt lat="32.37558" lon="-111.4674859"><ele>730.0</ele><time>2026-04-14T17:51:33.116Z</time></trkpt><trkpt lat="32.3756243" lon="-111.4677447"><ele>730.0</ele><time>2026-04-14T17:51:34.109Z</time></trkpt><trkpt lat="32.3756671" lon="-111.4680063"><ele>730.0</ele><time>2026-04-14T17:51:35.112Z</time></trkpt><trkpt lat="32.375708" lon="-111.4682625"><ele>731.0</ele><time>2026-04-14T17:51:36.104Z</time></trkpt><trkpt lat="32.3757494" lon="-111.4685259"><ele>732.0</ele><time>2026-04-14T17:51:37.115Z</time></trkpt><trkpt lat="32.3757885" lon="-111.4687887"><ele>732.3333333333334</ele><time>2026-04-14T17:51:38.114Z</time></trkpt><trkpt lat="32.3758283" lon="-111.4690491"><ele>732.6666666666667</ele><time>2026-04-14T17:51:39.118Z</time></trkpt><trkpt lat="32.3758725" lon="-111.469311"><ele>733.0</ele><time>2026-04-14T17:51:40.103Z</time></trkpt><trkpt lat="32.3759161" lon="-111.4695748"><ele>734.0</ele><time>2026-04-14T17:51:41.112Z</time></trkpt><trkpt lat="32.3759578" lon="-111.4698361"><ele>735.0</ele><time>2026-04-14T17:51:42.109Z</time></trkpt><trkpt lat="32.3759973" lon="-111.4700988"><ele>735.0</ele><time>2026-04-14T17:51:43.103Z</time></trkpt><trkpt lat="32.3760377" lon="-111.4703675"><ele>735.0</ele><time>2026-04-14T17:51:44.103Z</time></trkpt><trkpt lat="32.3760772" lon="-111.4706333"><ele>735.5</ele><time>2026-04-14T17:51:45.1Z</time></trkpt><trkpt lat="32.3761187" lon="-111.4709089"><ele>736.0</ele><time>2026-04-14T17:51:46.119Z</time></trkpt><trkpt lat="32.3761608" lon="-111.471177"><ele>737.0</ele><time>2026-04-14T17:51:47.112Z</time></trkpt><trkpt lat="32.3762013" lon="-111.4714344"><ele>738.0</ele><time>2026-04-14T17:51:48.104Z</time></trkpt><trkpt lat="32.3762417" lon="-111.4717054"><ele>738.0</ele><time>2026-04-14T17:51:49.099Z</time></trkpt><trkpt lat="32.3762804" lon="-111.4719774"><ele>738.0</ele><time>2026-04-14T17:51:50.107Z</time></trkpt><trkpt lat="32.3763201" lon="-111.4722431"><ele>738.5</ele><time>2026-04-14T17:51:51.098Z</time></trkpt><trkpt lat="32.3763619" lon="-111.4725135"><ele>739.0</ele><time>2026-04-14T17:51:52.117Z</time></trkpt><trkpt lat="32.3764038" lon="-111.4727796"><ele>740.5</ele><time>2026-04-14T17:51:53.1Z</time></trkpt><trkpt lat="32.3764459" lon="-111.4730397"><ele>742.0</ele><time>2026-04-14T17:51:54.101Z</time></trkpt><trkpt lat="32.3764869" lon="-111.4733061"><ele>742.0</ele><time>2026-04-14T17:51:55.109Z</time></trkpt><trkpt lat="32.376528" lon="-111.4735634"><ele>742.0</ele><time>2026-04-14T17:51:56.107Z</time></trkpt><trkpt lat="32.3765688" lon="-111.4738261"><ele>742.0</ele><time>2026-04-14T17:51:57.106Z</time></trkpt><trkpt lat="32.3766092" lon="-111.4740965"><ele>742.5</ele><time>2026-04-14T17:51:58.109Z</time></trkpt><trkpt lat="32.3766458" lon="-111.4743602"><ele>743.0</ele><time>2026-04-14T17:51:59.111Z</time></trkpt><trkpt lat="32.376685" lon="-111.4746238"><ele>744.0</ele><time>2026-04-14T17:52:00.106Z</time></trkpt><trkpt lat="32.3767257" lon="-111.4748863"><ele>745.0</ele><time>2026-04-14T17:52:01.104Z</time></trkpt><trkpt lat="32.3767671" lon="-111.4751539"><ele>745.0</ele><time>2026-04-14T17:52:02.099Z</time></trkpt><trkpt lat="32.3768095" lon="-111.4754254"><ele>745.0</ele><time>2026-04-14T17:52:03.107Z</time></trkpt><trkpt lat="32.3768536" lon="-111.4756996"><ele>745.5</ele><time>2026-04-14T17:52:04.102Z</time></trkpt><trkpt lat="32.3768966" lon="-111.4759674"><ele>746.0</ele><time>2026-04-14T17:52:05.108Z</time></trkpt><trkpt lat="32.3756671" lon="-111.4680063"><ele>741.6666666666666</ele><time>2026-04-14T17:51:35.112Z</time></trkpt><trkpt lat="32.375708" lon="-111.4682625"><ele>737.3333333333334</ele><time>2026-04-14T17:51:36.104Z</time></trkpt><trkpt lat="32.3757494" lon="-111.4685259"><ele>733.0</ele><time>2026-04-14T17:51:37.115Z</time></trkpt><trkpt lat="32.3757885" lon="-111.4687887"><ele>733.0</ele><time>2026-04-14T17:51:38.114Z</time></trkpt><trkpt lat="32.3758283" lon="-111.4690491"><ele>733.0</ele><time>2026-04-14T17:51:39.118Z</time></trkpt><trkpt lat="32.3758725" lon="-111.469311"><ele>733.0</ele><time>2026-04-14T17:51:40.103Z</time></trkpt><trkpt lat="32.3759161" lon="-111.4695748"><ele>734.0</ele><time>2026-04-14T17:51:41.112Z</time></trkpt><trkpt lat="32.3759578" lon="-111.4698361"><ele>735.0</ele><time>2026-04-14T17:51:42.109Z</time></trkpt><trkpt lat="32.3759973" lon="-111.4700988"><ele>735.0</ele><time>2026-04-14T17:51:43.103Z</time></trkpt><trkpt lat="32.3760377" lon="-111.4703675"><ele>735.0</ele><time>2026-04-14T17:51:44.103Z</time></trkpt><trkpt lat="32.3760772" lon="-111.4706333"><ele>735.5</ele><time>2026-04-14T17:51:45.1Z</time></trkpt><trkpt lat="32.3761187" lon="-111.4709089"><ele>736.0</ele><time>2026-04-14T17:51:46.119Z</time></trkpt><trkpt lat="32.3761608" lon="-111.471177"><ele>737.0</ele><time>2026-04-14T17:51:47.112Z</time></trkpt><trkpt lat="32.3762013" lon="-111.4714344"><ele>738.0</ele><time>2026-04-14T17:51:48.104Z</time></trkpt><trkpt lat="32.3762417" lon="-111.4717054"><ele>738.0</ele><time>2026-04-14T17:51:49.099Z</time></trkpt><trkpt lat="32.3762804" lon="-111.4719774"><ele>738.0</ele><time>2026-04-14T17:51:50.107Z</time></trkpt><trkpt lat="32.3763201" lon="-111.4722431"><ele>738.5</ele><time>2026-04-14T17:51:51.098Z</time></trkpt><trkpt lat="32.3763619" lon="-111.4725135"><ele>739.0</ele><time>2026-04-14T17:51:52.117Z</time></trkpt><trkpt lat="32.3764038" lon="-111.4727796"><ele>740.5</ele><time>2026-04-14T17:51:53.1Z</time></trkpt><trkpt lat="32.3764459" lon="-111.4730397"><ele>742.0</ele><time>2026-04-14T17:51:54.101Z</time></trkpt><trkpt lat="32.3764869" lon="-111.4733061"><ele>742.0</ele><time>2026-04-14T17:51:55.109Z</time></trkpt><trkpt lat="32.376528" lon="-111.4735634"><ele>742.0</ele><time>2026-04-14T17:51:56.107Z</time></trkpt><trkpt lat="32.3765688" lon="-111.4738261"><ele>742.0</ele><time>2026-04-14T17:51:57.106Z</time></trkpt><trkpt lat="32.3766092" lon="-111.4740965"><ele>742.5</ele><time>2026-04-14T17:51:58.109Z</time></trkpt><trkpt lat="32.3766458" lon="-111.4743602"><ele>743.0</ele><time>2026-04-14T17:51:59.111Z</time></trkpt><trkpt lat="32.376685" lon="-111.4746238"><ele>744.0</ele><time>2026-04-14T17:52:00.106Z</time></trkpt><trkpt lat="32.3767257" lon="-111.4748863"><ele>745.0</ele><time>2026-04-14T17:52:01.104Z</time></trkpt><trkpt lat="32.3767671" lon="-111.4751539"><ele>745.0</ele><time>2026-04-14T17:52:02.099Z</time></trkpt><trkpt lat="32.3768095" lon="-111.4754254"><ele>745.0</ele><time>2026-04-14T17:52:03.107Z</time></trkpt><trkpt lat="32.3768536" lon="-111.4756996"><ele>745.5</ele><time>2026-04-14T17:52:04.102Z</time></trkpt><trkpt lat="32.3768966" lon="-111.4759674"><ele>746.0</ele><time>2026-04-14T17:52:05.108Z</time></trkpt><trkpt lat="32.3769391" lon="-111.4762356"><ele>747.0</ele><time>2026-04-14T17:52:06.103Z</time></trkpt><trkpt lat="32.3769817" lon="-111.4764967"><ele>748.0</ele><time>2026-04-14T17:52:07.105Z</time></trkpt><trkpt lat="32.3770233" lon="-111.4767643"><ele>748.0</ele><time>2026-04-14T17:52:08.108Z</time></trkpt><trkpt lat="32.3770626" lon="-111.4770223"><ele>748.0</ele><time>2026-04-14T17:52:09.108Z</time></trkpt><trkpt lat="32.3771042" lon="-111.4772937"><ele>749.0</ele><time>2026-04-14T17:52:10.109Z</time></trkpt><trkpt lat="32.3771467" lon="-111.4775599"><ele>750.0</ele><time>2026-04-14T17:52:11.12Z</time></trkpt><trkpt lat="32.37719" lon="-111.4778247"><ele>751.5</ele><time>2026-04-14T17:52:12.113Z</time></trkpt><trkpt lat="32.377232" lon="-111.478094"><ele>753.0</ele><time>2026-04-14T17:52:13.106Z</time></trkpt><trkpt lat="32.3772745" lon="-111.4783713"><ele>753.0</ele><time>2026-04-14T17:52:14.103Z</time></trkpt><trkpt lat="32.3773177" lon="-111.4786381"><ele>753.0</ele><time>2026-04-14T17:52:15.102Z</time></trkpt><trkpt lat="32.3773624" lon="-111.4789306"><ele>753.5</ele><time>2026-04-14T17:52:16.135Z</time></trkpt><trkpt lat="32.3774026" lon="-111.4791939"><ele>754.0</ele><time>2026-04-14T17:52:17.109Z</time></trkpt><trkpt lat="32.3774435" lon="-111.4794581"><ele>755.0</ele><time>2026-04-14T17:52:18.11Z</time></trkpt><trkpt lat="32.3774827" lon="-111.479724"><ele>756.0</ele><time>2026-04-14T17:52:19.115Z</time></trkpt><trkpt lat="32.3775216" lon="-111.479985"><ele>756.0</ele><time>2026-04-14T17:52:20.108Z</time></trkpt><trkpt lat="32.3775587" lon="-111.480253"><ele>756.0</ele><time>2026-04-14T17:52:21.12Z</time></trkpt><trkpt lat="32.3775959" lon="-111.4805152"><ele>757.0</ele><time>2026-04-14T17:52:22.109Z</time></trkpt><trkpt lat="32.3776379" lon="-111.4807782"><ele>758.0</ele><time>2026-04-14T17:52:23.103Z</time></trkpt><trkpt lat="32.3776791" lon="-111.4810366"><ele>759.0</ele><time>2026-04-14T17:52:24.106Z</time></trkpt><trkpt lat="32.3777201" lon="-111.4813027"><ele>759.5</ele><time>2026-04-14T17:52:25.106Z</time></trkpt><trkpt lat="32.3777622" lon="-111.4815725"><ele>760.0</ele><time>2026-04-14T17:52:26.119Z</time></trkpt><trkpt lat="32.3778032" lon="-111.481833"><ele>760.0</ele><time>2026-04-14T17:52:27.104Z</time></trkpt><trkpt lat="32.3778426" lon="-111.4821011"><ele>760.0</ele><time>2026-04-14T17:52:28.1Z</time></trkpt><trkpt lat="32.3778836" lon="-111.4823692"><ele>760.0</ele><time>2026-04-14T17:52:29.104Z</time></trkpt><trkpt lat="32.3779225" lon="-111.4826313"><ele>760.0</ele><time>2026-04-14T17:52:30.103Z</time></trkpt><trkpt lat="32.3779655" lon="-111.4829015"><ele>761.0</ele><time>2026-04-14T17:52:31.103Z</time></trkpt><trkpt lat="32.3780094" lon="-111.4831797"><ele>762.0</ele><time>2026-04-14T17:52:32.107Z</time></trkpt><trkpt lat="32.3780502" lon="-111.4834598"><ele>764.0</ele><time>2026-04-14T17:52:33.101Z</time></trkpt><trkpt lat="32.3780939" lon="-111.4837381"><ele>766.0</ele><time>2026-04-14T17:52:34.099Z</time></trkpt><trkpt lat="32.3781378" lon="-111.4840224"><ele>766.0</ele><time>2026-04-14T17:52:35.111Z</time></trkpt><trkpt lat="32.3781814" lon="-111.4842887"><ele>766.0</ele><time>2026-04-14T17:52:36.104Z</time></trkpt><trkpt lat="32.3782229" lon="-111.4845535"><ele>766.3333333333334</ele><time>2026-04-14T17:52:37.104Z</time></trkpt><trkpt lat="32.3782631" lon="-111.4848151"><ele>766.6666666666666</ele><time>2026-04-14T17:52:38.115Z</time></trkpt><trkpt lat="32.3783035" lon="-111.4850704"><ele>767.0</ele><time>2026-04-14T17:52:39.114Z</time></trkpt><trkpt lat="32.3783413" lon="-111.4853084"><ele>766.6666666666666</ele><time>2026-04-14T17:52:40.11Z</time></trkpt><trkpt lat="32.3783773" lon="-111.4855415"><ele>766.3333333333334</ele><time>2026-04-14T17:52:41.104Z</time></trkpt><trkpt lat="32.3784139" lon="-111.4857649"><ele>766.0</ele><time>2026-04-14T17:52:42.1Z</time></trkpt><trkpt lat="32.3784554" lon="-111.48599"><ele>766.0</ele><time>2026-04-14T17:52:43.105Z</time></trkpt><trkpt lat="32.3784999" lon="-111.4862084"><ele>766.0</ele><time>2026-04-14T17:52:44.114Z</time></trkpt><trkpt lat="32.3785417" lon="-111.4864013"><ele>766.0</ele><time>2026-04-14T17:52:45.102Z</time></trkpt><trkpt lat="32.3785839" lon="-111.4865731"><ele>766.1999999999999</ele><time>2026-04-14T17:52:46.106Z</time></trkpt><trkpt lat="32.3786225" lon="-111.486725"><ele>766.4</ele><time>2026-04-14T17:52:47.115Z</time></trkpt><trkpt lat="32.3786572" lon="-111.4868412"><ele>766.6</ele><time>2026-04-14T17:52:48.102Z</time></trkpt><trkpt lat="32.3786897" lon="-111.4869378"><ele>766.8</ele><time>2026-04-14T17:52:49.11Z</time></trkpt><trkpt lat="32.378724" lon="-111.4870257"><ele>767.0</ele><time>2026-04-14T17:52:50.102Z</time></trkpt><trkpt lat="32.378775" lon="-111.487138"><ele>767.8</ele><time>2026-04-14T17:52:51.114Z</time></trkpt><trkpt lat="32.378826" lon="-111.4872589"><ele>768.6</ele><time>2026-04-14T17:52:52.103Z</time></trkpt><trkpt lat="32.378879" lon="-111.4873813"><ele>769.4</ele><time>2026-04-14T17:52:53.109Z</time></trkpt><trkpt lat="32.3789298" lon="-111.4874909"><ele>770.1999999999999</ele><time>2026-04-14T17:52:54.105Z</time></trkpt><trkpt lat="32.3789739" lon="-111.4875919"><ele>771.0</ele><time>2026-04-14T17:52:55.108Z</time></trkpt><trkpt lat="32.3790206" lon="-111.4876887"><ele>771.0</ele><time>2026-04-14T17:52:56.105Z</time></trkpt><trkpt lat="32.3790663" lon="-111.487782"><ele>771.0</ele><time>2026-04-14T17:52:57.103Z</time></trkpt><trkpt lat="32.3791069" lon="-111.4878641"><ele>771.0</ele><time>2026-04-14T17:52:58.103Z</time></trkpt><trkpt lat="32.3791343" lon="-111.4879499"><ele>771.0</ele><time>2026-04-14T17:52:59.115Z</time></trkpt><trkpt lat="32.37914" lon="-111.4880365"><ele>771.0</ele><time>2026-04-14T17:53:00.11Z</time></trkpt><trkpt lat="32.3791219" lon="-111.4881415"><ele>771.0</ele><time>2026-04-14T17:53:01.114Z</time></trkpt><trkpt lat="32.3790865" lon="-111.488254"><ele>771.4</ele><time>2026-04-14T17:53:02.112Z</time></trkpt><trkpt lat="32.3790505" lon="-111.4883604"><ele>771.8</ele><time>2026-04-14T17:53:03.106Z</time></trkpt><trkpt lat="32.3790227" lon="-111.4884707"><ele>772.1999999999999</ele><time>2026-04-14T17:53:04.111Z</time></trkpt><trkpt lat="32.3790058" lon="-111.4885754"><ele>772.5999999999999</ele><time>2026-04-14T17:53:05.113Z</time></trkpt><trkpt lat="32.3789867" lon="-111.4886841"><ele>773.0</ele><time>2026-04-14T17:53:06.11Z</time></trkpt><trkpt lat="32.3789629" lon="-111.4888012"><ele>773.0</ele><time>2026-04-14T17:53:07.109Z</time></trkpt><trkpt lat="32.3789275" lon="-111.4889235"><ele>773.0</ele><time>2026-04-14T17:53:08.103Z</time></trkpt><trkpt lat="32.378886" lon="-111.4890531"><ele>773.0</ele><time>2026-04-14T17:53:09.106Z</time></trkpt><trkpt lat="32.3788479" lon="-111.489168"><ele>773.0</ele><time>2026-04-14T17:53:10.106Z</time></trkpt><trkpt lat="32.3788142" lon="-111.4892715"><ele>773.0</ele><time>2026-04-14T17:53:11.11Z</time></trkpt><trkpt lat="32.378788" lon="-111.4893635"><ele>772.7142857142857</ele><time>2026-04-14T17:53:12.115Z</time></trkpt><trkpt lat="32.3787671" lon="-111.4894499"><ele>772.4285714285713</ele><time>2026-04-14T17:53:13.104Z</time></trkpt><trkpt lat="32.378744" lon="-111.4895364"><ele>772.1428571428571</ele><time>2026-04-14T17:53:14.143Z</time></trkpt><trkpt lat="32.3787192" lon="-111.4896191"><ele>771.8571428571429</ele><time>2026-04-14T17:53:15.109Z</time></trkpt><trkpt lat="32.3786929" lon="-111.4896939"><ele>771.5714285714286</ele><time>2026-04-14T17:53:16.102Z</time></trkpt><trkpt lat="32.3786622" lon="-111.4897718"><ele>771.2857142857143</ele><time>2026-04-14T17:53:17.111Z</time></trkpt><trkpt lat="32.3786246" lon="-111.4898477"><ele>771.0</ele><time>2026-04-14T17:53:18.109Z</time></trkpt><trkpt lat="32.3785875" lon="-111.4899159"><ele>771.0</ele><time>2026-04-14T17:53:19.108Z</time></trkpt><trkpt lat="32.3785477" lon="-111.4899887"><ele>771.0</ele><time>2026-04-14T17:53:20.118Z</time></trkpt><trkpt lat="32.3785084" lon="-111.4900994"><ele>771.0</ele><time>2026-04-14T17:53:22.109Z</time></trkpt><trkpt lat="32.3784827" lon="-111.4902075"><ele>771.0</ele><time>2026-04-14T17:53:24.108Z</time></trkpt><trkpt lat="32.3784373" lon="-111.4903265"><ele>771.0</ele><time>2026-04-14T17:53:26.119Z</time></trkpt><trkpt lat="32.3784056" lon="-111.490405"><ele>771.5</ele><time>2026-04-14T17:53:27.108Z</time></trkpt><trkpt lat="32.3783787" lon="-111.4904921"><ele>772.0</ele><time>2026-04-14T17:53:28.115Z</time></trkpt><trkpt lat="32.3783567" lon="-111.4905825"><ele>772.5</ele><time>2026-04-14T17:53:29.109Z</time></trkpt><trkpt lat="32.3783391" lon="-111.4906771"><ele>773.0</ele><time>2026-04-14T17:53:30.117Z</time></trkpt><trkpt lat="32.3783226" lon="-111.4907822"><ele>773.5</ele><time>2026-04-14T17:53:31.11Z</time></trkpt><trkpt lat="32.3783069" lon="-111.4909042"><ele>774.0</ele><time>2026-04-14T17:53:32.103Z</time></trkpt><trkpt lat="32.3782993" lon="-111.4910362"><ele>774.0</ele><time>2026-04-14T17:53:33.12Z</time></trkpt><trkpt lat="32.3783034" lon="-111.4911755"><ele>774.0</ele><time>2026-04-14T17:53:34.103Z</time></trkpt><trkpt lat="32.3783103" lon="-111.4913244"><ele>774.0</ele><time>2026-04-14T17:53:35.111Z</time></trkpt><trkpt lat="32.3783236" lon="-111.4914714"><ele>774.0</ele><time>2026-04-14T17:53:36.122Z</time></trkpt><trkpt lat="32.3783354" lon="-111.4916184"><ele>773.75</ele><time>2026-04-14T17:53:37.115Z</time></trkpt><trkpt lat="32.3783424" lon="-111.4917449"><ele>773.5</ele><time>2026-04-14T17:53:38.124Z</time></trkpt><trkpt lat="32.3783367" lon="-111.4918668"><ele>773.25</ele><time>2026-04-14T17:53:39.101Z</time></trkpt><trkpt lat="32.3783277" lon="-111.4920161"><ele>773.0</ele><time>2026-04-14T17:53:40.111Z</time></trkpt><trkpt lat="32.3783248" lon="-111.4921733"><ele>774.0</ele><time>2026-04-14T17:53:41.13Z</time></trkpt><trkpt lat="32.3783178" lon="-111.4923273"><ele>775.0</ele><time>2026-04-14T17:53:42.112Z</time></trkpt><trkpt lat="32.3783197" lon="-111.4924727"><ele>776.0</ele><time>2026-04-14T17:53:43.111Z</time></trkpt><trkpt lat="32.3783199" lon="-111.4926249"><ele>777.0</ele><time>2026-04-14T17:53:44.113Z</time></trkpt><trkpt lat="32.3783149" lon="-111.4927894"><ele>778.0</ele><time>2026-04-14T17:53:45.107Z</time></trkpt><trkpt lat="32.3783116" lon="-111.4929588"><ele>779.0</ele><time>2026-04-14T17:53:46.119Z</time></trkpt><trkpt lat="32.3782996" lon="-111.493238"><ele>780.0</ele><time>2026-04-14T17:53:47.429Z</time></trkpt><trkpt lat="32.3783081" lon="-111.4933716"><ele>780.0</ele><time>2026-04-14T17:53:49.167Z</time></trkpt><trkpt lat="32.3783091" lon="-111.493518"><ele>780.0</ele><time>2026-04-14T17:53:50.175Z</time></trkpt><trkpt lat="32.3783135" lon="-111.4936595"><ele>780.0</ele><time>2026-04-14T17:53:51.171Z</time></trkpt><trkpt lat="32.3783159" lon="-111.4937928"><ele>780.0</ele><time>2026-04-14T17:53:52.16Z</time></trkpt><trkpt lat="32.3783185" lon="-111.4939222"><ele>780.25</ele><time>2026-04-14T17:53:53.17Z</time></trkpt><trkpt lat="32.3783178" lon="-111.4940562"><ele>780.5</ele><time>2026-04-14T17:53:54.164Z</time></trkpt><trkpt lat="32.3783042" lon="-111.4941839"><ele>780.75</ele><time>2026-04-14T17:53:55.164Z</time></trkpt><trkpt lat="32.3782826" lon="-111.4943159"><ele>781.0</ele><time>2026-04-14T17:53:56.156Z</time></trkpt><trkpt lat="32.3782504" lon="-111.4944472"><ele>781.0</ele><time>2026-04-14T17:53:57.161Z</time></trkpt><trkpt lat="32.3782097" lon="-111.4945663"><ele>781.0</ele><time>2026-04-14T17:53:58.157Z</time></trkpt><trkpt lat="32.378167" lon="-111.4946811"><ele>781.0</ele><time>2026-04-14T17:53:59.171Z</time></trkpt><trkpt lat="32.3781298" lon="-111.4947819"><ele>781.0</ele><time>2026-04-14T17:54:00.174Z</time></trkpt><trkpt lat="32.3781047" lon="-111.4948946"><ele>781.0</ele><time>2026-04-14T17:54:01.171Z</time></trkpt><trkpt lat="32.3780722" lon="-111.4950418"><ele>781.25</ele><time>2026-04-14T17:54:02.175Z</time></trkpt><trkpt lat="32.3780442" lon="-111.495179"><ele>781.5</ele><time>2026-04-14T17:54:03.165Z</time></trkpt><trkpt lat="32.3780285" lon="-111.4953109"><ele>781.75</ele><time>2026-04-14T17:54:04.174Z</time></trkpt><trkpt lat="32.3780211" lon="-111.4954437"><ele>782.0</ele><time>2026-04-14T17:54:05.161Z</time></trkpt><trkpt lat="32.3780173" lon="-111.49558"><ele>781.25</ele><time>2026-04-14T17:54:06.161Z</time></trkpt><trkpt lat="32.378015" lon="-111.4957151"><ele>780.5</ele><time>2026-04-14T17:54:07.163Z</time></trkpt><trkpt lat="32.3780093" lon="-111.495848"><ele>779.75</ele><time>2026-04-14T17:54:08.168Z</time></trkpt><trkpt lat="32.3779954" lon="-111.4959764"><ele>779.0</ele><time>2026-04-14T17:54:09.166Z</time></trkpt><trkpt lat="32.3779724" lon="-111.4961087"><ele>779.0</ele><time>2026-04-14T17:54:10.161Z</time></trkpt><trkpt lat="32.3779422" lon="-111.4962402"><ele>779.0</ele><time>2026-04-14T17:54:11.177Z</time></trkpt><trkpt lat="32.3779162" lon="-111.4963634"><ele>779.0</ele><time>2026-04-14T17:54:12.169Z</time></trkpt><trkpt lat="32.3778935" lon="-111.4965165"><ele>779.0</ele><time>2026-04-14T17:54:13.169Z</time></trkpt><trkpt lat="32.3778759" lon="-111.4966826"><ele>779.25</ele><time>2026-04-14T17:54:14.158Z</time></trkpt><trkpt lat="32.3778568" lon="-111.496837"><ele>779.5</ele><time>2026-04-14T17:54:15.164Z</time></trkpt><trkpt lat="32.3778397" lon="-111.4969791"><ele>779.75</ele><time>2026-04-14T17:54:16.162Z</time></trkpt><trkpt lat="32.3778233" lon="-111.4971096"><ele>780.0</ele><time>2026-04-14T17:54:17.17Z</time></trkpt><trkpt lat="32.3778047" lon="-111.4972246"><ele>780.5</ele><time>2026-04-14T17:54:18.166Z</time></trkpt><trkpt lat="32.3777983" lon="-111.4973488"><ele>781.0</ele><time>2026-04-14T17:54:19.168Z</time></trkpt><trkpt lat="32.3778089" lon="-111.4974788"><ele>781.5</ele><time>2026-04-14T17:54:20.166Z</time></trkpt><trkpt lat="32.3778327" lon="-111.4976144"><ele>782.0</ele><time>2026-04-14T17:54:21.162Z</time></trkpt><trkpt lat="32.3778665" lon="-111.4977658"><ele>782.0</ele><time>2026-04-14T17:54:22.159Z</time></trkpt><trkpt lat="32.3779053" lon="-111.4979097"><ele>782.0</ele><time>2026-04-14T17:54:23.167Z</time></trkpt><trkpt lat="32.3779433" lon="-111.4980531"><ele>782.0</ele><time>2026-04-14T17:54:24.174Z</time></trkpt><trkpt lat="32.3779811" lon="-111.498193"><ele>782.0</ele><time>2026-04-14T17:54:25.162Z</time></trkpt><trkpt lat="32.3780208" lon="-111.4983418"><ele>782.5</ele><time>2026-04-14T17:54:26.178Z</time></trkpt><trkpt lat="32.3780642" lon="-111.4984846"><ele>783.0</ele><time>2026-04-14T17:54:27.156Z</time></trkpt><trkpt lat="32.3781151" lon="-111.4986334"><ele>783.5</ele><time>2026-04-14T17:54:28.169Z</time></trkpt><trkpt lat="32.3781686" lon="-111.4987748"><ele>784.0</ele><time>2026-04-14T17:54:29.166Z</time></trkpt><trkpt lat="32.3782205" lon="-111.4989089"><ele>784.0</ele><time>2026-04-14T17:54:30.159Z</time></trkpt><trkpt lat="32.3782695" lon="-111.4990386"><ele>784.0</ele><time>2026-04-14T17:54:31.169Z</time></trkpt><trkpt lat="32.3783156" lon="-111.499161"><ele>784.0</ele><time>2026-04-14T17:54:32.179Z</time></trkpt><trkpt lat="32.3783557" lon="-111.4992795"><ele>784.0</ele><time>2026-04-14T17:54:33.178Z</time></trkpt><trkpt lat="32.3783895" lon="-111.4993834"><ele>784.0</ele><time>2026-04-14T17:54:34.168Z</time></trkpt><trkpt lat="32.378417" lon="-111.4994762"><ele>784.0</ele><time>2026-04-14T17:54:35.168Z</time></trkpt><trkpt lat="32.3784456" lon="-111.4995786"><ele>784.0</ele><time>2026-04-14T17:54:36.18Z</time></trkpt><trkpt lat="32.3784815" lon="-111.4996844"><ele>784.0</ele><time>2026-04-14T17:54:37.162Z</time></trkpt><trkpt lat="32.3785311" lon="-111.4997981"><ele>784.0</ele><time>2026-04-14T17:54:38.171Z</time></trkpt><trkpt lat="32.3785931" lon="-111.4999008"><ele>784.0</ele><time>2026-04-14T17:54:39.164Z</time></trkpt><trkpt lat="32.3786615" lon="-111.5000091"><ele>784.25</ele><time>2026-04-14T17:54:40.157Z</time></trkpt><trkpt lat="32.3787466" lon="-111.5001193"><ele>784.5</ele><time>2026-04-14T17:54:41.18Z</time></trkpt><trkpt lat="32.3788394" lon="-111.5002193"><ele>784.75</ele><time>2026-04-14T17:54:42.159Z</time></trkpt><trkpt lat="32.3789458" lon="-111.5003157"><ele>785.0</ele><time>2026-04-14T17:54:43.172Z</time></trkpt><trkpt lat="32.3790636" lon="-111.5004079"><ele>786.0</ele><time>2026-04-14T17:54:44.156Z</time></trkpt><trkpt lat="32.3791883" lon="-111.5005051"><ele>787.0</ele><time>2026-04-14T17:54:45.174Z</time></trkpt><trkpt lat="32.3793014" lon="-111.5005937"><ele>788.0</ele><time>2026-04-14T17:54:46.185Z</time></trkpt><trkpt lat="32.3794064" lon="-111.5006868"><ele>789.0</ele><time>2026-04-14T17:54:47.179Z</time></trkpt><trkpt lat="32.3795165" lon="-111.5007891"><ele>789.0</ele><time>2026-04-14T17:54:48.184Z</time></trkpt><trkpt lat="32.3796269" lon="-111.50089"><ele>789.0</ele><time>2026-04-14T17:54:49.161Z</time></trkpt><trkpt lat="32.3797312" lon="-111.5009877"><ele>789.0</ele><time>2026-04-14T17:54:50.157Z</time></trkpt><trkpt lat="32.3798326" lon="-111.5010961"><ele>789.0</ele><time>2026-04-14T17:54:51.173Z</time></trkpt><trkpt lat="32.3799189" lon="-111.5012081"><ele>789.5</ele><time>2026-04-14T17:54:52.166Z</time></trkpt><trkpt lat="32.3799925" lon="-111.501324"><ele>790.0</ele><time>2026-04-14T17:54:53.16Z</time></trkpt><trkpt lat="32.3800611" lon="-111.5014403"><ele>790.5</ele><time>2026-04-14T17:54:54.175Z</time></trkpt><trkpt lat="32.3801317" lon="-111.5015503"><ele>791.0</ele><time>2026-04-14T17:54:55.171Z</time></trkpt><trkpt lat="32.3802003" lon="-111.5016458"><ele>791.0</ele><time>2026-04-14T17:54:56.157Z</time></trkpt><trkpt lat="32.3802719" lon="-111.5017381"><ele>791.0</ele><time>2026-04-14T17:54:57.163Z</time></trkpt><trkpt lat="32.3803314" lon="-111.501821"><ele>791.0</ele><time>2026-04-14T17:54:58.171Z</time></trkpt><trkpt lat="32.380393" lon="-111.5019074"><ele>791.0</ele><time>2026-04-14T17:54:59.173Z</time></trkpt><trkpt lat="32.3804816" lon="-111.5020177"><ele>791.0</ele><time>2026-04-14T17:55:00.155Z</time></trkpt><trkpt lat="32.3805768" lon="-111.50214"><ele>792.0</ele><time>2026-04-14T17:55:01.164Z</time></trkpt><trkpt lat="32.3806791" lon="-111.5022569"><ele>793.0</ele><time>2026-04-14T17:55:02.178Z</time></trkpt><trkpt lat="32.380779" lon="-111.5023698"><ele>794.0</ele><time>2026-04-14T17:55:03.175Z</time></trkpt><trkpt lat="32.3808761" lon="-111.5024789"><ele>795.0</ele><time>2026-04-14T17:55:04.164Z</time></trkpt><trkpt lat="32.3809771" lon="-111.5025856"><ele>795.0</ele><time>2026-04-14T17:55:05.16Z</time></trkpt><trkpt lat="32.3810833" lon="-111.5026886"><ele>795.0</ele><time>2026-04-14T17:55:06.182Z</time></trkpt><trkpt lat="32.3811889" lon="-111.5027831"><ele>795.0</ele><time>2026-04-14T17:55:07.159Z</time></trkpt><trkpt lat="32.3812932" lon="-111.5028707"><ele>795.0</ele><time>2026-04-14T17:55:08.163Z</time></trkpt><trkpt lat="32.3813918" lon="-111.5029517"><ele>795.4</ele><time>2026-04-14T17:55:09.176Z</time></trkpt><trkpt lat="32.3814744" lon="-111.5030297"><ele>795.8</ele><time>2026-04-14T17:55:10.162Z</time></trkpt><trkpt lat="32.3815468" lon="-111.5031198"><ele>796.2</ele><time>2026-04-14T17:55:11.157Z</time></trkpt><trkpt lat="32.381608" lon="-111.5032226"><ele>796.6</ele><time>2026-04-14T17:55:12.158Z</time></trkpt><trkpt lat="32.3816555" lon="-111.5033342"><ele>797.0</ele><time>2026-04-14T17:55:13.18Z</time></trkpt><trkpt lat="32.3816936" lon="-111.5034497"><ele>797.0</ele><time>2026-04-14T17:55:14.157Z</time></trkpt><trkpt lat="32.3817345" lon="-111.5035766"><ele>797.0</ele><time>2026-04-14T17:55:15.183Z</time></trkpt><trkpt lat="32.3817739" lon="-111.5036927"><ele>797.0</ele><time>2026-04-14T17:55:16.177Z</time></trkpt><trkpt lat="32.3818297" lon="-111.5038139"><ele>797.0</ele><time>2026-04-14T17:55:17.166Z</time></trkpt><trkpt lat="32.3818986" lon="-111.5039294"><ele>796.75</ele><time>2026-04-14T17:55:18.16Z</time></trkpt><trkpt lat="32.3819585" lon="-111.5040345"><ele>796.5</ele><time>2026-04-14T17:55:19.164Z</time></trkpt><trkpt lat="32.3820343" lon="-111.5041397"><ele>796.25</ele><time>2026-04-14T17:55:20.183Z</time></trkpt><trkpt lat="32.3821272" lon="-111.5042506"><ele>796.0</ele><time>2026-04-14T17:55:21.182Z</time></trkpt><trkpt lat="32.3822201" lon="-111.5043623"><ele>797.0</ele><time>2026-04-14T17:55:22.179Z</time></trkpt><trkpt lat="32.382314" lon="-111.5044654"><ele>798.0</ele><time>2026-04-14T17:55:23.177Z</time></trkpt><trkpt lat="32.3824157" lon="-111.504561"><ele>799.0</ele><time>2026-04-14T17:55:24.165Z</time></trkpt><trkpt lat="32.382523" lon="-111.5046425"><ele>800.0</ele><time>2026-04-14T17:55:25.164Z</time></trkpt><trkpt lat="32.3826352" lon="-111.5047138"><ele>800.0</ele><time>2026-04-14T17:55:26.165Z</time></trkpt><trkpt lat="32.3827494" lon="-111.5047753"><ele>800.0</ele><time>2026-04-14T17:55:27.168Z</time></trkpt><trkpt lat="32.3828697" lon="-111.5048262"><ele>800.0</ele><time>2026-04-14T17:55:28.174Z</time></trkpt><trkpt lat="32.3829839" lon="-111.5048735"><ele>800.0</ele><time>2026-04-14T17:55:29.169Z</time></trkpt><trkpt lat="32.383085" lon="-111.5049223"><ele>800.4</ele><time>2026-04-14T17:55:30.162Z</time></trkpt><trkpt lat="32.3831819" lon="-111.504986"><ele>800.8</ele><time>2026-04-14T17:55:31.173Z</time></trkpt><trkpt lat="32.3832537" lon="-111.50506"><ele>801.2</ele><time>2026-04-14T17:55:32.17Z</time></trkpt><trkpt lat="32.3833076" lon="-111.5051487"><ele>801.6</ele><time>2026-04-14T17:55:33.16Z</time></trkpt><trkpt lat="32.3833449" lon="-111.5052545"><ele>802.0</ele><time>2026-04-14T17:55:34.17Z</time></trkpt><trkpt lat="32.3833654" lon="-111.5053701"><ele>802.2</ele><time>2026-04-14T17:55:35.154Z</time></trkpt><trkpt lat="32.3833744" lon="-111.5054982"><ele>802.4000000000001</ele><time>2026-04-14T17:55:36.177Z</time></trkpt><trkpt lat="32.3833723" lon="-111.505631"><ele>802.5999999999999</ele><time>2026-04-14T17:55:37.168Z</time></trkpt><trkpt lat="32.3833632" lon="-111.5057727"><ele>802.8</ele><time>2026-04-14T17:55:38.175Z</time></trkpt><trkpt lat="32.3833402" lon="-111.505895"><ele>803.0</ele><time>2026-04-14T17:55:39.166Z</time></trkpt><trkpt lat="32.3832924" lon="-111.5060041"><ele>803.0</ele><time>2026-04-14T17:55:40.159Z</time></trkpt><trkpt lat="32.3832303" lon="-111.5061079"><ele>803.0</ele><time>2026-04-14T17:55:41.174Z</time></trkpt><trkpt lat="32.3831637" lon="-111.506211"><ele>803.0</ele><time>2026-04-14T17:55:42.17Z</time></trkpt><trkpt lat="32.3830941" lon="-111.5063303"><ele>803.0</ele><time>2026-04-14T17:55:43.164Z</time></trkpt><trkpt lat="32.3830315" lon="-111.5064563"><ele>802.5999999999999</ele><time>2026-04-14T17:55:44.175Z</time></trkpt><trkpt lat="32.3829777" lon="-111.506576"><ele>802.1999999999999</ele><time>2026-04-14T17:55:45.174Z</time></trkpt><trkpt lat="32.3829302" lon="-111.5066896"><ele>801.8</ele><time>2026-04-14T17:55:46.168Z</time></trkpt><trkpt lat="32.3828842" lon="-111.5068062"><ele>801.4</ele><time>2026-04-14T17:55:47.18Z</time></trkpt><trkpt lat="32.3828442" lon="-111.5069312"><ele>801.0</ele><time>2026-04-14T17:55:48.168Z</time></trkpt><trkpt lat="32.3828108" lon="-111.5070661"><ele>800.75</ele><time>2026-04-14T17:55:49.173Z</time></trkpt><trkpt lat="32.3827849" lon="-111.5072138"><ele>800.5</ele><time>2026-04-14T17:55:50.171Z</time></trkpt><trkpt lat="32.3827574" lon="-111.5073721"><ele>800.25</ele><time>2026-04-14T17:55:51.165Z</time></trkpt><trkpt lat="32.3827283" lon="-111.5075355"><ele>800.0</ele><time>2026-04-14T17:55:52.16Z</time></trkpt><trkpt lat="32.3826983" lon="-111.5076877"><ele>800.0</ele><time>2026-04-14T17:55:53.159Z</time></trkpt><trkpt lat="32.3826627" lon="-111.5078304"><ele>800.0</ele><time>2026-04-14T17:55:54.163Z</time></trkpt><trkpt lat="32.3826208" lon="-111.5079656"><ele>800.0</ele><time>2026-04-14T17:55:55.172Z</time></trkpt><trkpt lat="32.3825702" lon="-111.5080955"><ele>800.0</ele><time>2026-04-14T17:55:56.182Z</time></trkpt><trkpt lat="32.3825246" lon="-111.5082112"><ele>800.5</ele><time>2026-04-14T17:55:57.17Z</time></trkpt><trkpt lat="32.3824707" lon="-111.508346"><ele>801.0</ele><time>2026-04-14T17:55:58.163Z</time></trkpt><trkpt lat="32.3824174" lon="-111.5084929"><ele>801.5</ele><time>2026-04-14T17:55:59.162Z</time></trkpt><trkpt lat="32.3823648" lon="-111.5086353"><ele>802.0</ele><time>2026-04-14T17:56:00.167Z</time></trkpt><trkpt lat="32.3823123" lon="-111.5087809"><ele>802.0</ele><time>2026-04-14T17:56:01.174Z</time></trkpt><trkpt lat="32.3822633" lon="-111.5089207"><ele>802.0</ele><time>2026-04-14T17:56:02.166Z</time></trkpt><trkpt lat="32.3822128" lon="-111.5090539"><ele>802.0</ele><time>2026-04-14T17:56:03.166Z</time></trkpt><trkpt lat="32.3821542" lon="-111.5091815"><ele>802.0</ele><time>2026-04-14T17:56:04.161Z</time></trkpt><trkpt lat="32.3820815" lon="-111.5093101"><ele>801.0</ele><time>2026-04-14T17:56:05.171Z</time></trkpt><trkpt lat="32.3820075" lon="-111.5094277"><ele>800.0</ele><time>2026-04-14T17:56:06.158Z</time></trkpt><trkpt lat="32.3819345" lon="-111.5095423"><ele>799.0</ele><time>2026-04-14T17:56:07.177Z</time></trkpt><trkpt lat="32.3818698" lon="-111.5096523"><ele>798.0</ele><time>2026-04-14T17:56:08.179Z</time></trkpt><trkpt lat="32.3818097" lon="-111.509767"><ele>797.25</ele><time>2026-04-14T17:56:09.175Z</time></trkpt><trkpt lat="32.3817526" lon="-111.5098915"><ele>796.5</ele><time>2026-04-14T17:56:10.166Z</time></trkpt><trkpt lat="32.381704" lon="-111.5100196"><ele>795.75</ele><time>2026-04-14T17:56:11.173Z</time></trkpt><trkpt lat="32.3816714" lon="-111.510154"><ele>795.0</ele><time>2026-04-14T17:56:12.163Z</time></trkpt><trkpt lat="32.3816482" lon="-111.5102814"><ele>796.0</ele><time>2026-04-14T17:56:13.168Z</time></trkpt><trkpt lat="32.3816396" lon="-111.5104113"><ele>797.0</ele><time>2026-04-14T17:56:14.16Z</time></trkpt><trkpt lat="32.3816496" lon="-111.5105496"><ele>798.0</ele><time>2026-04-14T17:56:15.161Z</time></trkpt><trkpt lat="32.3816688" lon="-111.5106984"><ele>799.0</ele><time>2026-04-14T17:56:16.167Z</time></trkpt><trkpt lat="32.3816885" lon="-111.5108303"><ele>798.9999999999999</ele><time>2026-04-14T17:56:17.169Z</time></trkpt><trkpt lat="32.381718" lon="-111.5109556"><ele>799.0</ele><time>2026-04-14T17:56:18.165Z</time></trkpt><trkpt lat="32.3817413" lon="-111.5110619"><ele>799.0</ele><time>2026-04-14T17:56:19.172Z</time></trkpt><trkpt lat="32.3817641" lon="-111.5111484"><ele>799.0</ele><time>2026-04-14T17:56:20.17Z</time></trkpt><trkpt lat="32.3817889" lon="-111.5112263"><ele>798.9999999999999</ele><time>2026-04-14T17:56:21.174Z</time></trkpt><trkpt lat="32.3818181" lon="-111.5113079"><ele>799.0</ele><time>2026-04-14T17:56:22.182Z</time></trkpt><trkpt lat="32.3818493" lon="-111.5113831"><ele>798.9999999999999</ele><time>2026-04-14T17:56:23.167Z</time></trkpt><trkpt lat="32.3818856" lon="-111.5114586"><ele>799.0</ele><time>2026-04-14T17:56:24.165Z</time></trkpt><trkpt lat="32.3819446" lon="-111.5115194"><ele>799.0</ele><time>2026-04-14T17:56:25.157Z</time></trkpt><trkpt lat="32.3820161" lon="-111.5115677"><ele>799.0</ele><time>2026-04-14T17:56:26.157Z</time></trkpt><trkpt lat="32.3821053" lon="-111.5115989"><ele>798.9999999999999</ele><time>2026-04-14T17:56:27.168Z</time></trkpt><trkpt lat="32.3822136" lon="-111.5116195"><ele>799.0</ele><time>2026-04-14T17:56:28.165Z</time></trkpt><trkpt lat="32.3823419" lon="-111.5116344"><ele>799.0</ele><time>2026-04-14T17:56:29.156Z</time></trkpt><trkpt lat="32.3824779" lon="-111.5116547"><ele>799.0</ele><time>2026-04-14T17:56:30.167Z</time></trkpt><trkpt lat="32.3826144" lon="-111.5116923"><ele>799.0</ele><time>2026-04-14T17:56:31.179Z</time></trkpt><trkpt lat="32.3827485" lon="-111.5117376"><ele>799.0</ele><time>2026-04-14T17:56:32.16Z</time></trkpt><trkpt lat="32.3828789" lon="-111.511784"><ele>799.0</ele><time>2026-04-14T17:56:33.168Z</time></trkpt><trkpt lat="32.3830022" lon="-111.5118254"><ele>799.0</ele><time>2026-04-14T17:56:34.154Z</time></trkpt><trkpt lat="32.3831256" lon="-111.5118618"><ele>799.0</ele><time>2026-04-14T17:56:35.165Z</time></trkpt><trkpt lat="32.383241" lon="-111.511891"><ele>799.0</ele><time>2026-04-14T17:56:36.154Z</time></trkpt><trkpt lat="32.3833549" lon="-111.5119219"><ele>799.25</ele><time>2026-04-14T17:56:37.179Z</time></trkpt><trkpt lat="32.383462" lon="-111.5119612"><ele>799.5</ele><time>2026-04-14T17:56:38.16Z</time></trkpt><trkpt lat="32.3835716" lon="-111.5120203"><ele>799.75</ele><time>2026-04-14T17:56:39.169Z</time></trkpt><trkpt lat="32.3836742" lon="-111.5120961"><ele>800.0</ele><time>2026-04-14T17:56:40.16Z</time></trkpt><trkpt lat="32.383777" lon="-111.5121899"><ele>801.0</ele><time>2026-04-14T17:56:41.155Z</time></trkpt><trkpt lat="32.3838821" lon="-111.512294"><ele>802.0</ele><time>2026-04-14T17:56:42.163Z</time></trkpt><trkpt lat="32.383988" lon="-111.5123952"><ele>803.0</ele><time>2026-04-14T17:56:43.173Z</time></trkpt><trkpt lat="32.3840997" lon="-111.5124934"><ele>804.0</ele><time>2026-04-14T17:56:44.176Z</time></trkpt><trkpt lat="32.3842077" lon="-111.5125826"><ele>804.0</ele><time>2026-04-14T17:56:45.172Z</time></trkpt><trkpt lat="32.3843115" lon="-111.512665"><ele>804.0</ele><time>2026-04-14T17:56:46.17Z</time></trkpt><trkpt lat="32.3844115" lon="-111.5127378"><ele>804.0</ele><time>2026-04-14T17:56:47.171Z</time></trkpt><trkpt lat="32.3845038" lon="-111.5128016"><ele>804.0</ele><time>2026-04-14T17:56:48.168Z</time></trkpt><trkpt lat="32.3845923" lon="-111.5128613"><ele>804.2</ele><time>2026-04-14T17:56:49.173Z</time></trkpt><trkpt lat="32.3846744" lon="-111.512912"><ele>804.4000000000001</ele><time>2026-04-14T17:56:50.173Z</time></trkpt><trkpt lat="32.3847539" lon="-111.5129614"><ele>804.6</ele><time>2026-04-14T17:56:51.172Z</time></trkpt><trkpt lat="32.3848288" lon="-111.5130075"><ele>804.8</ele><time>2026-04-14T17:56:52.162Z</time></trkpt><trkpt lat="32.3849098" lon="-111.5130593"><ele>805.0</ele><time>2026-04-14T17:56:53.173Z</time></trkpt><trkpt lat="32.3849921" lon="-111.5131155"><ele>804.9999999999999</ele><time>2026-04-14T17:56:54.168Z</time></trkpt><trkpt lat="32.3850722" lon="-111.5131693"><ele>805.0</ele><time>2026-04-14T17:56:55.163Z</time></trkpt><trkpt lat="32.3851473" lon="-111.513221"><ele>805.0</ele><time>2026-04-14T17:56:56.172Z</time></trkpt><trkpt lat="32.385218" lon="-111.5132809"><ele>805.0</ele><time>2026-04-14T17:56:57.177Z</time></trkpt><trkpt lat="32.3852817" lon="-111.5133304"><ele>804.9999999999999</ele><time>2026-04-14T17:56:58.177Z</time></trkpt><trkpt lat="32.385357" lon="-111.5133823"><ele>805.0</ele><time>2026-04-14T17:56:59.166Z</time></trkpt><trkpt lat="32.3854336" lon="-111.5134414"><ele>804.9999999999999</ele><time>2026-04-14T17:57:00.178Z</time></trkpt><trkpt lat="32.3854955" lon="-111.5135048"><ele>805.0</ele><time>2026-04-14T17:57:01.159Z</time></trkpt><trkpt lat="32.3855518" lon="-111.5135811"><ele>805.0</ele><time>2026-04-14T17:57:02.18Z</time></trkpt><trkpt lat="32.3855937" lon="-111.5136628"><ele>805.0</ele><time>2026-04-14T17:57:03.161Z</time></trkpt><trkpt lat="32.3856244" lon="-111.5137638"><ele>804.9999999999999</ele><time>2026-04-14T17:57:04.169Z</time></trkpt><trkpt lat="32.3856539" lon="-111.5138601"><ele>805.0</ele><time>2026-04-14T17:57:05.165Z</time></trkpt><trkpt lat="32.3856885" lon="-111.5139441"><ele>805.0</ele><time>2026-04-14T17:57:06.154Z</time></trkpt><trkpt lat="32.3857333" lon="-111.5140261"><ele>805.0</ele><time>2026-04-14T17:57:07.168Z</time></trkpt><trkpt lat="32.3857919" lon="-111.5141066"><ele>805.0</ele><time>2026-04-14T17:57:08.164Z</time></trkpt><trkpt lat="32.3858623" lon="-111.514187"><ele>805.0</ele><time>2026-04-14T17:57:09.164Z</time></trkpt><trkpt lat="32.3859374" lon="-111.514264"><ele>805.0</ele><time>2026-04-14T17:57:10.169Z</time></trkpt><trkpt lat="32.3860082" lon="-111.5143385"><ele>805.0</ele><time>2026-04-14T17:57:11.174Z</time></trkpt><trkpt lat="32.386072" lon="-111.5144213"><ele>805.0</ele><time>2026-04-14T17:57:12.16Z</time></trkpt><trkpt lat="32.3861313" lon="-111.5145138"><ele>805.0</ele><time>2026-04-14T17:57:13.166Z</time></trkpt><trkpt lat="32.3861823" lon="-111.5146112"><ele>805.0</ele><time>2026-04-14T17:57:14.167Z</time></trkpt><trkpt lat="32.3862254" lon="-111.5147152"><ele>805.0</ele><time>2026-04-14T17:57:15.162Z</time></trkpt><trkpt lat="32.3862586" lon="-111.5148226"><ele>804.6</ele><time>2026-04-14T17:57:16.171Z</time></trkpt><trkpt lat="32.3862848" lon="-111.5149326"><ele>804.2</ele><time>2026-04-14T17:57:17.168Z</time></trkpt><trkpt lat="32.3862968" lon="-111.5150495"><ele>803.8</ele><time>2026-04-14T17:57:18.167Z</time></trkpt><trkpt lat="32.3863059" lon="-111.515165"><ele>803.4</ele><time>2026-04-14T17:57:19.156Z</time></trkpt><trkpt lat="32.3863133" lon="-111.5152711"><ele>803.0</ele><time>2026-04-14T17:57:20.156Z</time></trkpt><trkpt lat="32.3863226" lon="-111.5153693"><ele>803.0000000000001</ele><time>2026-04-14T17:57:21.172Z</time></trkpt><trkpt lat="32.3863373" lon="-111.5154497"><ele>803.0</ele><time>2026-04-14T17:57:22.173Z</time></trkpt><trkpt lat="32.3863691" lon="-111.5155159"><ele>803.0</ele><time>2026-04-14T17:57:23.172Z</time></trkpt><trkpt lat="32.386421" lon="-111.5155774"><ele>803.0</ele><time>2026-04-14T17:57:24.165Z</time></trkpt><trkpt lat="32.3864942" lon="-111.5156347"><ele>803.0000000000001</ele><time>2026-04-14T17:57:25.157Z</time></trkpt><trkpt lat="32.3865846" lon="-111.5156859"><ele>803.0</ele><time>2026-04-14T17:57:26.157Z</time></trkpt><trkpt lat="32.386685" lon="-111.5157318"><ele>803.0</ele><time>2026-04-14T17:57:27.157Z</time></trkpt><trkpt lat="32.3867886" lon="-111.5157772"><ele>803.0</ele><time>2026-04-14T17:57:28.174Z</time></trkpt><trkpt lat="32.3868793" lon="-111.5158152"><ele>803.0</ele><time>2026-04-14T17:57:29.164Z</time></trkpt><trkpt lat="32.3869583" lon="-111.5158568"><ele>803.0</ele><time>2026-04-14T17:57:30.185Z</time></trkpt><trkpt lat="32.3870296" lon="-111.5159133"><ele>803.0</ele><time>2026-04-14T17:57:31.171Z</time></trkpt><trkpt lat="32.3871049" lon="-111.5159938"><ele>803.0</ele><time>2026-04-14T17:57:32.165Z</time></trkpt><trkpt lat="32.387183" lon="-111.5160866"><ele>803.0</ele><time>2026-04-14T17:57:33.163Z</time></trkpt><trkpt lat="32.3872561" lon="-111.5161777"><ele>803.0</ele><time>2026-04-14T17:57:34.173Z</time></trkpt><trkpt lat="32.3873166" lon="-111.5162712"><ele>803.0</ele><time>2026-04-14T17:57:35.166Z</time></trkpt><trkpt lat="32.3873675" lon="-111.5163659"><ele>803.0</ele><time>2026-04-14T17:57:36.162Z</time></trkpt><trkpt lat="32.38741" lon="-111.51647"><ele>803.0</ele><time>2026-04-14T17:57:37.168Z</time></trkpt><trkpt lat="32.3874459" lon="-111.5165817"><ele>803.0</ele><time>2026-04-14T17:57:38.167Z</time></trkpt><trkpt lat="32.3874707" lon="-111.5166956"><ele>803.0</ele><time>2026-04-14T17:57:39.157Z</time></trkpt><trkpt lat="32.3874881" lon="-111.516819"><ele>803.0</ele><time>2026-04-14T17:57:40.165Z</time></trkpt><trkpt lat="32.3875132" lon="-111.5169458"><ele>803.0</ele><time>2026-04-14T17:57:41.171Z</time></trkpt><trkpt lat="32.3875472" lon="-111.5170643"><ele>802.4</ele><time>2026-04-14T17:57:42.16Z</time></trkpt><trkpt lat="32.387583" lon="-111.5171818"><ele>801.8</ele><time>2026-04-14T17:57:43.164Z</time></trkpt><trkpt lat="32.3876134" lon="-111.5173057"><ele>801.2</ele><time>2026-04-14T17:57:44.167Z</time></trkpt><trkpt lat="32.3876348" lon="-111.5174353"><ele>800.6</ele><time>2026-04-14T17:57:45.164Z</time></trkpt><trkpt lat="32.3876529" lon="-111.5175719"><ele>800.0</ele><time>2026-04-14T17:57:46.172Z</time></trkpt><trkpt lat="32.3876682" lon="-111.5177015"><ele>800.0</ele><time>2026-04-14T17:57:47.165Z</time></trkpt><trkpt lat="32.3876889" lon="-111.5178303"><ele>800.0</ele><time>2026-04-14T17:57:48.168Z</time></trkpt><trkpt lat="32.3877133" lon="-111.5179516"><ele>800.0</ele><time>2026-04-14T17:57:49.167Z</time></trkpt><trkpt lat="32.3877341" lon="-111.5180717"><ele>800.0</ele><time>2026-04-14T17:57:50.164Z</time></trkpt><trkpt lat="32.3877581" lon="-111.5182028"><ele>800.0</ele><time>2026-04-14T17:57:51.162Z</time></trkpt><trkpt lat="32.3877829" lon="-111.5183241"><ele>799.6</ele><time>2026-04-14T17:57:52.163Z</time></trkpt><trkpt lat="32.3878053" lon="-111.5184462"><ele>799.2</ele><time>2026-04-14T17:57:53.167Z</time></trkpt><trkpt lat="32.3878246" lon="-111.5185671"><ele>798.8</ele><time>2026-04-14T17:57:54.158Z</time></trkpt><trkpt lat="32.3878372" lon="-111.5186829"><ele>798.4</ele><time>2026-04-14T17:57:55.161Z</time></trkpt><trkpt lat="32.3878377" lon="-111.5187919"><ele>798.0</ele><time>2026-04-14T17:57:56.162Z</time></trkpt><trkpt lat="32.3878292" lon="-111.5188931"><ele>797.5</ele><time>2026-04-14T17:57:57.163Z</time></trkpt><trkpt lat="32.3878156" lon="-111.5189889"><ele>797.0</ele><time>2026-04-14T17:57:58.157Z</time></trkpt><trkpt lat="32.3878087" lon="-111.5190818"><ele>796.5</ele><time>2026-04-14T17:57:59.174Z</time></trkpt><trkpt lat="32.3878201" lon="-111.5191721"><ele>796.0</ele><time>2026-04-14T17:58:00.161Z</time></trkpt><trkpt lat="32.3878462" lon="-111.5192478"><ele>795.5</ele><time>2026-04-14T17:58:01.157Z</time></trkpt><trkpt lat="32.3878833" lon="-111.51933"><ele>795.0</ele><time>2026-04-14T17:58:02.158Z</time></trkpt><trkpt lat="32.3879132" lon="-111.5194144"><ele>795.0</ele><time>2026-04-14T17:58:03.166Z</time></trkpt><trkpt lat="32.3879359" lon="-111.5195107"><ele>795.0</ele><time>2026-04-14T17:58:04.155Z</time></trkpt><trkpt lat="32.3879515" lon="-111.519629"><ele>795.0</ele><time>2026-04-14T17:58:05.166Z</time></trkpt><trkpt lat="32.3879484" lon="-111.5197381"><ele>795.0</ele><time>2026-04-14T17:58:06.164Z</time></trkpt><trkpt lat="32.387938" lon="-111.5198475"><ele>795.0</ele><time>2026-04-14T17:58:07.158Z</time></trkpt><trkpt lat="32.3879338" lon="-111.519959"><ele>795.0</ele><time>2026-04-14T17:58:08.165Z</time></trkpt><trkpt lat="32.3879346" lon="-111.5200633"><ele>795.0</ele><time>2026-04-14T17:58:09.166Z</time></trkpt><trkpt lat="32.3879404" lon="-111.520166"><ele>795.0</ele><time>2026-04-14T17:58:10.165Z</time></trkpt><trkpt lat="32.3879418" lon="-111.5202676"><ele>795.0</ele><time>2026-04-14T17:58:11.162Z</time></trkpt><trkpt lat="32.3879449" lon="-111.5203632"><ele>795.0</ele><time>2026-04-14T17:58:12.168Z</time></trkpt><trkpt lat="32.3879602" lon="-111.5204497"><ele>795.0</ele><time>2026-04-14T17:58:13.173Z</time></trkpt><trkpt lat="32.3879824" lon="-111.5205247"><ele>794.1666666666666</ele><time>2026-04-14T17:58:14.169Z</time></trkpt><trkpt lat="32.3880137" lon="-111.5205954"><ele>793.3333333333333</ele><time>2026-04-14T17:58:15.17Z</time></trkpt><trkpt lat="32.3880557" lon="-111.5206564"><ele>792.5</ele><time>2026-04-14T17:58:16.166Z</time></trkpt><trkpt lat="32.388114" lon="-111.5207108"><ele>791.6666666666666</ele><time>2026-04-14T17:58:17.173Z</time></trkpt><trkpt lat="32.3881786" lon="-111.5207612"><ele>790.8333333333333</ele><time>2026-04-14T17:58:18.169Z</time></trkpt><trkpt lat="32.3882515" lon="-111.5208138"><ele>790.0</ele><time>2026-04-14T17:58:19.164Z</time></trkpt><trkpt lat="32.388322" lon="-111.5208704"><ele>790.0</ele><time>2026-04-14T17:58:20.175Z</time></trkpt><trkpt lat="32.3883863" lon="-111.5209293"><ele>790.0</ele><time>2026-04-14T17:58:21.167Z</time></trkpt><trkpt lat="32.38845" lon="-111.5209713"><ele>790.0</ele><time>2026-04-14T17:58:22.162Z</time></trkpt><trkpt lat="32.388518" lon="-111.5209789"><ele>790.0</ele><time>2026-04-14T17:58:23.16Z</time></trkpt><trkpt lat="32.388586" lon="-111.5209723"><ele>790.0</ele><time>2026-04-14T17:58:24.178Z</time></trkpt><trkpt lat="32.3886601" lon="-111.520964"><ele>790.0</ele><time>2026-04-14T17:58:25.163Z</time></trkpt><trkpt lat="32.3887397" lon="-111.5209444"><ele>790.0</ele><time>2026-04-14T17:58:26.165Z</time></trkpt><trkpt lat="32.3888235" lon="-111.5209085"><ele>790.4</ele><time>2026-04-14T17:58:27.167Z</time></trkpt><trkpt lat="32.388924" lon="-111.5208713"><ele>790.8</ele><time>2026-04-14T17:58:28.167Z</time></trkpt><trkpt lat="32.3890258" lon="-111.5208469"><ele>791.2</ele><time>2026-04-14T17:58:29.159Z</time></trkpt><trkpt lat="32.3891273" lon="-111.5208324"><ele>791.6</ele><time>2026-04-14T17:58:30.17Z</time></trkpt><trkpt lat="32.3892224" lon="-111.5208272"><ele>792.0</ele><time>2026-04-14T17:58:31.158Z</time></trkpt><trkpt lat="32.3893153" lon="-111.5208299"><ele>792.0</ele><time>2026-04-14T17:58:32.18Z</time></trkpt><trkpt lat="32.3894034" lon="-111.5208419"><ele>792.0</ele><time>2026-04-14T17:58:33.16Z</time></trkpt><trkpt lat="32.389488" lon="-111.5208614"><ele>792.0</ele><time>2026-04-14T17:58:34.165Z</time></trkpt><trkpt lat="32.3895602" lon="-111.5208855"><ele>792.0</ele><time>2026-04-14T17:58:35.163Z</time></trkpt><trkpt lat="32.3896253" lon="-111.5209148"><ele>792.0</ele><time>2026-04-14T17:58:36.175Z</time></trkpt><trkpt lat="32.3896832" lon="-111.5209496"><ele>792.0</ele><time>2026-04-14T17:58:37.163Z</time></trkpt><trkpt lat="32.3897496" lon="-111.5210032"><ele>791.8333333333334</ele><time>2026-04-14T17:58:38.166Z</time></trkpt><trkpt lat="32.3898158" lon="-111.5210718"><ele>791.6666666666667</ele><time>2026-04-14T17:58:39.174Z</time></trkpt><trkpt lat="32.3898729" lon="-111.5211399"><ele>791.5</ele><time>2026-04-14T17:58:40.166Z</time></trkpt><trkpt lat="32.3899187" lon="-111.5212155"><ele>791.3333333333334</ele><time>2026-04-14T17:58:41.167Z</time></trkpt><trkpt lat="32.3899463" lon="-111.5212955"><ele>791.1666666666667</ele><time>2026-04-14T17:58:42.168Z</time></trkpt><trkpt lat="32.389961" lon="-111.5213875"><ele>791.0</ele><time>2026-04-14T17:58:43.17Z</time></trkpt><trkpt lat="32.3899647" lon="-111.5214817"><ele>790.6666666666667</ele><time>2026-04-14T17:58:44.167Z</time></trkpt><trkpt lat="32.3899648" lon="-111.5215877"><ele>790.3333333333334</ele><time>2026-04-14T17:58:45.169Z</time></trkpt><trkpt lat="32.3899612" lon="-111.5216965"><ele>790.0</ele><time>2026-04-14T17:58:46.17Z</time></trkpt><trkpt lat="32.3899576" lon="-111.5217999"><ele>789.6666666666667</ele><time>2026-04-14T17:58:47.167Z</time></trkpt><trkpt lat="32.3899566" lon="-111.5218983"><ele>789.3333333333334</ele><time>2026-04-14T17:58:48.165Z</time></trkpt><trkpt lat="32.389959" lon="-111.5219982"><ele>789.0</ele><time>2026-04-14T17:58:49.165Z</time></trkpt><trkpt lat="32.3899635" lon="-111.5220962"><ele>788.6</ele><time>2026-04-14T17:58:50.171Z</time></trkpt><trkpt lat="32.3899716" lon="-111.5221895"><ele>788.2</ele><time>2026-04-14T17:58:51.161Z</time></trkpt><trkpt lat="32.3899821" lon="-111.5222872"><ele>787.8000000000001</ele><time>2026-04-14T17:58:52.166Z</time></trkpt><trkpt lat="32.3899946" lon="-111.5224071"><ele>787.4000000000001</ele><time>2026-04-14T17:58:53.165Z</time></trkpt><trkpt lat="32.3900087" lon="-111.5225433"><ele>787.0</ele><time>2026-04-14T17:58:54.162Z</time></trkpt><trkpt lat="32.3900194" lon="-111.5226707"><ele>786.9999999999999</ele><time>2026-04-14T17:58:55.163Z</time></trkpt><trkpt lat="32.3900256" lon="-111.522788"><ele>787.0</ele><time>2026-04-14T17:58:56.162Z</time></trkpt><trkpt lat="32.390031" lon="-111.5228926"><ele>787.0</ele><time>2026-04-14T17:58:57.157Z</time></trkpt><trkpt lat="32.3900424" lon="-111.5229943"><ele>787.0</ele><time>2026-04-14T17:58:58.163Z</time></trkpt><trkpt lat="32.3900549" lon="-111.5230891"><ele>786.9999999999999</ele><time>2026-04-14T17:58:59.158Z</time></trkpt><trkpt lat="32.3900716" lon="-111.5231867"><ele>787.0</ele><time>2026-04-14T17:59:00.169Z</time></trkpt><trkpt lat="32.3900763" lon="-111.5232799"><ele>786.8333333333333</ele><time>2026-04-14T17:59:01.163Z</time></trkpt><trkpt lat="32.3900766" lon="-111.5233725"><ele>786.6666666666666</ele><time>2026-04-14T17:59:02.169Z</time></trkpt><trkpt lat="32.3900825" lon="-111.5234578"><ele>786.5</ele><time>2026-04-14T17:59:03.163Z</time></trkpt><trkpt lat="32.3900986" lon="-111.523551"><ele>786.3333333333333</ele><time>2026-04-14T17:59:04.164Z</time></trkpt><trkpt lat="32.3901327" lon="-111.5236485"><ele>786.1666666666666</ele><time>2026-04-14T17:59:05.166Z</time></trkpt><trkpt lat="32.3901798" lon="-111.5237468"><ele>786.0</ele><time>2026-04-14T17:59:06.168Z</time></trkpt><trkpt lat="32.3902404" lon="-111.5238396"><ele>786.4</ele><time>2026-04-14T17:59:07.154Z</time></trkpt><trkpt lat="32.3903018" lon="-111.5239363"><ele>786.8</ele><time>2026-04-14T17:59:08.161Z</time></trkpt><trkpt lat="32.390357" lon="-111.5240316"><ele>787.1999999999999</ele><time>2026-04-14T17:59:09.159Z</time></trkpt><trkpt lat="32.3904137" lon="-111.524122"><ele>787.5999999999999</ele><time>2026-04-14T17:59:10.171Z</time></trkpt><trkpt lat="32.3904724" lon="-111.5241972"><ele>788.0</ele><time>2026-04-14T17:59:11.172Z</time></trkpt><trkpt lat="32.3905384" lon="-111.5242649"><ele>788.0</ele><time>2026-04-14T17:59:12.175Z</time></trkpt><trkpt lat="32.3906106" lon="-111.5243336"><ele>788.0</ele><time>2026-04-14T17:59:13.164Z</time></trkpt><trkpt lat="32.3906922" lon="-111.5244105"><ele>788.0</ele><time>2026-04-14T17:59:14.168Z</time></trkpt><trkpt lat="32.3907848" lon="-111.5244931"><ele>788.0</ele><time>2026-04-14T17:59:15.161Z</time></trkpt><trkpt lat="32.3908853" lon="-111.5245833"><ele>788.0</ele><time>2026-04-14T17:59:16.16Z</time></trkpt><trkpt lat="32.3909844" lon="-111.5246746"><ele>788.25</ele><time>2026-04-14T17:59:17.166Z</time></trkpt><trkpt lat="32.3910829" lon="-111.5247621"><ele>788.5</ele><time>2026-04-14T17:59:18.159Z</time></trkpt><trkpt lat="32.3911846" lon="-111.5248464"><ele>788.75</ele><time>2026-04-14T17:59:19.158Z</time></trkpt><trkpt lat="32.3912865" lon="-111.5249372"><ele>789.0</ele><time>2026-04-14T17:59:20.17Z</time></trkpt><trkpt lat="32.3913786" lon="-111.5250277"><ele>789.2</ele><time>2026-04-14T17:59:21.165Z</time></trkpt><trkpt lat="32.3914673" lon="-111.5251164"><ele>789.4000000000001</ele><time>2026-04-14T17:59:22.169Z</time></trkpt><trkpt lat="32.3915514" lon="-111.5251985"><ele>789.6</ele><time>2026-04-14T17:59:23.169Z</time></trkpt><trkpt lat="32.391628" lon="-111.5252791"><ele>789.8</ele><time>2026-04-14T17:59:24.173Z</time></trkpt><trkpt lat="32.3917022" lon="-111.5253714"><ele>790.0</ele><time>2026-04-14T17:59:25.157Z</time></trkpt><trkpt lat="32.3917871" lon="-111.5254792"><ele>790.0</ele><time>2026-04-14T17:59:26.172Z</time></trkpt><trkpt lat="32.3918648" lon="-111.525582"><ele>790.0</ele><time>2026-04-14T17:59:27.172Z</time></trkpt><trkpt lat="32.3919318" lon="-111.5256818"><ele>790.0</ele><time>2026-04-14T17:59:28.168Z</time></trkpt><trkpt lat="32.3919984" lon="-111.5257754"><ele>790.0</ele><time>2026-04-14T17:59:29.176Z</time></trkpt><trkpt lat="32.3920667" lon="-111.5258611"><ele>790.0</ele><time>2026-04-14T17:59:30.165Z</time></trkpt><trkpt lat="32.3921297" lon="-111.525949"><ele>790.2</ele><time>2026-04-14T17:59:31.164Z</time></trkpt><trkpt lat="32.392195" lon="-111.526029"><ele>790.4</ele><time>2026-04-14T17:59:32.162Z</time></trkpt><trkpt lat="32.3922614" lon="-111.5261013"><ele>790.5999999999999</ele><time>2026-04-14T17:59:33.161Z</time></trkpt><trkpt lat="32.392334" lon="-111.5261781"><ele>790.8</ele><time>2026-04-14T17:59:34.171Z</time></trkpt><trkpt lat="32.3924158" lon="-111.5262423"><ele>791.0</ele><time>2026-04-14T17:59:35.171Z</time></trkpt><trkpt lat="32.3925131" lon="-111.5263073"><ele>790.0</ele><time>2026-04-14T17:59:36.175Z</time></trkpt><trkpt lat="32.3926205" lon="-111.5263711"><ele>789.0</ele><time>2026-04-14T17:59:37.171Z</time></trkpt><trkpt lat="32.3927342" lon="-111.5264358"><ele>788.0</ele><time>2026-04-14T17:59:38.162Z</time></trkpt><trkpt lat="32.39285" lon="-111.5265065"><ele>787.0</ele><time>2026-04-14T17:59:39.164Z</time></trkpt><trkpt lat="32.3929551" lon="-111.52657"><ele>787.1666666666666</ele><time>2026-04-14T17:59:40.166Z</time></trkpt><trkpt lat="32.3930515" lon="-111.5266233"><ele>787.3333333333333</ele><time>2026-04-14T17:59:41.172Z</time></trkpt><trkpt lat="32.3931339" lon="-111.5266724"><ele>787.5</ele><time>2026-04-14T17:59:42.168Z</time></trkpt><trkpt lat="32.3932054" lon="-111.5267244"><ele>787.6666666666667</ele><time>2026-04-14T17:59:43.166Z</time></trkpt><trkpt lat="32.3932656" lon="-111.526783"><ele>787.8333333333334</ele><time>2026-04-14T17:59:44.159Z</time></trkpt><trkpt lat="32.3933166" lon="-111.5268569"><ele>788.0</ele><time>2026-04-14T17:59:45.176Z</time></trkpt><trkpt lat="32.3933602" lon="-111.5269403"><ele>788.0000000000001</ele><time>2026-04-14T17:59:46.169Z</time></trkpt><trkpt lat="32.3933993" lon="-111.5270228"><ele>788.0</ele><time>2026-04-14T17:59:47.164Z</time></trkpt><trkpt lat="32.3934358" lon="-111.5271007"><ele>788.0</ele><time>2026-04-14T17:59:48.165Z</time></trkpt><trkpt lat="32.393469" lon="-111.527175"><ele>788.0</ele><time>2026-04-14T17:59:49.172Z</time></trkpt><trkpt lat="32.3935235" lon="-111.5272961"><ele>788.0000000000001</ele><time>2026-04-14T17:59:51.17Z</time></trkpt><trkpt lat="32.3935554" lon="-111.527365"><ele>788.0</ele><time>2026-04-14T17:59:54.167Z</time></trkpt><trkpt lat="32.3936048" lon="-111.5274392"><ele>788.0000000000001</ele><time>2026-04-14T18:00:33.178Z</time></trkpt><trkpt lat="32.3936514" lon="-111.5274965"><ele>788.0</ele><time>2026-04-14T18:00:34.167Z</time></trkpt><trkpt lat="32.393707" lon="-111.527553"><ele>788.0</ele><time>2026-04-14T18:00:35.166Z</time></trkpt><trkpt lat="32.3937758" lon="-111.5276171"><ele>788.0</ele><time>2026-04-14T18:00:36.17Z</time></trkpt><trkpt lat="32.3938541" lon="-111.5276704"><ele>788.0000000000001</ele><time>2026-04-14T18:00:37.17Z</time></trkpt><trkpt lat="32.3939404" lon="-111.5277275"><ele>788.0</ele><time>2026-04-14T18:00:38.162Z</time></trkpt><trkpt lat="32.3940268" lon="-111.5277839"><ele>787.5</ele><time>2026-04-14T18:00:39.166Z</time></trkpt><trkpt lat="32.3941312" lon="-111.5278242"><ele>787.0</ele><time>2026-04-14T18:00:40.169Z</time></trkpt><trkpt lat="32.3942497" lon="-111.5278607"><ele>786.5</ele><time>2026-04-14T18:00:41.16Z</time></trkpt><trkpt lat="32.3943749" lon="-111.5279093"><ele>786.0</ele><time>2026-04-14T18:00:42.172Z</time></trkpt><trkpt lat="32.394491" lon="-111.5279614"><ele>785.75</ele><time>2026-04-14T18:00:43.173Z</time></trkpt><trkpt lat="32.3945999" lon="-111.5280252"><ele>785.5</ele><time>2026-04-14T18:00:44.163Z</time></trkpt><trkpt lat="32.394706" lon="-111.5281016"><ele>785.25</ele><time>2026-04-14T18:00:45.179Z</time></trkpt><trkpt lat="32.3948018" lon="-111.5281746"><ele>785.0</ele><time>2026-04-14T18:00:46.159Z</time></trkpt><trkpt lat="32.3948938" lon="-111.5282447"><ele>785.0000000000001</ele><time>2026-04-14T18:00:47.166Z</time></trkpt><trkpt lat="32.3949734" lon="-111.5283172"><ele>785.0</ele><time>2026-04-14T18:00:48.162Z</time></trkpt><trkpt lat="32.3950416" lon="-111.5283955"><ele>785.0</ele><time>2026-04-14T18:00:49.167Z</time></trkpt><trkpt lat="32.3950993" lon="-111.5284738"><ele>785.0</ele><time>2026-04-14T18:00:50.164Z</time></trkpt><trkpt lat="32.3951487" lon="-111.5285425"><ele>785.0000000000001</ele><time>2026-04-14T18:00:51.17Z</time></trkpt><trkpt lat="32.3952147" lon="-111.5286092"><ele>785.0</ele><time>2026-04-14T18:00:52.174Z</time></trkpt><trkpt lat="32.3952898" lon="-111.5286883"><ele>784.8</ele><time>2026-04-14T18:00:53.16Z</time></trkpt><trkpt lat="32.3953602" lon="-111.5287915"><ele>784.6</ele><time>2026-04-14T18:00:54.17Z</time></trkpt><trkpt lat="32.3954194" lon="-111.52891"><ele>784.4000000000001</ele><time>2026-04-14T18:00:55.163Z</time></trkpt><trkpt lat="32.3954714" lon="-111.5290274"><ele>784.2</ele><time>2026-04-14T18:00:56.17Z</time></trkpt><trkpt lat="32.3955205" lon="-111.5291292"><ele>784.0</ele><time>2026-04-14T18:00:57.173Z</time></trkpt><trkpt lat="32.3955663" lon="-111.5292082"><ele>784.6</ele><time>2026-04-14T18:00:58.16Z</time></trkpt><trkpt lat="32.3956089" lon="-111.5292827"><ele>785.2</ele><time>2026-04-14T18:00:59.166Z</time></trkpt><trkpt lat="32.3956497" lon="-111.5293746"><ele>785.8000000000001</ele><time>2026-04-14T18:01:00.164Z</time></trkpt><trkpt lat="32.395696" lon="-111.5294798"><ele>786.4000000000001</ele><time>2026-04-14T18:01:01.175Z</time></trkpt><trkpt lat="32.3957536" lon="-111.5295686"><ele>787.0</ele><time>2026-04-14T18:01:02.173Z</time></trkpt><trkpt lat="32.3958227" lon="-111.5296493"><ele>787.6</ele><time>2026-04-14T18:01:03.162Z</time></trkpt><trkpt lat="32.3959101" lon="-111.5297258"><ele>788.2</ele><time>2026-04-14T18:01:04.166Z</time></trkpt><trkpt lat="32.3960009" lon="-111.5297987"><ele>788.8</ele><time>2026-04-14T18:01:05.166Z</time></trkpt><trkpt lat="32.396092" lon="-111.5298789"><ele>789.4</ele><time>2026-04-14T18:01:06.18Z</time></trkpt><trkpt lat="32.3961756" lon="-111.5299495"><ele>790.0</ele><time>2026-04-14T18:01:07.166Z</time></trkpt><trkpt lat="32.396257" lon="-111.5300242"><ele>790.0</ele><time>2026-04-14T18:01:08.166Z</time></trkpt><trkpt lat="32.396325" lon="-111.5300877"><ele>790.0</ele><time>2026-04-14T18:01:09.163Z</time></trkpt><trkpt lat="32.3963826" lon="-111.5301592"><ele>790.0</ele><time>2026-04-14T18:01:10.168Z</time></trkpt><trkpt lat="32.3964315" lon="-111.5302347"><ele>790.0</ele><time>2026-04-14T18:01:11.164Z</time></trkpt><trkpt lat="32.3964804" lon="-111.5303275"><ele>790.0</ele><time>2026-04-14T18:01:12.167Z</time></trkpt><trkpt lat="32.3965201" lon="-111.530459"><ele>790.0</ele><time>2026-04-14T18:01:13.167Z</time></trkpt><trkpt lat="32.396565" lon="-111.5305938"><ele>790.0</ele><time>2026-04-14T18:01:14.172Z</time></trkpt><trkpt lat="32.3966084" lon="-111.5307243"><ele>790.0</ele><time>2026-04-14T18:01:15.166Z</time></trkpt><trkpt lat="32.3966485" lon="-111.5308563"><ele>790.0</ele><time>2026-04-14T18:01:16.167Z</time></trkpt><trkpt lat="32.3966959" lon="-111.5309805"><ele>790.0</ele><time>2026-04-14T18:01:17.166Z</time></trkpt><trkpt lat="32.3967463" lon="-111.5311045"><ele>790.0</ele><time>2026-04-14T18:01:18.162Z</time></trkpt><trkpt lat="32.3967906" lon="-111.5312333"><ele>790.0</ele><time>2026-04-14T18:01:19.167Z</time></trkpt><trkpt lat="32.3968346" lon="-111.5313603"><ele>790.0</ele><time>2026-04-14T18:01:20.158Z</time></trkpt><trkpt lat="32.3968738" lon="-111.5314806"><ele>789.8</ele><time>2026-04-14T18:01:21.162Z</time></trkpt><trkpt lat="32.3969115" lon="-111.5315902"><ele>789.6</ele><time>2026-04-14T18:01:22.161Z</time></trkpt><trkpt lat="32.3969556" lon="-111.5316921"><ele>789.4000000000001</ele><time>2026-04-14T18:01:23.166Z</time></trkpt><trkpt lat="32.3970103" lon="-111.5317831"><ele>789.2</ele><time>2026-04-14T18:01:24.168Z</time></trkpt><trkpt lat="32.3970786" lon="-111.531871"><ele>789.0</ele><time>2026-04-14T18:01:25.167Z</time></trkpt><trkpt lat="32.3971549" lon="-111.5319564"><ele>790.0</ele><time>2026-04-14T18:01:26.168Z</time></trkpt><trkpt lat="32.3972315" lon="-111.5320317"><ele>791.0</ele><time>2026-04-14T18:01:27.168Z</time></trkpt><trkpt lat="32.3973112" lon="-111.5321116"><ele>792.0</ele><time>2026-04-14T18:01:28.162Z</time></trkpt><trkpt lat="32.3973846" lon="-111.5322006"><ele>793.0</ele><time>2026-04-14T18:01:29.165Z</time></trkpt><trkpt lat="32.397452" lon="-111.5323047"><ele>794.0</ele><time>2026-04-14T18:01:30.162Z</time></trkpt><trkpt lat="32.3975174" lon="-111.5324094"><ele>794.0</ele><time>2026-04-14T18:01:31.169Z</time></trkpt><trkpt lat="32.3975819" lon="-111.5325045"><ele>794.0</ele><time>2026-04-14T18:01:32.165Z</time></trkpt><trkpt lat="32.3976591" lon="-111.5325937"><ele>794.0</ele><time>2026-04-14T18:01:33.161Z</time></trkpt><trkpt lat="32.3977464" lon="-111.5326668"><ele>794.0</ele><time>2026-04-14T18:01:34.166Z</time></trkpt><trkpt lat="32.3978318" lon="-111.5327408"><ele>794.0</ele><time>2026-04-14T18:01:35.165Z</time></trkpt><trkpt lat="32.3979219" lon="-111.5327866"><ele>795.0</ele><time>2026-04-14T18:01:36.173Z</time></trkpt><trkpt lat="32.3980168" lon="-111.5328334"><ele>796.0</ele><time>2026-04-14T18:01:37.162Z</time></trkpt><trkpt lat="32.3981152" lon="-111.5328843"><ele>797.0</ele><time>2026-04-14T18:01:38.166Z</time></trkpt><trkpt lat="32.3982159" lon="-111.5329359"><ele>798.0</ele><time>2026-04-14T18:01:39.163Z</time></trkpt><trkpt lat="32.3983179" lon="-111.5329894"><ele>799.0</ele><time>2026-04-14T18:01:40.163Z</time></trkpt><trkpt lat="32.3984184" lon="-111.5330397"><ele>799.0</ele><time>2026-04-14T18:01:41.167Z</time></trkpt><trkpt lat="32.3985186" lon="-111.5330925"><ele>799.0</ele><time>2026-04-14T18:01:42.17Z</time></trkpt><trkpt lat="32.3986148" lon="-111.5331494"><ele>799.0</ele><time>2026-04-14T18:01:43.17Z</time></trkpt><trkpt lat="32.3987011" lon="-111.5332081"><ele>799.0</ele><time>2026-04-14T18:01:44.163Z</time></trkpt><trkpt lat="32.3987808" lon="-111.5332668"><ele>799.0</ele><time>2026-04-14T18:01:45.166Z</time></trkpt><trkpt lat="32.3988695" lon="-111.5333527"><ele>799.3333333333333</ele><time>2026-04-14T18:01:46.166Z</time></trkpt><trkpt lat="32.3989757" lon="-111.5334618"><ele>799.6666666666667</ele><time>2026-04-14T18:01:47.166Z</time></trkpt><trkpt lat="32.3990882" lon="-111.5336036"><ele>800.0</ele><time>2026-04-14T18:01:48.177Z</time></trkpt><trkpt lat="32.3991864" lon="-111.533738"><ele>800.0</ele><time>2026-04-14T18:01:49.168Z</time></trkpt><trkpt lat="32.3992852" lon="-111.5338599"><ele>800.0</ele><time>2026-04-14T18:01:50.168Z</time></trkpt><trkpt lat="32.3993749" lon="-111.5339708"><ele>800.0</ele><time>2026-04-14T18:01:51.168Z</time></trkpt><trkpt lat="32.3994518" lon="-111.5340825"><ele>800.0</ele><time>2026-04-14T18:01:52.183Z</time></trkpt><trkpt lat="32.3995189" lon="-111.534202"><ele>800.0</ele><time>2026-04-14T18:01:53.16Z</time></trkpt><trkpt lat="32.3995808" lon="-111.5343358"><ele>800.0</ele><time>2026-04-14T18:01:54.162Z</time></trkpt><trkpt lat="32.3996447" lon="-111.5344749"><ele>800.0</ele><time>2026-04-14T18:01:55.171Z</time></trkpt><trkpt lat="32.3997078" lon="-111.5346019"><ele>800.0</ele><time>2026-04-14T18:01:56.161Z</time></trkpt><trkpt lat="32.3997657" lon="-111.5347237"><ele>800.25</ele><time>2026-04-14T18:01:57.169Z</time></trkpt><trkpt lat="32.3998122" lon="-111.5348514"><ele>800.5</ele><time>2026-04-14T18:01:58.168Z</time></trkpt><trkpt lat="32.3998483" lon="-111.5349774"><ele>800.75</ele><time>2026-04-14T18:01:59.164Z</time></trkpt><trkpt lat="32.3998825" lon="-111.5351336"><ele>801.0</ele><time>2026-04-14T18:02:00.161Z</time></trkpt><trkpt lat="32.3999186" lon="-111.5352963"><ele>800.25</ele><time>2026-04-14T18:02:01.167Z</time></trkpt><trkpt lat="32.3999603" lon="-111.5354661"><ele>799.5</ele><time>2026-04-14T18:02:02.174Z</time></trkpt><trkpt lat="32.3999971" lon="-111.5356219"><ele>798.75</ele><time>2026-04-14T18:02:03.161Z</time></trkpt><trkpt lat="32.4000416" lon="-111.5357778"><ele>798.0</ele><time>2026-04-14T18:02:04.166Z</time></trkpt><trkpt lat="32.4000995" lon="-111.535923"><ele>798.0</ele><time>2026-04-14T18:02:05.165Z</time></trkpt><trkpt lat="32.4001743" lon="-111.5360801"><ele>798.0</ele><time>2026-04-14T18:02:06.168Z</time></trkpt><trkpt lat="32.40026" lon="-111.5362422"><ele>798.0</ele><time>2026-04-14T18:02:07.172Z</time></trkpt><trkpt lat="32.40034" lon="-111.5363943"><ele>796.75</ele><time>2026-04-14T18:02:08.168Z</time></trkpt><trkpt lat="32.4004082" lon="-111.5365432"><ele>795.5</ele><time>2026-04-14T18:02:09.161Z</time></trkpt><trkpt lat="32.4004686" lon="-111.5366888"><ele>794.25</ele><time>2026-04-14T18:02:10.181Z</time></trkpt><trkpt lat="32.4005259" lon="-111.5368242"><ele>793.0</ele><time>2026-04-14T18:02:11.167Z</time></trkpt><trkpt lat="32.4005894" lon="-111.5369632"><ele>792.25</ele><time>2026-04-14T18:02:12.16Z</time></trkpt><trkpt lat="32.4006492" lon="-111.5370968"><ele>791.5</ele><time>2026-04-14T18:02:13.168Z</time></trkpt><trkpt lat="32.4007073" lon="-111.5372325"><ele>790.75</ele><time>2026-04-14T18:02:14.164Z</time></trkpt><trkpt lat="32.4007706" lon="-111.5373602"><ele>790.0</ele><time>2026-04-14T18:02:15.165Z</time></trkpt><trkpt lat="32.4008434" lon="-111.5374823"><ele>790.0</ele><time>2026-04-14T18:02:16.171Z</time></trkpt><trkpt lat="32.4009247" lon="-111.5376006"><ele>790.0</ele><time>2026-04-14T18:02:17.174Z</time></trkpt><trkpt lat="32.4010012" lon="-111.5377201"><ele>790.0</ele><time>2026-04-14T18:02:18.166Z</time></trkpt><trkpt lat="32.4010964" lon="-111.5378616"><ele>790.0</ele><time>2026-04-14T18:02:19.165Z</time></trkpt><trkpt lat="32.401184" lon="-111.5379931"><ele>790.25</ele><time>2026-04-14T18:02:20.167Z</time></trkpt><trkpt lat="32.4012689" lon="-111.538118"><ele>790.5</ele><time>2026-04-14T18:02:21.171Z</time></trkpt><trkpt lat="32.4013596" lon="-111.5382453"><ele>790.75</ele><time>2026-04-14T18:02:22.169Z</time></trkpt><trkpt lat="32.4014607" lon="-111.5383677"><ele>791.0</ele><time>2026-04-14T18:02:23.165Z</time></trkpt><trkpt lat="32.4015844" lon="-111.5384807"><ele>791.0</ele><time>2026-04-14T18:02:24.176Z</time></trkpt><trkpt lat="32.4016929" lon="-111.5385715"><ele>791.0</ele><time>2026-04-14T18:02:25.172Z</time></trkpt><trkpt lat="32.4018024" lon="-111.5386489"><ele>791.0</ele><time>2026-04-14T18:02:26.16Z</time></trkpt><trkpt lat="32.4019171" lon="-111.5387354"><ele>791.0</ele><time>2026-04-14T18:02:27.164Z</time></trkpt><trkpt lat="32.4020168" lon="-111.5388211"><ele>791.75</ele><time>2026-04-14T18:02:28.16Z</time></trkpt><trkpt lat="32.4021169" lon="-111.5389136"><ele>792.5</ele><time>2026-04-14T18:02:29.177Z</time></trkpt><trkpt lat="32.4022187" lon="-111.5389944"><ele>793.25</ele><time>2026-04-14T18:02:30.163Z</time></trkpt><trkpt lat="32.4023361" lon="-111.5390727"><ele>794.0</ele><time>2026-04-14T18:02:31.164Z</time></trkpt><trkpt lat="32.4024496" lon="-111.5391416"><ele>794.75</ele><time>2026-04-14T18:02:32.163Z</time></trkpt><trkpt lat="32.4025647" lon="-111.539198"><ele>795.5</ele><time>2026-04-14T18:02:33.164Z</time></trkpt><trkpt lat="32.4026755" lon="-111.5392554"><ele>796.25</ele><time>2026-04-14T18:02:34.168Z</time></trkpt><trkpt lat="32.4027829" lon="-111.539319"><ele>797.0</ele><time>2026-04-14T18:02:35.162Z</time></trkpt><trkpt lat="32.4028952" lon="-111.5393864"><ele>797.2</ele><time>2026-04-14T18:02:36.166Z</time></trkpt><trkpt lat="32.4030066" lon="-111.5394581"><ele>797.4000000000001</ele><time>2026-04-14T18:02:37.158Z</time></trkpt><trkpt lat="32.403105" lon="-111.5395077"><ele>797.5999999999999</ele><time>2026-04-14T18:02:38.166Z</time></trkpt><trkpt lat="32.4031921" lon="-111.5395494"><ele>797.8</ele><time>2026-04-14T18:02:39.169Z</time></trkpt><trkpt lat="32.4032653" lon="-111.5395896"><ele>798.0</ele><time>2026-04-14T18:02:40.174Z</time></trkpt><trkpt lat="32.4033243" lon="-111.5396309"><ele>798.0</ele><time>2026-04-14T18:02:41.168Z</time></trkpt><trkpt lat="32.4033818" lon="-111.5396805"><ele>798.0</ele><time>2026-04-14T18:02:42.167Z</time></trkpt><trkpt lat="32.4034327" lon="-111.5397384"><ele>798.0</ele><time>2026-04-14T18:02:43.174Z</time></trkpt><trkpt lat="32.4034762" lon="-111.5397975"><ele>798.0</ele><time>2026-04-14T18:02:44.166Z</time></trkpt><trkpt lat="32.4035192" lon="-111.5398705"><ele>798.0</ele><time>2026-04-14T18:02:45.173Z</time></trkpt><trkpt lat="32.4035587" lon="-111.5399612"><ele>798.0</ele><time>2026-04-14T18:02:46.17Z</time></trkpt><trkpt lat="32.403587" lon="-111.5400543"><ele>798.0</ele><time>2026-04-14T18:02:47.165Z</time></trkpt><trkpt lat="32.4036055" lon="-111.5401473"><ele>798.0</ele><time>2026-04-14T18:02:48.164Z</time></trkpt><trkpt lat="32.4036131" lon="-111.5402393"><ele>798.0</ele><time>2026-04-14T18:02:49.163Z</time></trkpt><trkpt lat="32.4036219" lon="-111.5403533"><ele>798.0</ele><time>2026-04-14T18:02:50.177Z</time></trkpt><trkpt lat="32.4036164" lon="-111.5404899"><ele>798.0</ele><time>2026-04-14T18:02:51.166Z</time></trkpt><trkpt lat="32.4036129" lon="-111.5406372"><ele>796.25</ele><time>2026-04-14T18:02:52.168Z</time></trkpt><trkpt lat="32.403614" lon="-111.540774"><ele>794.5</ele><time>2026-04-14T18:02:53.163Z</time></trkpt><trkpt lat="32.4036071" lon="-111.5409235"><ele>792.75</ele><time>2026-04-14T18:02:54.168Z</time></trkpt><trkpt lat="32.4036035" lon="-111.5410529"><ele>791.0</ele><time>2026-04-14T18:02:55.167Z</time></trkpt><trkpt lat="32.4035977" lon="-111.5411788"><ele>790.0000000000001</ele><time>2026-04-14T18:02:56.177Z</time></trkpt><trkpt lat="32.4035871" lon="-111.5412936"><ele>789.0</ele><time>2026-04-14T18:02:57.165Z</time></trkpt><trkpt lat="32.4035686" lon="-111.5413943"><ele>788.0</ele><time>2026-04-14T18:02:58.166Z</time></trkpt><trkpt lat="32.4035381" lon="-111.5414834"><ele>787.0</ele><time>2026-04-14T18:02:59.168Z</time></trkpt><trkpt lat="32.403493" lon="-111.5415635"><ele>786.0000000000001</ele><time>2026-04-14T18:03:00.168Z</time></trkpt><trkpt lat="32.4034399" lon="-111.541634"><ele>785.0</ele><time>2026-04-14T18:03:01.167Z</time></trkpt><trkpt lat="32.4033729" lon="-111.5416986"><ele>785.0</ele><time>2026-04-14T18:03:02.17Z</time></trkpt><trkpt lat="32.40329" lon="-111.5417631"><ele>785.0</ele><time>2026-04-14T18:03:03.165Z</time></trkpt><trkpt lat="32.4031974" lon="-111.5418338"><ele>785.0</ele><time>2026-04-14T18:03:04.179Z</time></trkpt><trkpt lat="32.4031067" lon="-111.5419004"><ele>785.0</ele><time>2026-04-14T18:03:05.167Z</time></trkpt><trkpt lat="32.4030171" lon="-111.5419685"><ele>785.0</ele><time>2026-04-14T18:03:06.163Z</time></trkpt><trkpt lat="32.4029279" lon="-111.5420311"><ele>783.8</ele><time>2026-04-14T18:03:07.173Z</time></trkpt><trkpt lat="32.4028437" lon="-111.5420907"><ele>782.6</ele><time>2026-04-14T18:03:08.163Z</time></trkpt><trkpt lat="32.4027476" lon="-111.5421448"><ele>781.4000000000001</ele><time>2026-04-14T18:03:09.165Z</time></trkpt><trkpt lat="32.4026382" lon="-111.5421841"><ele>780.2</ele><time>2026-04-14T18:03:10.168Z</time></trkpt><trkpt lat="32.4025303" lon="-111.5422052"><ele>779.0</ele><time>2026-04-14T18:03:11.171Z</time></trkpt><trkpt lat="32.402416" lon="-111.5422244"><ele>779.0</ele><time>2026-04-14T18:03:12.164Z</time></trkpt><trkpt lat="32.4023076" lon="-111.5422372"><ele>779.0</ele><time>2026-04-14T18:03:13.167Z</time></trkpt><trkpt lat="32.4022064" lon="-111.5422501"><ele>779.0</ele><time>2026-04-14T18:03:14.166Z</time></trkpt><trkpt lat="32.4021127" lon="-111.5422752"><ele>779.0</ele><time>2026-04-14T18:03:15.168Z</time></trkpt><trkpt lat="32.4020176" lon="-111.5423175"><ele>779.0</ele><time>2026-04-14T18:03:16.164Z</time></trkpt><trkpt lat="32.4019211" lon="-111.5423785"><ele>778.6</ele><time>2026-04-14T18:03:17.17Z</time></trkpt><trkpt lat="32.4018292" lon="-111.5424552"><ele>778.2</ele><time>2026-04-14T18:03:18.165Z</time></trkpt><trkpt lat="32.4017476" lon="-111.542538"><ele>777.8000000000001</ele><time>2026-04-14T18:03:19.164Z</time></trkpt><trkpt lat="32.4016745" lon="-111.5426211"><ele>777.4000000000001</ele><time>2026-04-14T18:03:20.166Z</time></trkpt><trkpt lat="32.4016127" lon="-111.542704"><ele>777.0</ele><time>2026-04-14T18:03:21.166Z</time></trkpt><trkpt lat="32.4015659" lon="-111.5427852"><ele>777.0</ele><time>2026-04-14T18:03:22.164Z</time></trkpt><trkpt lat="32.401534" lon="-111.5428609"><ele>777.0</ele><time>2026-04-14T18:03:23.172Z</time></trkpt><trkpt lat="32.4015173" lon="-111.5429819"><ele>777.0</ele><time>2026-04-14T18:03:25.18Z</time></trkpt><trkpt lat="32.4015349" lon="-111.5431167"><ele>777.0</ele><time>2026-04-14T18:03:27.173Z</time></trkpt><trkpt lat="32.4015572" lon="-111.5432056"><ele>777.0</ele><time>2026-04-14T18:03:28.166Z</time></trkpt><trkpt lat="32.4015907" lon="-111.5433146"><ele>776.2</ele><time>2026-04-14T18:03:29.162Z</time></trkpt><trkpt lat="32.4016263" lon="-111.5434297"><ele>775.4000000000001</ele><time>2026-04-14T18:03:30.168Z</time></trkpt><trkpt lat="32.4016642" lon="-111.5435368"><ele>774.5999999999999</ele><time>2026-04-14T18:03:31.168Z</time></trkpt><trkpt lat="32.4017136" lon="-111.5436359"><ele>773.8</ele><time>2026-04-14T18:03:32.169Z</time></trkpt><trkpt lat="32.4017771" lon="-111.5437385"><ele>773.0</ele><time>2026-04-14T18:03:33.168Z</time></trkpt><trkpt lat="32.4018479" lon="-111.5438365"><ele>772.5999999999999</ele><time>2026-04-14T18:03:34.173Z</time></trkpt><trkpt lat="32.4019159" lon="-111.5439227"><ele>772.1999999999999</ele><time>2026-04-14T18:03:35.162Z</time></trkpt><trkpt lat="32.4019907" lon="-111.5440071"><ele>771.8</ele><time>2026-04-14T18:03:36.171Z</time></trkpt><trkpt lat="32.402067" lon="-111.5440785"><ele>771.4</ele><time>2026-04-14T18:03:37.163Z</time></trkpt><trkpt lat="32.4021416" lon="-111.5441429"><ele>771.0</ele><time>2026-04-14T18:03:38.168Z</time></trkpt><trkpt lat="32.4022101" lon="-111.5441949"><ele>771.0</ele><time>2026-04-14T18:03:39.168Z</time></trkpt><trkpt lat="32.4022677" lon="-111.5442352"><ele>771.0</ele><time>2026-04-14T18:03:40.159Z</time></trkpt><trkpt lat="32.4023549" lon="-111.5442925"><ele>771.0</ele><time>2026-04-14T18:03:42.165Z</time></trkpt><trkpt lat="32.4024137" lon="-111.5443319"><ele>771.0</ele><time>2026-04-14T18:03:45.17Z</time></trkpt><trkpt lat="32.4024797" lon="-111.5443521"><ele>771.0</ele><time>2026-04-14T18:04:03.164Z</time></trkpt><trkpt lat="32.4024146" lon="-111.5442996"><ele>771.0</ele><time>2026-04-14T18:13:30.995Z</time></trkpt><trkpt lat="32.4023042" lon="-111.5442418"><ele>771.0</ele><time>2026-04-14T18:13:36.995Z</time></trkpt><trkpt lat="32.4022414" lon="-111.544195"><ele>771.0</ele><time>2026-04-14T18:13:37.995Z</time></trkpt><trkpt lat="32.402174" lon="-111.5441453"><ele>771.0</ele><time>2026-04-14T18:13:38.995Z</time></trkpt><trkpt lat="32.4021133" lon="-111.5440973"><ele>771.0</ele><time>2026-04-14T18:13:39.994Z</time></trkpt><trkpt lat="32.4020637" lon="-111.5440508"><ele>771.0</ele><time>2026-04-14T18:13:40.995Z</time></trkpt><trkpt lat="32.4019747" lon="-111.5439533"><ele>771.0</ele><time>2026-04-14T18:13:42.995Z</time></trkpt><trkpt lat="32.4019182" lon="-111.5438819"><ele>770.6666666666666</ele><time>2026-04-14T18:13:43.995Z</time></trkpt><trkpt lat="32.4018549" lon="-111.5438064"><ele>770.3333333333333</ele><time>2026-04-14T18:13:44.994Z</time></trkpt><trkpt lat="32.4017968" lon="-111.543732"><ele>770.0</ele><time>2026-04-14T18:13:45.995Z</time></trkpt><trkpt lat="32.401746" lon="-111.5436592"><ele>769.6666666666666</ele><time>2026-04-14T18:13:46.994Z</time></trkpt><trkpt lat="32.4016981" lon="-111.5435824"><ele>769.3333333333333</ele><time>2026-04-14T18:13:47.995Z</time></trkpt><trkpt lat="32.4016552" lon="-111.5434977"><ele>769.0</ele><time>2026-04-14T18:13:48.995Z</time></trkpt><trkpt lat="32.401619" lon="-111.5434059"><ele>769.6666666666666</ele><time>2026-04-14T18:13:49.994Z</time></trkpt><trkpt lat="32.4015961" lon="-111.5433127"><ele>770.3333333333333</ele><time>2026-04-14T18:13:50.995Z</time></trkpt><trkpt lat="32.401571" lon="-111.5432127"><ele>771.0</ele><time>2026-04-14T18:13:51.995Z</time></trkpt><trkpt lat="32.4015486" lon="-111.5431128"><ele>771.6666666666667</ele><time>2026-04-14T18:13:52.994Z</time></trkpt><trkpt lat="32.4015284" lon="-111.5430231"><ele>772.3333333333334</ele><time>2026-04-14T18:13:53.994Z</time></trkpt><trkpt lat="32.4015248" lon="-111.542948"><ele>773.0</ele><time>2026-04-14T18:13:54.994Z</time></trkpt><trkpt lat="32.4015369" lon="-111.542872"><ele>773.8</ele><time>2026-04-14T18:13:55.995Z</time></trkpt><trkpt lat="32.4015633" lon="-111.5427914"><ele>774.5999999999999</ele><time>2026-04-14T18:13:56.994Z</time></trkpt><trkpt lat="32.4016092" lon="-111.5426986"><ele>775.4000000000001</ele><time>2026-04-14T18:13:57.994Z</time></trkpt><trkpt lat="32.4016744" lon="-111.5426006"><ele>776.2</ele><time>2026-04-14T18:13:58.994Z</time></trkpt><trkpt lat="32.4017461" lon="-111.5425073"><ele>777.0</ele><time>2026-04-14T18:13:59.994Z</time></trkpt><trkpt lat="32.4018239" lon="-111.5424282"><ele>777.0</ele><time>2026-04-14T18:14:00.995Z</time></trkpt><trkpt lat="32.4019091" lon="-111.5423637"><ele>777.0</ele><time>2026-04-14T18:14:01.995Z</time></trkpt><trkpt lat="32.4020063" lon="-111.5423071"><ele>777.0</ele><time>2026-04-14T18:14:02.995Z</time></trkpt><trkpt lat="32.4021083" lon="-111.5422643"><ele>777.0</ele><time>2026-04-14T18:14:03.995Z</time></trkpt><trkpt lat="32.4022096" lon="-111.5422324"><ele>777.0</ele><time>2026-04-14T18:14:04.995Z</time></trkpt><trkpt lat="32.4023184" lon="-111.5422071"><ele>777.5</ele><time>2026-04-14T18:14:05.995Z</time></trkpt><trkpt lat="32.4024383" lon="-111.5421942"><ele>778.0</ele><time>2026-04-14T18:14:06.995Z</time></trkpt><trkpt lat="32.4025576" lon="-111.5421863"><ele>778.5</ele><time>2026-04-14T18:14:07.995Z</time></trkpt><trkpt lat="32.4026681" lon="-111.5421701"><ele>779.0</ele><time>2026-04-14T18:14:08.995Z</time></trkpt><trkpt lat="32.4027734" lon="-111.5421451"><ele>779.0</ele><time>2026-04-14T18:14:09.994Z</time></trkpt><trkpt lat="32.4028699" lon="-111.5420985"><ele>779.0</ele><time>2026-04-14T18:14:10.995Z</time></trkpt><trkpt lat="32.4029653" lon="-111.5420316"><ele>779.0</ele><time>2026-04-14T18:14:11.995Z</time></trkpt><trkpt lat="32.4030559" lon="-111.5419443"><ele>779.0</ele><time>2026-04-14T18:14:12.995Z</time></trkpt><trkpt lat="32.4031495" lon="-111.5418584"><ele>780.2</ele><time>2026-04-14T18:14:13.995Z</time></trkpt><trkpt lat="32.4032378" lon="-111.541784"><ele>781.4000000000001</ele><time>2026-04-14T18:14:14.995Z</time></trkpt><trkpt lat="32.4033184" lon="-111.5417228"><ele>782.6</ele><time>2026-04-14T18:14:15.995Z</time></trkpt><trkpt lat="32.4033937" lon="-111.5416706"><ele>783.8</ele><time>2026-04-14T18:14:16.994Z</time></trkpt><trkpt lat="32.4034663" lon="-111.5416182"><ele>785.0</ele><time>2026-04-14T18:14:17.994Z</time></trkpt><trkpt lat="32.403523" lon="-111.5415606"><ele>785.0</ele><time>2026-04-14T18:14:18.994Z</time></trkpt><trkpt lat="32.4035769" lon="-111.5414748"><ele>785.0</ele><time>2026-04-14T18:14:19.995Z</time></trkpt><trkpt lat="32.4036084" lon="-111.5413681"><ele>785.0</ele><time>2026-04-14T18:14:20.995Z</time></trkpt><trkpt lat="32.4036199" lon="-111.5412274"><ele>785.0</ele><time>2026-04-14T18:14:21.994Z</time></trkpt><trkpt lat="32.4036221" lon="-111.5410706"><ele>785.0</ele><time>2026-04-14T18:14:22.995Z</time></trkpt><trkpt lat="32.4036214" lon="-111.5409194"><ele>786.5</ele><time>2026-04-14T18:14:23.995Z</time></trkpt><trkpt lat="32.403618" lon="-111.5407795"><ele>788.0</ele><time>2026-04-14T18:14:24.995Z</time></trkpt><trkpt lat="32.4036138" lon="-111.5406372"><ele>789.5</ele><time>2026-04-14T18:14:25.995Z</time></trkpt><trkpt lat="32.4036083" lon="-111.5405037"><ele>791.0</ele><time>2026-04-14T18:14:26.995Z</time></trkpt><trkpt lat="32.403607" lon="-111.5403809"><ele>792.1666666666667</ele><time>2026-04-14T18:14:27.995Z</time></trkpt><trkpt lat="32.4036083" lon="-111.5402709"><ele>793.3333333333334</ele><time>2026-04-14T18:14:28.995Z</time></trkpt><trkpt lat="32.4036019" lon="-111.540168"><ele>794.5</ele><time>2026-04-14T18:14:29.995Z</time></trkpt><trkpt lat="32.4035757" lon="-111.5400705"><ele>795.6666666666667</ele><time>2026-04-14T18:14:30.995Z</time></trkpt><trkpt lat="32.4035452" lon="-111.5399771"><ele>796.8333333333334</ele><time>2026-04-14T18:14:31.995Z</time></trkpt><trkpt lat="32.4035122" lon="-111.5398847"><ele>798.0</ele><time>2026-04-14T18:14:32.995Z</time></trkpt><trkpt lat="32.4034759" lon="-111.539796"><ele>798.0</ele><time>2026-04-14T18:14:33.994Z</time></trkpt><trkpt lat="32.4034336" lon="-111.5397211"><ele>798.0</ele><time>2026-04-14T18:14:34.992Z</time></trkpt><trkpt lat="32.4033824" lon="-111.5396557"><ele>798.0</ele><time>2026-04-14T18:14:35.995Z</time></trkpt><trkpt lat="32.4033286" lon="-111.5395999"><ele>798.0</ele><time>2026-04-14T18:14:36.994Z</time></trkpt><trkpt lat="32.4032706" lon="-111.5395479"><ele>798.0</ele><time>2026-04-14T18:14:37.994Z</time></trkpt><trkpt lat="32.4032067" lon="-111.5395016"><ele>798.0</ele><time>2026-04-14T18:14:38.995Z</time></trkpt><trkpt lat="32.4031294" lon="-111.5394689"><ele>797.8</ele><time>2026-04-14T18:14:39.995Z</time></trkpt><trkpt lat="32.4030433" lon="-111.5394369"><ele>797.5999999999999</ele><time>2026-04-14T18:14:40.994Z</time></trkpt><trkpt lat="32.4029532" lon="-111.5394056"><ele>797.4000000000001</ele><time>2026-04-14T18:14:41.996Z</time></trkpt><trkpt lat="32.4028668" lon="-111.5393756"><ele>797.2</ele><time>2026-04-14T18:14:42.995Z</time></trkpt><trkpt lat="32.4027822" lon="-111.5393374"><ele>797.0</ele><time>2026-04-14T18:14:43.995Z</time></trkpt><trkpt lat="32.4027038" lon="-111.539293"><ele>797.0000000000001</ele><time>2026-04-14T18:14:44.994Z</time></trkpt><trkpt lat="32.4026288" lon="-111.5392475"><ele>797.0</ele><time>2026-04-14T18:14:45.995Z</time></trkpt><trkpt lat="32.4025521" lon="-111.5392037"><ele>797.0</ele><time>2026-04-14T18:14:46.996Z</time></trkpt><trkpt lat="32.4024769" lon="-111.5391591"><ele>797.0</ele><time>2026-04-14T18:14:47.995Z</time></trkpt><trkpt lat="32.4023984" lon="-111.5391147"><ele>797.0000000000001</ele><time>2026-04-14T18:14:48.995Z</time></trkpt><trkpt lat="32.4023115" lon="-111.5390647"><ele>797.0</ele><time>2026-04-14T18:14:49.996Z</time></trkpt><trkpt lat="32.4022278" lon="-111.539016"><ele>796.4000000000001</ele><time>2026-04-14T18:14:50.995Z</time></trkpt><trkpt lat="32.4021478" lon="-111.5389586"><ele>795.8000000000001</ele><time>2026-04-14T18:14:51.996Z</time></trkpt><trkpt lat="32.4020733" lon="-111.5388896"><ele>795.2</ele><time>2026-04-14T18:14:52.996Z</time></trkpt><trkpt lat="32.4019944" lon="-111.5388121"><ele>794.6</ele><time>2026-04-14T18:14:53.996Z</time></trkpt><trkpt lat="32.4019142" lon="-111.5387351"><ele>794.0</ele><time>2026-04-14T18:14:54.996Z</time></trkpt><trkpt lat="32.4018304" lon="-111.5386678"><ele>793.4000000000001</ele><time>2026-04-14T18:14:55.996Z</time></trkpt><trkpt lat="32.4017405" lon="-111.5386076"><ele>792.8</ele><time>2026-04-14T18:14:56.995Z</time></trkpt><trkpt lat="32.4016485" lon="-111.5385446"><ele>792.2</ele><time>2026-04-14T18:14:57.996Z</time></trkpt><trkpt lat="32.4015498" lon="-111.5384734"><ele>791.5999999999999</ele><time>2026-04-14T18:14:58.996Z</time></trkpt><trkpt lat="32.4014527" lon="-111.5383856"><ele>791.0</ele><time>2026-04-14T18:14:59.996Z</time></trkpt><trkpt lat="32.4013609" lon="-111.5382762"><ele>790.75</ele><time>2026-04-14T18:15:00.996Z</time></trkpt><trkpt lat="32.401274" lon="-111.5381585"><ele>790.5</ele><time>2026-04-14T18:15:01.996Z</time></trkpt><trkpt lat="32.4011958" lon="-111.5380397"><ele>790.25</ele><time>2026-04-14T18:15:02.996Z</time></trkpt><trkpt lat="32.4011239" lon="-111.5379214"><ele>790.0</ele><time>2026-04-14T18:15:03.996Z</time></trkpt><trkpt lat="32.4010533" lon="-111.5377998"><ele>790.0</ele><time>2026-04-14T18:15:04.995Z</time></trkpt><trkpt lat="32.4009823" lon="-111.5376792"><ele>790.0</ele><time>2026-04-14T18:15:05.996Z</time></trkpt><trkpt lat="32.400914" lon="-111.5375726"><ele>790.0</ele><time>2026-04-14T18:15:06.996Z</time></trkpt><trkpt lat="32.4008418" lon="-111.5374708"><ele>790.0</ele><time>2026-04-14T18:15:07.996Z</time></trkpt><trkpt lat="32.4007084" lon="-111.5372217"><ele>790.0</ele><time>2026-04-14T18:15:09.996Z</time></trkpt><trkpt lat="32.4006522" lon="-111.5370919"><ele>790.0</ele><time>2026-04-14T18:15:10.996Z</time></trkpt><trkpt lat="32.4005962" lon="-111.5369619"><ele>790.0</ele><time>2026-04-14T18:15:11.996Z</time></trkpt><trkpt lat="32.400537" lon="-111.5368362"><ele>790.0</ele><time>2026-04-14T18:15:12.996Z</time></trkpt><trkpt lat="32.4004714" lon="-111.5366986"><ele>790.75</ele><time>2026-04-14T18:15:13.996Z</time></trkpt><trkpt lat="32.4004057" lon="-111.5365544"><ele>791.5</ele><time>2026-04-14T18:15:14.996Z</time></trkpt><trkpt lat="32.4003376" lon="-111.5364102"><ele>792.25</ele><time>2026-04-14T18:15:15.996Z</time></trkpt><trkpt lat="32.4002719" lon="-111.5362746"><ele>793.0</ele><time>2026-04-14T18:15:16.996Z</time></trkpt><trkpt lat="32.4002068" lon="-111.5361532"><ele>794.25</ele><time>2026-04-14T18:15:17.995Z</time></trkpt><trkpt lat="32.4001431" lon="-111.5360379"><ele>795.5</ele><time>2026-04-14T18:15:18.996Z</time></trkpt><trkpt lat="32.400083" lon="-111.5359144"><ele>796.75</ele><time>2026-04-14T18:15:19.995Z</time></trkpt><trkpt lat="32.4000266" lon="-111.5357871"><ele>798.0</ele><time>2026-04-14T18:15:20.995Z</time></trkpt><trkpt lat="32.3999852" lon="-111.535645"><ele>798.0</ele><time>2026-04-14T18:15:21.995Z</time></trkpt><trkpt lat="32.399952" lon="-111.5355042"><ele>798.0</ele><time>2026-04-14T18:15:22.995Z</time></trkpt><trkpt lat="32.3999238" lon="-111.535367"><ele>798.0</ele><time>2026-04-14T18:15:23.996Z</time></trkpt><trkpt lat="32.3998999" lon="-111.535226"><ele>798.0</ele><time>2026-04-14T18:15:24.996Z</time></trkpt><trkpt lat="32.3998799" lon="-111.5350847"><ele>798.75</ele><time>2026-04-14T18:15:25.996Z</time></trkpt><trkpt lat="32.399858" lon="-111.5349498"><ele>799.5</ele><time>2026-04-14T18:15:26.996Z</time></trkpt><trkpt lat="32.3998188" lon="-111.5348287"><ele>800.25</ele><time>2026-04-14T18:15:27.996Z</time></trkpt><trkpt lat="32.3997673" lon="-111.5347021"><ele>801.0</ele><time>2026-04-14T18:15:28.995Z</time></trkpt><trkpt lat="32.3997009" lon="-111.5345705"><ele>800.75</ele><time>2026-04-14T18:15:29.995Z</time></trkpt><trkpt lat="32.3996318" lon="-111.534442"><ele>800.5</ele><time>2026-04-14T18:15:30.995Z</time></trkpt><trkpt lat="32.3995643" lon="-111.5343123"><ele>800.25</ele><time>2026-04-14T18:15:31.996Z</time></trkpt><trkpt lat="32.3995001" lon="-111.5341866"><ele>800.0</ele><time>2026-04-14T18:15:32.996Z</time></trkpt><trkpt lat="32.3994292" lon="-111.5340662"><ele>800.0</ele><time>2026-04-14T18:15:33.995Z</time></trkpt><trkpt lat="32.3993523" lon="-111.5339441"><ele>800.0</ele><time>2026-04-14T18:15:34.996Z</time></trkpt><trkpt lat="32.3992488" lon="-111.5338235"><ele>800.0</ele><time>2026-04-14T18:15:35.996Z</time></trkpt><trkpt lat="32.3991531" lon="-111.5337057"><ele>800.0</ele><time>2026-04-14T18:15:36.995Z</time></trkpt><trkpt lat="32.3990699" lon="-111.5335917"><ele>800.25</ele><time>2026-04-14T18:15:37.996Z</time></trkpt><trkpt lat="32.3989928" lon="-111.5334791"><ele>800.5</ele><time>2026-04-14T18:15:38.996Z</time></trkpt><trkpt lat="32.3989136" lon="-111.5333804"><ele>800.75</ele><time>2026-04-14T18:15:39.995Z</time></trkpt><trkpt lat="32.3988255" lon="-111.5333004"><ele>801.0</ele><time>2026-04-14T18:15:40.995Z</time></trkpt><trkpt lat="32.3987247" lon="-111.533224"><ele>800.5</ele><time>2026-04-14T18:15:41.996Z</time></trkpt><trkpt lat="32.3986184" lon="-111.5331482"><ele>800.0</ele><time>2026-04-14T18:15:42.996Z</time></trkpt><trkpt lat="32.3984984" lon="-111.5330731"><ele>799.5</ele><time>2026-04-14T18:15:43.996Z</time></trkpt><trkpt lat="32.3983817" lon="-111.5330004"><ele>799.0</ele><time>2026-04-14T18:15:44.996Z</time></trkpt><trkpt lat="32.3982694" lon="-111.5329323"><ele>799.0</ele><time>2026-04-14T18:15:45.995Z</time></trkpt><trkpt lat="32.3981559" lon="-111.532869"><ele>799.0</ele><time>2026-04-14T18:15:46.996Z</time></trkpt><trkpt lat="32.398048" lon="-111.5328169"><ele>799.0</ele><time>2026-04-14T18:15:47.995Z</time></trkpt><trkpt lat="32.3979507" lon="-111.532773"><ele>799.0</ele><time>2026-04-14T18:15:48.995Z</time></trkpt><trkpt lat="32.3978584" lon="-111.5327149"><ele>797.75</ele><time>2026-04-14T18:15:49.996Z</time></trkpt><trkpt lat="32.3977631" lon="-111.5326469"><ele>796.5</ele><time>2026-04-14T18:15:50.995Z</time></trkpt><trkpt lat="32.3976713" lon="-111.532556"><ele>795.25</ele><time>2026-04-14T18:15:51.995Z</time></trkpt><trkpt lat="32.3975833" lon="-111.5324654"><ele>794.0</ele><time>2026-04-14T18:15:52.996Z</time></trkpt><trkpt lat="32.3975073" lon="-111.532366"><ele>794.0</ele><time>2026-04-14T18:15:53.996Z</time></trkpt><trkpt lat="32.3974338" lon="-111.5322647"><ele>794.0</ele><time>2026-04-14T18:15:54.996Z</time></trkpt><trkpt lat="32.3973672" lon="-111.5321605"><ele>794.0</ele><time>2026-04-14T18:15:55.996Z</time></trkpt><trkpt lat="32.3972947" lon="-111.532053"><ele>794.0</ele><time>2026-04-14T18:15:56.996Z</time></trkpt><trkpt lat="32.3972049" lon="-111.5319566"><ele>792.75</ele><time>2026-04-14T18:15:57.995Z</time></trkpt><trkpt lat="32.3971131" lon="-111.5318672"><ele>791.5</ele><time>2026-04-14T18:15:58.996Z</time></trkpt><trkpt lat="32.397023" lon="-111.5317744"><ele>790.25</ele><time>2026-04-14T18:15:59.995Z</time></trkpt><trkpt lat="32.3969441" lon="-111.5316527"><ele>789.0</ele><time>2026-04-14T18:16:00.996Z</time></trkpt><trkpt lat="32.3968763" lon="-111.5315179"><ele>789.0</ele><time>2026-04-14T18:16:01.996Z</time></trkpt><trkpt lat="32.396826" lon="-111.5313736"><ele>789.0</ele><time>2026-04-14T18:16:02.996Z</time></trkpt><trkpt lat="32.3967928" lon="-111.5312423"><ele>789.0</ele><time>2026-04-14T18:16:03.996Z</time></trkpt><trkpt lat="32.3967534" lon="-111.5311128"><ele>789.0</ele><time>2026-04-14T18:16:04.996Z</time></trkpt><trkpt lat="32.3967058" lon="-111.530975"><ele>789.25</ele><time>2026-04-14T18:16:05.996Z</time></trkpt><trkpt lat="32.3966564" lon="-111.5308315"><ele>789.5</ele><time>2026-04-14T18:16:06.996Z</time></trkpt><trkpt lat="32.3966055" lon="-111.5306764"><ele>789.75</ele><time>2026-04-14T18:16:07.996Z</time></trkpt><trkpt lat="32.3965516" lon="-111.5305159"><ele>790.0</ele><time>2026-04-14T18:16:08.996Z</time></trkpt><trkpt lat="32.3965034" lon="-111.5303588"><ele>790.0</ele><time>2026-04-14T18:16:09.996Z</time></trkpt><trkpt lat="32.3964478" lon="-111.5302325"><ele>790.0</ele><time>2026-04-14T18:16:10.995Z</time></trkpt><trkpt lat="32.3963824" lon="-111.5301302"><ele>790.0</ele><time>2026-04-14T18:16:11.996Z</time></trkpt><trkpt lat="32.3963097" lon="-111.5300332"><ele>790.0</ele><time>2026-04-14T18:16:12.995Z</time></trkpt><trkpt lat="32.3962198" lon="-111.529934"><ele>790.0</ele><time>2026-04-14T18:16:13.996Z</time></trkpt><trkpt lat="32.3961174" lon="-111.5298435"><ele>790.0</ele><time>2026-04-14T18:16:14.996Z</time></trkpt><trkpt lat="32.3960163" lon="-111.5297601"><ele>790.0</ele><time>2026-04-14T18:16:15.996Z</time></trkpt><trkpt lat="32.3959187" lon="-111.5296744"><ele>790.0</ele><time>2026-04-14T18:16:16.996Z</time></trkpt><trkpt lat="32.395823" lon="-111.5295869"><ele>789.4</ele><time>2026-04-14T18:16:17.995Z</time></trkpt><trkpt lat="32.3957332" lon="-111.5294947"><ele>788.8</ele><time>2026-04-14T18:16:18.995Z</time></trkpt><trkpt lat="32.3956635" lon="-111.5294031"><ele>788.2</ele><time>2026-04-14T18:16:19.996Z</time></trkpt><trkpt lat="32.3956139" lon="-111.529318"><ele>787.6</ele><time>2026-04-14T18:16:20.995Z</time></trkpt><trkpt lat="32.3955874" lon="-111.5292337"><ele>787.0</ele><time>2026-04-14T18:16:21.996Z</time></trkpt><trkpt lat="32.3955619" lon="-111.5291493"><ele>787.0</ele><time>2026-04-14T18:16:22.996Z</time></trkpt><trkpt lat="32.3955227" lon="-111.5290578"><ele>787.0</ele><time>2026-04-14T18:16:23.996Z</time></trkpt><trkpt lat="32.3954628" lon="-111.5289474"><ele>787.0</ele><time>2026-04-14T18:16:24.996Z</time></trkpt><trkpt lat="32.3954044" lon="-111.5288331"><ele>787.0</ele><time>2026-04-14T18:16:25.995Z</time></trkpt><trkpt lat="32.3953421" lon="-111.5287289"><ele>787.0</ele><time>2026-04-14T18:16:26.995Z</time></trkpt><trkpt lat="32.3952732" lon="-111.5286346"><ele>786.6</ele><time>2026-04-14T18:16:27.996Z</time></trkpt><trkpt lat="32.3951972" lon="-111.5285594"><ele>786.2</ele><time>2026-04-14T18:16:28.995Z</time></trkpt><trkpt lat="32.3951207" lon="-111.5284857"><ele>785.8</ele><time>2026-04-14T18:16:29.996Z</time></trkpt><trkpt lat="32.3950509" lon="-111.5284137"><ele>785.4</ele><time>2026-04-14T18:16:30.996Z</time></trkpt><trkpt lat="32.3949808" lon="-111.5283168"><ele>785.0</ele><time>2026-04-14T18:16:31.996Z</time></trkpt><trkpt lat="32.3949072" lon="-111.5282257"><ele>785.0</ele><time>2026-04-14T18:16:32.995Z</time></trkpt><trkpt lat="32.3948128" lon="-111.5281468"><ele>785.0</ele><time>2026-04-14T18:16:33.996Z</time></trkpt><trkpt lat="32.3947149" lon="-111.5280738"><ele>785.0</ele><time>2026-04-14T18:16:34.996Z</time></trkpt><trkpt lat="32.3946114" lon="-111.5280015"><ele>785.0</ele><time>2026-04-14T18:16:35.996Z</time></trkpt><trkpt lat="32.3944999" lon="-111.5279383"><ele>785.25</ele><time>2026-04-14T18:16:36.995Z</time></trkpt><trkpt lat="32.39438" lon="-111.5278834"><ele>785.5</ele><time>2026-04-14T18:16:37.996Z</time></trkpt><trkpt lat="32.3942612" lon="-111.5278367"><ele>785.75</ele><time>2026-04-14T18:16:38.995Z</time></trkpt><trkpt lat="32.3941491" lon="-111.5277987"><ele>786.0</ele><time>2026-04-14T18:16:39.996Z</time></trkpt><trkpt lat="32.3940443" lon="-111.5277614"><ele>786.0</ele><time>2026-04-14T18:16:40.995Z</time></trkpt><trkpt lat="32.3939439" lon="-111.5277191"><ele>786.0</ele><time>2026-04-14T18:16:41.996Z</time></trkpt><trkpt lat="32.3938479" lon="-111.5276501"><ele>786.0</ele><time>2026-04-14T18:16:42.996Z</time></trkpt><trkpt lat="32.3937509" lon="-111.5275735"><ele>786.0</ele><time>2026-04-14T18:16:43.996Z</time></trkpt><trkpt lat="32.3936622" lon="-111.5274936"><ele>786.0</ele><time>2026-04-14T18:16:44.995Z</time></trkpt><trkpt lat="32.39358" lon="-111.5273922"><ele>786.5</ele><time>2026-04-14T18:16:45.996Z</time></trkpt><trkpt lat="32.3935081" lon="-111.5272743"><ele>787.0</ele><time>2026-04-14T18:16:46.996Z</time></trkpt><trkpt lat="32.3934488" lon="-111.5271349"><ele>787.5</ele><time>2026-04-14T18:16:47.996Z</time></trkpt><trkpt lat="32.3933931" lon="-111.5269979"><ele>788.0</ele><time>2026-04-14T18:16:48.996Z</time></trkpt><trkpt lat="32.3933398" lon="-111.5268862"><ele>788.0</ele><time>2026-04-14T18:16:49.996Z</time></trkpt><trkpt lat="32.3932834" lon="-111.5268015"><ele>788.0</ele><time>2026-04-14T18:16:50.996Z</time></trkpt><trkpt lat="32.3932145" lon="-111.5267333"><ele>788.0</ele><time>2026-04-14T18:16:51.996Z</time></trkpt><trkpt lat="32.3931321" lon="-111.5266689"><ele>788.0</ele><time>2026-04-14T18:16:52.996Z</time></trkpt><trkpt lat="32.3930267" lon="-111.5266075"><ele>788.0</ele><time>2026-04-14T18:16:53.997Z</time></trkpt><trkpt lat="32.3929048" lon="-111.5265425"><ele>787.75</ele><time>2026-04-14T18:16:54.996Z</time></trkpt><trkpt lat="32.3927882" lon="-111.5264718"><ele>787.5</ele><time>2026-04-14T18:16:55.997Z</time></trkpt><trkpt lat="32.392667" lon="-111.5263988"><ele>787.25</ele><time>2026-04-14T18:16:56.997Z</time></trkpt><trkpt lat="32.3925493" lon="-111.5263286"><ele>787.0</ele><time>2026-04-14T18:16:57.997Z</time></trkpt><trkpt lat="32.392442" lon="-111.5262697"><ele>787.75</ele><time>2026-04-14T18:16:58.997Z</time></trkpt><trkpt lat="32.3923478" lon="-111.5262029"><ele>788.5</ele><time>2026-04-14T18:16:59.996Z</time></trkpt><trkpt lat="32.3922623" lon="-111.526133"><ele>789.25</ele><time>2026-04-14T18:17:00.997Z</time></trkpt><trkpt lat="32.3921841" lon="-111.5260409"><ele>790.0</ele><time>2026-04-14T18:17:01.997Z</time></trkpt><trkpt lat="32.3921015" lon="-111.5259248"><ele>790.0</ele><time>2026-04-14T18:17:02.997Z</time></trkpt><trkpt lat="32.3920171" lon="-111.5258049"><ele>790.0</ele><time>2026-04-14T18:17:03.997Z</time></trkpt><trkpt lat="32.3919351" lon="-111.5256934"><ele>790.0</ele><time>2026-04-14T18:17:04.997Z</time></trkpt><trkpt lat="32.3918518" lon="-111.5255782"><ele>790.0</ele><time>2026-04-14T18:17:05.997Z</time></trkpt><trkpt lat="32.3917657" lon="-111.5254602"><ele>790.25</ele><time>2026-04-14T18:17:06.997Z</time></trkpt><trkpt lat="32.3916745" lon="-111.5253392"><ele>790.5</ele><time>2026-04-14T18:17:07.997Z</time></trkpt><trkpt lat="32.3915746" lon="-111.5252191"><ele>790.75</ele><time>2026-04-14T18:17:08.997Z</time></trkpt><trkpt lat="32.3914684" lon="-111.5250995"><ele>791.0</ele><time>2026-04-14T18:17:09.996Z</time></trkpt><trkpt lat="32.3913616" lon="-111.5249923"><ele>790.5</ele><time>2026-04-14T18:17:10.996Z</time></trkpt><trkpt lat="32.3912582" lon="-111.5248977"><ele>790.0</ele><time>2026-04-14T18:17:11.997Z</time></trkpt><trkpt lat="32.3911484" lon="-111.5248031"><ele>789.5</ele><time>2026-04-14T18:17:12.997Z</time></trkpt><trkpt lat="32.3910378" lon="-111.5247065"><ele>789.0</ele><time>2026-04-14T18:17:13.997Z</time></trkpt><trkpt lat="32.3909238" lon="-111.5246051"><ele>788.75</ele><time>2026-04-14T18:17:14.997Z</time></trkpt><trkpt lat="32.3908172" lon="-111.524511"><ele>788.5</ele><time>2026-04-14T18:17:15.997Z</time></trkpt><trkpt lat="32.3907159" lon="-111.5244197"><ele>788.25</ele><time>2026-04-14T18:17:16.996Z</time></trkpt><trkpt lat="32.3906198" lon="-111.5243311"><ele>788.0</ele><time>2026-04-14T18:17:17.997Z</time></trkpt><trkpt lat="32.3905306" lon="-111.5242427"><ele>788.0</ele><time>2026-04-14T18:17:18.997Z</time></trkpt><trkpt lat="32.3904438" lon="-111.5241543"><ele>788.0</ele><time>2026-04-14T18:17:19.997Z</time></trkpt><trkpt lat="32.3903671" lon="-111.5240667"><ele>788.0</ele><time>2026-04-14T18:17:20.997Z</time></trkpt><trkpt lat="32.3903" lon="-111.5239746"><ele>788.0</ele><time>2026-04-14T18:17:21.997Z</time></trkpt><trkpt lat="32.39024" lon="-111.5238753"><ele>788.0</ele><time>2026-04-14T18:17:22.996Z</time></trkpt><trkpt lat="32.3901949" lon="-111.5237768"><ele>787.5999999999999</ele><time>2026-04-14T18:17:23.997Z</time></trkpt><trkpt lat="32.390153" lon="-111.5236758"><ele>787.1999999999999</ele><time>2026-04-14T18:17:24.997Z</time></trkpt><trkpt lat="32.3901204" lon="-111.5235694"><ele>786.8</ele><time>2026-04-14T18:17:25.997Z</time></trkpt><trkpt lat="32.3901" lon="-111.5234554"><ele>786.4</ele><time>2026-04-14T18:17:26.997Z</time></trkpt><trkpt lat="32.3900914" lon="-111.5233367"><ele>786.0</ele><time>2026-04-14T18:17:27.996Z</time></trkpt><trkpt lat="32.390083" lon="-111.5232171"><ele>786.0</ele><time>2026-04-14T18:17:28.997Z</time></trkpt><trkpt lat="32.3900769" lon="-111.5230941"><ele>786.0</ele><time>2026-04-14T18:17:29.997Z</time></trkpt><trkpt lat="32.3900622" lon="-111.5229625"><ele>786.0</ele><time>2026-04-14T18:17:30.997Z</time></trkpt><trkpt lat="32.3900441" lon="-111.5228132"><ele>786.0</ele><time>2026-04-14T18:17:31.997Z</time></trkpt><trkpt lat="32.3900324" lon="-111.5226585"><ele>786.25</ele><time>2026-04-14T18:17:32.997Z</time></trkpt><trkpt lat="32.3900213" lon="-111.5224989"><ele>786.5</ele><time>2026-04-14T18:17:33.997Z</time></trkpt><trkpt lat="32.3900051" lon="-111.5223469"><ele>786.75</ele><time>2026-04-14T18:17:34.997Z</time></trkpt><trkpt lat="32.3899896" lon="-111.5221955"><ele>787.0</ele><time>2026-04-14T18:17:35.997Z</time></trkpt><trkpt lat="32.3899785" lon="-111.5220454"><ele>787.5</ele><time>2026-04-14T18:17:36.997Z</time></trkpt><trkpt lat="32.3899755" lon="-111.5218934"><ele>788.0</ele><time>2026-04-14T18:17:37.997Z</time></trkpt><trkpt lat="32.38998" lon="-111.5217535"><ele>788.5</ele><time>2026-04-14T18:17:38.996Z</time></trkpt><trkpt lat="32.3899896" lon="-111.5216267"><ele>789.0</ele><time>2026-04-14T18:17:39.997Z</time></trkpt><trkpt lat="32.3899961" lon="-111.5215133"><ele>789.0</ele><time>2026-04-14T18:17:40.997Z</time></trkpt><trkpt lat="32.3899946" lon="-111.5214109"><ele>789.0</ele><time>2026-04-14T18:17:41.997Z</time></trkpt><trkpt lat="32.3899832" lon="-111.5213131"><ele>789.0</ele><time>2026-04-14T18:17:42.997Z</time></trkpt><trkpt lat="32.3899608" lon="-111.521224"><ele>789.0</ele><time>2026-04-14T18:17:43.997Z</time></trkpt><trkpt lat="32.3899189" lon="-111.5211438"><ele>789.0</ele><time>2026-04-14T18:17:44.996Z</time></trkpt><trkpt lat="32.3898551" lon="-111.5210639"><ele>789.0</ele><time>2026-04-14T18:17:45.997Z</time></trkpt><trkpt lat="32.3897817" lon="-111.5209791"><ele>789.4000000000001</ele><time>2026-04-14T18:17:46.997Z</time></trkpt><trkpt lat="32.3896924" lon="-111.5208988"><ele>789.8</ele><time>2026-04-14T18:17:47.997Z</time></trkpt><trkpt lat="32.3896075" lon="-111.5208465"><ele>790.2</ele><time>2026-04-14T18:17:48.997Z</time></trkpt><trkpt lat="32.3895233" lon="-111.5208025"><ele>790.5999999999999</ele><time>2026-04-14T18:17:49.996Z</time></trkpt><trkpt lat="32.3894172" lon="-111.5207736"><ele>791.0</ele><time>2026-04-14T18:17:50.996Z</time></trkpt><trkpt lat="32.3892865" lon="-111.52077"><ele>791.25</ele><time>2026-04-14T18:17:51.997Z</time></trkpt><trkpt lat="32.3891573" lon="-111.5207849"><ele>791.5</ele><time>2026-04-14T18:17:52.997Z</time></trkpt><trkpt lat="32.3890177" lon="-111.5208183"><ele>791.75</ele><time>2026-04-14T18:17:53.996Z</time></trkpt><trkpt lat="32.3888871" lon="-111.5208564"><ele>792.0</ele><time>2026-04-14T18:17:54.997Z</time></trkpt><trkpt lat="32.3887811" lon="-111.5208908"><ele>791.6666666666666</ele><time>2026-04-14T18:17:55.997Z</time></trkpt><trkpt lat="32.3886964" lon="-111.5209222"><ele>791.3333333333333</ele><time>2026-04-14T18:17:56.997Z</time></trkpt><trkpt lat="32.3886217" lon="-111.5209416"><ele>791.0</ele><time>2026-04-14T18:17:57.997Z</time></trkpt><trkpt lat="32.3885505" lon="-111.5209558"><ele>790.6666666666666</ele><time>2026-04-14T18:17:58.997Z</time></trkpt><trkpt lat="32.3884264" lon="-111.520933"><ele>790.3333333333333</ele><time>2026-04-14T18:18:00.997Z</time></trkpt><trkpt lat="32.388363" lon="-111.5208998"><ele>790.0</ele><time>2026-04-14T18:18:01.996Z</time></trkpt><trkpt lat="32.3882961" lon="-111.5208442"><ele>789.9999999999999</ele><time>2026-04-14T18:18:02.996Z</time></trkpt><trkpt lat="32.3882232" lon="-111.5207823"><ele>790.0</ele><time>2026-04-14T18:18:03.997Z</time></trkpt><trkpt lat="32.3881439" lon="-111.5207235"><ele>790.0</ele><time>2026-04-14T18:18:04.997Z</time></trkpt><trkpt lat="32.3880729" lon="-111.5206672"><ele>790.0</ele><time>2026-04-14T18:18:05.997Z</time></trkpt><trkpt lat="32.3880183" lon="-111.5205917"><ele>789.9999999999999</ele><time>2026-04-14T18:18:06.997Z</time></trkpt><trkpt lat="32.3879808" lon="-111.5205091"><ele>790.0</ele><time>2026-04-14T18:18:07.997Z</time></trkpt><trkpt lat="32.387956" lon="-111.5204167"><ele>791.25</ele><time>2026-04-14T18:18:08.997Z</time></trkpt><trkpt lat="32.3879404" lon="-111.5203044"><ele>792.5</ele><time>2026-04-14T18:18:09.997Z</time></trkpt><trkpt lat="32.3879339" lon="-111.5201686"><ele>793.75</ele><time>2026-04-14T18:18:10.997Z</time></trkpt><trkpt lat="32.3879292" lon="-111.5200207"><ele>795.0</ele><time>2026-04-14T18:18:11.996Z</time></trkpt><trkpt lat="32.3879299" lon="-111.5198702"><ele>795.0</ele><time>2026-04-14T18:18:12.996Z</time></trkpt><trkpt lat="32.3879362" lon="-111.5197374"><ele>795.0</ele><time>2026-04-14T18:18:13.997Z</time></trkpt><trkpt lat="32.3879428" lon="-111.5196107"><ele>795.0</ele><time>2026-04-14T18:18:14.997Z</time></trkpt><trkpt lat="32.3879346" lon="-111.5195056"><ele>795.0</ele><time>2026-04-14T18:18:15.997Z</time></trkpt><trkpt lat="32.3879127" lon="-111.5193934"><ele>795.0</ele><time>2026-04-14T18:18:16.996Z</time></trkpt><trkpt lat="32.3878929" lon="-111.5192789"><ele>795.0</ele><time>2026-04-14T18:18:17.997Z</time></trkpt><trkpt lat="32.3878752" lon="-111.5191584"><ele>795.0</ele><time>2026-04-14T18:18:18.997Z</time></trkpt><trkpt lat="32.3878581" lon="-111.5190371"><ele>795.0</ele><time>2026-04-14T18:18:19.997Z</time></trkpt><trkpt lat="32.3878474" lon="-111.5189018"><ele>795.0</ele><time>2026-04-14T18:18:20.997Z</time></trkpt><trkpt lat="32.3878454" lon="-111.5187556"><ele>795.0</ele><time>2026-04-14T18:18:21.996Z</time></trkpt><trkpt lat="32.3878413" lon="-111.5186029"><ele>795.75</ele><time>2026-04-14T18:18:22.997Z</time></trkpt><trkpt lat="32.3878198" lon="-111.5184557"><ele>796.5</ele><time>2026-04-14T18:18:23.996Z</time></trkpt><trkpt lat="32.3877959" lon="-111.518325"><ele>797.25</ele><time>2026-04-14T18:18:24.997Z</time></trkpt><trkpt lat="32.3877744" lon="-111.518205"><ele>798.0</ele><time>2026-04-14T18:18:25.997Z</time></trkpt><trkpt lat="32.3877547" lon="-111.5180756"><ele>798.0</ele><time>2026-04-14T18:18:26.997Z</time></trkpt><trkpt lat="32.3877334" lon="-111.5179293"><ele>798.0</ele><time>2026-04-14T18:18:27.996Z</time></trkpt><trkpt lat="32.3877082" lon="-111.5177822"><ele>798.0</ele><time>2026-04-14T18:18:28.997Z</time></trkpt><trkpt lat="32.3876902" lon="-111.517653"><ele>798.0</ele><time>2026-04-14T18:18:29.997Z</time></trkpt><trkpt lat="32.3876709" lon="-111.5175314"><ele>798.5</ele><time>2026-04-14T18:18:30.997Z</time></trkpt><trkpt lat="32.3876452" lon="-111.5174056"><ele>799.0</ele><time>2026-04-14T18:18:31.997Z</time></trkpt><trkpt lat="32.3876149" lon="-111.5172593"><ele>799.5</ele><time>2026-04-14T18:18:32.997Z</time></trkpt><trkpt lat="32.3875736" lon="-111.5170961"><ele>800.0</ele><time>2026-04-14T18:18:33.997Z</time></trkpt><trkpt lat="32.3875317" lon="-111.5169334"><ele>800.75</ele><time>2026-04-14T18:18:34.997Z</time></trkpt><trkpt lat="32.3874984" lon="-111.516789"><ele>801.5</ele><time>2026-04-14T18:18:35.997Z</time></trkpt><trkpt lat="32.3874745" lon="-111.5166494"><ele>802.25</ele><time>2026-04-14T18:18:36.996Z</time></trkpt><trkpt lat="32.3874398" lon="-111.5165072"><ele>803.0</ele><time>2026-04-14T18:18:37.997Z</time></trkpt><trkpt lat="32.3873965" lon="-111.5163641"><ele>803.0</ele><time>2026-04-14T18:18:38.997Z</time></trkpt><trkpt lat="32.3873173" lon="-111.5162383"><ele>803.0</ele><time>2026-04-14T18:18:39.996Z</time></trkpt><trkpt lat="32.3872281" lon="-111.5161172"><ele>803.0</ele><time>2026-04-14T18:18:40.997Z</time></trkpt><trkpt lat="32.3871325" lon="-111.5160009"><ele>803.0</ele><time>2026-04-14T18:18:41.997Z</time></trkpt><trkpt lat="32.3870358" lon="-111.5158927"><ele>803.0</ele><time>2026-04-14T18:18:42.997Z</time></trkpt><trkpt lat="32.3869261" lon="-111.515817"><ele>803.0</ele><time>2026-04-14T18:18:43.997Z</time></trkpt><trkpt lat="32.3868094" lon="-111.5157609"><ele>803.0</ele><time>2026-04-14T18:18:44.996Z</time></trkpt><trkpt lat="32.3866918" lon="-111.5157115"><ele>803.0</ele><time>2026-04-14T18:18:45.997Z</time></trkpt><trkpt lat="32.3865835" lon="-111.5156679"><ele>803.0000000000001</ele><time>2026-04-14T18:18:46.996Z</time></trkpt><trkpt lat="32.3864964" lon="-111.5156208"><ele>803.0</ele><time>2026-04-14T18:18:47.996Z</time></trkpt><trkpt lat="32.3864248" lon="-111.5155676"><ele>803.0</ele><time>2026-04-14T18:18:48.997Z</time></trkpt><trkpt lat="32.3863691" lon="-111.5155049"><ele>803.0</ele><time>2026-04-14T18:18:49.996Z</time></trkpt><trkpt lat="32.3863311" lon="-111.5154272"><ele>803.0000000000001</ele><time>2026-04-14T18:18:50.997Z</time></trkpt><trkpt lat="32.3862978" lon="-111.5153442"><ele>803.0</ele><time>2026-04-14T18:18:51.997Z</time></trkpt><trkpt lat="32.386279" lon="-111.5152324"><ele>803.0</ele><time>2026-04-14T18:18:52.996Z</time></trkpt><trkpt lat="32.3862727" lon="-111.5150907"><ele>803.0</ele><time>2026-04-14T18:18:53.996Z</time></trkpt><trkpt lat="32.3862588" lon="-111.5149509"><ele>803.0</ele><time>2026-04-14T18:18:54.997Z</time></trkpt><trkpt lat="32.3862355" lon="-111.5148188"><ele>803.0</ele><time>2026-04-14T18:18:55.996Z</time></trkpt><trkpt lat="32.3862069" lon="-111.5146788"><ele>803.5</ele><time>2026-04-14T18:18:56.997Z</time></trkpt><trkpt lat="32.3861487" lon="-111.5145506"><ele>804.0</ele><time>2026-04-14T18:18:57.997Z</time></trkpt><trkpt lat="32.3860857" lon="-111.5144277"><ele>804.5</ele><time>2026-04-14T18:18:58.997Z</time></trkpt><trkpt lat="32.3860086" lon="-111.5143206"><ele>805.0</ele><time>2026-04-14T18:18:59.997Z</time></trkpt><trkpt lat="32.3859217" lon="-111.5142278"><ele>805.0</ele><time>2026-04-14T18:19:00.998Z</time></trkpt><trkpt lat="32.3858317" lon="-111.5141384"><ele>805.0</ele><time>2026-04-14T18:19:01.998Z</time></trkpt><trkpt lat="32.3857508" lon="-111.514044"><ele>805.0</ele><time>2026-04-14T18:19:02.997Z</time></trkpt><trkpt lat="32.3856789" lon="-111.5139476"><ele>805.0</ele><time>2026-04-14T18:19:03.997Z</time></trkpt><trkpt lat="32.38562" lon="-111.5138376"><ele>805.0</ele><time>2026-04-14T18:19:04.997Z</time></trkpt><trkpt lat="32.3855888" lon="-111.5137206"><ele>805.0</ele><time>2026-04-14T18:19:05.997Z</time></trkpt><trkpt lat="32.3855587" lon="-111.5136091"><ele>805.0</ele><time>2026-04-14T18:19:06.997Z</time></trkpt><trkpt lat="32.385509" lon="-111.5135088"><ele>805.0</ele><time>2026-04-14T18:19:07.998Z</time></trkpt><trkpt lat="32.3854419" lon="-111.5134102"><ele>805.0</ele><time>2026-04-14T18:19:08.998Z</time></trkpt><trkpt lat="32.3853446" lon="-111.5133205"><ele>805.0</ele><time>2026-04-14T18:19:09.998Z</time></trkpt><trkpt lat="32.3852405" lon="-111.5132405"><ele>805.0</ele><time>2026-04-14T18:19:10.998Z</time></trkpt><trkpt lat="32.3851408" lon="-111.5131689"><ele>805.0</ele><time>2026-04-14T18:19:11.998Z</time></trkpt><trkpt lat="32.3850484" lon="-111.513107"><ele>805.0</ele><time>2026-04-14T18:19:12.997Z</time></trkpt><trkpt lat="32.384951" lon="-111.513046"><ele>805.0</ele><time>2026-04-14T18:19:13.998Z</time></trkpt><trkpt lat="32.3848429" lon="-111.5129868"><ele>805.0</ele><time>2026-04-14T18:19:14.998Z</time></trkpt><trkpt lat="32.3847363" lon="-111.5129272"><ele>805.0</ele><time>2026-04-14T18:19:15.997Z</time></trkpt><trkpt lat="32.3846385" lon="-111.5128738"><ele>805.0</ele><time>2026-04-14T18:19:16.998Z</time></trkpt><trkpt lat="32.3845405" lon="-111.5128167"><ele>804.75</ele><time>2026-04-14T18:19:17.998Z</time></trkpt><trkpt lat="32.3844282" lon="-111.5127417"><ele>804.5</ele><time>2026-04-14T18:19:18.998Z</time></trkpt><trkpt lat="32.3843035" lon="-111.5126519"><ele>804.25</ele><time>2026-04-14T18:19:19.997Z</time></trkpt><trkpt lat="32.3841724" lon="-111.5125477"><ele>804.0</ele><time>2026-04-14T18:19:20.998Z</time></trkpt><trkpt lat="32.3840419" lon="-111.5124293"><ele>804.0</ele><time>2026-04-14T18:19:21.998Z</time></trkpt><trkpt lat="32.3839184" lon="-111.5123002"><ele>804.0</ele><time>2026-04-14T18:19:22.998Z</time></trkpt><trkpt lat="32.3838007" lon="-111.5121769"><ele>804.0</ele><time>2026-04-14T18:19:23.997Z</time></trkpt><trkpt lat="32.3836854" lon="-111.5120651"><ele>803.75</ele><time>2026-04-14T18:19:24.997Z</time></trkpt><trkpt lat="32.3835652" lon="-111.5119806"><ele>803.5</ele><time>2026-04-14T18:19:25.998Z</time></trkpt><trkpt lat="32.3834336" lon="-111.511916"><ele>803.25</ele><time>2026-04-14T18:19:26.998Z</time></trkpt><trkpt lat="32.3832923" lon="-111.5118696"><ele>803.0</ele><time>2026-04-14T18:19:27.997Z</time></trkpt><trkpt lat="32.3831503" lon="-111.5118348"><ele>802.0</ele><time>2026-04-14T18:19:28.998Z</time></trkpt><trkpt lat="32.3830055" lon="-111.511799"><ele>801.0</ele><time>2026-04-14T18:19:29.998Z</time></trkpt><trkpt lat="32.3828612" lon="-111.5117538"><ele>800.0</ele><time>2026-04-14T18:19:30.997Z</time></trkpt><trkpt lat="32.3827175" lon="-111.5117034"><ele>799.0</ele><time>2026-04-14T18:19:31.997Z</time></trkpt><trkpt lat="32.3825796" lon="-111.5116584"><ele>799.0</ele><time>2026-04-14T18:19:32.997Z</time></trkpt><trkpt lat="32.38245" lon="-111.5116231"><ele>799.0</ele><time>2026-04-14T18:19:33.998Z</time></trkpt><trkpt lat="32.382328" lon="-111.5115995"><ele>799.0</ele><time>2026-04-14T18:19:34.998Z</time></trkpt><trkpt lat="32.382214" lon="-111.5115848"><ele>799.0</ele><time>2026-04-14T18:19:35.998Z</time></trkpt><trkpt lat="32.3821093" lon="-111.5115685"><ele>799.0</ele><time>2026-04-14T18:19:36.998Z</time></trkpt><trkpt lat="32.3820137" lon="-111.5115337"><ele>799.0</ele><time>2026-04-14T18:19:37.997Z</time></trkpt><trkpt lat="32.3819291" lon="-111.5114708"><ele>799.0</ele><time>2026-04-14T18:19:38.998Z</time></trkpt><trkpt lat="32.3818625" lon="-111.511375"><ele>799.0</ele><time>2026-04-14T18:19:39.998Z</time></trkpt><trkpt lat="32.3818024" lon="-111.5112644"><ele>799.0</ele><time>2026-04-14T18:19:40.997Z</time></trkpt><trkpt lat="32.3817579" lon="-111.5111374"><ele>799.0</ele><time>2026-04-14T18:19:41.998Z</time></trkpt><trkpt lat="32.3817206" lon="-111.5109949"><ele>799.0</ele><time>2026-04-14T18:19:42.998Z</time></trkpt><trkpt lat="32.3816897" lon="-111.5108526"><ele>799.0</ele><time>2026-04-14T18:19:43.997Z</time></trkpt><trkpt lat="32.3816622" lon="-111.510715"><ele>799.0</ele><time>2026-04-14T18:19:44.998Z</time></trkpt><trkpt lat="32.3816418" lon="-111.5105754"><ele>799.0</ele><time>2026-04-14T18:19:45.998Z</time></trkpt><trkpt lat="32.3816384" lon="-111.5104164"><ele>799.0</ele><time>2026-04-14T18:19:46.998Z</time></trkpt><trkpt lat="32.3816465" lon="-111.5102579"><ele>799.0</ele><time>2026-04-14T18:19:47.998Z</time></trkpt><trkpt lat="32.3816796" lon="-111.510107"><ele>799.0</ele><time>2026-04-14T18:19:48.998Z</time></trkpt><trkpt lat="32.3817252" lon="-111.5099581"><ele>798.75</ele><time>2026-04-14T18:19:49.998Z</time></trkpt><trkpt lat="32.3817768" lon="-111.5098115"><ele>798.5</ele><time>2026-04-14T18:19:50.998Z</time></trkpt><trkpt lat="32.3818482" lon="-111.5096689"><ele>798.25</ele><time>2026-04-14T18:19:51.998Z</time></trkpt><trkpt lat="32.3819389" lon="-111.5095205"><ele>798.0</ele><time>2026-04-14T18:19:52.998Z</time></trkpt><trkpt lat="32.3820323" lon="-111.5093716"><ele>798.0</ele><time>2026-04-14T18:19:53.998Z</time></trkpt><trkpt lat="32.3821237" lon="-111.5092124"><ele>798.0</ele><time>2026-04-14T18:19:54.997Z</time></trkpt><trkpt lat="32.3822078" lon="-111.5090357"><ele>798.0</ele><time>2026-04-14T18:19:55.998Z</time></trkpt><trkpt lat="32.3822834" lon="-111.5088537"><ele>799.3333333333333</ele><time>2026-04-14T18:19:56.998Z</time></trkpt><trkpt lat="32.3823552" lon="-111.508674"><ele>800.6666666666666</ele><time>2026-04-14T18:19:57.997Z</time></trkpt><trkpt lat="32.3824243" lon="-111.508503"><ele>802.0</ele><time>2026-04-14T18:19:58.997Z</time></trkpt><trkpt lat="32.3824882" lon="-111.5083421"><ele>802.0</ele><time>2026-04-14T18:19:59.997Z</time></trkpt><trkpt lat="32.3825489" lon="-111.5081885"><ele>802.0</ele><time>2026-04-14T18:20:00.998Z</time></trkpt><trkpt lat="32.3826089" lon="-111.5080411"><ele>802.0</ele><time>2026-04-14T18:20:01.997Z</time></trkpt><trkpt lat="32.3826671" lon="-111.5078975"><ele>802.0</ele><time>2026-04-14T18:20:02.998Z</time></trkpt><trkpt lat="32.3827053" lon="-111.5077441"><ele>801.5</ele><time>2026-04-14T18:20:03.997Z</time></trkpt><trkpt lat="32.3827357" lon="-111.5075938"><ele>801.0</ele><time>2026-04-14T18:20:04.998Z</time></trkpt><trkpt lat="32.3827536" lon="-111.5074428"><ele>800.5</ele><time>2026-04-14T18:20:05.998Z</time></trkpt><trkpt lat="32.3827729" lon="-111.507278"><ele>800.0</ele><time>2026-04-14T18:20:06.998Z</time></trkpt><trkpt lat="32.3827977" lon="-111.5071049"><ele>800.25</ele><time>2026-04-14T18:20:07.997Z</time></trkpt><trkpt lat="32.3828255" lon="-111.5069386"><ele>800.5</ele><time>2026-04-14T18:20:08.998Z</time></trkpt><trkpt lat="32.3828754" lon="-111.5067705"><ele>800.75</ele><time>2026-04-14T18:20:09.998Z</time></trkpt><trkpt lat="32.3829449" lon="-111.5066077"><ele>801.0</ele><time>2026-04-14T18:20:10.997Z</time></trkpt><trkpt lat="32.3830115" lon="-111.5064628"><ele>801.5</ele><time>2026-04-14T18:20:11.998Z</time></trkpt><trkpt lat="32.3830773" lon="-111.5063286"><ele>802.0</ele><time>2026-04-14T18:20:12.998Z</time></trkpt><trkpt lat="32.3831449" lon="-111.5062159"><ele>802.5</ele><time>2026-04-14T18:20:13.998Z</time></trkpt><trkpt lat="32.383212" lon="-111.5061131"><ele>803.0</ele><time>2026-04-14T18:20:14.997Z</time></trkpt><trkpt lat="32.3832724" lon="-111.5060182"><ele>803.0</ele><time>2026-04-14T18:20:15.998Z</time></trkpt><trkpt lat="32.3833194" lon="-111.5059141"><ele>803.0</ele><time>2026-04-14T18:20:16.998Z</time></trkpt><trkpt lat="32.3833492" lon="-111.5058021"><ele>803.0</ele><time>2026-04-14T18:20:17.997Z</time></trkpt><trkpt lat="32.3833657" lon="-111.5056775"><ele>803.0</ele><time>2026-04-14T18:20:18.997Z</time></trkpt><trkpt lat="32.383376" lon="-111.5055434"><ele>803.0</ele><time>2026-04-14T18:20:19.998Z</time></trkpt><trkpt lat="32.383366" lon="-111.5054116"><ele>802.8</ele><time>2026-04-14T18:20:20.998Z</time></trkpt><trkpt lat="32.3833563" lon="-111.5052852"><ele>802.5999999999999</ele><time>2026-04-14T18:20:21.998Z</time></trkpt><trkpt lat="32.3833365" lon="-111.5051749"><ele>802.4000000000001</ele><time>2026-04-14T18:20:22.998Z</time></trkpt><trkpt lat="32.3832871" lon="-111.5050825"><ele>802.2</ele><time>2026-04-14T18:20:23.997Z</time></trkpt><trkpt lat="32.3832106" lon="-111.5049958"><ele>802.0</ele><time>2026-04-14T18:20:24.998Z</time></trkpt><trkpt lat="32.383105" lon="-111.504925"><ele>801.5</ele><time>2026-04-14T18:20:25.998Z</time></trkpt><trkpt lat="32.3829887" lon="-111.5048517"><ele>801.0</ele><time>2026-04-14T18:20:26.997Z</time></trkpt><trkpt lat="32.3828468" lon="-111.5047985"><ele>800.5</ele><time>2026-04-14T18:20:27.997Z</time></trkpt><trkpt lat="32.3827184" lon="-111.5047514"><ele>800.0</ele><time>2026-04-14T18:20:28.998Z</time></trkpt><trkpt lat="32.3826007" lon="-111.5046952"><ele>800.0</ele><time>2026-04-14T18:20:29.998Z</time></trkpt><trkpt lat="32.3824817" lon="-111.5046033"><ele>800.0</ele><time>2026-04-14T18:20:30.998Z</time></trkpt><trkpt lat="32.3823565" lon="-111.5044997"><ele>800.0</ele><time>2026-04-14T18:20:31.998Z</time></trkpt><trkpt lat="32.3822398" lon="-111.5043692"><ele>799.0</ele><time>2026-04-14T18:20:32.998Z</time></trkpt><trkpt lat="32.3821401" lon="-111.5042506"><ele>798.0</ele><time>2026-04-14T18:20:33.998Z</time></trkpt><trkpt lat="32.3820569" lon="-111.5041494"><ele>797.0</ele><time>2026-04-14T18:20:34.998Z</time></trkpt><trkpt lat="32.3819829" lon="-111.5040557"><ele>796.0</ele><time>2026-04-14T18:20:35.997Z</time></trkpt><trkpt lat="32.3819128" lon="-111.5039578"><ele>796.0</ele><time>2026-04-14T18:20:36.997Z</time></trkpt><trkpt lat="32.3818513" lon="-111.5038427"><ele>796.0</ele><time>2026-04-14T18:20:37.998Z</time></trkpt><trkpt lat="32.3817956" lon="-111.5037009"><ele>796.0</ele><time>2026-04-14T18:20:38.997Z</time></trkpt><trkpt lat="32.3817408" lon="-111.5035586"><ele>796.0</ele><time>2026-04-14T18:20:39.998Z</time></trkpt><trkpt lat="32.3816941" lon="-111.5034301"><ele>796.25</ele><time>2026-04-14T18:20:40.997Z</time></trkpt><trkpt lat="32.3816536" lon="-111.5033099"><ele>796.5</ele><time>2026-04-14T18:20:41.997Z</time></trkpt><trkpt lat="32.3816037" lon="-111.5031967"><ele>796.75</ele><time>2026-04-14T18:20:42.998Z</time></trkpt><trkpt lat="32.3815303" lon="-111.5030869"><ele>797.0</ele><time>2026-04-14T18:20:43.998Z</time></trkpt><trkpt lat="32.3814432" lon="-111.5029745"><ele>796.3333333333334</ele><time>2026-04-14T18:20:44.998Z</time></trkpt><trkpt lat="32.3813063" lon="-111.5028536"><ele>795.6666666666667</ele><time>2026-04-14T18:20:45.998Z</time></trkpt><trkpt lat="32.3811754" lon="-111.5027414"><ele>795.0</ele><time>2026-04-14T18:20:46.998Z</time></trkpt><trkpt lat="32.3810457" lon="-111.5026208"><ele>795.0</ele><time>2026-04-14T18:20:47.997Z</time></trkpt><trkpt lat="32.3809179" lon="-111.502498"><ele>795.0</ele><time>2026-04-14T18:20:48.998Z</time></trkpt><trkpt lat="32.3808035" lon="-111.5023707"><ele>795.0</ele><time>2026-04-14T18:20:49.998Z</time></trkpt><trkpt lat="32.3807011" lon="-111.5022556"><ele>795.0</ele><time>2026-04-14T18:20:50.997Z</time></trkpt><trkpt lat="32.3806056" lon="-111.5021499"><ele>795.0</ele><time>2026-04-14T18:20:51.997Z</time></trkpt><trkpt lat="32.3805211" lon="-111.5020508"><ele>795.0</ele><time>2026-04-14T18:20:52.997Z</time></trkpt><trkpt lat="32.3804427" lon="-111.5019526"><ele>795.0</ele><time>2026-04-14T18:20:53.998Z</time></trkpt><trkpt lat="32.3803701" lon="-111.5018531"><ele>794.0</ele><time>2026-04-14T18:20:54.997Z</time></trkpt><trkpt lat="32.3803009" lon="-111.5017471"><ele>793.0</ele><time>2026-04-14T18:20:55.997Z</time></trkpt><trkpt lat="32.3802291" lon="-111.5016403"><ele>792.0</ele><time>2026-04-14T18:20:56.998Z</time></trkpt><trkpt lat="32.3801552" lon="-111.5015386"><ele>791.0</ele><time>2026-04-14T18:20:57.998Z</time></trkpt><trkpt lat="32.3800766" lon="-111.5014211"><ele>791.0</ele><time>2026-04-14T18:20:58.997Z</time></trkpt><trkpt lat="32.3799968" lon="-111.5012973"><ele>791.0</ele><time>2026-04-14T18:20:59.998Z</time></trkpt><trkpt lat="32.3799101" lon="-111.5011731"><ele>791.0</ele><time>2026-04-14T18:21:00.998Z</time></trkpt><trkpt lat="32.3798034" lon="-111.5010442"><ele>791.0</ele><time>2026-04-14T18:21:01.997Z</time></trkpt><trkpt lat="32.3796753" lon="-111.5009146"><ele>790.3333333333334</ele><time>2026-04-14T18:21:02.998Z</time></trkpt><trkpt lat="32.3795448" lon="-111.5007928"><ele>789.6666666666667</ele><time>2026-04-14T18:21:03.997Z</time></trkpt><trkpt lat="32.3794192" lon="-111.5006779"><ele>789.0</ele><time>2026-04-14T18:21:04.999Z</time></trkpt><trkpt lat="32.3792869" lon="-111.5005621"><ele>789.0</ele><time>2026-04-14T18:21:05.998Z</time></trkpt><trkpt lat="32.3791591" lon="-111.500458"><ele>789.0</ele><time>2026-04-14T18:21:06.998Z</time></trkpt><trkpt lat="32.3790459" lon="-111.5003738"><ele>789.0</ele><time>2026-04-14T18:21:07.998Z</time></trkpt><trkpt lat="32.3789426" lon="-111.5002976"><ele>789.0</ele><time>2026-04-14T18:21:08.999Z</time></trkpt><trkpt lat="32.3788433" lon="-111.5002114"><ele>788.0</ele><time>2026-04-14T18:21:09.999Z</time></trkpt><trkpt lat="32.3787446" lon="-111.500119"><ele>787.0</ele><time>2026-04-14T18:21:10.999Z</time></trkpt><trkpt lat="32.3786536" lon="-111.4999753"><ele>786.0</ele><time>2026-04-14T18:21:11.998Z</time></trkpt><trkpt lat="32.378574" lon="-111.4998265"><ele>785.0</ele><time>2026-04-14T18:21:12.999Z</time></trkpt><trkpt lat="32.3785087" lon="-111.4996756"><ele>784.75</ele><time>2026-04-14T18:21:13.998Z</time></trkpt><trkpt lat="32.3784488" lon="-111.499525"><ele>784.5</ele><time>2026-04-14T18:21:14.999Z</time></trkpt><trkpt lat="32.3784026" lon="-111.4993771"><ele>784.25</ele><time>2026-04-14T18:21:15.998Z</time></trkpt><trkpt lat="32.3783649" lon="-111.4992428"><ele>784.0</ele><time>2026-04-14T18:21:16.998Z</time></trkpt><trkpt lat="32.3783216" lon="-111.4991129"><ele>784.0</ele><time>2026-04-14T18:21:17.998Z</time></trkpt><trkpt lat="32.3782566" lon="-111.4989498"><ele>784.0</ele><time>2026-04-14T18:21:18.999Z</time></trkpt><trkpt lat="32.378187" lon="-111.4987733"><ele>784.0</ele><time>2026-04-14T18:21:19.998Z</time></trkpt><trkpt lat="32.3781201" lon="-111.4986043"><ele>784.25</ele><time>2026-04-14T18:21:20.998Z</time></trkpt><trkpt lat="32.3780632" lon="-111.4984429"><ele>784.5</ele><time>2026-04-14T18:21:21.998Z</time></trkpt><trkpt lat="32.3780151" lon="-111.4982854"><ele>784.75</ele><time>2026-04-14T18:21:22.998Z</time></trkpt><trkpt lat="32.3779777" lon="-111.4981326"><ele>785.0</ele><time>2026-04-14T18:21:23.999Z</time></trkpt><trkpt lat="32.3779428" lon="-111.4979819"><ele>784.25</ele><time>2026-04-14T18:21:24.999Z</time></trkpt><trkpt lat="32.3779064" lon="-111.4978394"><ele>783.5</ele><time>2026-04-14T18:21:25.999Z</time></trkpt><trkpt lat="32.3778708" lon="-111.4976941"><ele>782.75</ele><time>2026-04-14T18:21:26.998Z</time></trkpt><trkpt lat="32.377843" lon="-111.4975455"><ele>782.0</ele><time>2026-04-14T18:21:27.998Z</time></trkpt><trkpt lat="32.3778279" lon="-111.4973999"><ele>782.0</ele><time>2026-04-14T18:21:28.998Z</time></trkpt><trkpt lat="32.3778275" lon="-111.4972504"><ele>782.0</ele><time>2026-04-14T18:21:29.998Z</time></trkpt><trkpt lat="32.3778318" lon="-111.4970936"><ele>782.0</ele><time>2026-04-14T18:21:30.998Z</time></trkpt><trkpt lat="32.3778528" lon="-111.4969227"><ele>782.0</ele><time>2026-04-14T18:21:31.999Z</time></trkpt><trkpt lat="32.3778698" lon="-111.4967564"><ele>781.5</ele><time>2026-04-14T18:21:32.998Z</time></trkpt><trkpt lat="32.3778888" lon="-111.4965921"><ele>781.0</ele><time>2026-04-14T18:21:33.999Z</time></trkpt><trkpt lat="32.3779096" lon="-111.4964358"><ele>780.5</ele><time>2026-04-14T18:21:34.999Z</time></trkpt><trkpt lat="32.3779374" lon="-111.4962845"><ele>780.0</ele><time>2026-04-14T18:21:35.998Z</time></trkpt><trkpt lat="32.3779731" lon="-111.4961345"><ele>779.75</ele><time>2026-04-14T18:21:36.999Z</time></trkpt><trkpt lat="32.3780079" lon="-111.4959821"><ele>779.5</ele><time>2026-04-14T18:21:37.998Z</time></trkpt><trkpt lat="32.3780344" lon="-111.4958191"><ele>779.25</ele><time>2026-04-14T18:21:38.998Z</time></trkpt><trkpt lat="32.3780382" lon="-111.4956476"><ele>779.0</ele><time>2026-04-14T18:21:39.999Z</time></trkpt><trkpt lat="32.378041" lon="-111.4954852"><ele>779.75</ele><time>2026-04-14T18:21:40.998Z</time></trkpt><trkpt lat="32.3780494" lon="-111.4953278"><ele>780.5</ele><time>2026-04-14T18:21:41.999Z</time></trkpt><trkpt lat="32.37807" lon="-111.4951595"><ele>781.25</ele><time>2026-04-14T18:21:42.999Z</time></trkpt><trkpt lat="32.3781028" lon="-111.4949951"><ele>782.0</ele><time>2026-04-14T18:21:43.999Z</time></trkpt><trkpt lat="32.3781432" lon="-111.4948396"><ele>782.0</ele><time>2026-04-14T18:21:44.999Z</time></trkpt><trkpt lat="32.3781919" lon="-111.4946838"><ele>782.0</ele><time>2026-04-14T18:21:45.998Z</time></trkpt><trkpt lat="32.3782374" lon="-111.4945286"><ele>782.0</ele><time>2026-04-14T18:21:46.999Z</time></trkpt><trkpt lat="32.3782765" lon="-111.4943785"><ele>782.0</ele><time>2026-04-14T18:21:47.999Z</time></trkpt><trkpt lat="32.3782996" lon="-111.4942281"><ele>781.75</ele><time>2026-04-14T18:21:48.998Z</time></trkpt><trkpt lat="32.3783132" lon="-111.4940634"><ele>781.5</ele><time>2026-04-14T18:21:49.998Z</time></trkpt><trkpt lat="32.3783125" lon="-111.4938884"><ele>781.25</ele><time>2026-04-14T18:21:50.998Z</time></trkpt><trkpt lat="32.3783082" lon="-111.4936997"><ele>781.0</ele><time>2026-04-14T18:21:51.999Z</time></trkpt><trkpt lat="32.3783064" lon="-111.4935055"><ele>780.6666666666666</ele><time>2026-04-14T18:21:52.998Z</time></trkpt><trkpt lat="32.3783075" lon="-111.4933098"><ele>780.3333333333333</ele><time>2026-04-14T18:21:53.999Z</time></trkpt><trkpt lat="32.3783105" lon="-111.4931188"><ele>780.0</ele><time>2026-04-14T18:21:54.998Z</time></trkpt><trkpt lat="32.3783165" lon="-111.4929336"><ele>779.25</ele><time>2026-04-14T18:21:55.999Z</time></trkpt><trkpt lat="32.378326" lon="-111.492757"><ele>778.5</ele><time>2026-04-14T18:21:56.998Z</time></trkpt><trkpt lat="32.3783354" lon="-111.4925877"><ele>777.75</ele><time>2026-04-14T18:21:57.999Z</time></trkpt><trkpt lat="32.3783415" lon="-111.4924303"><ele>777.0</ele><time>2026-04-14T18:21:58.998Z</time></trkpt><trkpt lat="32.3783444" lon="-111.4922839"><ele>777.0</ele><time>2026-04-14T18:21:59.998Z</time></trkpt><trkpt lat="32.3783475" lon="-111.4921388"><ele>777.0</ele><time>2026-04-14T18:22:00.999Z</time></trkpt><trkpt lat="32.3783537" lon="-111.4919722"><ele>777.0</ele><time>2026-04-14T18:22:01.999Z</time></trkpt><trkpt lat="32.3783586" lon="-111.4918002"><ele>777.0</ele><time>2026-04-14T18:22:02.999Z</time></trkpt><trkpt lat="32.3783498" lon="-111.4916144"><ele>776.25</ele><time>2026-04-14T18:22:03.999Z</time></trkpt><trkpt lat="32.3783324" lon="-111.4914449"><ele>775.5</ele><time>2026-04-14T18:22:04.999Z</time></trkpt><trkpt lat="32.3783228" lon="-111.4912745"><ele>774.75</ele><time>2026-04-14T18:22:05.999Z</time></trkpt><trkpt lat="32.3783155" lon="-111.4910986"><ele>774.0</ele><time>2026-04-14T18:22:06.998Z</time></trkpt><trkpt lat="32.3783288" lon="-111.4909292"><ele>774.0</ele><time>2026-04-14T18:22:07.998Z</time></trkpt><trkpt lat="32.378353" lon="-111.4907538"><ele>774.0</ele><time>2026-04-14T18:22:08.999Z</time></trkpt><trkpt lat="32.3783823" lon="-111.4905951"><ele>774.0</ele><time>2026-04-14T18:22:09.998Z</time></trkpt><trkpt lat="32.3784146" lon="-111.4904558"><ele>774.0</ele><time>2026-04-14T18:22:10.999Z</time></trkpt><trkpt lat="32.3784491" lon="-111.4903098"><ele>773.25</ele><time>2026-04-14T18:22:11.998Z</time></trkpt><trkpt lat="32.3784935" lon="-111.4901521"><ele>772.5</ele><time>2026-04-14T18:22:12.998Z</time></trkpt><trkpt lat="32.3785605" lon="-111.4899929"><ele>771.75</ele><time>2026-04-14T18:22:13.998Z</time></trkpt><trkpt lat="32.3786255" lon="-111.4898414"><ele>771.0</ele><time>2026-04-14T18:22:14.999Z</time></trkpt><trkpt lat="32.3786885" lon="-111.4896971"><ele>770.75</ele><time>2026-04-14T18:22:15.998Z</time></trkpt><trkpt lat="32.3787409" lon="-111.4895543"><ele>770.5</ele><time>2026-04-14T18:22:16.998Z</time></trkpt><trkpt lat="32.3787857" lon="-111.4894014"><ele>770.25</ele><time>2026-04-14T18:22:17.999Z</time></trkpt><trkpt lat="32.3788263" lon="-111.4892534"><ele>770.0</ele><time>2026-04-14T18:22:18.998Z</time></trkpt><trkpt lat="32.3788605" lon="-111.4891195"><ele>770.75</ele><time>2026-04-14T18:22:19.999Z</time></trkpt><trkpt lat="32.3788931" lon="-111.4889918"><ele>771.5</ele><time>2026-04-14T18:22:20.998Z</time></trkpt><trkpt lat="32.3789286" lon="-111.4888622"><ele>772.25</ele><time>2026-04-14T18:22:21.999Z</time></trkpt><trkpt lat="32.3789638" lon="-111.4887357"><ele>773.0</ele><time>2026-04-14T18:22:22.999Z</time></trkpt><trkpt lat="32.3789971" lon="-111.4886098"><ele>773.0</ele><time>2026-04-14T18:22:23.999Z</time></trkpt><trkpt lat="32.3790281" lon="-111.4884792"><ele>773.0</ele><time>2026-04-14T18:22:24.998Z</time></trkpt><trkpt lat="32.3790561" lon="-111.4883478"><ele>773.0</ele><time>2026-04-14T18:22:25.998Z</time></trkpt><trkpt lat="32.3790823" lon="-111.4882346"><ele>773.0</ele><time>2026-04-14T18:22:26.999Z</time></trkpt><trkpt lat="32.3791175" lon="-111.4881121"><ele>773.0</ele><time>2026-04-14T18:22:28.999Z</time></trkpt><trkpt lat="32.379138" lon="-111.4880411"><ele>773.0</ele><time>2026-04-14T18:22:30.999Z</time></trkpt></trkseg></trk></gpx>